<?xml version='1.0' encoding='UTF-8'?><gpx version="1.1" creator="JPX - https://github.com/jenetics/jpx" xmlns="http://www.topografix.com/GPX/1/1"><trk><trkseg><trkpt lat="37.03872149283171" lon="14.679630130215392"><ele>415.00000000000006</ele><time>2026-04-04T06:51:08.001Z</time></trkpt><trkpt lat="37.038803558039376" lon="14.679685863593638"><ele>415.0</ele><time>2026-04-04T06:52:39Z</time></trkpt><trkpt lat="37.03885941535999" lon="14.679780838404785"><ele>415.0</ele><time>2026-04-04T06:53:01Z</time></trkpt><trkpt lat="37.03880539149041" lon="14.679867880932976"><ele>415.0</ele><time>2026-04-04T06:53:03Z</time></trkpt><trkpt lat="37.03877981254692" lon="14.679962784754226"><ele>415.00000000000006</ele><time>2026-04-04T06:53:04Z</time></trkpt><trkpt lat="37.03875288604329" lon="14.68005723810635"><ele>415.0</ele><time>2026-04-04T06:53:05Z</time></trkpt><trkpt lat="37.03872757359574" lon="14.680165797138205"><ele>415.50000000000006</ele><time>2026-04-04T06:53:06Z</time></trkpt><trkpt lat="37.03870251310774" lon="14.680279289920835"><ele>416.0</ele><time>2026-04-04T06:53:07Z</time></trkpt><trkpt lat="37.03867626776082" lon="14.6803788723789"><ele>416.5</ele><time>2026-04-04T06:53:08Z</time></trkpt><trkpt lat="37.038626310043846" lon="14.680464123659728"><ele>417.0</ele><time>2026-04-04T06:53:09Z</time></trkpt><trkpt lat="37.03858163546921" lon="14.680551385886178"><ele>417.50000000000006</ele><time>2026-04-04T06:53:10Z</time></trkpt><trkpt lat="37.038543939825146" lon="14.680620702442528"><ele>418.0</ele><time>2026-04-04T06:53:11Z</time></trkpt><trkpt lat="37.038412937460244" lon="14.680635731708666"><ele>418.0</ele><time>2026-04-04T06:53:13Z</time></trkpt><trkpt lat="37.03836614789684" lon="14.680536788435298"><ele>418.0</ele><time>2026-04-04T06:53:14Z</time></trkpt><trkpt lat="37.03827831576182" lon="14.680536898151468"><ele>418.0</ele><time>2026-04-04T06:53:15Z</time></trkpt><trkpt lat="37.03821470176331" lon="14.68045517420943"><ele>418.0</ele><time>2026-04-04T06:53:16Z</time></trkpt><trkpt lat="37.03814392439435" lon="14.680299536779945"><ele>418.0</ele><time>2026-04-04T06:53:17Z</time></trkpt><trkpt lat="37.0380849962135" lon="14.680235624783483"><ele>418.0</ele><time>2026-04-04T06:53:18Z</time></trkpt><trkpt lat="37.03802592451815" lon="14.680154245330833"><ele>418.0</ele><time>2026-04-04T06:53:19Z</time></trkpt><trkpt lat="37.0387759324461" lon="14.679528685579172"><ele>418.0</ele><time>2026-04-04T06:53:20Z</time></trkpt><trkpt lat="37.03770519736464" lon="14.680083275858115"><ele>418.0</ele><time>2026-04-04T06:53:25Z</time></trkpt><trkpt lat="37.03759238711994" lon="14.68014031852736"><ele>418.0</ele><time>2026-04-04T06:53:27Z</time></trkpt><trkpt lat="37.03753255968261" lon="14.68019826404569"><ele>418.0</ele><time>2026-04-04T06:53:29Z</time></trkpt><trkpt lat="37.037529646180936" lon="14.680317585384744"><ele>418.0</ele><time>2026-04-04T06:53:31Z</time></trkpt><trkpt lat="37.0375870562766" lon="14.680422643818313"><ele>418.0</ele><time>2026-04-04T06:53:33Z</time></trkpt><trkpt lat="37.03763911210662" lon="14.680510861790154"><ele>418.79999999999995</ele><time>2026-04-04T06:53:35Z</time></trkpt><trkpt lat="37.03760914547568" lon="14.680623324914768"><ele>419.6</ele><time>2026-04-04T06:53:37Z</time></trkpt><trkpt lat="37.03755703401286" lon="14.680748780651081"><ele>420.4</ele><time>2026-04-04T06:53:39Z</time></trkpt><trkpt lat="37.03751377962143" lon="14.680857913292309"><ele>421.20000000000005</ele><time>2026-04-04T06:53:41Z</time></trkpt><trkpt lat="37.03745678293636" lon="14.680951374389902"><ele>422.0</ele><time>2026-04-04T06:53:43Z</time></trkpt><trkpt lat="37.03734774542866" lon="14.681008242126232"><ele>422.6</ele><time>2026-04-04T06:53:45Z</time></trkpt><trkpt lat="37.03725537396908" lon="14.680987281009184"><ele>423.20000000000005</ele><time>2026-04-04T06:53:46Z</time></trkpt><trkpt lat="37.037155193251905" lon="14.680924944838523"><ele>423.8</ele><time>2026-04-04T06:53:47Z</time></trkpt><trkpt lat="37.03706852105118" lon="14.680861202415619"><ele>424.4</ele><time>2026-04-04T06:53:48Z</time></trkpt><trkpt lat="37.036985999408934" lon="14.680827154123598"><ele>425.0</ele><time>2026-04-04T06:53:49Z</time></trkpt><trkpt lat="37.03690093703037" lon="14.680822175832255"><ele>424.99999999999994</ele><time>2026-04-04T06:53:50Z</time></trkpt><trkpt lat="37.03681347359573" lon="14.680841809643168"><ele>425.0</ele><time>2026-04-04T06:53:51Z</time></trkpt><trkpt lat="37.036743792257006" lon="14.68087054082088"><ele>425.0</ele><time>2026-04-04T06:53:52Z</time></trkpt><trkpt lat="37.03667397402988" lon="14.680878675391924"><ele>425.0</ele><time>2026-04-04T06:53:53Z</time></trkpt><trkpt lat="37.036589236369785" lon="14.680868309299658"><ele>424.99999999999994</ele><time>2026-04-04T06:53:54Z</time></trkpt><trkpt lat="37.03648906284815" lon="14.680813225269079"><ele>425.0</ele><time>2026-04-04T06:53:55Z</time></trkpt><trkpt lat="37.03637366995183" lon="14.680726756331042"><ele>424.66666666666663</ele><time>2026-04-04T06:53:56Z</time></trkpt><trkpt lat="37.03623517847742" lon="14.680632920323966"><ele>424.33333333333337</ele><time>2026-04-04T06:53:57Z</time></trkpt><trkpt lat="37.03608328517922" lon="14.6805479802016"><ele>424.0</ele><time>2026-04-04T06:53:58Z</time></trkpt><trkpt lat="37.035922259198536" lon="14.68045961859053"><ele>424.2</ele><time>2026-04-04T06:53:59Z</time></trkpt><trkpt lat="37.03578370171101" lon="14.680382127686693"><ele>424.4</ele><time>2026-04-04T06:54:00Z</time></trkpt><trkpt lat="37.03566622132592" lon="14.68032559452692"><ele>424.6</ele><time>2026-04-04T06:54:01Z</time></trkpt><trkpt lat="37.03557475261726" lon="14.680274132881426"><ele>424.8</ele><time>2026-04-04T06:54:02Z</time></trkpt><trkpt lat="37.0355138873173" lon="14.68023979453707"><ele>425.0</ele><time>2026-04-04T06:54:03Z</time></trkpt><trkpt lat="37.03542409201546" lon="14.680196585911544"><ele>423.8</ele><time>2026-04-04T06:54:05Z</time></trkpt><trkpt lat="37.03533790549072" lon="14.680092947988651"><ele>422.6</ele><time>2026-04-04T06:54:07Z</time></trkpt><trkpt lat="37.035308571099904" lon="14.679971563925879"><ele>421.4</ele><time>2026-04-04T06:54:08Z</time></trkpt><trkpt lat="37.03527782444607" lon="14.679859353624678"><ele>420.2</ele><time>2026-04-04T06:54:09Z</time></trkpt><trkpt lat="37.03526554873574" lon="14.679774094902234"><ele>419.0</ele><time>2026-04-04T06:54:10Z</time></trkpt><trkpt lat="37.03523110883472" lon="14.679649720398878"><ele>419.0</ele><time>2026-04-04T06:54:12Z</time></trkpt><trkpt lat="37.03514766238615" lon="14.679553449674087"><ele>419.0</ele><time>2026-04-04T06:54:14Z</time></trkpt><trkpt lat="37.035073121451546" lon="14.67953399935288"><ele>419.0</ele><time>2026-04-04T06:54:15Z</time></trkpt><trkpt lat="37.03499495331347" lon="14.679506995225408"><ele>419.0</ele><time>2026-04-04T06:54:16Z</time></trkpt><trkpt lat="37.03493549520382" lon="14.679467306078722"><ele>419.0</ele><time>2026-04-04T06:54:17Z</time></trkpt><trkpt lat="37.03487442068561" lon="14.679341766596295"><ele>418.4</ele><time>2026-04-04T06:54:19Z</time></trkpt><trkpt lat="37.03482573090221" lon="14.679204326506264"><ele>417.79999999999995</ele><time>2026-04-04T06:54:21Z</time></trkpt><trkpt lat="37.034798260370444" lon="14.67913235157693"><ele>417.20000000000005</ele><time>2026-04-04T06:54:22Z</time></trkpt><trkpt lat="37.034728954914776" lon="14.679017103122385"><ele>416.6</ele><time>2026-04-04T06:54:24Z</time></trkpt><trkpt lat="37.03463947070398" lon="14.678940192336329"><ele>416.0</ele><time>2026-04-04T06:54:26Z</time></trkpt><trkpt lat="37.034631163710145" lon="14.678820578545313"><ele>415.99999999999994</ele><time>2026-04-04T06:54:27Z</time></trkpt><trkpt lat="37.03457832299514" lon="14.678938139642428"><ele>416.0</ele><time>2026-04-04T06:54:42Z</time></trkpt><trkpt lat="37.034517927459184" lon="14.678901540518998"><ele>416.0</ele><time>2026-04-04T06:56:27Z</time></trkpt><trkpt lat="37.03445415889264" lon="14.678859220743352"><ele>416.0</ele><time>2026-04-04T07:00:30Z</time></trkpt><trkpt lat="37.03450584772815" lon="14.678911926110878"><ele>415.99999999999994</ele><time>2026-04-04T07:03:34Z</time></trkpt><trkpt lat="37.034429759689644" lon="14.678880259875548"><ele>416.0</ele><time>2026-04-04T07:04:33Z</time></trkpt><trkpt lat="37.03449488439193" lon="14.678807729614823"><ele>415.99999999999994</ele><time>2026-04-04T07:05:21Z</time></trkpt><trkpt lat="37.03442750423979" lon="14.678822455826259"><ele>416.0</ele><time>2026-04-04T07:08:41Z</time></trkpt><trkpt lat="37.034368616207566" lon="14.678860282581937"><ele>416.0</ele><time>2026-04-04T07:08:47Z</time></trkpt><trkpt lat="37.03447559727821" lon="14.678861556036223"><ele>416.0</ele><time>2026-04-04T07:09:28Z</time></trkpt><trkpt lat="37.03442452621265" lon="14.678942892987696"><ele>415.99999999999994</ele><time>2026-04-04T07:11:50Z</time></trkpt><trkpt lat="37.03443047770956" lon="14.678862226251443"><ele>416.0</ele><time>2026-04-04T07:11:57Z</time></trkpt><trkpt lat="37.0344934607817" lon="14.678890386456947"><ele>415.99999999999994</ele><time>2026-04-04T07:12:43Z</time></trkpt><trkpt lat="37.03447416665189" lon="14.678813428611848"><ele>416.0</ele><time>2026-04-04T07:13:53Z</time></trkpt><trkpt lat="37.03450536583997" lon="14.67888991222884"><ele>416.0</ele><time>2026-04-04T07:17:39Z</time></trkpt><trkpt lat="37.03455967536197" lon="14.678982498859128"><ele>416.0</ele><time>2026-04-04T07:20:37Z</time></trkpt><trkpt lat="37.03463845078939" lon="14.678991079688853"><ele>415.99999999999994</ele><time>2026-04-04T07:22:05Z</time></trkpt><trkpt lat="37.03472239765351" lon="14.679104754037024"><ele>416.0</ele><time>2026-04-04T07:22:26Z</time></trkpt><trkpt lat="37.034767298405924" lon="14.67916745904831"><ele>415.99999999999994</ele><time>2026-04-04T07:22:27Z</time></trkpt><trkpt lat="37.03479912818033" lon="14.679242601425475"><ele>416.0</ele><time>2026-04-04T07:22:28Z</time></trkpt><trkpt lat="37.03481756547598" lon="14.679342838705546"><ele>416.0</ele><time>2026-04-04T07:22:29Z</time></trkpt><trkpt lat="37.03486612196714" lon="14.679419592044411"><ele>416.0</ele><time>2026-04-04T07:22:30Z</time></trkpt><trkpt lat="37.034940213292" lon="14.679533378069829"><ele>415.99999999999994</ele><time>2026-04-04T07:22:32Z</time></trkpt><trkpt lat="37.03500172553868" lon="14.679578666850633"><ele>416.0</ele><time>2026-04-04T07:22:33Z</time></trkpt><trkpt lat="37.03508460615477" lon="14.679610726941837"><ele>416.6</ele><time>2026-04-04T07:22:35Z</time></trkpt><trkpt lat="37.035166245726934" lon="14.679637398360182"><ele>417.20000000000005</ele><time>2026-04-04T07:22:37Z</time></trkpt><trkpt lat="37.035194014348676" lon="14.679726922128372"><ele>417.79999999999995</ele><time>2026-04-04T07:22:38Z</time></trkpt><trkpt lat="37.035221711244326" lon="14.679820903219516"><ele>418.4</ele><time>2026-04-04T07:22:39Z</time></trkpt><trkpt lat="37.03525623405095" lon="14.679967820091095"><ele>419.0</ele><time>2026-04-04T07:22:40Z</time></trkpt><trkpt lat="37.03530083094661" lon="14.680118990716501"><ele>419.0</ele><time>2026-04-04T07:22:41Z</time></trkpt><trkpt lat="37.035339616710814" lon="14.680214594595238"><ele>419.0</ele><time>2026-04-04T07:22:42Z</time></trkpt><trkpt lat="37.035425146649" lon="14.680287618534576"><ele>419.0</ele><time>2026-04-04T07:22:44Z</time></trkpt><trkpt lat="37.03551739592611" lon="14.680302998004407"><ele>419.0</ele><time>2026-04-04T07:22:45Z</time></trkpt><trkpt lat="37.03561090434275" lon="14.680351244005394"><ele>419.0</ele><time>2026-04-04T07:22:46Z</time></trkpt><trkpt lat="37.03570836394592" lon="14.680423571903567"><ele>420.0</ele><time>2026-04-04T07:22:47Z</time></trkpt><trkpt lat="37.035814851835354" lon="14.680481194008165"><ele>421.0</ele><time>2026-04-04T07:22:49Z</time></trkpt><trkpt lat="37.03587858520984" lon="14.680516382181068"><ele>422.0</ele><time>2026-04-04T07:22:50Z</time></trkpt><trkpt lat="37.03594435041362" lon="14.680557999744046"><ele>423.0</ele><time>2026-04-04T07:22:51Z</time></trkpt><trkpt lat="37.03600584758631" lon="14.680582653250715"><ele>424.0</ele><time>2026-04-04T07:22:52Z</time></trkpt><trkpt lat="37.03612633131746" lon="14.680648247462356"><ele>424.0</ele><time>2026-04-04T07:22:54Z</time></trkpt><trkpt lat="37.036192593799065" lon="14.680684136605256"><ele>424.0</ele><time>2026-04-04T07:22:55Z</time></trkpt><trkpt lat="37.03628699073146" lon="14.68073271234733"><ele>424.0</ele><time>2026-04-04T07:22:57Z</time></trkpt><trkpt lat="37.036391169959046" lon="14.680790526012942"><ele>424.0</ele><time>2026-04-04T07:22:59Z</time></trkpt><trkpt lat="37.03649989942485" lon="14.680847263090547"><ele>424.0</ele><time>2026-04-04T07:23:01Z</time></trkpt><trkpt lat="37.036562383857586" lon="14.680882944708555"><ele>424.0</ele><time>2026-04-04T07:23:02Z</time></trkpt><trkpt lat="37.03663419444152" lon="14.680926449497184"><ele>424.0</ele><time>2026-04-04T07:23:03Z</time></trkpt><trkpt lat="37.036708782153895" lon="14.680971137306221"><ele>424.0</ele><time>2026-04-04T07:23:04Z</time></trkpt><trkpt lat="37.03677631787435" lon="14.681012176460131"><ele>424.0</ele><time>2026-04-04T07:23:05Z</time></trkpt><trkpt lat="37.03688717528621" lon="14.681073178617979"><ele>424.0</ele><time>2026-04-04T07:23:07Z</time></trkpt><trkpt lat="37.03698365441506" lon="14.681129700832166"><ele>424.50000000000006</ele><time>2026-04-04T07:23:09Z</time></trkpt><trkpt lat="37.03708932114301" lon="14.681193838394533"><ele>425.0</ele><time>2026-04-04T07:23:11Z</time></trkpt><trkpt lat="37.037156703977615" lon="14.68122781342311"><ele>425.5</ele><time>2026-04-04T07:23:12Z</time></trkpt><trkpt lat="37.03723007670722" lon="14.68127559195813"><ele>426.0</ele><time>2026-04-04T07:23:13Z</time></trkpt><trkpt lat="37.03730517039006" lon="14.681314276236076"><ele>426.50000000000006</ele><time>2026-04-04T07:23:14Z</time></trkpt><trkpt lat="37.03736998643068" lon="14.68135232182902"><ele>427.0</ele><time>2026-04-04T07:23:15Z</time></trkpt><trkpt lat="37.03748021002133" lon="14.681417327882789"><ele>427.0</ele><time>2026-04-04T07:23:17Z</time></trkpt><trkpt lat="37.037539400789" lon="14.681451655928234"><ele>427.00000000000006</ele><time>2026-04-04T07:23:18Z</time></trkpt><trkpt lat="37.037650408359326" lon="14.681517351614273"><ele>427.00000000000006</ele><time>2026-04-04T07:23:20Z</time></trkpt><trkpt lat="37.03775626959942" lon="14.681583080998369"><ele>427.0</ele><time>2026-04-04T07:23:22Z</time></trkpt><trkpt lat="37.03786070414848" lon="14.68165054557564"><ele>427.0</ele><time>2026-04-04T07:23:24Z</time></trkpt><trkpt lat="37.03796634212732" lon="14.681725184660413"><ele>427.00000000000006</ele><time>2026-04-04T07:23:26Z</time></trkpt><trkpt lat="37.038065215601236" lon="14.681791489952895"><ele>427.0</ele><time>2026-04-04T07:23:28Z</time></trkpt><trkpt lat="37.03816116726122" lon="14.68185751507622"><ele>427.0</ele><time>2026-04-04T07:23:30Z</time></trkpt><trkpt lat="37.03822271426324" lon="14.681896323995554"><ele>427.0</ele><time>2026-04-04T07:23:31Z</time></trkpt><trkpt lat="37.0382814950251" lon="14.681943121858863"><ele>427.00000000000006</ele><time>2026-04-04T07:23:32Z</time></trkpt><trkpt lat="37.03833499594163" lon="14.681986939953383"><ele>427.0</ele><time>2026-04-04T07:23:33Z</time></trkpt><trkpt lat="37.038386378325214" lon="14.682034094737734"><ele>427.1666666666667</ele><time>2026-04-04T07:23:34Z</time></trkpt><trkpt lat="37.038441309705036" lon="14.682086963706494"><ele>427.33333333333337</ele><time>2026-04-04T07:23:35Z</time></trkpt><trkpt lat="37.038494314317234" lon="14.682146998233238"><ele>427.5</ele><time>2026-04-04T07:23:36Z</time></trkpt><trkpt lat="37.03854347397094" lon="14.682212823866957"><ele>427.66666666666663</ele><time>2026-04-04T07:23:37Z</time></trkpt><trkpt lat="37.03859856140184" lon="14.682292725470692"><ele>427.8333333333333</ele><time>2026-04-04T07:23:38Z</time></trkpt><trkpt lat="37.038645879178574" lon="14.682367346608569"><ele>428.0</ele><time>2026-04-04T07:23:39Z</time></trkpt><trkpt lat="37.03869567906065" lon="14.68244053671396"><ele>428.0</ele><time>2026-04-04T07:23:40Z</time></trkpt><trkpt lat="37.038741342659314" lon="14.682516110566834"><ele>427.99999999999994</ele><time>2026-04-04T07:23:41Z</time></trkpt><trkpt lat="37.03879464614181" lon="14.682614662067571"><ele>427.99999999999994</ele><time>2026-04-04T07:23:42Z</time></trkpt><trkpt lat="37.03885224313009" lon="14.68272529439476"><ele>428.0</ele><time>2026-04-04T07:23:43Z</time></trkpt><trkpt lat="37.038908612171795" lon="14.682846270249318"><ele>428.0</ele><time>2026-04-04T07:23:44Z</time></trkpt><trkpt lat="37.038947018160954" lon="14.682967704514587"><ele>429.0</ele><time>2026-04-04T07:23:45Z</time></trkpt><trkpt lat="37.03897256214419" lon="14.683067735548704"><ele>429.99999999999994</ele><time>2026-04-04T07:23:46Z</time></trkpt><trkpt lat="37.03900509802707" lon="14.683188025385169"><ele>430.99999999999994</ele><time>2026-04-04T07:23:47Z</time></trkpt><trkpt lat="37.03903559883428" lon="14.683307773142499"><ele>432.0</ele><time>2026-04-04T07:23:48Z</time></trkpt><trkpt lat="37.039056084354534" lon="14.68344094272297"><ele>433.0</ele><time>2026-04-04T07:23:49Z</time></trkpt><trkpt lat="37.03907095166143" lon="14.683558799445313"><ele>433.4</ele><time>2026-04-04T07:23:50Z</time></trkpt><trkpt lat="37.03908865936335" lon="14.683658725313592"><ele>433.79999999999995</ele><time>2026-04-04T07:23:51Z</time></trkpt><trkpt lat="37.03912616686909" lon="14.683761531624787"><ele>434.2</ele><time>2026-04-04T07:23:52Z</time></trkpt><trkpt lat="37.03917963089571" lon="14.683848982299773"><ele>434.6</ele><time>2026-04-04T07:23:53Z</time></trkpt><trkpt lat="37.03925695930558" lon="14.683928305329525"><ele>435.0</ele><time>2026-04-04T07:23:54Z</time></trkpt><trkpt lat="37.039349282117215" lon="14.683990240973612"><ele>432.25</ele><time>2026-04-04T07:23:55Z</time></trkpt><trkpt lat="37.03943908809781" lon="14.68404233850867"><ele>429.5</ele><time>2026-04-04T07:23:56Z</time></trkpt><trkpt lat="37.03953259233656" lon="14.684101168321398"><ele>426.75</ele><time>2026-04-04T07:23:57Z</time></trkpt><trkpt lat="37.039616605348996" lon="14.684173702909078"><ele>424.0</ele><time>2026-04-04T07:23:58Z</time></trkpt><trkpt lat="37.03973739055587" lon="14.684275199646164"><ele>424.0</ele><time>2026-04-04T07:23:59Z</time></trkpt><trkpt lat="37.039885771055545" lon="14.68440507937197"><ele>424.0</ele><time>2026-04-04T07:24:00Z</time></trkpt><trkpt lat="37.04005462810331" lon="14.684564187155978"><ele>424.0</ele><time>2026-04-04T07:24:01Z</time></trkpt><trkpt lat="37.040229741250535" lon="14.684685374855997"><ele>423.33333333333337</ele><time>2026-04-04T07:24:02Z</time></trkpt><trkpt lat="37.04036728402382" lon="14.68483529523362"><ele>422.66666666666663</ele><time>2026-04-04T07:24:03Z</time></trkpt><trkpt lat="37.040499639658655" lon="14.684956377561566"><ele>422.0</ele><time>2026-04-04T07:24:04Z</time></trkpt><trkpt lat="37.04060995303223" lon="14.685054629754388"><ele>422.0</ele><time>2026-04-04T07:24:05Z</time></trkpt><trkpt lat="37.04070640381387" lon="14.685154177108558"><ele>422.0</ele><time>2026-04-04T07:24:06Z</time></trkpt><trkpt lat="37.04080555087622" lon="14.68524822642273"><ele>422.0</ele><time>2026-04-04T07:24:07Z</time></trkpt><trkpt lat="37.04090565783297" lon="14.685348548331502"><ele>422.0</ele><time>2026-04-04T07:24:08Z</time></trkpt><trkpt lat="37.040995807518456" lon="14.685430888797098"><ele>421.25</ele><time>2026-04-04T07:24:09Z</time></trkpt><trkpt lat="37.041088208421804" lon="14.685511133114515"><ele>420.5</ele><time>2026-04-04T07:24:10Z</time></trkpt><trkpt lat="37.04121092894401" lon="14.685614835552116"><ele>419.75</ele><time>2026-04-04T07:24:11Z</time></trkpt><trkpt lat="37.0413394849359" lon="14.685730436060147"><ele>419.0</ele><time>2026-04-04T07:24:12Z</time></trkpt><trkpt lat="37.041475014394315" lon="14.685846317964115"><ele>419.0</ele><time>2026-04-04T07:24:13Z</time></trkpt><trkpt lat="37.0415786888447" lon="14.685928856846372"><ele>419.0</ele><time>2026-04-04T07:24:14Z</time></trkpt><trkpt lat="37.04166879141328" lon="14.686000068279448"><ele>419.0</ele><time>2026-04-04T07:24:15Z</time></trkpt><trkpt lat="37.04176865016739" lon="14.686068120081481"><ele>419.0</ele><time>2026-04-04T07:24:16Z</time></trkpt><trkpt lat="37.04185975060376" lon="14.686091660821296"><ele>419.0</ele><time>2026-04-04T07:24:17Z</time></trkpt><trkpt lat="37.041940878308466" lon="14.686117069527656"><ele>419.4</ele><time>2026-04-04T07:24:18Z</time></trkpt><trkpt lat="37.04202489684543" lon="14.686133814940767"><ele>419.79999999999995</ele><time>2026-04-04T07:24:19Z</time></trkpt><trkpt lat="37.04210046907132" lon="14.686148405265898"><ele>420.20000000000005</ele><time>2026-04-04T07:24:20Z</time></trkpt><trkpt lat="37.04217996268423" lon="14.686160556017906"><ele>420.6</ele><time>2026-04-04T07:24:21Z</time></trkpt><trkpt lat="37.042255395347325" lon="14.686174805642494"><ele>421.0</ele><time>2026-04-04T07:24:21.999Z</time></trkpt><trkpt lat="37.04238801772729" lon="14.686204683285647"><ele>420.6</ele><time>2026-04-04T07:24:24Z</time></trkpt><trkpt lat="37.04251371114907" lon="14.686225678978792"><ele>420.20000000000005</ele><time>2026-04-04T07:24:26Z</time></trkpt><trkpt lat="37.04259840484858" lon="14.686236382914055"><ele>419.79999999999995</ele><time>2026-04-04T07:24:27Z</time></trkpt><trkpt lat="37.04270169084206" lon="14.686255690456916"><ele>419.4</ele><time>2026-04-04T07:24:28Z</time></trkpt><trkpt lat="37.042807735969426" lon="14.686277916298108"><ele>419.0</ele><time>2026-04-04T07:24:29Z</time></trkpt><trkpt lat="37.042923120580554" lon="14.68629844048653"><ele>419.0</ele><time>2026-04-04T07:24:30Z</time></trkpt><trkpt lat="37.04303070709627" lon="14.686331102483981"><ele>419.0</ele><time>2026-04-04T07:24:31Z</time></trkpt><trkpt lat="37.043135176952205" lon="14.686355816211341"><ele>419.0</ele><time>2026-04-04T07:24:32Z</time></trkpt><trkpt lat="37.04323863451311" lon="14.68638095928131"><ele>419.0</ele><time>2026-04-04T07:24:33Z</time></trkpt><trkpt lat="37.04332307738998" lon="14.686413584799393"><ele>419.0</ele><time>2026-04-04T07:24:34Z</time></trkpt><trkpt lat="37.043397507895655" lon="14.686460089658643"><ele>418.66666666666663</ele><time>2026-04-04T07:24:35Z</time></trkpt><trkpt lat="37.04345517233165" lon="14.68652704488187"><ele>418.3333333333333</ele><time>2026-04-04T07:24:36Z</time></trkpt><trkpt lat="37.04350247940228" lon="14.686605774806049"><ele>418.0</ele><time>2026-04-04T07:24:37Z</time></trkpt><trkpt lat="37.04352797656647" lon="14.686707481731736"><ele>417.66666666666663</ele><time>2026-04-04T07:24:38Z</time></trkpt><trkpt lat="37.04356532687033" lon="14.686802747228738"><ele>417.3333333333333</ele><time>2026-04-04T07:24:39Z</time></trkpt><trkpt lat="37.043598288687505" lon="14.686898465491549"><ele>417.0</ele><time>2026-04-04T07:24:40Z</time></trkpt><trkpt lat="37.043652558954044" lon="14.686978452628043"><ele>417.6666666666667</ele><time>2026-04-04T07:24:41Z</time></trkpt><trkpt lat="37.04372215926474" lon="14.68703285034083"><ele>418.33333333333337</ele><time>2026-04-04T07:24:42Z</time></trkpt><trkpt lat="37.0437980206482" lon="14.687075420259074"><ele>419.0</ele><time>2026-04-04T07:24:43Z</time></trkpt><trkpt lat="37.04386656593121" lon="14.687108623704217"><ele>419.6666666666667</ele><time>2026-04-04T07:24:44Z</time></trkpt><trkpt lat="37.043950870583636" lon="14.687126839710524"><ele>420.33333333333337</ele><time>2026-04-04T07:24:45Z</time></trkpt><trkpt lat="37.04403540944585" lon="14.687149921285084"><ele>421.0</ele><time>2026-04-04T07:24:46Z</time></trkpt><trkpt lat="37.04411558924377" lon="14.687177499762583"><ele>420.83333333333337</ele><time>2026-04-04T07:24:47Z</time></trkpt><trkpt lat="37.044191808142315" lon="14.687210966314025"><ele>420.6666666666667</ele><time>2026-04-04T07:24:48Z</time></trkpt><trkpt lat="37.04424421582949" lon="14.687258937820388"><ele>420.5</ele><time>2026-04-04T07:24:49Z</time></trkpt><trkpt lat="37.0443624631203" lon="14.687395247974997"><ele>420.33333333333337</ele><time>2026-04-04T07:24:51Z</time></trkpt><trkpt lat="37.04438030411667" lon="14.687472123682769"><ele>420.1666666666667</ele><time>2026-04-04T07:24:52Z</time></trkpt><trkpt lat="37.04440281264634" lon="14.687565282982534"><ele>420.0</ele><time>2026-04-04T07:24:54Z</time></trkpt><trkpt lat="37.04435289141805" lon="14.687777979976849"><ele>421.1666666666667</ele><time>2026-04-04T07:25:45Z</time></trkpt><trkpt lat="37.04434676876112" lon="14.68788018914122"><ele>422.33333333333337</ele><time>2026-04-04T07:25:46Z</time></trkpt><trkpt lat="37.04433443456227" lon="14.687979792918002"><ele>423.5</ele><time>2026-04-04T07:25:47Z</time></trkpt><trkpt lat="37.04431097562829" lon="14.688074514344391"><ele>424.6666666666667</ele><time>2026-04-04T07:25:48Z</time></trkpt><trkpt lat="37.044265601478884" lon="14.688161720638508"><ele>425.83333333333337</ele><time>2026-04-04T07:25:49Z</time></trkpt><trkpt lat="37.044196780028614" lon="14.688268009716332"><ele>427.0</ele><time>2026-04-04T07:25:50Z</time></trkpt><trkpt lat="37.04412752035222" lon="14.688299685221875"><ele>427.0</ele><time>2026-04-04T07:25:51Z</time></trkpt><trkpt lat="37.04406767537968" lon="14.688348741947035"><ele>427.00000000000006</ele><time>2026-04-04T07:25:53Z</time></trkpt><trkpt lat="37.04418324840344" lon="14.688474596851583"><ele>427.00000000000006</ele><time>2026-04-04T07:26:04Z</time></trkpt><trkpt lat="37.0442134954518" lon="14.68856891240097"><ele>427.0</ele><time>2026-04-04T07:26:07Z</time></trkpt><trkpt lat="37.04425115517261" lon="14.688695436845395"><ele>427.0</ele><time>2026-04-04T07:26:10Z</time></trkpt><trkpt lat="37.04428197127456" lon="14.68881560902017"><ele>428.6666666666667</ele><time>2026-04-04T07:26:12Z</time></trkpt><trkpt lat="37.044315503047656" lon="14.688914982336627"><ele>430.33333333333337</ele><time>2026-04-04T07:26:14Z</time></trkpt><trkpt lat="37.044342282320024" lon="14.689033010979893"><ele>432.0</ele><time>2026-04-04T07:26:16Z</time></trkpt><trkpt lat="37.044365357700606" lon="14.689136746818773"><ele>433.66666666666663</ele><time>2026-04-04T07:26:18Z</time></trkpt><trkpt lat="37.044351537674814" lon="14.689228867965841"><ele>435.3333333333333</ele><time>2026-04-04T07:26:20Z</time></trkpt><trkpt lat="37.04436803653352" lon="14.689309832724684"><ele>437.0</ele><time>2026-04-04T07:26:23Z</time></trkpt><trkpt lat="37.044376873712075" lon="14.689393763865413"><ele>438.3333333333333</ele><time>2026-04-04T07:26:26Z</time></trkpt><trkpt lat="37.044383165372174" lon="14.689492257715376"><ele>439.66666666666663</ele><time>2026-04-04T07:26:29Z</time></trkpt><trkpt lat="37.044406411691426" lon="14.68961473406806"><ele>441.0</ele><time>2026-04-04T07:26:33Z</time></trkpt><trkpt lat="37.04442272908641" lon="14.689704376092365"><ele>442.33333333333337</ele><time>2026-04-04T07:26:35Z</time></trkpt><trkpt lat="37.04442173278051" lon="14.689796712278202"><ele>443.6666666666667</ele><time>2026-04-04T07:26:39Z</time></trkpt><trkpt lat="37.04443405286822" lon="14.689896444674426"><ele>445.0</ele><time>2026-04-04T07:26:43Z</time></trkpt><trkpt lat="37.0444362953526" lon="14.689983991211399"><ele>445.00000000000006</ele><time>2026-04-04T07:26:46Z</time></trkpt><trkpt lat="37.044437100206345" lon="14.690072841904449"><ele>445.0</ele><time>2026-04-04T07:26:48Z</time></trkpt><trkpt lat="37.044477384786525" lon="14.690171370331313"><ele>445.0</ele><time>2026-04-04T07:26:51Z</time></trkpt><trkpt lat="37.04449843305278" lon="14.690251805635066"><ele>445.0</ele><time>2026-04-04T07:26:55Z</time></trkpt><trkpt lat="37.04451587510389" lon="14.690339918767616"><ele>445.00000000000006</ele><time>2026-04-04T07:26:59Z</time></trkpt><trkpt lat="37.04451707650431" lon="14.690459388519544"><ele>445.0</ele><time>2026-04-04T07:27:03Z</time></trkpt><trkpt lat="37.04453679126956" lon="14.69055291858891"><ele>446.6666666666667</ele><time>2026-04-04T07:27:05Z</time></trkpt><trkpt lat="37.044543158848015" lon="14.690637370887865"><ele>448.33333333333337</ele><time>2026-04-04T07:27:08Z</time></trkpt><trkpt lat="37.04455073327791" lon="14.690721327991467"><ele>450.0</ele><time>2026-04-04T07:27:10Z</time></trkpt><trkpt lat="37.04455988274564" lon="14.690850812630966"><ele>451.66666666666663</ele><time>2026-04-04T07:27:13Z</time></trkpt><trkpt lat="37.04457229249037" lon="14.690934501989203"><ele>453.3333333333333</ele><time>2026-04-04T07:27:15Z</time></trkpt><trkpt lat="37.04460174329896" lon="14.691067514645818"><ele>455.0</ele><time>2026-04-04T07:27:19Z</time></trkpt><trkpt lat="37.044618602636305" lon="14.69114996152501"><ele>456.99999999999994</ele><time>2026-04-04T07:27:22Z</time></trkpt><trkpt lat="37.04463903107516" lon="14.691242508989658"><ele>459.0</ele><time>2026-04-04T07:27:25Z</time></trkpt><trkpt lat="37.04464856153854" lon="14.691344168497599"><ele>461.0</ele><time>2026-04-04T07:27:28Z</time></trkpt><trkpt lat="37.04467584624455" lon="14.691460524025574"><ele>463.0</ele><time>2026-04-04T07:27:31Z</time></trkpt><trkpt lat="37.044682362170484" lon="14.691572894326683"><ele>464.99999999999994</ele><time>2026-04-04T07:27:34Z</time></trkpt><trkpt lat="37.04470563835017" lon="14.691686200184442"><ele>467.0</ele><time>2026-04-04T07:27:37Z</time></trkpt><trkpt lat="37.0447182679087" lon="14.691797108614269"><ele>467.0</ele><time>2026-04-04T07:27:39Z</time></trkpt><trkpt lat="37.04470773060904" lon="14.691889182757555"><ele>467.00000000000006</ele><time>2026-04-04T07:27:42Z</time></trkpt><trkpt lat="37.044688661385685" lon="14.69196908166164"><ele>467.00000000000006</ele><time>2026-04-04T07:27:44Z</time></trkpt><trkpt lat="37.044709756688306" lon="14.69212165178681"><ele>467.0</ele><time>2026-04-04T07:28:25Z</time></trkpt><trkpt lat="37.04480853657912" lon="14.692219344251145"><ele>467.0</ele><time>2026-04-04T07:28:27Z</time></trkpt><trkpt lat="37.04486568169709" lon="14.692318689575423"><ele>468.5</ele><time>2026-04-04T07:28:28Z</time></trkpt><trkpt lat="37.04491625077632" lon="14.692451638823108"><ele>470.0</ele><time>2026-04-04T07:28:29Z</time></trkpt><trkpt lat="37.044951534247076" lon="14.692609746828259"><ele>471.5</ele><time>2026-04-04T07:28:30Z</time></trkpt><trkpt lat="37.044983566430695" lon="14.692788458381107"><ele>473.0</ele><time>2026-04-04T07:28:31Z</time></trkpt><trkpt lat="37.04499436716705" lon="14.692976412742224"><ele>477.0</ele><time>2026-04-04T07:28:32Z</time></trkpt><trkpt lat="37.04500135228369" lon="14.69316685921711"><ele>481.0</ele><time>2026-04-04T07:28:33Z</time></trkpt><trkpt lat="37.04501118116386" lon="14.693360413180626"><ele>485.0</ele><time>2026-04-04T07:28:34Z</time></trkpt><trkpt lat="37.04505678877541" lon="14.69355787059362"><ele>487.3333333333333</ele><time>2026-04-04T07:28:35Z</time></trkpt><trkpt lat="37.04506306275493" lon="14.693766955813615"><ele>489.66666666666663</ele><time>2026-04-04T07:28:36Z</time></trkpt><trkpt lat="37.04505796430354" lon="14.693965547649913"><ele>492.0</ele><time>2026-04-04T07:28:37Z</time></trkpt><trkpt lat="37.04504235631483" lon="14.694178212764342"><ele>492.0</ele><time>2026-04-04T07:28:38Z</time></trkpt><trkpt lat="37.04502680989025" lon="14.694390394777521"><ele>492.0</ele><time>2026-04-04T07:28:39Z</time></trkpt><trkpt lat="37.045024161504784" lon="14.694619647794422"><ele>492.0</ele><time>2026-04-04T07:28:40Z</time></trkpt><trkpt lat="37.045033317854084" lon="14.694862332905867"><ele>491.66666666666663</ele><time>2026-04-04T07:28:41Z</time></trkpt><trkpt lat="37.04505911781832" lon="14.6951221148408"><ele>491.3333333333333</ele><time>2026-04-04T07:28:42Z</time></trkpt><trkpt lat="37.04509847126232" lon="14.695365882369867"><ele>491.0</ele><time>2026-04-04T07:28:43Z</time></trkpt><trkpt lat="37.045127880416686" lon="14.695610869943195"><ele>491.0</ele><time>2026-04-04T07:28:44Z</time></trkpt><trkpt lat="37.04516237177395" lon="14.695830948298235"><ele>491.0</ele><time>2026-04-04T07:28:45Z</time></trkpt><trkpt lat="37.04518488746439" lon="14.696044343694478"><ele>491.0</ele><time>2026-04-04T07:28:46Z</time></trkpt><trkpt lat="37.045201585239944" lon="14.696246968407607"><ele>492.3333333333333</ele><time>2026-04-04T07:28:47Z</time></trkpt><trkpt lat="37.04520458297965" lon="14.696454871139293"><ele>493.66666666666663</ele><time>2026-04-04T07:28:48Z</time></trkpt><trkpt lat="37.04519658188824" lon="14.696655957044737"><ele>495.0</ele><time>2026-04-04T07:28:49Z</time></trkpt><trkpt lat="37.04516994218615" lon="14.696849303696922"><ele>496.66666666666663</ele><time>2026-04-04T07:28:50Z</time></trkpt><trkpt lat="37.0451371983194" lon="14.697066022826316"><ele>498.3333333333333</ele><time>2026-04-04T07:28:51Z</time></trkpt><trkpt lat="37.045108869539945" lon="14.697277684812322"><ele>500.0</ele><time>2026-04-04T07:28:52Z</time></trkpt><trkpt lat="37.04508315417997" lon="14.69748007283667"><ele>500.0</ele><time>2026-04-04T07:28:53Z</time></trkpt><trkpt lat="37.04506718694076" lon="14.697683508843273"><ele>500.0</ele><time>2026-04-04T07:28:54Z</time></trkpt><trkpt lat="37.045040011411565" lon="14.697872309339031"><ele>500.0</ele><time>2026-04-04T07:28:55Z</time></trkpt><trkpt lat="37.04501415303318" lon="14.698011768622528"><ele>500.0</ele><time>2026-04-04T07:28:56Z</time></trkpt><trkpt lat="37.04498396955755" lon="14.69809441301457"><ele>500.8</ele><time>2026-04-04T07:28:59Z</time></trkpt><trkpt lat="37.044873247978984" lon="14.698100529646071"><ele>501.6</ele><time>2026-04-04T07:29:00Z</time></trkpt><trkpt lat="37.04479249738578" lon="14.698187852502283"><ele>502.4</ele><time>2026-04-04T07:29:01Z</time></trkpt><trkpt lat="37.04472503818393" lon="14.69827121313968"><ele>503.2</ele><time>2026-04-04T07:29:02Z</time></trkpt><trkpt lat="37.04466819948723" lon="14.698344151912005"><ele>504.0</ele><time>2026-04-04T07:29:03Z</time></trkpt><trkpt lat="37.044613475926724" lon="14.698414272037207"><ele>504.0</ele><time>2026-04-04T07:29:04Z</time></trkpt><trkpt lat="37.044560356621126" lon="14.698481495668803"><ele>504.0</ele><time>2026-04-04T07:29:05Z</time></trkpt><trkpt lat="37.0444801237458" lon="14.698569931896357"><ele>504.0</ele><time>2026-04-04T07:29:07Z</time></trkpt><trkpt lat="37.044390377299926" lon="14.69854133768867"><ele>504.0</ele><time>2026-04-04T07:29:10Z</time></trkpt><trkpt lat="37.044303115354055" lon="14.698423327970398"><ele>504.0</ele><time>2026-04-04T07:29:12Z</time></trkpt><trkpt lat="37.044267721348795" lon="14.698342076654892"><ele>504.0</ele><time>2026-04-04T07:29:13Z</time></trkpt><trkpt lat="37.044216579767266" lon="14.698249752289392"><ele>504.0</ele><time>2026-04-04T07:29:14Z</time></trkpt><trkpt lat="37.044163207355126" lon="14.698155814387533"><ele>504.0</ele><time>2026-04-04T07:29:15Z</time></trkpt><trkpt lat="37.044098277897206" lon="14.698068921452492"><ele>504.0</ele><time>2026-04-04T07:29:16Z</time></trkpt><trkpt lat="37.04403029490555" lon="14.69800966689465"><ele>504.0</ele><time>2026-04-04T07:29:17Z</time></trkpt><trkpt lat="37.04395478597026" lon="14.697962429791918"><ele>504.0</ele><time>2026-04-04T07:29:18Z</time></trkpt><trkpt lat="37.04387843721258" lon="14.69791647349568"><ele>502.4</ele><time>2026-04-04T07:29:19Z</time></trkpt><trkpt lat="37.04382274678112" lon="14.697877285147054"><ele>500.79999999999995</ele><time>2026-04-04T07:29:20Z</time></trkpt><trkpt lat="37.04371057954822" lon="14.69784507069331"><ele>499.20000000000005</ele><time>2026-04-04T07:29:22Z</time></trkpt><trkpt lat="37.0436503023656" lon="14.697924611592208"><ele>497.6</ele><time>2026-04-04T07:29:23Z</time></trkpt><trkpt lat="37.04354468250039" lon="14.698006811211627"><ele>496.0</ele><time>2026-04-04T07:29:25Z</time></trkpt><trkpt lat="37.043499459372214" lon="14.698068301032608"><ele>496.0</ele><time>2026-04-04T07:29:26Z</time></trkpt><trkpt lat="37.04345755486604" lon="14.698142392166838"><ele>496.00000000000006</ele><time>2026-04-04T07:29:27Z</time></trkpt><trkpt lat="37.043443603900954" lon="14.698227829035035"><ele>496.0</ele><time>2026-04-04T07:29:28Z</time></trkpt><trkpt lat="37.04340628924084" lon="14.698306813446056"><ele>496.0</ele><time>2026-04-04T07:29:29Z</time></trkpt><trkpt lat="37.04337618582485" lon="14.698390764868002"><ele>496.00000000000006</ele><time>2026-04-04T07:29:30Z</time></trkpt><trkpt lat="37.04333747262773" lon="14.698473116371414"><ele>496.0</ele><time>2026-04-04T07:29:31Z</time></trkpt><trkpt lat="37.043297434414065" lon="14.698545633520672"><ele>496.0</ele><time>2026-04-04T07:29:32Z</time></trkpt><trkpt lat="37.043219077313644" lon="14.698653656048005"><ele>493.4</ele><time>2026-04-04T07:29:34Z</time></trkpt><trkpt lat="37.043169024534485" lon="14.698750767129447"><ele>490.8</ele><time>2026-04-04T07:29:36Z</time></trkpt><trkpt lat="37.043142489889945" lon="14.698823508584413"><ele>488.19999999999993</ele><time>2026-04-04T07:29:39Z</time></trkpt><trkpt lat="37.043098073122174" lon="14.698668769517335"><ele>485.59999999999997</ele><time>2026-04-04T07:29:43Z</time></trkpt><trkpt lat="37.04308721487851" lon="14.698528228184"><ele>483.0</ele><time>2026-04-04T07:29:45Z</time></trkpt><trkpt lat="37.04306769315188" lon="14.698438729060156"><ele>482.0</ele><time>2026-04-04T07:29:46Z</time></trkpt><trkpt lat="37.043027918681375" lon="14.698323386804727"><ele>480.99999999999994</ele><time>2026-04-04T07:29:47Z</time></trkpt><trkpt lat="37.043016584273445" lon="14.69823190600351"><ele>479.99999999999994</ele><time>2026-04-04T07:29:48Z</time></trkpt><trkpt lat="37.043007187375466" lon="14.698138236328958"><ele>479.0</ele><time>2026-04-04T07:29:49Z</time></trkpt><trkpt lat="37.04293878152718" lon="14.698018213683158"><ele>478.0</ele><time>2026-04-04T07:29:51Z</time></trkpt><trkpt lat="37.042827332535786" lon="14.697952701958174"><ele>478.0</ele><time>2026-04-04T07:29:53Z</time></trkpt><trkpt lat="37.042708469639116" lon="14.69796351766091"><ele>477.99999999999994</ele><time>2026-04-04T07:29:55Z</time></trkpt><trkpt lat="37.042605000542686" lon="14.698026410811483"><ele>477.99999999999994</ele><time>2026-04-04T07:29:57Z</time></trkpt><trkpt lat="37.042517242615624" lon="14.69809666110548"><ele>478.0</ele><time>2026-04-04T07:29:59Z</time></trkpt><trkpt lat="37.0424684766036" lon="14.6981643670573"><ele>478.0</ele><time>2026-04-04T07:30:01Z</time></trkpt><trkpt lat="37.04239594543993" lon="14.698241645021742"><ele>479.79999999999995</ele><time>2026-04-04T07:30:04Z</time></trkpt><trkpt lat="37.042378608731504" lon="14.698347675723175"><ele>481.59999999999997</ele><time>2026-04-04T07:30:10Z</time></trkpt><trkpt lat="37.042271675105034" lon="14.698410154019921"><ele>483.40000000000003</ele><time>2026-04-04T07:30:12Z</time></trkpt><trkpt lat="37.04225417802749" lon="14.698527064375506"><ele>485.20000000000005</ele><time>2026-04-04T07:30:14Z</time></trkpt><trkpt lat="37.042200369139884" lon="14.698625370224775"><ele>487.0</ele><time>2026-04-04T07:30:17Z</time></trkpt><trkpt lat="37.04214752426945" lon="14.698702090571969"><ele>488.6666666666667</ele><time>2026-04-04T07:30:20Z</time></trkpt><trkpt lat="37.042074746487536" lon="14.698773947374251"><ele>490.33333333333337</ele><time>2026-04-04T07:30:22Z</time></trkpt><trkpt lat="37.04201646271153" lon="14.698861473161596"><ele>492.0</ele><time>2026-04-04T07:30:24Z</time></trkpt><trkpt lat="37.04195009996554" lon="14.698939055414453"><ele>493.66666666666663</ele><time>2026-04-04T07:30:26Z</time></trkpt><trkpt lat="37.041895919509045" lon="14.698991945563613"><ele>495.3333333333333</ele><time>2026-04-04T07:30:28Z</time></trkpt><trkpt lat="37.041853604724174" lon="14.699081090747649"><ele>497.0</ele><time>2026-04-04T07:30:30Z</time></trkpt><trkpt lat="37.041792486233184" lon="14.699199160425648"><ele>496.99999999999994</ele><time>2026-04-04T07:30:32Z</time></trkpt><trkpt lat="37.04175640065252" lon="14.699273971613794"><ele>497.0</ele><time>2026-04-04T07:30:33Z</time></trkpt><trkpt lat="37.041736743609654" lon="14.699362850563308"><ele>497.0</ele><time>2026-04-04T07:30:34Z</time></trkpt><trkpt lat="37.0417178855472" lon="14.699460994135386"><ele>497.0</ele><time>2026-04-04T07:30:35Z</time></trkpt><trkpt lat="37.04168423786266" lon="14.699554924365758"><ele>496.99999999999994</ele><time>2026-04-04T07:30:36Z</time></trkpt><trkpt lat="37.04163086707515" lon="14.699638121366839"><ele>497.0</ele><time>2026-04-04T07:30:37Z</time></trkpt><trkpt lat="37.04157207376919" lon="14.69971017379636"><ele>499.3333333333333</ele><time>2026-04-04T07:30:38Z</time></trkpt><trkpt lat="37.041510009595406" lon="14.699773433250217"><ele>501.66666666666663</ele><time>2026-04-04T07:30:39Z</time></trkpt><trkpt lat="37.041446337346386" lon="14.6998386765345"><ele>504.0</ele><time>2026-04-04T07:30:40Z</time></trkpt><trkpt lat="37.041387849883066" lon="14.699909444281843"><ele>506.33333333333337</ele><time>2026-04-04T07:30:41Z</time></trkpt><trkpt lat="37.04131513811989" lon="14.699960492372394"><ele>508.6666666666667</ele><time>2026-04-04T07:30:42Z</time></trkpt><trkpt lat="37.04125178529578" lon="14.700029066647721"><ele>511.0</ele><time>2026-04-04T07:30:43Z</time></trkpt><trkpt lat="37.04119173116195" lon="14.700092963172313"><ele>511.0</ele><time>2026-04-04T07:30:44Z</time></trkpt><trkpt lat="37.041114522185744" lon="14.700199618924115"><ele>511.0</ele><time>2026-04-04T07:30:45Z</time></trkpt><trkpt lat="37.04103305105885" lon="14.700338369131286"><ele>511.0</ele><time>2026-04-04T07:30:46Z</time></trkpt><trkpt lat="37.04096337656907" lon="14.700482394303314"><ele>511.0</ele><time>2026-04-04T07:30:47Z</time></trkpt><trkpt lat="37.040881139579874" lon="14.700605461231444"><ele>511.6666666666667</ele><time>2026-04-04T07:30:48Z</time></trkpt><trkpt lat="37.040811999715324" lon="14.70070232142117"><ele>512.3333333333334</ele><time>2026-04-04T07:30:49Z</time></trkpt><trkpt lat="37.04076649138296" lon="14.700771137815117"><ele>513.0</ele><time>2026-04-04T07:30:50Z</time></trkpt><trkpt lat="37.0407067719758" lon="14.70087087543816"><ele>513.6666666666666</ele><time>2026-04-04T07:30:52Z</time></trkpt><trkpt lat="37.040637721131645" lon="14.70091678285263"><ele>514.3333333333333</ele><time>2026-04-04T07:31:48Z</time></trkpt><trkpt lat="37.040584279273624" lon="14.700818923142036"><ele>515.0</ele><time>2026-04-04T07:31:50Z</time></trkpt><trkpt lat="37.04056610877227" lon="14.700726100901612"><ele>515.6</ele><time>2026-04-04T07:31:51Z</time></trkpt><trkpt lat="37.040558407051115" lon="14.7005982734134"><ele>516.2</ele><time>2026-04-04T07:31:52Z</time></trkpt><trkpt lat="37.040561388442995" lon="14.700480165545706"><ele>516.8</ele><time>2026-04-04T07:31:53Z</time></trkpt><trkpt lat="37.04061864070328" lon="14.700355985932074"><ele>517.4</ele><time>2026-04-04T07:31:54Z</time></trkpt><trkpt lat="37.04063508710776" lon="14.700225497688153"><ele>518.0</ele><time>2026-04-04T07:31:55Z</time></trkpt><trkpt lat="37.040654728128224" lon="14.700086057974586"><ele>516.0</ele><time>2026-04-04T07:31:56Z</time></trkpt><trkpt lat="37.040672701557476" lon="14.69993289741248"><ele>514.0</ele><time>2026-04-04T07:31:57Z</time></trkpt><trkpt lat="37.04068463209749" lon="14.699781021486142"><ele>512.0</ele><time>2026-04-04T07:31:58Z</time></trkpt><trkpt lat="37.04069953484158" lon="14.699626317644404"><ele>510.0</ele><time>2026-04-04T07:31:59Z</time></trkpt><trkpt lat="37.04071259247352" lon="14.699456638728222"><ele>508.0</ele><time>2026-04-04T07:32:00Z</time></trkpt><trkpt lat="37.04071192883127" lon="14.699295786124875"><ele>506.0</ele><time>2026-04-04T07:32:01Z</time></trkpt><trkpt lat="37.04070967927416" lon="14.699137781314015"><ele>504.0</ele><time>2026-04-04T07:32:02Z</time></trkpt><trkpt lat="37.0407067836316" lon="14.698972812917573"><ele>502.0</ele><time>2026-04-04T07:32:03Z</time></trkpt><trkpt lat="37.040703391703396" lon="14.69880033710546"><ele>502.0</ele><time>2026-04-04T07:32:04Z</time></trkpt><trkpt lat="37.040699928230396" lon="14.698626412963575"><ele>502.0</ele><time>2026-04-04T07:32:05Z</time></trkpt><trkpt lat="37.04069486103498" lon="14.698441121622865"><ele>502.0</ele><time>2026-04-04T07:32:06Z</time></trkpt><trkpt lat="37.040688791569856" lon="14.69826159019091"><ele>502.0</ele><time>2026-04-04T07:32:07Z</time></trkpt><trkpt lat="37.04068626858943" lon="14.698078314778588"><ele>499.6666666666667</ele><time>2026-04-04T07:32:08Z</time></trkpt><trkpt lat="37.04068871748925" lon="14.697881948026916"><ele>497.33333333333337</ele><time>2026-04-04T07:32:09Z</time></trkpt><trkpt lat="37.04069387098029" lon="14.697701098691548"><ele>495.0</ele><time>2026-04-04T07:32:10Z</time></trkpt><trkpt lat="37.04070091299306" lon="14.697515002178768"><ele>493.5</ele><time>2026-04-04T07:32:11Z</time></trkpt><trkpt lat="37.04071147856126" lon="14.697339271988618"><ele>492.0</ele><time>2026-04-04T07:32:12Z</time></trkpt><trkpt lat="37.04072118820282" lon="14.69717015262982"><ele>490.5</ele><time>2026-04-04T07:32:13Z</time></trkpt><trkpt lat="37.04072911695972" lon="14.69700386164594"><ele>489.0</ele><time>2026-04-04T07:32:14Z</time></trkpt><trkpt lat="37.04073851258016" lon="14.696808221578738"><ele>486.33333333333337</ele><time>2026-04-04T07:32:15Z</time></trkpt><trkpt lat="37.04074761285274" lon="14.696620446856281"><ele>483.6666666666667</ele><time>2026-04-04T07:32:16Z</time></trkpt><trkpt lat="37.04075717296678" lon="14.696423183736252"><ele>481.0</ele><time>2026-04-04T07:32:17Z</time></trkpt><trkpt lat="37.040766386930294" lon="14.696233063209386"><ele>478.6666666666667</ele><time>2026-04-04T07:32:18Z</time></trkpt><trkpt lat="37.04077569236043" lon="14.696041055309156"><ele>476.33333333333337</ele><time>2026-04-04T07:32:19Z</time></trkpt><trkpt lat="37.040784417498095" lon="14.695843154316163"><ele>474.0</ele><time>2026-04-04T07:32:20Z</time></trkpt><trkpt lat="37.04079281531886" lon="14.695651744980744"><ele>474.75</ele><time>2026-04-04T07:32:21Z</time></trkpt><trkpt lat="37.04080046053985" lon="14.69547529711043"><ele>475.5</ele><time>2026-04-04T07:32:22Z</time></trkpt><trkpt lat="37.040807439605956" lon="14.69531317497367"><ele>476.25</ele><time>2026-04-04T07:32:23Z</time></trkpt><trkpt lat="37.040813580075834" lon="14.695170533320686"><ele>477.0</ele><time>2026-04-04T07:32:24Z</time></trkpt><trkpt lat="37.04081883120394" lon="14.695048550783554"><ele>477.0</ele><time>2026-04-04T07:32:25Z</time></trkpt><trkpt lat="37.040820068651556" lon="14.694942030493396"><ele>477.0</ele><time>2026-04-04T07:32:26Z</time></trkpt><trkpt lat="37.04081775907894" lon="14.694835860436894"><ele>477.0</ele><time>2026-04-04T07:32:27Z</time></trkpt><trkpt lat="37.04080714290059" lon="14.694726972390722"><ele>477.0</ele><time>2026-04-04T07:32:28Z</time></trkpt><trkpt lat="37.04079684258826" lon="14.694627643939059"><ele>477.0</ele><time>2026-04-04T07:32:29Z</time></trkpt><trkpt lat="37.04079118303756" lon="14.694538159466283"><ele>477.0</ele><time>2026-04-04T07:32:30Z</time></trkpt><trkpt lat="37.040754888931154" lon="14.694407658151865"><ele>474.6</ele><time>2026-04-04T07:32:32Z</time></trkpt><trkpt lat="37.04066573879158" lon="14.694374458317897"><ele>472.20000000000005</ele><time>2026-04-04T07:32:34Z</time></trkpt><trkpt lat="37.04059408752381" lon="14.694398483351389"><ele>469.8</ele><time>2026-04-04T07:32:36Z</time></trkpt><trkpt lat="37.04051111695902" lon="14.694392785777788"><ele>467.4</ele><time>2026-04-04T07:32:38Z</time></trkpt><trkpt lat="37.04043941778342" lon="14.694391870165763"><ele>465.0</ele><time>2026-04-04T07:32:40Z</time></trkpt><trkpt lat="37.040511440241254" lon="14.694217653378372"><ele>465.0</ele><time>2026-04-04T07:32:45Z</time></trkpt><trkpt lat="37.040568860023306" lon="14.694156344046311"><ele>465.0</ele><time>2026-04-04T07:32:55Z</time></trkpt><trkpt lat="37.04059866527704" lon="14.694084069093316"><ele>465.0</ele><time>2026-04-04T07:32:58Z</time></trkpt><trkpt lat="37.04056267261443" lon="14.693995115529022"><ele>465.0</ele><time>2026-04-04T07:33:00Z</time></trkpt><trkpt lat="37.040511771182224" lon="14.693933504205319"><ele>465.0</ele><time>2026-04-04T07:33:03Z</time></trkpt><trkpt lat="37.040554455740654" lon="14.693857046947484"><ele>465.0</ele><time>2026-04-04T07:33:15Z</time></trkpt><trkpt lat="37.04063788685011" lon="14.693823031590545"><ele>465.0</ele><time>2026-04-04T07:33:18Z</time></trkpt><trkpt lat="37.0407170974145" lon="14.693829101633508"><ele>465.0</ele><time>2026-04-04T07:33:20Z</time></trkpt><trkpt lat="37.04076451833262" lon="14.693764970797796"><ele>465.0</ele><time>2026-04-04T07:33:22Z</time></trkpt><trkpt lat="37.040784043709145" lon="14.69368400219766"><ele>465.0</ele><time>2026-04-04T07:33:24Z</time></trkpt><trkpt lat="37.040861885848834" lon="14.693661206361583"><ele>465.0</ele><time>2026-04-04T07:33:28Z</time></trkpt><trkpt lat="37.04092133886158" lon="14.693631050412096"><ele>465.0</ele><time>2026-04-04T07:33:30Z</time></trkpt><trkpt lat="37.041007807552994" lon="14.693645055008549"><ele>465.0</ele><time>2026-04-04T07:33:36Z</time></trkpt><trkpt lat="37.04108907754026" lon="14.69363604226559"><ele>465.0</ele><time>2026-04-04T07:33:38Z</time></trkpt><trkpt lat="37.04116348650906" lon="14.693641931396568"><ele>465.0</ele><time>2026-04-04T07:33:41Z</time></trkpt><trkpt lat="37.041228716726756" lon="14.69362813827375"><ele>465.0</ele><time>2026-04-04T07:33:43Z</time></trkpt><trkpt lat="37.041289350216815" lon="14.693572310138464"><ele>465.0</ele><time>2026-04-04T07:33:45Z</time></trkpt><trkpt lat="37.041306133462065" lon="14.693480290354264"><ele>465.0</ele><time>2026-04-04T07:33:48Z</time></trkpt><trkpt lat="37.04127004662821" lon="14.693414638795721"><ele>465.0</ele><time>2026-04-04T07:34:42Z</time></trkpt><trkpt lat="37.04118168804225" lon="14.693427070427472"><ele>465.0</ele><time>2026-04-04T07:34:45Z</time></trkpt><trkpt lat="37.041084451843034" lon="14.69340180644488"><ele>464.6666666666667</ele><time>2026-04-04T07:34:48Z</time></trkpt><trkpt lat="37.041012964639904" lon="14.693348363944578"><ele>464.33333333333337</ele><time>2026-04-04T07:34:51Z</time></trkpt><trkpt lat="37.04094943615598" lon="14.693341717837573"><ele>464.0</ele><time>2026-04-04T07:34:53Z</time></trkpt><trkpt lat="37.04089558412075" lon="14.693279997055367"><ele>463.6666666666667</ele><time>2026-04-04T07:34:57Z</time></trkpt><trkpt lat="37.04083251068809" lon="14.693250720652243"><ele>463.33333333333337</ele><time>2026-04-04T07:34:59Z</time></trkpt><trkpt lat="37.04071961932158" lon="14.693229614836438"><ele>463.0</ele><time>2026-04-04T07:35:53Z</time></trkpt><trkpt lat="37.040651674740936" lon="14.693259353729268"><ele>463.00000000000006</ele><time>2026-04-04T07:35:54Z</time></trkpt><trkpt lat="37.04057320768088" lon="14.693284069780493"><ele>463.0</ele><time>2026-04-04T07:35:55Z</time></trkpt><trkpt lat="37.04047421691351" lon="14.69331416303885"><ele>463.0</ele><time>2026-04-04T07:35:56Z</time></trkpt><trkpt lat="37.040410837764675" lon="14.693341640116582"><ele>463.0</ele><time>2026-04-04T07:35:57Z</time></trkpt><trkpt lat="37.04034277801659" lon="14.693305220511524"><ele>463.00000000000006</ele><time>2026-04-04T07:35:58Z</time></trkpt><trkpt lat="37.040279445705785" lon="14.693323286917458"><ele>463.0</ele><time>2026-04-04T07:35:59Z</time></trkpt><trkpt lat="37.04020977845936" lon="14.693343160477239"><ele>463.0</ele><time>2026-04-04T07:36:00Z</time></trkpt><trkpt lat="37.040129972411634" lon="14.693462760296221"><ele>462.99999999999994</ele><time>2026-04-04T07:36:01Z</time></trkpt><trkpt lat="37.04006250509748" lon="14.693523878931085"><ele>462.99999999999994</ele><time>2026-04-04T07:36:02Z</time></trkpt><trkpt lat="37.03998527656943" lon="14.693613480760535"><ele>463.0</ele><time>2026-04-04T07:36:04Z</time></trkpt><trkpt lat="37.03990448236446" lon="14.693701020330053"><ele>463.0</ele><time>2026-04-04T07:36:06Z</time></trkpt><trkpt lat="37.0398417585975" lon="14.693820394844629"><ele>463.2857142857143</ele><time>2026-04-04T07:36:08Z</time></trkpt><trkpt lat="37.03982377582867" lon="14.693902206828422"><ele>463.57142857142856</ele><time>2026-04-04T07:36:09Z</time></trkpt><trkpt lat="37.03982382071889" lon="14.693987934039589"><ele>463.85714285714283</ele><time>2026-04-04T07:36:10Z</time></trkpt><trkpt lat="37.03984100172859" lon="14.6940690235112"><ele>464.1428571428571</ele><time>2026-04-04T07:36:11Z</time></trkpt><trkpt lat="37.03986503973802" lon="14.694148519710604"><ele>464.42857142857144</ele><time>2026-04-04T07:36:12Z</time></trkpt><trkpt lat="37.03990502107137" lon="14.694226970172197"><ele>464.71428571428567</ele><time>2026-04-04T07:36:13Z</time></trkpt><trkpt lat="37.03996642588271" lon="14.694293518663372"><ele>465.0</ele><time>2026-04-04T07:36:14Z</time></trkpt><trkpt lat="37.04002124049079" lon="14.694345494426235"><ele>465.0</ele><time>2026-04-04T07:36:15Z</time></trkpt><trkpt lat="37.0400997827703" lon="14.694400471820853"><ele>465.0</ele><time>2026-04-04T07:36:16Z</time></trkpt><trkpt lat="37.040198740156924" lon="14.694438217086015"><ele>465.0</ele><time>2026-04-04T07:36:17Z</time></trkpt><trkpt lat="37.04033111384954" lon="14.69447029250229"><ele>465.0</ele><time>2026-04-04T07:36:18Z</time></trkpt><trkpt lat="37.04046401276051" lon="14.69446214891569"><ele>466.0</ele><time>2026-04-04T07:36:19Z</time></trkpt><trkpt lat="37.04058545810824" lon="14.694464108760894"><ele>467.0</ele><time>2026-04-04T07:36:20Z</time></trkpt><trkpt lat="37.04067730711937" lon="14.694492527391763"><ele>468.0</ele><time>2026-04-04T07:36:21Z</time></trkpt><trkpt lat="37.04072343774604" lon="14.694551673350812"><ele>469.0</ele><time>2026-04-04T07:36:22Z</time></trkpt><trkpt lat="37.040755574205605" lon="14.694634674890738"><ele>470.0</ele><time>2026-04-04T07:36:23Z</time></trkpt><trkpt lat="37.040758707213534" lon="14.694753504255402"><ele>470.0</ele><time>2026-04-04T07:36:24Z</time></trkpt><trkpt lat="37.04075929785805" lon="14.694870821883544"><ele>470.0</ele><time>2026-04-04T07:36:25Z</time></trkpt><trkpt lat="37.04076900695104" lon="14.695041397953952"><ele>470.0</ele><time>2026-04-04T07:36:26Z</time></trkpt><trkpt lat="37.0407563517094" lon="14.695226057717782"><ele>470.0</ele><time>2026-04-04T07:36:27Z</time></trkpt><trkpt lat="37.04074273708686" lon="14.695427973437365"><ele>471.3333333333333</ele><time>2026-04-04T07:36:28Z</time></trkpt><trkpt lat="37.04072934714006" lon="14.695623387802911"><ele>472.66666666666663</ele><time>2026-04-04T07:36:29Z</time></trkpt><trkpt lat="37.04073421953168" lon="14.695845826050878"><ele>474.0</ele><time>2026-04-04T07:36:30Z</time></trkpt><trkpt lat="37.0407229825479" lon="14.696094963798624"><ele>476.33333333333337</ele><time>2026-04-04T07:36:31Z</time></trkpt><trkpt lat="37.0407035382474" lon="14.696290148585124"><ele>478.6666666666667</ele><time>2026-04-04T07:36:32Z</time></trkpt><trkpt lat="37.040699735318846" lon="14.696479796481908"><ele>481.0</ele><time>2026-04-04T07:36:33Z</time></trkpt><trkpt lat="37.04069242153473" lon="14.696665460031818"><ele>481.0</ele><time>2026-04-04T07:36:34Z</time></trkpt><trkpt lat="37.04067901001851" lon="14.696851453394064"><ele>481.0</ele><time>2026-04-04T07:36:35Z</time></trkpt><trkpt lat="37.0406663190988" lon="14.697051850740658"><ele>481.0</ele><time>2026-04-04T07:36:36Z</time></trkpt><trkpt lat="37.040654742410815" lon="14.697257622999635"><ele>483.6666666666667</ele><time>2026-04-04T07:36:37Z</time></trkpt><trkpt lat="37.04064470017955" lon="14.697460901263124"><ele>486.33333333333337</ele><time>2026-04-04T07:36:38Z</time></trkpt><trkpt lat="37.04063929714555" lon="14.697658158772084"><ele>489.0</ele><time>2026-04-04T07:36:39Z</time></trkpt><trkpt lat="37.04063316725924" lon="14.697842738828507"><ele>490.5</ele><time>2026-04-04T07:36:40Z</time></trkpt><trkpt lat="37.040629217758514" lon="14.698013104257178"><ele>492.0</ele><time>2026-04-04T07:36:41Z</time></trkpt><trkpt lat="37.040631054805274" lon="14.698174075036373"><ele>493.5</ele><time>2026-04-04T07:36:42Z</time></trkpt><trkpt lat="37.040633191316076" lon="14.698332923038347"><ele>495.0</ele><time>2026-04-04T07:36:43Z</time></trkpt><trkpt lat="37.0406383179479" lon="14.69849655811745"><ele>496.75</ele><time>2026-04-04T07:36:44Z</time></trkpt><trkpt lat="37.04064472134735" lon="14.698667709873309"><ele>498.5</ele><time>2026-04-04T07:36:45Z</time></trkpt><trkpt lat="37.04064879188777" lon="14.698837294784827"><ele>500.25</ele><time>2026-04-04T07:36:46Z</time></trkpt><trkpt lat="37.040652059199935" lon="14.69899531602915"><ele>502.0</ele><time>2026-04-04T07:36:47Z</time></trkpt><trkpt lat="37.04064950875191" lon="14.699179008608919"><ele>502.0</ele><time>2026-04-04T07:36:48Z</time></trkpt><trkpt lat="37.04064936014351" lon="14.699392795887471"><ele>502.0</ele><time>2026-04-04T07:36:49Z</time></trkpt><trkpt lat="37.04064556200088" lon="14.699616875550191"><ele>502.0</ele><time>2026-04-04T07:36:50Z</time></trkpt><trkpt lat="37.040617351118044" lon="14.699851883485263"><ele>504.6666666666667</ele><time>2026-04-04T07:36:51Z</time></trkpt><trkpt lat="37.040593105311586" lon="14.700061205744355"><ele>507.33333333333337</ele><time>2026-04-04T07:36:52Z</time></trkpt><trkpt lat="37.04057949908152" lon="14.70025501064232"><ele>510.0</ele><time>2026-04-04T07:36:53Z</time></trkpt><trkpt lat="37.04056832894401" lon="14.700435997953544"><ele>511.6</ele><time>2026-04-04T07:36:54Z</time></trkpt><trkpt lat="37.04056618675431" lon="14.70060179476657"><ele>513.2</ele><time>2026-04-04T07:36:55Z</time></trkpt><trkpt lat="37.040577763262164" lon="14.700744649363564"><ele>514.8</ele><time>2026-04-04T07:36:56Z</time></trkpt><trkpt lat="37.04060714473889" lon="14.700874608537754"><ele>516.4</ele><time>2026-04-04T07:36:57Z</time></trkpt><trkpt lat="37.0406427344345" lon="14.700975241628202"><ele>518.0</ele><time>2026-04-04T07:36:58Z</time></trkpt><trkpt lat="37.04066682799815" lon="14.701060880756515"><ele>520.4</ele><time>2026-04-04T07:36:59Z</time></trkpt><trkpt lat="37.040701782332945" lon="14.70117352526353"><ele>522.8</ele><time>2026-04-04T07:37:01Z</time></trkpt><trkpt lat="37.04066813948782" lon="14.701336931701261"><ele>525.2</ele><time>2026-04-04T07:37:09Z</time></trkpt><trkpt lat="37.04062295676529" lon="14.701402404969581"><ele>527.6</ele><time>2026-04-04T07:37:10Z</time></trkpt><trkpt lat="37.040554384567216" lon="14.701449833007523"><ele>530.0</ele><time>2026-04-04T07:37:11Z</time></trkpt><trkpt lat="37.04048947053384" lon="14.701504869125996"><ele>530.0</ele><time>2026-04-04T07:37:12Z</time></trkpt><trkpt lat="37.04040678258416" lon="14.701528966162272"><ele>530.0</ele><time>2026-04-04T07:37:13Z</time></trkpt><trkpt lat="37.04032116669473" lon="14.701579601667582"><ele>530.0</ele><time>2026-04-04T07:37:14Z</time></trkpt><trkpt lat="37.04022997926577" lon="14.701636326320394"><ele>530.0</ele><time>2026-04-04T07:37:15Z</time></trkpt><trkpt lat="37.04013227719862" lon="14.701702840997774"><ele>530.0</ele><time>2026-04-04T07:37:16Z</time></trkpt><trkpt lat="37.04005159450437" lon="14.701761164051039"><ele>530.0</ele><time>2026-04-04T07:37:17Z</time></trkpt><trkpt lat="37.03999973761498" lon="14.701835627389361"><ele>530.0</ele><time>2026-04-04T07:37:18Z</time></trkpt><trkpt lat="37.03994680956095" lon="14.701878343103049"><ele>530.0</ele><time>2026-04-04T07:37:19Z</time></trkpt><trkpt lat="37.039875487351836" lon="14.70190175492585"><ele>530.0</ele><time>2026-04-04T07:37:20Z</time></trkpt><trkpt lat="37.03982714357592" lon="14.701953185008644"><ele>530.0</ele><time>2026-04-04T07:37:21Z</time></trkpt><trkpt lat="37.03974837333193" lon="14.702043344922137"><ele>530.0</ele><time>2026-04-04T07:37:23Z</time></trkpt><trkpt lat="37.03965456822655" lon="14.702116424531269"><ele>534.0</ele><time>2026-04-04T07:37:25Z</time></trkpt><trkpt lat="37.03955635024683" lon="14.702188893393759"><ele>538.0</ele><time>2026-04-04T07:37:27Z</time></trkpt><trkpt lat="37.03950428380503" lon="14.70226112453808"><ele>542.0</ele><time>2026-04-04T07:37:29Z</time></trkpt><trkpt lat="37.03958903512889" lon="14.702292009518818"><ele>546.0</ele><time>2026-04-04T07:37:34Z</time></trkpt><trkpt lat="37.039652760209556" lon="14.702247251353082"><ele>550.0</ele><time>2026-04-04T07:37:35Z</time></trkpt><trkpt lat="37.03976596462776" lon="14.702235655083008"><ele>550.0</ele><time>2026-04-04T07:37:37Z</time></trkpt><trkpt lat="37.039886624529395" lon="14.702276121483468"><ele>550.0</ele><time>2026-04-04T07:37:39Z</time></trkpt><trkpt lat="37.03995603275897" lon="14.702289871445904"><ele>550.0</ele><time>2026-04-04T07:37:40Z</time></trkpt><trkpt lat="37.04000193248958" lon="14.70235561104071"><ele>550.0</ele><time>2026-04-04T07:37:41Z</time></trkpt><trkpt lat="37.04008058869785" lon="14.702441624633037"><ele>550.0</ele><time>2026-04-04T07:37:43Z</time></trkpt><trkpt lat="37.04014712541686" lon="14.702547227300535"><ele>549.3333333333334</ele><time>2026-04-04T07:37:45Z</time></trkpt><trkpt lat="37.04018937976617" lon="14.70261834682491"><ele>548.6666666666667</ele><time>2026-04-04T07:37:46Z</time></trkpt><trkpt lat="37.04023520522733" lon="14.702698141420456"><ele>548.0</ele><time>2026-04-04T07:37:47Z</time></trkpt><trkpt lat="37.040289258342504" lon="14.702796569937519"><ele>547.3333333333334</ele><time>2026-04-04T07:37:48Z</time></trkpt><trkpt lat="37.04036161743367" lon="14.702896184624391"><ele>546.6666666666666</ele><time>2026-04-04T07:37:49Z</time></trkpt><trkpt lat="37.04042738871877" lon="14.702962325911187"><ele>546.0</ele><time>2026-04-04T07:37:50Z</time></trkpt><trkpt lat="37.04048335900664" lon="14.703002879341536"><ele>547.4</ele><time>2026-04-04T07:37:51Z</time></trkpt><trkpt lat="37.04059712045041" lon="14.703052996813618"><ele>548.8</ele><time>2026-04-04T07:37:53Z</time></trkpt><trkpt lat="37.04071722667962" lon="14.703090857727801"><ele>550.1999999999999</ele><time>2026-04-04T07:37:55Z</time></trkpt><trkpt lat="37.04078308024957" lon="14.70311575998682"><ele>551.6</ele><time>2026-04-04T07:37:56Z</time></trkpt><trkpt lat="37.04085027621501" lon="14.703144103101268"><ele>553.0</ele><time>2026-04-04T07:37:57Z</time></trkpt><trkpt lat="37.040930742284104" lon="14.703180843899117"><ele>553.0</ele><time>2026-04-04T07:37:58Z</time></trkpt><trkpt lat="37.040999821800625" lon="14.703225258729145"><ele>553.0</ele><time>2026-04-04T07:37:59Z</time></trkpt><trkpt lat="37.041091961023454" lon="14.703302219482806"><ele>553.0</ele><time>2026-04-04T07:38:01Z</time></trkpt><trkpt lat="37.04113078190832" lon="14.703447419857453"><ele>553.0</ele><time>2026-04-04T07:38:03Z</time></trkpt><trkpt lat="37.04112435991806" lon="14.70355485188727"><ele>553.0</ele><time>2026-04-04T07:38:04Z</time></trkpt><trkpt lat="37.041135683276934" lon="14.703665736394619"><ele>554.3333333333334</ele><time>2026-04-04T07:38:05Z</time></trkpt><trkpt lat="37.041157834047134" lon="14.703774670828642"><ele>555.6666666666667</ele><time>2026-04-04T07:38:06Z</time></trkpt><trkpt lat="37.04117536146396" lon="14.703888112456802"><ele>557.0</ele><time>2026-04-04T07:38:07Z</time></trkpt><trkpt lat="37.04117895921483" lon="14.70400250030932"><ele>558.3333333333334</ele><time>2026-04-04T07:38:08Z</time></trkpt><trkpt lat="37.041181048876744" lon="14.704102950806066"><ele>559.6666666666666</ele><time>2026-04-04T07:38:09Z</time></trkpt><trkpt lat="37.04118699649105" lon="14.704194760831587"><ele>561.0</ele><time>2026-04-04T07:38:10Z</time></trkpt><trkpt lat="37.041193863896396" lon="14.70429601672989"><ele>561.0</ele><time>2026-04-04T07:38:11Z</time></trkpt><trkpt lat="37.041208026183526" lon="14.70440794320396"><ele>561.0</ele><time>2026-04-04T07:38:12Z</time></trkpt><trkpt lat="37.041221993112536" lon="14.704516089871667"><ele>561.0</ele><time>2026-04-04T07:38:13Z</time></trkpt><trkpt lat="37.04122827424714" lon="14.704613673990023"><ele>561.0</ele><time>2026-04-04T07:38:14Z</time></trkpt><trkpt lat="37.04122300302796" lon="14.704706966668157"><ele>561.0</ele><time>2026-04-04T07:38:15Z</time></trkpt><trkpt lat="37.04121067764258" lon="14.704798792124555"><ele>561.0</ele><time>2026-04-04T07:38:16Z</time></trkpt><trkpt lat="37.04120192084212" lon="14.70489818018045"><ele>560.3333333333334</ele><time>2026-04-04T07:38:17Z</time></trkpt><trkpt lat="37.04117706746466" lon="14.705013159079055"><ele>559.6666666666666</ele><time>2026-04-04T07:38:18Z</time></trkpt><trkpt lat="37.04116653014436" lon="14.705109249913079"><ele>559.0</ele><time>2026-04-04T07:38:19Z</time></trkpt><trkpt lat="37.04115054571757" lon="14.705207247492378"><ele>558.3333333333333</ele><time>2026-04-04T07:38:20Z</time></trkpt><trkpt lat="37.04113943007471" lon="14.705298401086914"><ele>557.6666666666666</ele><time>2026-04-04T07:38:21Z</time></trkpt><trkpt lat="37.041123623431154" lon="14.705384587862786"><ele>557.0</ele><time>2026-04-04T07:38:22Z</time></trkpt><trkpt lat="37.041110135496524" lon="14.7055325517717"><ele>554.4</ele><time>2026-04-04T07:38:24Z</time></trkpt><trkpt lat="37.0411290900024" lon="14.705673385838601"><ele>551.8000000000001</ele><time>2026-04-04T07:38:26Z</time></trkpt><trkpt lat="37.04116270353049" lon="14.705742495777816"><ele>549.2</ele><time>2026-04-04T07:38:27Z</time></trkpt><trkpt lat="37.04122864282592" lon="14.705838459339295"><ele>546.6</ele><time>2026-04-04T07:38:29Z</time></trkpt><trkpt lat="37.041162982027345" lon="14.705973646308239"><ele>544.0</ele><time>2026-04-04T07:38:31Z</time></trkpt><trkpt lat="37.04111835611146" lon="14.706047154794765"><ele>544.0</ele><time>2026-04-04T07:38:32Z</time></trkpt><trkpt lat="37.041091963732875" lon="14.706119201118248"><ele>544.0</ele><time>2026-04-04T07:38:36Z</time></trkpt><trkpt lat="37.04106172440319" lon="14.706203636141286"><ele>544.0</ele><time>2026-04-04T07:42:18Z</time></trkpt><trkpt lat="37.041091980494656" lon="14.706319381163599"><ele>544.0</ele><time>2026-04-04T07:42:21Z</time></trkpt><trkpt lat="37.04109390538086" lon="14.706213086161815"><ele>544.0</ele><time>2026-04-04T07:47:55Z</time></trkpt><trkpt lat="37.04113303592276" lon="14.706136738570109"><ele>544.0</ele><time>2026-04-04T07:48:02Z</time></trkpt><trkpt lat="37.04117202853163" lon="14.706038757627711"><ele>544.0</ele><time>2026-04-04T07:48:04Z</time></trkpt><trkpt lat="37.04121050890449" lon="14.70593574134986"><ele>544.0</ele><time>2026-04-04T07:48:06Z</time></trkpt><trkpt lat="37.041183815040924" lon="14.70580169859038"><ele>544.0</ele><time>2026-04-04T07:48:08Z</time></trkpt><trkpt lat="37.041143654136896" lon="14.705673250667603"><ele>544.0</ele><time>2026-04-04T07:48:10Z</time></trkpt><trkpt lat="37.041155839338366" lon="14.705540972743881"><ele>544.0</ele><time>2026-04-04T07:48:12Z</time></trkpt><trkpt lat="37.041153910203995" lon="14.705391961641071"><ele>544.0</ele><time>2026-04-04T07:48:14Z</time></trkpt><trkpt lat="37.041176845138224" lon="14.70524741978156"><ele>544.0</ele><time>2026-04-04T07:48:16Z</time></trkpt><trkpt lat="37.041195021639616" lon="14.705168455386096"><ele>544.0</ele><time>2026-04-04T07:48:20Z</time></trkpt><trkpt lat="37.04121196140851" lon="14.705036139066443"><ele>544.0</ele><time>2026-04-04T07:48:23Z</time></trkpt><trkpt lat="37.04123882899112" lon="14.704881950517878"><ele>544.0</ele><time>2026-04-04T07:48:25Z</time></trkpt><trkpt lat="37.04124981006835" lon="14.704803223956695"><ele>546.6</ele><time>2026-04-04T07:48:26Z</time></trkpt><trkpt lat="37.041259681745885" lon="14.704682714820486"><ele>549.2</ele><time>2026-04-04T07:48:28Z</time></trkpt><trkpt lat="37.0412639417412" lon="14.704546701724968"><ele>551.8000000000001</ele><time>2026-04-04T07:48:30Z</time></trkpt><trkpt lat="37.04124710092866" lon="14.704408842319843"><ele>554.4</ele><time>2026-04-04T07:48:32Z</time></trkpt><trkpt lat="37.04123320070214" lon="14.7043301093029"><ele>557.0</ele><time>2026-04-04T07:48:33Z</time></trkpt><trkpt lat="37.04122247217545" lon="14.704189165832426"><ele>557.5714285714286</ele><time>2026-04-04T07:48:35Z</time></trkpt><trkpt lat="37.04121541604356" lon="14.704102356283242"><ele>558.1428571428571</ele><time>2026-04-04T07:48:36Z</time></trkpt><trkpt lat="37.04121198812737" lon="14.704009675040323"><ele>558.7142857142857</ele><time>2026-04-04T07:48:37Z</time></trkpt><trkpt lat="37.041210582301574" lon="14.70391768697453"><ele>559.2857142857142</ele><time>2026-04-04T07:48:38Z</time></trkpt><trkpt lat="37.04120338220496" lon="14.703822220506876"><ele>559.8571428571428</ele><time>2026-04-04T07:48:39Z</time></trkpt><trkpt lat="37.04119521190185" lon="14.703738725849403"><ele>560.4285714285714</ele><time>2026-04-04T07:48:40Z</time></trkpt><trkpt lat="37.04118008057253" lon="14.703648586064821"><ele>561.0</ele><time>2026-04-04T07:48:41Z</time></trkpt><trkpt lat="37.04116027501899" lon="14.703549773452773"><ele>562.0</ele><time>2026-04-04T07:48:42Z</time></trkpt><trkpt lat="37.04115221987752" lon="14.703455518718107"><ele>563.0</ele><time>2026-04-04T07:48:43Z</time></trkpt><trkpt lat="37.04113919343595" lon="14.703327639767355"><ele>564.0</ele><time>2026-04-04T07:48:45Z</time></trkpt><trkpt lat="37.041055291652796" lon="14.703231652685183"><ele>565.0</ele><time>2026-04-04T07:48:47Z</time></trkpt><trkpt lat="37.040983308050336" lon="14.703189637048993"><ele>566.0</ele><time>2026-04-04T07:48:48Z</time></trkpt><trkpt lat="37.040914353881824" lon="14.703157623626558"><ele>567.0</ele><time>2026-04-04T07:48:49Z</time></trkpt><trkpt lat="37.0407985899427" lon="14.703101701731319"><ele>567.0</ele><time>2026-04-04T07:48:51Z</time></trkpt><trkpt lat="37.04072251742529" lon="14.703075386753625"><ele>567.0</ele><time>2026-04-04T07:48:52Z</time></trkpt><trkpt lat="37.0406536728658" lon="14.70305108087955"><ele>567.0</ele><time>2026-04-04T07:48:53Z</time></trkpt><trkpt lat="37.040592226097445" lon="14.703028186644659"><ele>567.0</ele><time>2026-04-04T07:48:54Z</time></trkpt><trkpt lat="37.04047996242493" lon="14.702962693277923"><ele>567.0</ele><time>2026-04-04T07:48:56Z</time></trkpt><trkpt lat="37.040384857874855" lon="14.702857798206962"><ele>567.0</ele><time>2026-04-04T07:48:58Z</time></trkpt><trkpt lat="37.0403464746812" lon="14.702794781821698"><ele>567.0</ele><time>2026-04-04T07:48:59Z</time></trkpt><trkpt lat="37.0402634098533" lon="14.702691286100066"><ele>567.0</ele><time>2026-04-04T07:49:01Z</time></trkpt><trkpt lat="37.040208678350005" lon="14.70258844516744"><ele>567.0</ele><time>2026-04-04T07:49:03Z</time></trkpt><trkpt lat="37.0401427376702" lon="14.702492913396489"><ele>567.0</ele><time>2026-04-04T07:49:05Z</time></trkpt><trkpt lat="37.04006132527019" lon="14.70237572713195"><ele>563.6</ele><time>2026-04-04T07:49:08Z</time></trkpt><trkpt lat="37.039994752093925" lon="14.70231899184533"><ele>560.2</ele><time>2026-04-04T07:49:10Z</time></trkpt><trkpt lat="37.03985828144103" lon="14.702244646204768"><ele>556.8</ele><time>2026-04-04T07:49:12Z</time></trkpt><trkpt lat="37.03975973534155" lon="14.7022242272967"><ele>553.4</ele><time>2026-04-04T07:49:14Z</time></trkpt><trkpt lat="37.039654610233676" lon="14.702244582410477"><ele>550.0</ele><time>2026-04-04T07:49:16Z</time></trkpt><trkpt lat="37.03957344360851" lon="14.702304686983172"><ele>550.0</ele><time>2026-04-04T07:49:18Z</time></trkpt><trkpt lat="37.039494723250655" lon="14.702341653329828"><ele>550.0</ele><time>2026-04-04T07:50:04Z</time></trkpt><trkpt lat="37.03940494553885" lon="14.702365226816061"><ele>550.0</ele><time>2026-04-04T07:50:06Z</time></trkpt><trkpt lat="37.03934470272901" lon="14.702289671784193"><ele>550.0</ele><time>2026-04-04T07:50:08Z</time></trkpt><trkpt lat="37.039315288662436" lon="14.702172016459144"><ele>550.0</ele><time>2026-04-04T07:50:10Z</time></trkpt><trkpt lat="37.03926799735958" lon="14.702086941024653"><ele>550.0</ele><time>2026-04-04T07:50:12Z</time></trkpt><trkpt lat="37.039276464608825" lon="14.701967604948614"><ele>551.0</ele><time>2026-04-04T07:50:15Z</time></trkpt><trkpt lat="37.03924625577583" lon="14.701861355474254"><ele>552.0</ele><time>2026-04-04T07:50:17Z</time></trkpt><trkpt lat="37.03918240855768" lon="14.70181296736526"><ele>553.0</ele><time>2026-04-04T07:50:19Z</time></trkpt><trkpt lat="37.03911041147183" lon="14.701796704614042"><ele>554.0</ele><time>2026-04-04T07:50:20Z</time></trkpt><trkpt lat="37.03902356924272" lon="14.70179670992608"><ele>555.0</ele><time>2026-04-04T07:50:22Z</time></trkpt><trkpt lat="37.038905136129465" lon="14.701769723160718"><ele>556.0</ele><time>2026-04-04T07:50:24Z</time></trkpt><trkpt lat="37.038824786609595" lon="14.701794604845036"><ele>556.0</ele><time>2026-04-04T07:50:25Z</time></trkpt><trkpt lat="37.03873585959916" lon="14.701743542763337"><ele>556.0</ele><time>2026-04-04T07:50:26Z</time></trkpt><trkpt lat="37.03864163320874" lon="14.701690507434156"><ele>556.0</ele><time>2026-04-04T07:50:27Z</time></trkpt><trkpt lat="37.03855200793986" lon="14.701647024844354"><ele>556.0</ele><time>2026-04-04T07:50:28Z</time></trkpt><trkpt lat="37.03847445789939" lon="14.701620176348458"><ele>556.0</ele><time>2026-04-04T07:50:29Z</time></trkpt><trkpt lat="37.03840458830211" lon="14.701614580752997"><ele>556.0</ele><time>2026-04-04T07:50:30Z</time></trkpt><trkpt lat="37.03833225642538" lon="14.701619481746196"><ele>558.3333333333334</ele><time>2026-04-04T07:50:31Z</time></trkpt><trkpt lat="37.03826542273689" lon="14.701607510859247"><ele>560.6666666666667</ele><time>2026-04-04T07:50:32Z</time></trkpt><trkpt lat="37.038200073214114" lon="14.701611054192753"><ele>563.0</ele><time>2026-04-04T07:50:33Z</time></trkpt><trkpt lat="37.0381312433486" lon="14.701619389221449"><ele>565.3333333333334</ele><time>2026-04-04T07:50:34Z</time></trkpt><trkpt lat="37.038011205777984" lon="14.701589248168489"><ele>567.6666666666666</ele><time>2026-04-04T07:50:36Z</time></trkpt><trkpt lat="37.03789667025376" lon="14.701559414356439"><ele>570.0</ele><time>2026-04-04T07:50:38Z</time></trkpt><trkpt lat="37.03781814833344" lon="14.701474909815502"><ele>570.0</ele><time>2026-04-04T07:50:40Z</time></trkpt><trkpt lat="37.03774310242183" lon="14.70137221849288"><ele>570.0</ele><time>2026-04-04T07:50:42Z</time></trkpt><trkpt lat="37.03767739938372" lon="14.701371431688388"><ele>570.0</ele><time>2026-04-04T07:50:43Z</time></trkpt><trkpt lat="37.03756151650805" lon="14.701403489894405"><ele>570.0</ele><time>2026-04-04T07:50:45Z</time></trkpt><trkpt lat="37.03746790709629" lon="14.7014272086996"><ele>570.0</ele><time>2026-04-04T07:50:47Z</time></trkpt><trkpt lat="37.03739682283167" lon="14.701440847332488"><ele>570.8</ele><time>2026-04-04T07:50:50Z</time></trkpt><trkpt lat="37.03731697062623" lon="14.701467398421267"><ele>571.6</ele><time>2026-04-04T07:50:52Z</time></trkpt><trkpt lat="37.037248357373976" lon="14.701447610501187"><ele>572.4</ele><time>2026-04-04T07:50:54Z</time></trkpt><trkpt lat="37.037106010746804" lon="14.701461298853905"><ele>573.2</ele><time>2026-04-04T07:50:56Z</time></trkpt><trkpt lat="37.03700253917714" lon="14.701481685125808"><ele>574.0</ele><time>2026-04-04T07:50:57Z</time></trkpt><trkpt lat="37.03693438778625" lon="14.701541522873512"><ele>574.0</ele><time>2026-04-04T07:50:58Z</time></trkpt><trkpt lat="37.03685611374418" lon="14.701628947680682"><ele>574.0</ele><time>2026-04-04T07:50:59Z</time></trkpt><trkpt lat="37.03678935845798" lon="14.701717515577684"><ele>574.0</ele><time>2026-04-04T07:51:00Z</time></trkpt><trkpt lat="37.036741295870584" lon="14.701790383422441"><ele>574.0</ele><time>2026-04-04T07:51:01Z</time></trkpt><trkpt lat="37.03671179084934" lon="14.701902101077518"><ele>574.0</ele><time>2026-04-04T07:51:03Z</time></trkpt><trkpt lat="37.036699858682745" lon="14.701993579586027"><ele>574.0</ele><time>2026-04-04T07:51:04Z</time></trkpt><trkpt lat="37.03668947354542" lon="14.702091651169294"><ele>572.2</ele><time>2026-04-04T07:51:05Z</time></trkpt><trkpt lat="37.03666476728921" lon="14.702205499546452"><ele>570.4</ele><time>2026-04-04T07:51:07Z</time></trkpt><trkpt lat="37.03660977464135" lon="14.702245581948308"><ele>568.6</ele><time>2026-04-04T07:51:35Z</time></trkpt><trkpt lat="37.03656291972849" lon="14.702384088128921"><ele>566.8</ele><time>2026-04-04T07:51:37Z</time></trkpt><trkpt lat="37.03650789906141" lon="14.702518687305885"><ele>565.0</ele><time>2026-04-04T07:51:39Z</time></trkpt><trkpt lat="37.0364815184932" lon="14.702619219182896"><ele>565.0</ele><time>2026-04-04T07:51:40Z</time></trkpt><trkpt lat="37.036455417920386" lon="14.702715371835701"><ele>565.0</ele><time>2026-04-04T07:51:41Z</time></trkpt><trkpt lat="37.03642714925106" lon="14.702795250087725"><ele>565.0</ele><time>2026-04-04T07:51:42Z</time></trkpt><trkpt lat="37.0363880643607" lon="14.702954371238818"><ele>565.0</ele><time>2026-04-04T07:51:44Z</time></trkpt><trkpt lat="37.036354973226715" lon="14.70305190855494"><ele>565.0</ele><time>2026-04-04T07:51:45Z</time></trkpt><trkpt lat="37.036317354351446" lon="14.703160325786147"><ele>567.3333333333334</ele><time>2026-04-04T07:51:46Z</time></trkpt><trkpt lat="37.03627247240785" lon="14.703252342773297"><ele>569.6666666666667</ele><time>2026-04-04T07:51:47Z</time></trkpt><trkpt lat="37.03622232963387" lon="14.703335092558087"><ele>572.0</ele><time>2026-04-04T07:51:48Z</time></trkpt><trkpt lat="37.03616463112742" lon="14.703400356279376"><ele>574.3333333333334</ele><time>2026-04-04T07:51:49Z</time></trkpt><trkpt lat="37.036107183449325" lon="14.703441568364891"><ele>576.6666666666666</ele><time>2026-04-04T07:51:50Z</time></trkpt><trkpt lat="37.03604768304059" lon="14.703496613198986"><ele>579.0</ele><time>2026-04-04T07:51:51Z</time></trkpt><trkpt lat="37.03600098840485" lon="14.703550099881634"><ele>580.2</ele><time>2026-04-04T07:51:52Z</time></trkpt><trkpt lat="37.03588409089593" lon="14.703634559996667"><ele>581.4</ele><time>2026-04-04T07:51:54Z</time></trkpt><trkpt lat="37.03581472845919" lon="14.703711606094766"><ele>582.6</ele><time>2026-04-04T07:51:55Z</time></trkpt><trkpt lat="37.03574289547778" lon="14.703793352873515"><ele>583.8</ele><time>2026-04-04T07:51:56Z</time></trkpt><trkpt lat="37.035672902505596" lon="14.703864823307374"><ele>585.0</ele><time>2026-04-04T07:51:57Z</time></trkpt><trkpt lat="37.035598205118546" lon="14.703922090013435"><ele>585.0</ele><time>2026-04-04T07:51:58Z</time></trkpt><trkpt lat="37.03553232434068" lon="14.7039732317786"><ele>585.0</ele><time>2026-04-04T07:51:59Z</time></trkpt><trkpt lat="37.03546088994912" lon="14.704026345880155"><ele>585.0</ele><time>2026-04-04T07:52:00Z</time></trkpt><trkpt lat="37.03538933680122" lon="14.704074598843885"><ele>585.0</ele><time>2026-04-04T07:52:01Z</time></trkpt><trkpt lat="37.035321495435554" lon="14.704111867813257"><ele>585.0</ele><time>2026-04-04T07:52:02Z</time></trkpt><trkpt lat="37.035258786730466" lon="14.704149256324923"><ele>585.0</ele><time>2026-04-04T07:52:03Z</time></trkpt><trkpt lat="37.03518655543583" lon="14.704216395953065"><ele>585.0</ele><time>2026-04-04T07:52:04Z</time></trkpt><trkpt lat="37.035113991791015" lon="14.704294987400399"><ele>585.0</ele><time>2026-04-04T07:52:05Z</time></trkpt><trkpt lat="37.0350451000073" lon="14.704363178873093"><ele>585.0</ele><time>2026-04-04T07:52:06Z</time></trkpt><trkpt lat="37.03499242305625" lon="14.704444891051399"><ele>585.0</ele><time>2026-04-04T07:52:07Z</time></trkpt><trkpt lat="37.034943944934014" lon="14.704505071211509"><ele>585.0</ele><time>2026-04-04T07:52:08Z</time></trkpt><trkpt lat="37.03488486905946" lon="14.704562261416834"><ele>585.0</ele><time>2026-04-04T07:52:09Z</time></trkpt><trkpt lat="37.034815961310436" lon="14.704618856185654"><ele>586.2</ele><time>2026-04-04T07:52:10Z</time></trkpt><trkpt lat="37.03474592296078" lon="14.704678899420971"><ele>587.4</ele><time>2026-04-04T07:52:11Z</time></trkpt><trkpt lat="37.03467069290297" lon="14.704723350907074"><ele>588.6</ele><time>2026-04-04T07:52:12Z</time></trkpt><trkpt lat="37.0346107879849" lon="14.704760454438283"><ele>589.8</ele><time>2026-04-04T07:52:13Z</time></trkpt><trkpt lat="37.03450804752832" lon="14.704830191855448"><ele>591.0</ele><time>2026-04-04T07:52:15Z</time></trkpt><trkpt lat="37.03442026941987" lon="14.704925323179953"><ele>591.0</ele><time>2026-04-04T07:52:17Z</time></trkpt><trkpt lat="37.03438151596156" lon="14.704990331926277"><ele>591.0</ele><time>2026-04-04T07:52:18Z</time></trkpt><trkpt lat="37.034357210465025" lon="14.70506849497567"><ele>591.0</ele><time>2026-04-04T07:52:19Z</time></trkpt><trkpt lat="37.03435354283621" lon="14.705149578124878"><ele>591.0</ele><time>2026-04-04T07:52:20Z</time></trkpt><trkpt lat="37.03431256227765" lon="14.705285554252262"><ele>591.0</ele><time>2026-04-04T07:52:22Z</time></trkpt><trkpt lat="37.03428374368444" lon="14.705358989837602"><ele>591.0</ele><time>2026-04-04T07:52:23Z</time></trkpt><trkpt lat="37.03424393843944" lon="14.7054285652803"><ele>591.0</ele><time>2026-04-04T07:52:24Z</time></trkpt><trkpt lat="37.03415939332037" lon="14.705530808039837"><ele>593.3333333333334</ele><time>2026-04-04T07:52:26Z</time></trkpt><trkpt lat="37.034109773167856" lon="14.705582429714552"><ele>595.6666666666666</ele><time>2026-04-04T07:52:27Z</time></trkpt><trkpt lat="37.03405914724511" lon="14.705633910326407"><ele>598.0</ele><time>2026-04-04T07:52:28Z</time></trkpt><trkpt lat="37.033988645007106" lon="14.705719782823895"><ele>600.3333333333333</ele><time>2026-04-04T07:52:30Z</time></trkpt><trkpt lat="37.033918844403395" lon="14.705759327630357"><ele>602.6666666666666</ele><time>2026-04-04T07:52:32Z</time></trkpt><trkpt lat="37.03388361494252" lon="14.705832507651586"><ele>605.0</ele><time>2026-04-04T07:52:36Z</time></trkpt><trkpt lat="37.03387598599072" lon="14.705937944734817"><ele>605.0</ele><time>2026-04-04T07:52:44Z</time></trkpt><trkpt lat="37.03381586247176" lon="14.705961636305558"><ele>605.0</ele><time>2026-04-04T07:52:47Z</time></trkpt><trkpt lat="37.033754538497895" lon="14.705938933396691"><ele>605.0</ele><time>2026-04-04T07:53:02Z</time></trkpt><trkpt lat="37.03377637894274" lon="14.706020197549625"><ele>605.0</ele><time>2026-04-04T07:53:30Z</time></trkpt><trkpt lat="37.03381837714408" lon="14.70612368383697"><ele>605.0</ele><time>2026-04-04T07:53:34Z</time></trkpt><trkpt lat="37.03376212261782" lon="14.706167151374837"><ele>605.0</ele><time>2026-04-04T07:53:37Z</time></trkpt><trkpt lat="37.03368165875547" lon="14.706134953234868"><ele>605.0</ele><time>2026-04-04T07:54:17Z</time></trkpt><trkpt lat="37.033608627414445" lon="14.706140705268055"><ele>607.1428571428571</ele><time>2026-04-04T07:54:19Z</time></trkpt><trkpt lat="37.033537258913334" lon="14.706150958139494"><ele>609.2857142857143</ele><time>2026-04-04T07:54:21Z</time></trkpt><trkpt lat="37.03348140634888" lon="14.70619163284698"><ele>611.4285714285714</ele><time>2026-04-04T07:54:23Z</time></trkpt><trkpt lat="37.0334162292809" lon="14.706232051273776"><ele>613.5714285714286</ele><time>2026-04-04T07:54:25Z</time></trkpt><trkpt lat="37.03335196102982" lon="14.70625730146673"><ele>615.7142857142857</ele><time>2026-04-04T07:54:27Z</time></trkpt><trkpt lat="37.03327928071576" lon="14.706278686556814"><ele>617.8571428571429</ele><time>2026-04-04T07:54:30Z</time></trkpt><trkpt lat="37.03320220855828" lon="14.706304888116387"><ele>620.0</ele><time>2026-04-04T07:54:33Z</time></trkpt><trkpt lat="37.03312649407569" lon="14.706320707325803"><ele>620.1666666666666</ele><time>2026-04-04T07:54:36Z</time></trkpt><trkpt lat="37.0330541465057" lon="14.706337816344117"><ele>620.3333333333333</ele><time>2026-04-04T07:54:38Z</time></trkpt><trkpt lat="37.03296814659224" lon="14.706350887768524"><ele>620.5</ele><time>2026-04-04T07:54:40Z</time></trkpt><trkpt lat="37.032900799358934" lon="14.706374292737529"><ele>620.6666666666666</ele><time>2026-04-04T07:54:42Z</time></trkpt><trkpt lat="37.03283336762426" lon="14.70641016382918"><ele>620.8333333333334</ele><time>2026-04-04T07:54:49Z</time></trkpt><trkpt lat="37.03274489563104" lon="14.706430903379506"><ele>621.0</ele><time>2026-04-04T07:55:05Z</time></trkpt><trkpt lat="37.03267113534522" lon="14.706442017926697"><ele>621.0</ele><time>2026-04-04T07:55:07Z</time></trkpt><trkpt lat="37.03259778422992" lon="14.70646675192393"><ele>621.0</ele><time>2026-04-04T07:55:09Z</time></trkpt><trkpt lat="37.03252222549425" lon="14.706506375917838"><ele>621.0</ele><time>2026-04-04T07:55:11Z</time></trkpt><trkpt lat="37.03245766527655" lon="14.706537759783266"><ele>621.0</ele><time>2026-04-04T07:55:13Z</time></trkpt><trkpt lat="37.032392521097265" lon="14.706569857171516"><ele>621.0</ele><time>2026-04-04T07:55:15Z</time></trkpt><trkpt lat="37.032308014857136" lon="14.706609359007716"><ele>621.0</ele><time>2026-04-04T07:55:17Z</time></trkpt><trkpt lat="37.032228049447745" lon="14.70664580167051"><ele>622.8</ele><time>2026-04-04T07:55:19Z</time></trkpt><trkpt lat="37.032153106757455" lon="14.706683861093254"><ele>624.6</ele><time>2026-04-04T07:55:21Z</time></trkpt><trkpt lat="37.03203463007406" lon="14.706762951063038"><ele>626.4</ele><time>2026-04-04T07:55:23Z</time></trkpt><trkpt lat="37.031939415367965" lon="14.706826842361117"><ele>628.2</ele><time>2026-04-04T07:55:24Z</time></trkpt><trkpt lat="37.031849709687215" lon="14.70688643387905"><ele>630.0</ele><time>2026-04-04T07:55:25Z</time></trkpt><trkpt lat="37.03175600520396" lon="14.706952749520077"><ele>631.3333333333334</ele><time>2026-04-04T07:55:26Z</time></trkpt><trkpt lat="37.03167428157961" lon="14.70702569754606"><ele>632.6666666666666</ele><time>2026-04-04T07:55:27Z</time></trkpt><trkpt lat="37.03160510512194" lon="14.707094978118517"><ele>634.0</ele><time>2026-04-04T07:55:28Z</time></trkpt><trkpt lat="37.03155640372492" lon="14.707168875012314"><ele>635.3333333333333</ele><time>2026-04-04T07:55:29Z</time></trkpt><trkpt lat="37.031521347889154" lon="14.707255652148577"><ele>636.6666666666666</ele><time>2026-04-04T07:55:30Z</time></trkpt><trkpt lat="37.03149874313712" lon="14.707345432422462"><ele>638.0</ele><time>2026-04-04T07:55:31Z</time></trkpt><trkpt lat="37.031449357839456" lon="14.707456462161002"><ele>638.0</ele><time>2026-04-04T07:55:33Z</time></trkpt><trkpt lat="37.03145167449931" lon="14.707556739882554"><ele>638.0</ele><time>2026-04-04T07:57:01Z</time></trkpt><trkpt lat="37.031587357713946" lon="14.707582019619759"><ele>638.0</ele><time>2026-04-04T07:57:03Z</time></trkpt><trkpt lat="37.03167565473301" lon="14.707598546434257"><ele>638.0</ele><time>2026-04-04T07:57:04Z</time></trkpt><trkpt lat="37.03176640153516" lon="14.707633502985708"><ele>638.0</ele><time>2026-04-04T07:57:05Z</time></trkpt><trkpt lat="37.03184923172408" lon="14.707674940629383"><ele>638.5999999999999</ele><time>2026-04-04T07:57:06Z</time></trkpt><trkpt lat="37.031934987366846" lon="14.707726406034945"><ele>639.1999999999999</ele><time>2026-04-04T07:57:07Z</time></trkpt><trkpt lat="37.032040886225346" lon="14.707791034506096"><ele>639.8</ele><time>2026-04-04T07:57:08Z</time></trkpt><trkpt lat="37.03214151333198" lon="14.707847431327115"><ele>640.4</ele><time>2026-04-04T07:57:09Z</time></trkpt><trkpt lat="37.03224457095971" lon="14.707911647195667"><ele>641.0</ele><time>2026-04-04T07:57:10Z</time></trkpt><trkpt lat="37.032353298387186" lon="14.707996092382048"><ele>645.0</ele><time>2026-04-04T07:57:11Z</time></trkpt><trkpt lat="37.032442656025445" lon="14.708077750999736"><ele>649.0</ele><time>2026-04-04T07:57:12Z</time></trkpt><trkpt lat="37.032525993107946" lon="14.708168632720087"><ele>653.0</ele><time>2026-04-04T07:57:13Z</time></trkpt><trkpt lat="37.03260831019466" lon="14.708250132390203"><ele>657.0</ele><time>2026-04-04T07:57:14Z</time></trkpt><trkpt lat="37.03270151875802" lon="14.708301525887533"><ele>661.0</ele><time>2026-04-04T07:57:15Z</time></trkpt><trkpt lat="37.03280445109048" lon="14.708319057883555"><ele>661.0</ele><time>2026-04-04T07:57:16Z</time></trkpt><trkpt lat="37.03291281024064" lon="14.70829628185017"><ele>661.0</ele><time>2026-04-04T07:57:17Z</time></trkpt><trkpt lat="37.0330299036569" lon="14.708268597535541"><ele>661.0</ele><time>2026-04-04T07:57:18Z</time></trkpt><trkpt lat="37.03311088065386" lon="14.708254146674001"><ele>661.0</ele><time>2026-04-04T07:57:19Z</time></trkpt><trkpt lat="37.033180908336966" lon="14.70827756993755"><ele>661.0</ele><time>2026-04-04T07:57:24Z</time></trkpt><trkpt lat="37.03328635763259" lon="14.708304487380266"><ele>659.8333333333334</ele><time>2026-04-04T07:57:27Z</time></trkpt><trkpt lat="37.03335683220869" lon="14.70839818098505"><ele>658.6666666666667</ele><time>2026-04-04T07:57:29Z</time></trkpt><trkpt lat="37.03339181526517" lon="14.708468180001919"><ele>657.5</ele><time>2026-04-04T07:57:31Z</time></trkpt><trkpt lat="37.03333806568028" lon="14.708565507091212"><ele>656.3333333333334</ele><time>2026-04-04T07:57:33Z</time></trkpt><trkpt lat="37.03332100190737" lon="14.7086630961654"><ele>655.1666666666666</ele><time>2026-04-04T07:57:36Z</time></trkpt><trkpt lat="37.033367450376716" lon="14.708734388411207"><ele>654.0</ele><time>2026-04-04T07:57:46Z</time></trkpt><trkpt lat="37.03338258552944" lon="14.708828798142493"><ele>657.4000000000001</ele><time>2026-04-04T07:57:49Z</time></trkpt><trkpt lat="37.03342884773209" lon="14.708899349401365"><ele>660.8</ele><time>2026-04-04T07:57:53Z</time></trkpt><trkpt lat="37.03342632297078" lon="14.70898376196585"><ele>664.2</ele><time>2026-04-04T07:57:56Z</time></trkpt><trkpt lat="37.03344231939077" lon="14.709071233934614"><ele>667.5999999999999</ele><time>2026-04-04T07:57:58Z</time></trkpt><trkpt lat="37.03347790298864" lon="14.709222926242115"><ele>671.0</ele><time>2026-04-04T07:58:00Z</time></trkpt><trkpt lat="37.033547768060714" lon="14.709359098050045"><ele>675.0</ele><time>2026-04-04T07:58:02Z</time></trkpt><trkpt lat="37.03358219419661" lon="14.709461679366761"><ele>679.0</ele><time>2026-04-04T07:58:35Z</time></trkpt><trkpt lat="37.03363558680784" lon="14.70950938931624"><ele>683.0</ele><time>2026-04-04T07:58:44Z</time></trkpt><trkpt lat="37.033674671222315" lon="14.70958353382964"><ele>687.0</ele><time>2026-04-04T07:58:53Z</time></trkpt><trkpt lat="37.03373256325419" lon="14.709620433330572"><ele>691.0</ele><time>2026-04-04T07:59:01Z</time></trkpt><trkpt lat="37.03387643687389" lon="14.709604521504174"><ele>695.0</ele><time>2026-04-04T08:01:30Z</time></trkpt><trkpt lat="37.03394596820996" lon="14.709579379640406"><ele>695.0</ele><time>2026-04-04T08:01:33Z</time></trkpt><trkpt lat="37.03407358496936" lon="14.709563342803774"><ele>695.0</ele><time>2026-04-04T08:01:38Z</time></trkpt><trkpt lat="37.034141502278445" lon="14.709561995838692"><ele>695.0</ele><time>2026-04-04T08:01:40Z</time></trkpt><trkpt lat="37.034248738137855" lon="14.709592427240263"><ele>695.0</ele><time>2026-04-04T08:01:43Z</time></trkpt><trkpt lat="37.03434797204388" lon="14.709654669494801"><ele>695.0</ele><time>2026-04-04T08:01:45Z</time></trkpt><trkpt lat="37.034406237662814" lon="14.709708410568002"><ele>692.6</ele><time>2026-04-04T08:01:46Z</time></trkpt><trkpt lat="37.03447026117591" lon="14.709740874947492"><ele>690.2</ele><time>2026-04-04T08:01:47Z</time></trkpt><trkpt lat="37.034560083600844" lon="14.709686017403637"><ele>687.8</ele><time>2026-04-04T08:01:48Z</time></trkpt><trkpt lat="37.03461943791331" lon="14.709740975413487"><ele>685.4</ele><time>2026-04-04T08:01:52Z</time></trkpt><trkpt lat="37.034504826270584" lon="14.709838123802127"><ele>683.0</ele><time>2026-04-04T08:01:57Z</time></trkpt><trkpt lat="37.03442715637374" lon="14.709790128142004"><ele>683.0</ele><time>2026-04-04T08:01:58Z</time></trkpt><trkpt lat="37.034329095501256" lon="14.70977507951604"><ele>683.0</ele><time>2026-04-04T08:02:00Z</time></trkpt><trkpt lat="37.03423956753757" lon="14.709775875104041"><ele>683.0</ele><time>2026-04-04T08:02:02Z</time></trkpt><trkpt lat="37.03416852210611" lon="14.709792346620112"><ele>683.0</ele><time>2026-04-04T08:02:04Z</time></trkpt><trkpt lat="37.0341057895581" lon="14.709822374024993"><ele>683.0</ele><time>2026-04-04T08:02:08Z</time></trkpt><trkpt lat="37.03404579250328" lon="14.709863055264249"><ele>683.0</ele><time>2026-04-04T08:02:12Z</time></trkpt><trkpt lat="37.03412495865175" lon="14.709893489513686"><ele>683.0</ele><time>2026-04-04T08:02:24Z</time></trkpt><trkpt lat="37.03418873580808" lon="14.709931471135048"><ele>683.0</ele><time>2026-04-04T08:02:27Z</time></trkpt><trkpt lat="37.034241151117676" lon="14.709979246066014"><ele>683.0</ele><time>2026-04-04T08:02:36Z</time></trkpt><trkpt lat="37.034286567651776" lon="14.710058280702755"><ele>683.0</ele><time>2026-04-04T08:04:42Z</time></trkpt><trkpt lat="37.03432367667429" lon="14.710127211710827"><ele>683.0</ele><time>2026-04-04T08:04:45Z</time></trkpt><trkpt lat="37.03437283227397" lon="14.710229453708012"><ele>683.0</ele><time>2026-04-04T08:04:48Z</time></trkpt><trkpt lat="37.03444469390099" lon="14.710290317751156"><ele>687.2857142857143</ele><time>2026-04-04T08:04:51Z</time></trkpt><trkpt lat="37.03448295952086" lon="14.710381138573279"><ele>691.5714285714286</ele><time>2026-04-04T08:04:54Z</time></trkpt><trkpt lat="37.03451562914776" lon="14.71045269413464"><ele>695.8571428571429</ele><time>2026-04-04T08:05:00Z</time></trkpt><trkpt lat="37.0345633226481" lon="14.710505500836215"><ele>700.1428571428571</ele><time>2026-04-04T08:05:13Z</time></trkpt><trkpt lat="37.03451870647198" lon="14.71043385734372"><ele>704.4285714285714</ele><time>2026-04-04T08:05:30Z</time></trkpt><trkpt lat="37.034463096807485" lon="14.710370096901748"><ele>708.7142857142857</ele><time>2026-04-04T08:05:31Z</time></trkpt><trkpt lat="37.03439761417421" lon="14.710322238640286"><ele>713.0</ele><time>2026-04-04T08:05:32Z</time></trkpt><trkpt lat="37.03428488761364" lon="14.710271527543451"><ele>713.0</ele><time>2026-04-04T08:05:34Z</time></trkpt><trkpt lat="37.03421757014516" lon="14.71023356847209"><ele>713.0</ele><time>2026-04-04T08:05:36Z</time></trkpt><trkpt lat="37.03414989069363" lon="14.710263085233873"><ele>713.0</ele><time>2026-04-04T08:05:39Z</time></trkpt><trkpt lat="37.0340760558652" lon="14.710270553488334"><ele>713.0</ele><time>2026-04-04T08:05:42Z</time></trkpt><trkpt lat="37.03401429430252" lon="14.710289469294112"><ele>713.0</ele><time>2026-04-04T08:05:54Z</time></trkpt><trkpt lat="37.03414600959936" lon="14.71031721433972"><ele>713.0</ele><time>2026-04-04T08:07:21Z</time></trkpt><trkpt lat="37.03420525179097" lon="14.710374440652313"><ele>713.0</ele><time>2026-04-04T08:07:32Z</time></trkpt><trkpt lat="37.03425082040317" lon="14.710441876168586"><ele>713.0</ele><time>2026-04-04T08:07:35Z</time></trkpt><trkpt lat="37.03428857379818" lon="14.710509373313544"><ele>713.0</ele><time>2026-04-04T08:07:44Z</time></trkpt><trkpt lat="37.03433495749007" lon="14.710596698079321"><ele>713.0</ele><time>2026-04-04T08:07:49Z</time></trkpt><trkpt lat="37.03439602866498" lon="14.710659791946798"><ele>713.0</ele><time>2026-04-04T08:07:52Z</time></trkpt><trkpt lat="37.034338476654085" lon="14.710696208465407"><ele>713.0</ele><time>2026-04-04T08:08:08Z</time></trkpt><trkpt lat="37.03427108017076" lon="14.71066365614028"><ele>713.0</ele><time>2026-04-04T08:08:20.999Z</time></trkpt><trkpt lat="37.03427365454659" lon="14.710742554446954"><ele>713.0</ele><time>2026-04-04T08:08:24.999Z</time></trkpt><trkpt lat="37.034201548370724" lon="14.710741113851789"><ele>713.0</ele><time>2026-04-04T08:08:52Z</time></trkpt><trkpt lat="37.03426670600562" lon="14.71071760601639"><ele>713.0</ele><time>2026-04-04T08:10:04Z</time></trkpt><trkpt lat="37.03434435493729" lon="14.710671674070575"><ele>713.0</ele><time>2026-04-04T08:10:13Z</time></trkpt><trkpt lat="37.034347791257446" lon="14.710573795413074"><ele>713.0</ele><time>2026-04-04T08:10:17Z</time></trkpt><trkpt lat="37.034333111730575" lon="14.71048388409541"><ele>713.0</ele><time>2026-04-04T08:10:21Z</time></trkpt><trkpt lat="37.03429723244997" lon="14.71041548648092"><ele>713.0</ele><time>2026-04-04T08:10:24Z</time></trkpt><trkpt lat="37.03423881567782" lon="14.710352647650392"><ele>713.0</ele><time>2026-04-04T08:10:28Z</time></trkpt><trkpt lat="37.03421343434036" lon="14.71042807908118"><ele>713.0</ele><time>2026-04-04T08:12:15Z</time></trkpt><trkpt lat="37.03424479490066" lon="14.710505588563116"><ele>713.0</ele><time>2026-04-04T08:12:23Z</time></trkpt><trkpt lat="37.03428639070738" lon="14.71057365593578"><ele>713.0</ele><time>2026-04-04T08:12:30Z</time></trkpt><trkpt lat="37.03428473049683" lon="14.710658019496295"><ele>713.0</ele><time>2026-04-04T08:12:39Z</time></trkpt><trkpt lat="37.03422342311098" lon="14.710691456081777"><ele>713.0</ele><time>2026-04-04T08:12:53Z</time></trkpt><trkpt lat="37.03420652011679" lon="14.710782596892788"><ele>713.0</ele><time>2026-04-04T08:14:33Z</time></trkpt><trkpt lat="37.03424415795996" lon="14.710849809950027"><ele>713.0</ele><time>2026-04-04T08:17:29Z</time></trkpt><trkpt lat="37.03430506339733" lon="14.710903587313151"><ele>713.0</ele><time>2026-04-04T08:17:32Z</time></trkpt><trkpt lat="37.034372810640875" lon="14.71099231555536"><ele>713.0</ele><time>2026-04-04T08:17:34Z</time></trkpt><trkpt lat="37.034425714768545" lon="14.71108669490137"><ele>713.0</ele><time>2026-04-04T08:17:36Z</time></trkpt><trkpt lat="37.03445446264957" lon="14.711170441425924"><ele>713.0</ele><time>2026-04-04T08:17:38Z</time></trkpt><trkpt lat="37.03446098277543" lon="14.71126373425713"><ele>713.0</ele><time>2026-04-04T08:17:40Z</time></trkpt><trkpt lat="37.0344635105635" lon="14.711348418612792"><ele>715.5714285714286</ele><time>2026-04-04T08:17:42Z</time></trkpt><trkpt lat="37.034478139765696" lon="14.711459254411883"><ele>718.1428571428572</ele><time>2026-04-04T08:17:44Z</time></trkpt><trkpt lat="37.03447597723292" lon="14.711544251816768"><ele>720.7142857142858</ele><time>2026-04-04T08:17:46Z</time></trkpt><trkpt lat="37.034450879539676" lon="14.71162353591368"><ele>723.2857142857142</ele><time>2026-04-04T08:17:48Z</time></trkpt><trkpt lat="37.03445149747482" lon="14.711705892859246"><ele>725.8571428571429</ele><time>2026-04-04T08:17:50Z</time></trkpt><trkpt lat="37.03445719522566" lon="14.711799780451909"><ele>728.4285714285714</ele><time>2026-04-04T08:17:55Z</time></trkpt><trkpt lat="37.03439283479771" lon="14.711763816624673"><ele>731.0</ele><time>2026-04-04T08:18:07Z</time></trkpt><trkpt lat="37.03433822389748" lon="14.711697920666822"><ele>731.0</ele><time>2026-04-04T08:18:09Z</time></trkpt><trkpt lat="37.03426765927616" lon="14.711707139508487"><ele>731.0</ele><time>2026-04-04T08:18:15Z</time></trkpt><trkpt lat="37.034329278080136" lon="14.71167919185682"><ele>731.0</ele><time>2026-04-04T08:18:59Z</time></trkpt><trkpt lat="37.034258875948616" lon="14.711652623744978"><ele>731.0</ele><time>2026-04-04T08:20:00Z</time></trkpt><trkpt lat="37.034199937898045" lon="14.711606319191409"><ele>731.0</ele><time>2026-04-04T08:20:03Z</time></trkpt><trkpt lat="37.034159399905406" lon="14.711544647065516"><ele>731.0</ele><time>2026-04-04T08:20:04Z</time></trkpt><trkpt lat="37.03408938389425" lon="14.711457739241263"><ele>731.0</ele><time>2026-04-04T08:20:05Z</time></trkpt><trkpt lat="37.03403991159568" lon="14.711400526947111"><ele>731.0</ele><time>2026-04-04T08:20:07Z</time></trkpt><trkpt lat="37.03405819336978" lon="14.71148198089359"><ele>731.0</ele><time>2026-04-04T08:20:13Z</time></trkpt><trkpt lat="37.03411700877432" lon="14.711513654648584"><ele>731.0</ele><time>2026-04-04T08:20:15Z</time></trkpt><trkpt lat="37.034169525136264" lon="14.711571172761982"><ele>731.0</ele><time>2026-04-04T08:26:55Z</time></trkpt><trkpt lat="37.034047600352224" lon="14.711432892163772"><ele>731.0</ele><time>2026-04-04T08:26:57Z</time></trkpt><trkpt lat="37.0339473269764" lon="14.711363230118675"><ele>735.0</ele><time>2026-04-04T08:26:58Z</time></trkpt><trkpt lat="37.033830024312714" lon="14.711315028823002"><ele>739.0</ele><time>2026-04-04T08:26:59Z</time></trkpt><trkpt lat="37.03372635183779" lon="14.711290752446304"><ele>743.0</ele><time>2026-04-04T08:27:00Z</time></trkpt><trkpt lat="37.03363138887721" lon="14.711279073394087"><ele>747.0</ele><time>2026-04-04T08:27:01Z</time></trkpt><trkpt lat="37.03354083899475" lon="14.7112482597492"><ele>751.0</ele><time>2026-04-04T08:27:03Z</time></trkpt><trkpt lat="37.03342963964016" lon="14.711221501408627"><ele>751.0</ele><time>2026-04-04T08:27:05Z</time></trkpt><trkpt lat="37.03335881577295" lon="14.711201236313189"><ele>751.0</ele><time>2026-04-04T08:27:06Z</time></trkpt><trkpt lat="37.03325936924626" lon="14.711164115175892"><ele>751.0</ele><time>2026-04-04T08:27:08Z</time></trkpt><trkpt lat="37.03315530655093" lon="14.711102322833186"><ele>751.0</ele><time>2026-04-04T08:27:10Z</time></trkpt><trkpt lat="37.03305703522574" lon="14.711038066338936"><ele>751.0</ele><time>2026-04-04T08:27:11Z</time></trkpt><trkpt lat="37.03296920794634" lon="14.710952754453459"><ele>749.25</ele><time>2026-04-04T08:27:12Z</time></trkpt><trkpt lat="37.032882828542135" lon="14.71083152003876"><ele>747.5</ele><time>2026-04-04T08:27:13Z</time></trkpt><trkpt lat="37.03280322288241" lon="14.710689654011572"><ele>745.75</ele><time>2026-04-04T08:27:14Z</time></trkpt><trkpt lat="37.032735657006334" lon="14.710589513755451"><ele>744.0</ele><time>2026-04-04T08:27:15Z</time></trkpt><trkpt lat="37.03266226649039" lon="14.7104890020246"><ele>744.0</ele><time>2026-04-04T08:27:16Z</time></trkpt><trkpt lat="37.03259911264535" lon="14.710390221142381"><ele>744.0</ele><time>2026-04-04T08:27:17Z</time></trkpt><trkpt lat="37.032512804914695" lon="14.710336906762139"><ele>744.0</ele><time>2026-04-04T08:27:18Z</time></trkpt><trkpt lat="37.03245080366019" lon="14.710304487790696"><ele>744.0</ele><time>2026-04-04T08:27:19Z</time></trkpt><trkpt lat="37.03237462910714" lon="14.710272360529949"><ele>744.0</ele><time>2026-04-04T08:27:21Z</time></trkpt><trkpt lat="37.03245447602182" lon="14.7103390027215"><ele>744.0</ele><time>2026-04-04T08:27:35Z</time></trkpt><trkpt lat="37.0325459752142" lon="14.710374953057046"><ele>744.0</ele><time>2026-04-04T08:27:36Z</time></trkpt><trkpt lat="37.03259129679671" lon="14.71048936510848"><ele>744.0</ele><time>2026-04-04T08:27:37Z</time></trkpt><trkpt lat="37.03270015737032" lon="14.710533811090196"><ele>744.0</ele><time>2026-04-04T08:27:38Z</time></trkpt><trkpt lat="37.03276121876766" lon="14.710642139559098"><ele>744.0</ele><time>2026-04-04T08:27:39Z</time></trkpt><trkpt lat="37.0328132301949" lon="14.710748344304113"><ele>744.0</ele><time>2026-04-04T08:27:40Z</time></trkpt><trkpt lat="37.03287093653918" lon="14.71085921482453"><ele>744.0</ele><time>2026-04-04T08:27:41Z</time></trkpt><trkpt lat="37.03292904901145" lon="14.710951355205914"><ele>744.0</ele><time>2026-04-04T08:27:42Z</time></trkpt><trkpt lat="37.0330087182486" lon="14.711041859965253"><ele>744.0</ele><time>2026-04-04T08:27:43Z</time></trkpt><trkpt lat="37.03310052093164" lon="14.711114025671447"><ele>744.0</ele><time>2026-04-04T08:27:44Z</time></trkpt><trkpt lat="37.033185708849736" lon="14.711176852711047"><ele>744.0</ele><time>2026-04-04T08:27:45Z</time></trkpt><trkpt lat="37.03328304321774" lon="14.711218070866542"><ele>745.4000000000001</ele><time>2026-04-04T08:27:46Z</time></trkpt><trkpt lat="37.03338751833946" lon="14.711234649391573"><ele>746.8</ele><time>2026-04-04T08:27:47Z</time></trkpt><trkpt lat="37.03349081697124" lon="14.711261432895705"><ele>748.2</ele><time>2026-04-04T08:27:48Z</time></trkpt><trkpt lat="37.03360167244191" lon="14.71128284034728"><ele>749.5999999999999</ele><time>2026-04-04T08:27:49Z</time></trkpt><trkpt lat="37.03371042426297" lon="14.711297921773042"><ele>751.0</ele><time>2026-04-04T08:27:50Z</time></trkpt><trkpt lat="37.03381134286612" lon="14.711329851979439"><ele>751.0</ele><time>2026-04-04T08:27:51Z</time></trkpt><trkpt lat="37.033909062489734" lon="14.711364539505885"><ele>751.0</ele><time>2026-04-04T08:27:52Z</time></trkpt><trkpt lat="37.034005865311826" lon="14.711423383191818"><ele>751.0</ele><time>2026-04-04T08:27:53Z</time></trkpt><trkpt lat="37.03408845518269" lon="14.71150141019813"><ele>751.0</ele><time>2026-04-04T08:27:54Z</time></trkpt><trkpt lat="37.034150824707226" lon="14.711603248670123"><ele>751.0</ele><time>2026-04-04T08:27:55Z</time></trkpt><trkpt lat="37.0342069945327" lon="14.711729784224405"><ele>748.0</ele><time>2026-04-04T08:27:56Z</time></trkpt><trkpt lat="37.034225913447465" lon="14.71185796914037"><ele>745.0</ele><time>2026-04-04T08:27:57Z</time></trkpt><trkpt lat="37.034232466261166" lon="14.711978052433514"><ele>742.0</ele><time>2026-04-04T08:27:58Z</time></trkpt><trkpt lat="37.03421925876711" lon="14.712100983657182"><ele>739.0</ele><time>2026-04-04T08:27:59Z</time></trkpt><trkpt lat="37.0342011818483" lon="14.712225504010462"><ele>736.0</ele><time>2026-04-04T08:28:00Z</time></trkpt><trkpt lat="37.034166209962585" lon="14.71237604970243"><ele>736.0</ele><time>2026-04-04T08:28:01Z</time></trkpt><trkpt lat="37.03413877523241" lon="14.712537598563557"><ele>736.0</ele><time>2026-04-04T08:28:02Z</time></trkpt><trkpt lat="37.03408679821561" lon="14.712680283659529"><ele>736.0</ele><time>2026-04-04T08:28:03Z</time></trkpt><trkpt lat="37.03404462738374" lon="14.712813551170603"><ele>736.0</ele><time>2026-04-04T08:28:04Z</time></trkpt><trkpt lat="37.034003391158336" lon="14.71293064109564"><ele>744.0</ele><time>2026-04-04T08:28:05Z</time></trkpt><trkpt lat="37.03395259922789" lon="14.713066943074601"><ele>752.0</ele><time>2026-04-04T08:28:06Z</time></trkpt><trkpt lat="37.03389402157236" lon="14.713194826626411"><ele>760.0</ele><time>2026-04-04T08:28:07Z</time></trkpt><trkpt lat="37.03383574132051" lon="14.713303876553764"><ele>768.0</ele><time>2026-04-04T08:28:08Z</time></trkpt><trkpt lat="37.033774267246535" lon="14.713423855999274"><ele>768.0</ele><time>2026-04-04T08:28:09Z</time></trkpt><trkpt lat="37.033729123394814" lon="14.713558707824017"><ele>768.0</ele><time>2026-04-04T08:28:10Z</time></trkpt><trkpt lat="37.03367779151066" lon="14.713662873883068"><ele>768.0</ele><time>2026-04-04T08:28:11Z</time></trkpt><trkpt lat="37.0336387695042" lon="14.713760271295321"><ele>768.0</ele><time>2026-04-04T08:28:12Z</time></trkpt><trkpt lat="37.03363107539251" lon="14.713841972041498"><ele>768.0</ele><time>2026-04-04T08:28:13Z</time></trkpt><trkpt lat="37.03364107472723" lon="14.71395057496919"><ele>768.5999999999999</ele><time>2026-04-04T08:28:15Z</time></trkpt><trkpt lat="37.0337103470403" lon="14.713977017246757"><ele>769.1999999999999</ele><time>2026-04-04T08:28:16Z</time></trkpt><trkpt lat="37.033796011742716" lon="14.71395506206636"><ele>769.8</ele><time>2026-04-04T08:28:17Z</time></trkpt><trkpt lat="37.03385431901361" lon="14.713920137205358"><ele>770.4</ele><time>2026-04-04T08:28:19Z</time></trkpt><trkpt lat="37.0339119216378" lon="14.7138739857923"><ele>771.0</ele><time>2026-04-04T08:28:24Z</time></trkpt><trkpt lat="37.034085468472675" lon="14.713802534192084"><ele>769.0</ele><time>2026-04-04T08:29:37Z</time></trkpt><trkpt lat="37.03417915535225" lon="14.713751989916338"><ele>767.0</ele><time>2026-04-04T08:29:38Z</time></trkpt><trkpt lat="37.0342616312878" lon="14.71371527287904"><ele>765.0</ele><time>2026-04-04T08:29:39Z</time></trkpt><trkpt lat="37.03435578905098" lon="14.713677561531352"><ele>763.0</ele><time>2026-04-04T08:29:40Z</time></trkpt><trkpt lat="37.03447186675404" lon="14.713664577646114"><ele>761.0</ele><time>2026-04-04T08:29:41Z</time></trkpt><trkpt lat="37.03458392064868" lon="14.713625805650059"><ele>761.0</ele><time>2026-04-04T08:29:42Z</time></trkpt><trkpt lat="37.0346801359349" lon="14.713591220301128"><ele>761.0</ele><time>2026-04-04T08:29:43Z</time></trkpt><trkpt lat="37.034778494636726" lon="14.71355586449385"><ele>761.0</ele><time>2026-04-04T08:29:44Z</time></trkpt><trkpt lat="37.03487344056862" lon="14.71352113562957"><ele>761.0</ele><time>2026-04-04T08:29:45Z</time></trkpt><trkpt lat="37.034962845282145" lon="14.713486989407631"><ele>761.0</ele><time>2026-04-04T08:29:46Z</time></trkpt><trkpt lat="37.03504385634636" lon="14.71345604894118"><ele>756.3333333333333</ele><time>2026-04-04T08:29:47Z</time></trkpt><trkpt lat="37.035124024451996" lon="14.713425907798342"><ele>751.6666666666666</ele><time>2026-04-04T08:29:48Z</time></trkpt><trkpt lat="37.03519203618043" lon="14.71340225998682"><ele>747.0</ele><time>2026-04-04T08:29:49Z</time></trkpt><trkpt lat="37.03525536680193" lon="14.713384306124434"><ele>742.3333333333334</ele><time>2026-04-04T08:29:50Z</time></trkpt><trkpt lat="37.035328409650845" lon="14.71336203934989"><ele>737.6666666666667</ele><time>2026-04-04T08:29:51Z</time></trkpt><trkpt lat="37.03539232079757" lon="14.713339846904027"><ele>733.0</ele><time>2026-04-04T08:29:52Z</time></trkpt><trkpt lat="37.035499428000584" lon="14.713270211195658"><ele>733.0</ele><time>2026-04-04T08:29:54Z</time></trkpt><trkpt lat="37.03561583004459" lon="14.713214297682239"><ele>733.0</ele><time>2026-04-04T08:29:56Z</time></trkpt><trkpt lat="37.03567766269435" lon="14.713162199203405"><ele>733.0</ele><time>2026-04-04T08:29:57Z</time></trkpt><trkpt lat="37.03573880930214" lon="14.713108777915608"><ele>733.0</ele><time>2026-04-04T08:29:58Z</time></trkpt><trkpt lat="37.03579268567552" lon="14.713061708323979"><ele>733.0</ele><time>2026-04-04T08:29:59Z</time></trkpt><trkpt lat="37.035848911855865" lon="14.713012585755596"><ele>733.0</ele><time>2026-04-04T08:30:00Z</time></trkpt><trkpt lat="37.03590545612362" lon="14.712963185342211"><ele>734.2857142857142</ele><time>2026-04-04T08:30:01Z</time></trkpt><trkpt lat="37.03596113276771" lon="14.712914542900831"><ele>735.5714285714286</ele><time>2026-04-04T08:30:02Z</time></trkpt><trkpt lat="37.036022527804874" lon="14.712860904595486"><ele>736.8571428571429</ele><time>2026-04-04T08:30:03Z</time></trkpt><trkpt lat="37.036086813796864" lon="14.712806458965558"><ele>738.1428571428571</ele><time>2026-04-04T08:30:04Z</time></trkpt><trkpt lat="37.03615403767595" lon="14.71274962960031"><ele>739.4285714285714</ele><time>2026-04-04T08:30:05Z</time></trkpt><trkpt lat="37.03620123029666" lon="14.712696035320404"><ele>740.7142857142857</ele><time>2026-04-04T08:30:06Z</time></trkpt><trkpt lat="37.036258820735746" lon="14.71266194866073"><ele>742.0</ele><time>2026-04-04T08:30:07Z</time></trkpt><trkpt lat="37.036352668018154" lon="14.712587961922308"><ele>739.3333333333334</ele><time>2026-04-04T08:30:09Z</time></trkpt><trkpt lat="37.03643484343628" lon="14.712517768934557"><ele>736.6666666666667</ele><time>2026-04-04T08:30:11Z</time></trkpt><trkpt lat="37.03650180884234" lon="14.712425300292669"><ele>734.0</ele><time>2026-04-04T08:30:13Z</time></trkpt><trkpt lat="37.03656869022438" lon="14.712372692553192"><ele>731.3333333333334</ele><time>2026-04-04T08:30:15Z</time></trkpt><trkpt lat="37.036618691477436" lon="14.7123022851231"><ele>728.6666666666666</ele><time>2026-04-04T08:30:17Z</time></trkpt><trkpt lat="37.03666178005629" lon="14.712225488153907"><ele>726.0</ele><time>2026-04-04T08:30:19Z</time></trkpt><trkpt lat="37.036711000585775" lon="14.71215412510355"><ele>726.0</ele><time>2026-04-04T08:30:22Z</time></trkpt><trkpt lat="37.03676365175559" lon="14.712084874931705"><ele>726.0</ele><time>2026-04-04T08:30:27Z</time></trkpt><trkpt lat="37.03681902241966" lon="14.712207279860213"><ele>726.0</ele><time>2026-04-04T08:30:32Z</time></trkpt><trkpt lat="37.03683503196147" lon="14.712351409653472"><ele>726.0</ele><time>2026-04-04T08:30:34Z</time></trkpt><trkpt lat="37.036837103997925" lon="14.712450212523258"><ele>726.0</ele><time>2026-04-04T08:30:35Z</time></trkpt><trkpt lat="37.036815137830395" lon="14.7125632005152"><ele>726.0</ele><time>2026-04-04T08:30:36Z</time></trkpt><trkpt lat="37.036823409572314" lon="14.712695140258312"><ele>726.0</ele><time>2026-04-04T08:30:37Z</time></trkpt><trkpt lat="37.03678179448601" lon="14.712803983822281"><ele>726.0</ele><time>2026-04-04T08:30:38Z</time></trkpt><trkpt lat="37.03675341726048" lon="14.712893076568514"><ele>726.0</ele><time>2026-04-04T08:30:39Z</time></trkpt><trkpt lat="37.03671030435276" lon="14.712991806812813"><ele>726.0</ele><time>2026-04-04T08:30:40Z</time></trkpt><trkpt lat="37.03665218287704" lon="14.71311153254355"><ele>728.6666666666666</ele><time>2026-04-04T08:30:42Z</time></trkpt><trkpt lat="37.03661853444353" lon="14.71319423195059"><ele>731.3333333333334</ele><time>2026-04-04T08:30:43Z</time></trkpt><trkpt lat="37.03657864648324" lon="14.713285798291915"><ele>734.0</ele><time>2026-04-04T08:30:44Z</time></trkpt><trkpt lat="37.036523529991115" lon="14.713349221701408"><ele>736.6666666666667</ele><time>2026-04-04T08:30:45Z</time></trkpt><trkpt lat="37.03647362105909" lon="14.713419545871522"><ele>739.3333333333334</ele><time>2026-04-04T08:30:46Z</time></trkpt><trkpt lat="37.03644685733625" lon="14.713505212026286"><ele>742.0</ele><time>2026-04-04T08:30:47Z</time></trkpt><trkpt lat="37.03644787943113" lon="14.71360215912462"><ele>746.8</ele><time>2026-04-04T08:30:48Z</time></trkpt><trkpt lat="37.03643927232131" lon="14.713709846805859"><ele>751.6</ele><time>2026-04-04T08:30:49Z</time></trkpt><trkpt lat="37.03639048721957" lon="14.713814732804012"><ele>756.4</ele><time>2026-04-04T08:30:50Z</time></trkpt><trkpt lat="37.036363982626916" lon="14.713961497352395"><ele>761.1999999999999</ele><time>2026-04-04T08:30:51Z</time></trkpt><trkpt lat="37.03635307413872" lon="14.714098581641984"><ele>766.0</ele><time>2026-04-04T08:30:52Z</time></trkpt><trkpt lat="37.03634844668534" lon="14.714222727597358"><ele>766.0</ele><time>2026-04-04T08:30:53Z</time></trkpt><trkpt lat="37.0363397721224" lon="14.714328381792392"><ele>766.0</ele><time>2026-04-04T08:30:54Z</time></trkpt><trkpt lat="37.03633157519694" lon="14.714419750229675"><ele>766.0</ele><time>2026-04-04T08:30:55Z</time></trkpt><trkpt lat="37.03635228711565" lon="14.714501028872961"><ele>766.0</ele><time>2026-04-04T08:30:56Z</time></trkpt><trkpt lat="37.036336279700194" lon="14.714596094450213"><ele>766.0</ele><time>2026-04-04T08:30:58Z</time></trkpt><trkpt lat="37.036269616203995" lon="14.714652123054549"><ele>766.0</ele><time>2026-04-04T08:31:00Z</time></trkpt><trkpt lat="37.036184795220024" lon="14.714534799130714"><ele>766.0</ele><time>2026-04-04T08:31:04Z</time></trkpt><trkpt lat="37.03611029026384" lon="14.71444475836989"><ele>766.0</ele><time>2026-04-04T08:31:05Z</time></trkpt><trkpt lat="37.03602752082829" lon="14.714371717183342"><ele>766.0</ele><time>2026-04-04T08:31:06Z</time></trkpt><trkpt lat="37.03595158222475" lon="14.714330232186821"><ele>766.0</ele><time>2026-04-04T08:31:07Z</time></trkpt><trkpt lat="37.035889574819905" lon="14.714315266899213"><ele>766.0</ele><time>2026-04-04T08:31:08Z</time></trkpt><trkpt lat="37.03579877695087" lon="14.714316979889295"><ele>766.0</ele><time>2026-04-04T08:31:09Z</time></trkpt><trkpt lat="37.03573224155976" lon="14.714304522203546"><ele>766.3333333333334</ele><time>2026-04-04T08:31:10Z</time></trkpt><trkpt lat="37.035648684620355" lon="14.71427489585148"><ele>766.6666666666667</ele><time>2026-04-04T08:31:12Z</time></trkpt><trkpt lat="37.03556037001448" lon="14.714252398135953"><ele>767.0</ele><time>2026-04-04T08:31:14Z</time></trkpt><trkpt lat="37.03550071478707" lon="14.714313840579923"><ele>767.3333333333334</ele><time>2026-04-04T08:31:16Z</time></trkpt><trkpt lat="37.035432863245916" lon="14.714352946677009"><ele>767.6666666666666</ele><time>2026-04-04T08:31:21Z</time></trkpt><trkpt lat="37.035349997983744" lon="14.714380744694868"><ele>768.0</ele><time>2026-04-04T08:31:23Z</time></trkpt><trkpt lat="37.03526967376804" lon="14.714335468462043"><ele>799.0</ele><time>2026-04-04T08:31:26Z</time></trkpt><trkpt lat="37.03475952161381" lon="14.714480457259103"><ele>799.0</ele><time>2026-04-04T08:31:29Z</time></trkpt><trkpt lat="37.034757994701906" lon="14.714384483289818"><ele>799.0</ele><time>2026-04-04T08:31:30Z</time></trkpt><trkpt lat="37.03461024819537" lon="14.714494776636514"><ele>799.0</ele><time>2026-04-04T08:31:31Z</time></trkpt><trkpt lat="37.03449555333218" lon="14.714535611087731"><ele>799.0</ele><time>2026-04-04T08:31:33Z</time></trkpt><trkpt lat="37.034417254499395" lon="14.71454496970147"><ele>799.0</ele><time>2026-04-04T08:31:34Z</time></trkpt><trkpt lat="37.03432533621298" lon="14.714506766282128"><ele>798.9999999999999</ele><time>2026-04-04T08:31:36Z</time></trkpt><trkpt lat="37.0342160396577" lon="14.714562636141144"><ele>799.0</ele><time>2026-04-04T08:31:38Z</time></trkpt><trkpt lat="37.0341430143077" lon="14.71457893023815"><ele>799.0</ele><time>2026-04-04T08:31:39Z</time></trkpt><trkpt lat="37.03405685134635" lon="14.714616840156475"><ele>799.0</ele><time>2026-04-04T08:31:40Z</time></trkpt><trkpt lat="37.033970315204535" lon="14.714626061710659"><ele>798.9999999999999</ele><time>2026-04-04T08:31:41Z</time></trkpt><trkpt lat="37.033914922964186" lon="14.714674514192186"><ele>799.0</ele><time>2026-04-04T08:31:42Z</time></trkpt><trkpt lat="37.03380638390139" lon="14.714736283417063"><ele>797.0</ele><time>2026-04-04T08:31:44Z</time></trkpt><trkpt lat="37.0337011128236" lon="14.714756541879774"><ele>795.0</ele><time>2026-04-04T08:31:46Z</time></trkpt><trkpt lat="37.03361187824718" lon="14.714805782000049"><ele>793.0</ele><time>2026-04-04T08:31:48Z</time></trkpt><trkpt lat="37.03353822079727" lon="14.714903156962373"><ele>791.0</ele><time>2026-04-04T08:31:50Z</time></trkpt><trkpt lat="37.03347140495291" lon="14.714964414982784"><ele>789.0</ele><time>2026-04-04T08:31:52Z</time></trkpt><trkpt lat="37.03340922986656" lon="14.71501080842816"><ele>789.0</ele><time>2026-04-04T08:31:55Z</time></trkpt><trkpt lat="37.033334295597996" lon="14.715051080658055"><ele>789.0</ele><time>2026-04-04T08:31:58Z</time></trkpt><trkpt lat="37.03328117695559" lon="14.715097939841641"><ele>789.0</ele><time>2026-04-04T08:32:00Z</time></trkpt><trkpt lat="37.03326182333219" lon="14.715189316477943"><ele>789.0</ele><time>2026-04-04T08:32:02Z</time></trkpt><trkpt lat="37.033198359149715" lon="14.7152067876132"><ele>789.0</ele><time>2026-04-04T08:32:05Z</time></trkpt><trkpt lat="37.033200511091685" lon="14.715104359748025"><ele>789.0</ele><time>2026-04-04T08:32:08Z</time></trkpt><trkpt lat="37.03322142938097" lon="14.71500639033461"><ele>796.2</ele><time>2026-04-04T08:32:10Z</time></trkpt><trkpt lat="37.033221599050066" lon="14.71486943368775"><ele>803.4000000000001</ele><time>2026-04-04T08:32:12Z</time></trkpt><trkpt lat="37.03323579665602" lon="14.714773220104355"><ele>810.6</ele><time>2026-04-04T08:32:16Z</time></trkpt><trkpt lat="37.03329636404403" lon="14.7147175552117"><ele>817.8</ele><time>2026-04-04T08:32:21Z</time></trkpt><trkpt lat="37.03325668597323" lon="14.71463294602535"><ele>825.0</ele><time>2026-04-04T08:32:29Z</time></trkpt><trkpt lat="37.03322329850896" lon="14.71441243348688"><ele>823.8333333333334</ele><time>2026-04-04T08:32:31Z</time></trkpt><trkpt lat="37.0332599825392" lon="14.714261756392451"><ele>822.6666666666667</ele><time>2026-04-04T08:32:32Z</time></trkpt><trkpt lat="37.03326391033033" lon="14.714129623698161"><ele>821.5</ele><time>2026-04-04T08:32:34Z</time></trkpt><trkpt lat="37.033256759179785" lon="14.714049424427463"><ele>820.3333333333334</ele><time>2026-04-04T08:32:35Z</time></trkpt><trkpt lat="37.03322963289044" lon="14.713972388100984"><ele>819.1666666666667</ele><time>2026-04-04T08:32:36Z</time></trkpt><trkpt lat="37.033218525229906" lon="14.713893648889298"><ele>818.0</ele><time>2026-04-04T08:32:37Z</time></trkpt><trkpt lat="37.033188585723444" lon="14.71373249670043"><ele>818.0000000000001</ele><time>2026-04-04T08:32:39Z</time></trkpt><trkpt lat="37.033165918885764" lon="14.713656824408066"><ele>818.0</ele><time>2026-04-04T08:32:40Z</time></trkpt><trkpt lat="37.033180458736794" lon="14.713578439900754"><ele>818.0</ele><time>2026-04-04T08:32:41Z</time></trkpt><trkpt lat="37.033229973343815" lon="14.713467446314706"><ele>818.0</ele><time>2026-04-04T08:32:43Z</time></trkpt><trkpt lat="37.033266183427" lon="14.713356211460077"><ele>818.0000000000001</ele><time>2026-04-04T08:32:45Z</time></trkpt><trkpt lat="37.03332655152325" lon="14.713233287934921"><ele>818.0</ele><time>2026-04-04T08:32:47Z</time></trkpt><trkpt lat="37.03335907532123" lon="14.713124132634821"><ele>808.5999999999999</ele><time>2026-04-04T08:32:49Z</time></trkpt><trkpt lat="37.03336349329857" lon="14.713030474759108"><ele>799.1999999999999</ele><time>2026-04-04T08:32:50Z</time></trkpt><trkpt lat="37.033381012666" lon="14.712900040069078"><ele>789.8</ele><time>2026-04-04T08:32:52Z</time></trkpt><trkpt lat="37.03343479349987" lon="14.712736588833815"><ele>780.4</ele><time>2026-04-04T08:32:55Z</time></trkpt><trkpt lat="37.03341604163726" lon="14.712624335047751"><ele>771.0</ele><time>2026-04-04T08:32:57Z</time></trkpt><trkpt lat="37.03339727573653" lon="14.712544417878165"><ele>771.0</ele><time>2026-04-04T08:33:00Z</time></trkpt><trkpt lat="37.03336194969828" lon="14.712459632423522"><ele>771.0</ele><time>2026-04-04T08:33:02Z</time></trkpt><trkpt lat="37.03328966167479" lon="14.712415936508831"><ele>771.0</ele><time>2026-04-04T08:33:05Z</time></trkpt><trkpt lat="37.033221057365594" lon="14.71238756002578"><ele>771.0</ele><time>2026-04-04T08:33:08Z</time></trkpt><trkpt lat="37.03317413212007" lon="14.712454218992358"><ele>771.0</ele><time>2026-04-04T08:33:25Z</time></trkpt><trkpt lat="37.0332000635213" lon="14.712531065095716"><ele>771.0</ele><time>2026-04-04T08:36:35Z</time></trkpt><trkpt lat="37.03318508687353" lon="14.712618975161268"><ele>771.0</ele><time>2026-04-04T08:36:38Z</time></trkpt><trkpt lat="37.033126205655165" lon="14.712576871210617"><ele>773.5999999999999</ele><time>2026-04-04T08:36:56Z</time></trkpt><trkpt lat="37.033070658811695" lon="14.712510391503896"><ele>776.2</ele><time>2026-04-04T08:39:17Z</time></trkpt><trkpt lat="37.032987219758745" lon="14.712467133071849"><ele>778.8</ele><time>2026-04-04T08:39:20Z</time></trkpt><trkpt lat="37.03287359373826" lon="14.712422579956186"><ele>781.4000000000001</ele><time>2026-04-04T08:39:22Z</time></trkpt><trkpt lat="37.03276049943281" lon="14.712387427036637"><ele>784.0</ele><time>2026-04-04T08:39:24Z</time></trkpt><trkpt lat="37.03263910231676" lon="14.712356536128638"><ele>784.0</ele><time>2026-04-04T08:39:26Z</time></trkpt><trkpt lat="37.03254685999384" lon="14.71232937353131"><ele>784.0</ele><time>2026-04-04T08:39:28Z</time></trkpt><trkpt lat="37.03246209065229" lon="14.712252301529329"><ele>784.0</ele><time>2026-04-04T08:39:30Z</time></trkpt><trkpt lat="37.03235729996833" lon="14.712204926409743"><ele>784.0</ele><time>2026-04-04T08:39:32Z</time></trkpt><trkpt lat="37.032253581096896" lon="14.712157354081716"><ele>784.0</ele><time>2026-04-04T08:39:34Z</time></trkpt><trkpt lat="37.032149227659794" lon="14.71210150190839"><ele>784.0</ele><time>2026-04-04T08:39:36Z</time></trkpt><trkpt lat="37.03204179714873" lon="14.712105094413085"><ele>784.0</ele><time>2026-04-04T08:39:38Z</time></trkpt><trkpt lat="37.03183516311841" lon="14.712106513340085"><ele>784.0</ele><time>2026-04-04T08:39:41Z</time></trkpt><trkpt lat="37.03173585096944" lon="14.712079544275568"><ele>784.0</ele><time>2026-04-04T08:39:43Z</time></trkpt><trkpt lat="37.03166662792183" lon="14.712072069745783"><ele>783.9999999999999</ele><time>2026-04-04T08:39:45Z</time></trkpt><trkpt lat="37.03164782862216" lon="14.71216378957575"><ele>784.0</ele><time>2026-04-04T08:39:46Z</time></trkpt><trkpt lat="37.031548923861834" lon="14.712175655615383"><ele>784.0</ele><time>2026-04-04T08:39:48Z</time></trkpt><trkpt lat="37.031484188732044" lon="14.712292504279116"><ele>784.0</ele><time>2026-04-04T08:39:50Z</time></trkpt><trkpt lat="37.03142717270608" lon="14.712329988112607"><ele>783.9999999999999</ele><time>2026-04-04T08:39:51Z</time></trkpt><trkpt lat="37.03133853492274" lon="14.712345971882936"><ele>784.0</ele><time>2026-04-04T08:39:52Z</time></trkpt><trkpt lat="37.031276585847564" lon="14.712390342963777"><ele>782.3333333333333</ele><time>2026-04-04T08:39:53Z</time></trkpt><trkpt lat="37.031224142697496" lon="14.71247486222793"><ele>780.6666666666666</ele><time>2026-04-04T08:39:54Z</time></trkpt><trkpt lat="37.03116903733464" lon="14.712540188658316"><ele>779.0</ele><time>2026-04-04T08:39:55Z</time></trkpt><trkpt lat="37.03111466025017" lon="14.712606971485114"><ele>777.3333333333333</ele><time>2026-04-04T08:39:56Z</time></trkpt><trkpt lat="37.03104657468195" lon="14.712645328784264"><ele>775.6666666666666</ele><time>2026-04-04T08:39:57Z</time></trkpt><trkpt lat="37.0309525042591" lon="14.712729262715442"><ele>774.0</ele><time>2026-04-04T08:39:59Z</time></trkpt><trkpt lat="37.03087614983668" lon="14.71274288188484"><ele>775.2</ele><time>2026-04-04T08:40:00Z</time></trkpt><trkpt lat="37.03075550579416" lon="14.71276919263013"><ele>776.4000000000001</ele><time>2026-04-04T08:40:02Z</time></trkpt><trkpt lat="37.03068630012481" lon="14.712774679084434"><ele>777.6</ele><time>2026-04-04T08:40:03Z</time></trkpt><trkpt lat="37.03062272793568" lon="14.712757756842466"><ele>778.8</ele><time>2026-04-04T08:40:04Z</time></trkpt><trkpt lat="37.03057286538039" lon="14.712690406684333"><ele>780.0</ele><time>2026-04-04T08:40:06Z</time></trkpt><trkpt lat="37.03052893262251" lon="14.712550361618925"><ele>780.0</ele><time>2026-04-04T08:40:08Z</time></trkpt><trkpt lat="37.030462728356234" lon="14.712510631614506"><ele>780.0</ele><time>2026-04-04T08:40:09Z</time></trkpt><trkpt lat="37.030372290280646" lon="14.712582717624228"><ele>780.0</ele><time>2026-04-04T08:40:10Z</time></trkpt><trkpt lat="37.03029022670798" lon="14.712611056840364"><ele>780.0</ele><time>2026-04-04T08:40:11Z</time></trkpt><trkpt lat="37.030244620369366" lon="14.71242587190569"><ele>780.0</ele><time>2026-04-04T08:40:13Z</time></trkpt><trkpt lat="37.03017134196152" lon="14.71234037784368"><ele>780.0</ele><time>2026-04-04T08:40:15Z</time></trkpt><trkpt lat="37.03014356755388" lon="14.712263065196115"><ele>780.0</ele><time>2026-04-04T08:40:17Z</time></trkpt><trkpt lat="37.03005244043799" lon="14.71229382223382"><ele>780.0</ele><time>2026-04-04T08:40:19Z</time></trkpt><trkpt lat="37.029992427883805" lon="14.712339318152559"><ele>780.0</ele><time>2026-04-04T08:40:20Z</time></trkpt><trkpt lat="37.02991878140555" lon="14.712344780489625"><ele>780.0</ele><time>2026-04-04T08:40:24Z</time></trkpt><trkpt lat="37.029832986896075" lon="14.71232062271085"><ele>780.0</ele><time>2026-04-04T08:40:27Z</time></trkpt><trkpt lat="37.029702884192055" lon="14.712386784113543"><ele>777.3333333333334</ele><time>2026-04-04T08:40:28Z</time></trkpt><trkpt lat="37.029633335325684" lon="14.712483890351386"><ele>774.6666666666666</ele><time>2026-04-04T08:40:30Z</time></trkpt><trkpt lat="37.02954407195778" lon="14.712557492814499"><ele>772.0</ele><time>2026-04-04T08:40:32Z</time></trkpt><trkpt lat="37.029476613219174" lon="14.712562642301254"><ele>769.3333333333333</ele><time>2026-04-04T08:40:33Z</time></trkpt><trkpt lat="37.02941855054176" lon="14.712605749892942"><ele>766.6666666666666</ele><time>2026-04-04T08:40:34Z</time></trkpt><trkpt lat="37.02934200386156" lon="14.712638342638032"><ele>764.0</ele><time>2026-04-04T08:40:35Z</time></trkpt><trkpt lat="37.02928954701462" lon="14.71269910027617"><ele>769.6</ele><time>2026-04-04T08:40:36Z</time></trkpt><trkpt lat="37.0291781747834" lon="14.712740560454066"><ele>775.2</ele><time>2026-04-04T08:40:38Z</time></trkpt><trkpt lat="37.02909211584898" lon="14.71281802216531"><ele>780.8000000000001</ele><time>2026-04-04T08:40:40Z</time></trkpt><trkpt lat="37.02906467592825" lon="14.712891908575097"><ele>786.4000000000001</ele><time>2026-04-04T08:40:42Z</time></trkpt><trkpt lat="37.02901384174429" lon="14.713008513119936"><ele>792.0</ele><time>2026-04-04T08:40:45Z</time></trkpt><trkpt lat="37.02900750717039" lon="14.71308758982319"><ele>792.0</ele><time>2026-04-04T08:40:46Z</time></trkpt><trkpt lat="37.028952884616814" lon="14.713187705898239"><ele>792.0</ele><time>2026-04-04T08:40:49Z</time></trkpt><trkpt lat="37.0289170183485" lon="14.713263771955747"><ele>792.0</ele><time>2026-04-04T08:40:50Z</time></trkpt><trkpt lat="37.02888110042201" lon="14.713332538998795"><ele>792.0</ele><time>2026-04-04T08:40:51Z</time></trkpt><trkpt lat="37.02884588404858" lon="14.713406412907903"><ele>792.0</ele><time>2026-04-04T08:40:52Z</time></trkpt><trkpt lat="37.02878179862105" lon="14.71352863055023"><ele>792.0</ele><time>2026-04-04T08:40:54Z</time></trkpt><trkpt lat="37.02874104745318" lon="14.713612837632606"><ele>792.0</ele><time>2026-04-04T08:40:56Z</time></trkpt><trkpt lat="37.02866933350417" lon="14.713611479388758"><ele>792.0</ele><time>2026-04-04T08:41:04Z</time></trkpt><trkpt lat="37.02865233686026" lon="14.713525136261415"><ele>792.0</ele><time>2026-04-04T08:41:05Z</time></trkpt><trkpt lat="37.028622016552234" lon="14.713392750263308"><ele>792.0</ele><time>2026-04-04T08:41:07Z</time></trkpt><trkpt lat="37.028542345979915" lon="14.713268316245404"><ele>792.0</ele><time>2026-04-04T08:41:09Z</time></trkpt><trkpt lat="37.02849340788284" lon="14.713217919296474"><ele>792.0</ele><time>2026-04-04T08:41:10Z</time></trkpt><trkpt lat="37.02846034657782" lon="14.71314349319638"><ele>792.0</ele><time>2026-04-04T08:41:11Z</time></trkpt><trkpt lat="37.02842686583218" lon="14.712990115958961"><ele>792.0</ele><time>2026-04-04T08:41:13Z</time></trkpt><trkpt lat="37.0283573524515" lon="14.712862668093036"><ele>792.0</ele><time>2026-04-04T08:41:15Z</time></trkpt><trkpt lat="37.028308850106015" lon="14.712800736515234"><ele>792.0</ele><time>2026-04-04T08:41:16Z</time></trkpt><trkpt lat="37.02822390651112" lon="14.712701059311417"><ele>792.0</ele><time>2026-04-04T08:41:18Z</time></trkpt><trkpt lat="37.02818227220645" lon="14.712635011345125"><ele>791.8333333333334</ele><time>2026-04-04T08:41:19Z</time></trkpt><trkpt lat="37.02811858577611" lon="14.712569403305517"><ele>791.6666666666667</ele><time>2026-04-04T08:41:20Z</time></trkpt><trkpt lat="37.02805122873176" lon="14.712500371745847"><ele>791.5</ele><time>2026-04-04T08:41:21Z</time></trkpt><trkpt lat="37.02799942905507" lon="14.7124425385737"><ele>791.3333333333334</ele><time>2026-04-04T08:41:22Z</time></trkpt><trkpt lat="37.02793092944544" lon="14.712397557924964"><ele>791.1666666666667</ele><time>2026-04-04T08:41:23Z</time></trkpt><trkpt lat="37.027874828663485" lon="14.712353825622287"><ele>791.0</ele><time>2026-04-04T08:41:24Z</time></trkpt><trkpt lat="37.027826151775" lon="14.712289091598365"><ele>791.0</ele><time>2026-04-04T08:41:25Z</time></trkpt><trkpt lat="37.02777098509789" lon="14.712222385069758"><ele>791.0</ele><time>2026-04-04T08:41:26Z</time></trkpt><trkpt lat="37.02771678667906" lon="14.71218200245535"><ele>791.0</ele><time>2026-04-04T08:41:27Z</time></trkpt><trkpt lat="37.02763115958298" lon="14.712162541500494"><ele>791.0</ele><time>2026-04-04T08:41:29Z</time></trkpt><trkpt lat="37.027554331892574" lon="14.712108437082906"><ele>791.0</ele><time>2026-04-04T08:41:31Z</time></trkpt><trkpt lat="37.02748722352857" lon="14.712096158800284"><ele>791.0</ele><time>2026-04-04T08:41:34Z</time></trkpt><trkpt lat="37.02742472905093" lon="14.712083416259308"><ele>791.0</ele><time>2026-04-04T08:42:15Z</time></trkpt><trkpt lat="37.02735967671025" lon="14.712055094255518"><ele>790.5000000000001</ele><time>2026-04-04T08:42:22Z</time></trkpt><trkpt lat="37.02725689792401" lon="14.712000399817207"><ele>790.0</ele><time>2026-04-04T08:42:24Z</time></trkpt><trkpt lat="37.02718946096374" lon="14.711980252416465"><ele>789.5</ele><time>2026-04-04T08:42:25Z</time></trkpt><trkpt lat="37.02711650411258" lon="14.71198654433654"><ele>789.0</ele><time>2026-04-04T08:42:26Z</time></trkpt><trkpt lat="37.02703948483228" lon="14.71200184551541"><ele>788.5000000000001</ele><time>2026-04-04T08:42:27Z</time></trkpt><trkpt lat="37.026962402279686" lon="14.712027612732067"><ele>788.0</ele><time>2026-04-04T08:42:28Z</time></trkpt><trkpt lat="37.0268908815331" lon="14.712062839445448"><ele>788.0000000000001</ele><time>2026-04-04T08:42:29Z</time></trkpt><trkpt lat="37.02683223358671" lon="14.71211000740873"><ele>788.0</ele><time>2026-04-04T08:42:30Z</time></trkpt><trkpt lat="37.026769118930524" lon="14.712107156934463"><ele>788.0</ele><time>2026-04-04T08:42:31Z</time></trkpt><trkpt lat="37.0266611846913" lon="14.712131275435134"><ele>788.0</ele><time>2026-04-04T08:42:33Z</time></trkpt><trkpt lat="37.0266009360892" lon="14.712167772017349"><ele>788.0000000000001</ele><time>2026-04-04T08:42:34Z</time></trkpt><trkpt lat="37.02650573466338" lon="14.712227644327"><ele>788.0</ele><time>2026-04-04T08:42:36Z</time></trkpt><trkpt lat="37.02641281490101" lon="14.712323871863456"><ele>787.8333333333334</ele><time>2026-04-04T08:42:38Z</time></trkpt><trkpt lat="37.02635331804287" lon="14.712370681916196"><ele>787.6666666666667</ele><time>2026-04-04T08:42:39Z</time></trkpt><trkpt lat="37.026295268144075" lon="14.712407191137258"><ele>787.5</ele><time>2026-04-04T08:42:40Z</time></trkpt><trkpt lat="37.02621352853301" lon="14.712483313429301"><ele>787.3333333333333</ele><time>2026-04-04T08:42:42Z</time></trkpt><trkpt lat="37.02615632051136" lon="14.71253071612704"><ele>787.1666666666666</ele><time>2026-04-04T08:42:44Z</time></trkpt><trkpt lat="37.02611020020135" lon="14.712631603738863"><ele>787.0</ele><time>2026-04-04T08:42:48Z</time></trkpt><trkpt lat="37.02608441239404" lon="14.712735358438305"><ele>789.9999999999999</ele><time>2026-04-04T08:42:50Z</time></trkpt><trkpt lat="37.02603435017704" lon="14.712805151286796"><ele>793.0</ele><time>2026-04-04T08:42:51Z</time></trkpt><trkpt lat="37.02599532887142" lon="14.712887629147644"><ele>796.0</ele><time>2026-04-04T08:42:53Z</time></trkpt><trkpt lat="37.02594478251975" lon="14.712947373360594"><ele>799.0</ele><time>2026-04-04T08:42:55Z</time></trkpt><trkpt lat="37.02588761600576" lon="14.713034368882926"><ele>801.9999999999999</ele><time>2026-04-04T08:42:59Z</time></trkpt><trkpt lat="37.02587573800896" lon="14.713136073879443"><ele>805.0</ele><time>2026-04-04T08:43:01Z</time></trkpt><trkpt lat="37.02581806691094" lon="14.71320943012704"><ele>808.9999999999999</ele><time>2026-04-04T08:43:03Z</time></trkpt><trkpt lat="37.02577167355285" lon="14.713270874795699"><ele>813.0</ele><time>2026-04-04T08:43:07Z</time></trkpt><trkpt lat="37.02570424134088" lon="14.713344977443258"><ele>817.0</ele><time>2026-04-04T08:43:08Z</time></trkpt><trkpt lat="37.025616875509634" lon="14.713361412075587"><ele>821.0</ele><time>2026-04-04T08:43:10Z</time></trkpt><trkpt lat="37.02557667250915" lon="14.713455395570556"><ele>824.9999999999999</ele><time>2026-04-04T08:43:12Z</time></trkpt><trkpt lat="37.02551523078257" lon="14.713486320451599"><ele>829.0</ele><time>2026-04-04T08:43:14Z</time></trkpt><trkpt lat="37.025461740575295" lon="14.71343344718359"><ele>828.9999999999999</ele><time>2026-04-04T08:43:16Z</time></trkpt><trkpt lat="37.02546456966055" lon="14.713335420766521"><ele>829.0</ele><time>2026-04-04T08:43:18Z</time></trkpt><trkpt lat="37.0254973517986" lon="14.713245270082062"><ele>829.0</ele><time>2026-04-04T08:43:21Z</time></trkpt><trkpt lat="37.02544383696909" lon="14.713158590967877"><ele>829.0</ele><time>2026-04-04T08:43:24Z</time></trkpt><trkpt lat="37.02542083246219" lon="14.713084741257646"><ele>828.9999999999999</ele><time>2026-04-04T08:43:25Z</time></trkpt><trkpt lat="37.02545524979864" lon="14.713006537628596"><ele>829.0</ele><time>2026-04-04T08:43:26Z</time></trkpt><trkpt lat="37.025498592372436" lon="14.712750891270042"><ele>828.4000000000001</ele><time>2026-04-04T08:43:27Z</time></trkpt><trkpt lat="37.025530667882336" lon="14.712644162429939"><ele>827.8</ele><time>2026-04-04T08:43:28Z</time></trkpt><trkpt lat="37.02555567881425" lon="14.71256665422621"><ele>827.2</ele><time>2026-04-04T08:43:29Z</time></trkpt><trkpt lat="37.02543384107827" lon="14.712557671770668"><ele>826.5999999999999</ele><time>2026-04-04T08:43:30Z</time></trkpt><trkpt lat="37.02544826973783" lon="14.712424790890907"><ele>826.0</ele><time>2026-04-04T08:43:31Z</time></trkpt><trkpt lat="37.025459226553295" lon="14.712323884644563"><ele>825.9999999999999</ele><time>2026-04-04T08:43:32Z</time></trkpt><trkpt lat="37.02546964883437" lon="14.712227900631722"><ele>826.0</ele><time>2026-04-04T08:43:33Z</time></trkpt><trkpt lat="37.02548069259497" lon="14.712126193837548"><ele>826.0</ele><time>2026-04-04T08:43:34Z</time></trkpt><trkpt lat="37.02549153282569" lon="14.712024483018665"><ele>826.0</ele><time>2026-04-04T08:43:35Z</time></trkpt><trkpt lat="37.02550136306051" lon="14.711932225883764"><ele>825.9999999999999</ele><time>2026-04-04T08:43:36Z</time></trkpt><trkpt lat="37.025510286066115" lon="14.711848483211183"><ele>826.0</ele><time>2026-04-04T08:43:37Z</time></trkpt><trkpt lat="37.02552685735629" lon="14.711692961092167"><ele>825.1666666666666</ele><time>2026-04-04T08:43:39Z</time></trkpt><trkpt lat="37.02554324247922" lon="14.711539186230038"><ele>824.3333333333333</ele><time>2026-04-04T08:43:41Z</time></trkpt><trkpt lat="37.02555339668432" lon="14.711445656586625"><ele>823.5</ele><time>2026-04-04T08:43:42Z</time></trkpt><trkpt lat="37.02556373283874" lon="14.711354767434178"><ele>822.6666666666667</ele><time>2026-04-04T08:43:43Z</time></trkpt><trkpt lat="37.025574665841226" lon="14.71125863007312"><ele>821.8333333333334</ele><time>2026-04-04T08:43:44Z</time></trkpt><trkpt lat="37.025584592563746" lon="14.711171341247402"><ele>821.0</ele><time>2026-04-04T08:43:45Z</time></trkpt><trkpt lat="37.025595019143466" lon="14.71107965704137"><ele>819.4</ele><time>2026-04-04T08:43:46Z</time></trkpt><trkpt lat="37.025604168113304" lon="14.710989039726233"><ele>817.8</ele><time>2026-04-04T08:43:47Z</time></trkpt><trkpt lat="37.025602840038644" lon="14.710882336664719"><ele>816.1999999999999</ele><time>2026-04-04T08:43:49Z</time></trkpt><trkpt lat="37.02559147537956" lon="14.710733825951044"><ele>814.5999999999999</ele><time>2026-04-04T08:43:51Z</time></trkpt><trkpt lat="37.02556714089278" lon="14.710622601740926"><ele>813.0</ele><time>2026-04-04T08:43:53Z</time></trkpt><trkpt lat="37.02556271759522" lon="14.710520566311713"><ele>813.0</ele><time>2026-04-04T08:43:55Z</time></trkpt><trkpt lat="37.02556219810132" lon="14.71043289167643"><ele>813.0</ele><time>2026-04-04T08:43:56Z</time></trkpt><trkpt lat="37.02617171258767" lon="14.710149589796842"><ele>803.8333333333334</ele><time>2026-04-04T08:43:57Z</time></trkpt><trkpt lat="37.02620016776631" lon="14.710033234182184"><ele>794.6666666666666</ele><time>2026-04-04T08:43:59Z</time></trkpt><trkpt lat="37.026247633050026" lon="14.70992983328808"><ele>785.5</ele><time>2026-04-04T08:44:01Z</time></trkpt><trkpt lat="37.02627496663343" lon="14.709839596033744"><ele>776.3333333333333</ele><time>2026-04-04T08:44:03Z</time></trkpt><trkpt lat="37.02629509262435" lon="14.709758871366377"><ele>767.1666666666666</ele><time>2026-04-04T08:44:06Z</time></trkpt><trkpt lat="37.02635068701613" lon="14.70980769931763"><ele>758.0</ele><time>2026-04-04T08:44:21Z</time></trkpt><trkpt lat="37.026334118212496" lon="14.709904310186152"><ele>758.0</ele><time>2026-04-04T08:44:24Z</time></trkpt><trkpt lat="37.02629747065666" lon="14.71001222135196"><ele>758.0</ele><time>2026-04-04T08:44:27Z</time></trkpt><trkpt lat="37.02631823497537" lon="14.710113095708252"><ele>758.0</ele><time>2026-04-04T08:44:29Z</time></trkpt><trkpt lat="37.026308995472775" lon="14.710207762332297"><ele>758.0</ele><time>2026-04-04T08:44:32Z</time></trkpt><trkpt lat="37.02636493189325" lon="14.710266250532804"><ele>758.0</ele><time>2026-04-04T08:44:35Z</time></trkpt><trkpt lat="37.02632217332896" lon="14.71038324087868"><ele>758.0</ele><time>2026-04-04T08:44:36Z</time></trkpt><trkpt lat="37.026358854326546" lon="14.710461193633481"><ele>760.0</ele><time>2026-04-04T08:44:39Z</time></trkpt><trkpt lat="37.02645235943119" lon="14.710422476027032"><ele>762.0</ele><time>2026-04-04T08:44:41Z</time></trkpt><trkpt lat="37.02649405210853" lon="14.71050926302956"><ele>764.0</ele><time>2026-04-04T08:44:44Z</time></trkpt><trkpt lat="37.0265242801518" lon="14.710584541094827"><ele>766.0</ele><time>2026-04-04T08:44:55Z</time></trkpt><trkpt lat="37.02649543056187" lon="14.710657307869736"><ele>768.0000000000001</ele><time>2026-04-04T08:45:17Z</time></trkpt><trkpt lat="37.026485212751744" lon="14.710737501806568"><ele>770.0</ele><time>2026-04-04T08:45:19Z</time></trkpt><trkpt lat="37.02647305645196" lon="14.710902838694734"><ele>770.0000000000001</ele><time>2026-04-04T08:45:22Z</time></trkpt><trkpt lat="37.0265010525039" lon="14.710988165950436"><ele>770.0</ele><time>2026-04-04T08:45:25Z</time></trkpt><trkpt lat="37.026577577859904" lon="14.710962376066"><ele>770.0</ele><time>2026-04-04T08:45:28Z</time></trkpt><trkpt lat="37.026660700910796" lon="14.710907435092292"><ele>770.0</ele><time>2026-04-04T08:45:31Z</time></trkpt><trkpt lat="37.02670001455601" lon="14.7108349333114"><ele>770.0000000000001</ele><time>2026-04-04T08:45:33Z</time></trkpt><trkpt lat="37.02673164350153" lon="14.71076669642401"><ele>770.0</ele><time>2026-04-04T08:45:39Z</time></trkpt><trkpt lat="37.026758991870075" lon="14.710572296505452"><ele>763.0</ele><time>2026-04-04T08:46:27Z</time></trkpt><trkpt lat="37.02672630582508" lon="14.710494620887948"><ele>756.0</ele><time>2026-04-04T08:46:28Z</time></trkpt><trkpt lat="37.02672453286271" lon="14.710398239985357"><ele>749.0</ele><time>2026-04-04T08:46:29Z</time></trkpt><trkpt lat="37.026745571389355" lon="14.710273380328841"><ele>742.0</ele><time>2026-04-04T08:46:30Z</time></trkpt><trkpt lat="37.026790113230426" lon="14.71013276142854"><ele>735.0</ele><time>2026-04-04T08:46:31Z</time></trkpt><trkpt lat="37.02684275141662" lon="14.709975065275339"><ele>733.5</ele><time>2026-04-04T08:46:32Z</time></trkpt><trkpt lat="37.02688282556896" lon="14.709802371990955"><ele>732.0</ele><time>2026-04-04T08:46:33Z</time></trkpt><trkpt lat="37.0269130535344" lon="14.7096324792242"><ele>730.5</ele><time>2026-04-04T08:46:34Z</time></trkpt><trkpt lat="37.02695043369727" lon="14.709446431552289"><ele>729.0</ele><time>2026-04-04T08:46:35Z</time></trkpt><trkpt lat="37.02699082007311" lon="14.709273295807824"><ele>729.0</ele><time>2026-04-04T08:46:36Z</time></trkpt><trkpt lat="37.02702882457655" lon="14.709117618045836"><ele>729.0</ele><time>2026-04-04T08:46:37Z</time></trkpt><trkpt lat="37.02706515863829" lon="14.708973844343102"><ele>729.0</ele><time>2026-04-04T08:46:38Z</time></trkpt><trkpt lat="37.02709656805504" lon="14.708831239402189"><ele>729.0</ele><time>2026-04-04T08:46:39Z</time></trkpt><trkpt lat="37.02711450637117" lon="14.708684780875515"><ele>729.6</ele><time>2026-04-04T08:46:40Z</time></trkpt><trkpt lat="37.027097573112954" lon="14.708542784079166"><ele>730.2</ele><time>2026-04-04T08:46:41Z</time></trkpt><trkpt lat="37.027047469287446" lon="14.708417206749232"><ele>730.8000000000001</ele><time>2026-04-04T08:46:42Z</time></trkpt><trkpt lat="37.026980291356125" lon="14.708318381039799"><ele>731.4000000000001</ele><time>2026-04-04T08:46:43Z</time></trkpt><trkpt lat="37.02690772850923" lon="14.708225083949264"><ele>732.0</ele><time>2026-04-04T08:46:44Z</time></trkpt><trkpt lat="37.02682901973442" lon="14.708116305496937"><ele>732.0</ele><time>2026-04-04T08:46:45Z</time></trkpt><trkpt lat="37.026771397573455" lon="14.70800945093833"><ele>732.0</ele><time>2026-04-04T08:46:46Z</time></trkpt><trkpt lat="37.02670614785569" lon="14.707891430318554"><ele>732.0</ele><time>2026-04-04T08:46:47Z</time></trkpt><trkpt lat="37.02663178130387" lon="14.707770536706262"><ele>732.0</ele><time>2026-04-04T08:46:48Z</time></trkpt><trkpt lat="37.02654668029392" lon="14.7076670821284"><ele>730.0</ele><time>2026-04-04T08:46:49Z</time></trkpt><trkpt lat="37.02643656251508" lon="14.707591338516036"><ele>728.0</ele><time>2026-04-04T08:46:50Z</time></trkpt><trkpt lat="37.02631397720265" lon="14.707549336448375"><ele>726.0</ele><time>2026-04-04T08:46:51Z</time></trkpt><trkpt lat="37.026181993782316" lon="14.707538060634619"><ele>724.0</ele><time>2026-04-04T08:46:52Z</time></trkpt><trkpt lat="37.02605258231785" lon="14.70755980625481"><ele>724.0</ele><time>2026-04-04T08:46:53Z</time></trkpt><trkpt lat="37.025925655862785" lon="14.707579933700082"><ele>724.0</ele><time>2026-04-04T08:46:54Z</time></trkpt><trkpt lat="37.02580124726099" lon="14.707661617330379"><ele>724.0</ele><time>2026-04-04T08:46:55Z</time></trkpt><trkpt lat="37.02571244775364" lon="14.707796894053162"><ele>724.0</ele><time>2026-04-04T08:46:56Z</time></trkpt><trkpt lat="37.02560955720154" lon="14.707905179938185"><ele>728.25</ele><time>2026-04-04T08:46:57Z</time></trkpt><trkpt lat="37.025521716749154" lon="14.708020127046668"><ele>732.5</ele><time>2026-04-04T08:46:58Z</time></trkpt><trkpt lat="37.025423040202995" lon="14.708147471049609"><ele>736.75</ele><time>2026-04-04T08:46:59Z</time></trkpt><trkpt lat="37.025331746403666" lon="14.708264414493275"><ele>741.0</ele><time>2026-04-04T08:47:00Z</time></trkpt><trkpt lat="37.025227502090274" lon="14.708367223431065"><ele>741.0</ele><time>2026-04-04T08:47:01Z</time></trkpt><trkpt lat="37.025109881286596" lon="14.708466870120045"><ele>741.0</ele><time>2026-04-04T08:47:02Z</time></trkpt><trkpt lat="37.02496621562283" lon="14.708493108395066"><ele>741.0</ele><time>2026-04-04T08:47:03Z</time></trkpt><trkpt lat="37.024800710112956" lon="14.708522352855995"><ele>741.3333333333334</ele><time>2026-04-04T08:47:04Z</time></trkpt><trkpt lat="37.024621098132215" lon="14.708551498768689"><ele>741.6666666666667</ele><time>2026-04-04T08:47:05Z</time></trkpt><trkpt lat="37.0244386401625" lon="14.708586467105219"><ele>742.0</ele><time>2026-04-04T08:47:06Z</time></trkpt><trkpt lat="37.02425048258813" lon="14.708604416420183"><ele>751.0</ele><time>2026-04-04T08:47:07Z</time></trkpt><trkpt lat="37.0240497238706" lon="14.708638914754374"><ele>760.0</ele><time>2026-04-04T08:47:08Z</time></trkpt><trkpt lat="37.02383086553196" lon="14.708672931485427"><ele>769.0</ele><time>2026-04-04T08:47:09Z</time></trkpt><trkpt lat="37.02361124740051" lon="14.708733497571929"><ele>769.0</ele><time>2026-04-04T08:47:10Z</time></trkpt><trkpt lat="37.023389925724715" lon="14.708824346719659"><ele>769.0</ele><time>2026-04-04T08:47:11Z</time></trkpt><trkpt lat="37.02318382908051" lon="14.70893303090799"><ele>763.0</ele><time>2026-04-04T08:47:12Z</time></trkpt><trkpt lat="37.022974415222514" lon="14.709041962619317"><ele>757.0</ele><time>2026-04-04T08:47:13Z</time></trkpt><trkpt lat="37.02276482230312" lon="14.709155990701445"><ele>757.0</ele><time>2026-04-04T08:47:14Z</time></trkpt><trkpt lat="37.0225585055732" lon="14.70928520810268"><ele>757.0</ele><time>2026-04-04T08:47:15Z</time></trkpt><trkpt lat="37.02235933517588" lon="14.709415097257386"><ele>764.0</ele><time>2026-04-04T08:47:16Z</time></trkpt><trkpt lat="37.02218028252913" lon="14.709505049696201"><ele>771.0</ele><time>2026-04-04T08:47:17Z</time></trkpt><trkpt lat="37.02202121956211" lon="14.709576511925231"><ele>778.0</ele><time>2026-04-04T08:47:18Z</time></trkpt><trkpt lat="37.02188038484071" lon="14.709638645227747"><ele>778.0</ele><time>2026-04-04T08:47:19Z</time></trkpt><trkpt lat="37.02176555424733" lon="14.709688458180862"><ele>778.0</ele><time>2026-04-04T08:47:20Z</time></trkpt><trkpt lat="37.021676914641574" lon="14.709747916608531"><ele>778.0</ele><time>2026-04-04T08:47:21Z</time></trkpt><trkpt lat="37.021611428657685" lon="14.709803360464669"><ele>778.0</ele><time>2026-04-04T08:47:22Z</time></trkpt><trkpt lat="37.0215870204427" lon="14.709933221465484"><ele>778.0</ele><time>2026-04-04T08:47:23Z</time></trkpt><trkpt lat="37.021510226995545" lon="14.710041396408922"><ele>783.5</ele><time>2026-04-04T08:47:24Z</time></trkpt><trkpt lat="37.02143523568919" lon="14.710172573851677"><ele>789.0</ele><time>2026-04-04T08:47:25Z</time></trkpt><trkpt lat="37.021372463568625" lon="14.710313613901274"><ele>794.5</ele><time>2026-04-04T08:47:26Z</time></trkpt><trkpt lat="37.02127869923175" lon="14.710420970063847"><ele>800.0</ele><time>2026-04-04T08:47:27Z</time></trkpt><trkpt lat="37.0211959876847" lon="14.71052622905773"><ele>800.3333333333334</ele><time>2026-04-04T08:47:28Z</time></trkpt><trkpt lat="37.02112724208877" lon="14.710568432589888"><ele>800.6666666666667</ele><time>2026-04-04T08:47:29Z</time></trkpt><trkpt lat="37.02102748084601" lon="14.710596677171045"><ele>801.0</ele><time>2026-04-04T08:47:31Z</time></trkpt><trkpt lat="37.02099850013368" lon="14.710672980684157"><ele>801.3333333333333</ele><time>2026-04-04T08:47:32Z</time></trkpt><trkpt lat="37.02093861267216" lon="14.710753366057501"><ele>801.6666666666666</ele><time>2026-04-04T08:47:34Z</time></trkpt><trkpt lat="37.02086545789429" lon="14.710803875652708"><ele>802.0</ele><time>2026-04-04T08:47:36Z</time></trkpt><trkpt lat="37.02081181926004" lon="14.710846649381995"><ele>805.8333333333333</ele><time>2026-04-04T08:47:38Z</time></trkpt><trkpt lat="37.02076495472866" lon="14.710903136656746"><ele>809.6666666666666</ele><time>2026-04-04T08:47:40Z</time></trkpt><trkpt lat="37.020664464640795" lon="14.710988458880518"><ele>813.5</ele><time>2026-04-04T08:47:43Z</time></trkpt><trkpt lat="37.02060412536265" lon="14.71104496098102"><ele>817.3333333333333</ele><time>2026-04-04T08:47:49Z</time></trkpt><trkpt lat="37.02054372201349" lon="14.711072426334205"><ele>821.1666666666666</ele><time>2026-04-04T08:47:53Z</time></trkpt><trkpt lat="37.02047420791762" lon="14.7111483125225"><ele>825.0</ele><time>2026-04-04T08:47:58Z</time></trkpt><trkpt lat="37.02042077425115" lon="14.711195791992724"><ele>825.0</ele><time>2026-04-04T08:48:00Z</time></trkpt><trkpt lat="37.02036192049284" lon="14.711253321938063"><ele>825.0</ele><time>2026-04-04T08:48:02Z</time></trkpt><trkpt lat="37.020294284901986" lon="14.71131344231271"><ele>825.0</ele><time>2026-04-04T08:48:04Z</time></trkpt><trkpt lat="37.020227206364396" lon="14.711357727298196"><ele>825.0</ele><time>2026-04-04T08:48:06Z</time></trkpt><trkpt lat="37.02017895245508" lon="14.711413493821984"><ele>825.0</ele><time>2026-04-04T08:48:08Z</time></trkpt><trkpt lat="37.02010726701774" lon="14.711459376529241"><ele>825.0</ele><time>2026-04-04T08:48:11Z</time></trkpt><trkpt lat="37.02003024672911" lon="14.711476727912066"><ele>828.5714285714286</ele><time>2026-04-04T08:48:13Z</time></trkpt><trkpt lat="37.019980711961274" lon="14.711540921586595"><ele>832.1428571428572</ele><time>2026-04-04T08:48:15Z</time></trkpt><trkpt lat="37.01992512078363" lon="14.711586625575778"><ele>835.7142857142858</ele><time>2026-04-04T08:48:18Z</time></trkpt><trkpt lat="37.01985537970034" lon="14.711623709933942"><ele>839.2857142857142</ele><time>2026-04-04T08:48:36Z</time></trkpt><trkpt lat="37.01979705387221" lon="14.711660283406662"><ele>842.8571428571429</ele><time>2026-04-04T08:48:40Z</time></trkpt><trkpt lat="37.019752181772134" lon="14.71171708732225"><ele>846.4285714285714</ele><time>2026-04-04T08:48:43Z</time></trkpt><trkpt lat="37.01969321496087" lon="14.71177104058938"><ele>850.0</ele><time>2026-04-04T08:49:50Z</time></trkpt><trkpt lat="37.019666726369664" lon="14.711860348494524"><ele>849.8</ele><time>2026-04-04T08:49:55Z</time></trkpt><trkpt lat="37.01963726611203" lon="14.711934115183487"><ele>849.6</ele><time>2026-04-04T08:50:09Z</time></trkpt><trkpt lat="37.01963493983734" lon="14.712025696273557"><ele>849.4000000000001</ele><time>2026-04-04T08:50:11Z</time></trkpt><trkpt lat="37.01959620735481" lon="14.712114785954963"><ele>849.2</ele><time>2026-04-04T08:50:14Z</time></trkpt><trkpt lat="37.019526894156726" lon="14.712228993556188"><ele>849.0</ele><time>2026-04-04T08:50:17Z</time></trkpt><trkpt lat="37.019434483508306" lon="14.712448107034563"><ele>849.0</ele><time>2026-04-04T08:50:19Z</time></trkpt><trkpt lat="37.019369085447444" lon="14.712565397705406"><ele>849.0</ele><time>2026-04-04T08:50:21Z</time></trkpt><trkpt lat="37.01933527632733" lon="14.71263255249028"><ele>849.0</ele><time>2026-04-04T08:50:22Z</time></trkpt><trkpt lat="37.01929423815483" lon="14.712701306802876"><ele>849.0</ele><time>2026-04-04T08:50:23Z</time></trkpt><trkpt lat="37.019242805059335" lon="14.712767221481542"><ele>849.0</ele><time>2026-04-04T08:50:24Z</time></trkpt><trkpt lat="37.01916925747729" lon="14.71285043284923"><ele>849.0</ele><time>2026-04-04T08:50:25Z</time></trkpt><trkpt lat="37.0191004371617" lon="14.712905233298363"><ele>849.0</ele><time>2026-04-04T08:50:26Z</time></trkpt><trkpt lat="37.019043849776494" lon="14.712989009418937"><ele>849.0</ele><time>2026-04-04T08:50:27Z</time></trkpt><trkpt lat="37.018954004862636" lon="14.713070866403635"><ele>849.0</ele><time>2026-04-04T08:50:28Z</time></trkpt><trkpt lat="37.01885828881436" lon="14.713107183814413"><ele>849.0</ele><time>2026-04-04T08:50:29Z</time></trkpt><trkpt lat="37.01879686116853" lon="14.713162353611164"><ele>849.0</ele><time>2026-04-04T08:50:30Z</time></trkpt><trkpt lat="37.01879493114696" lon="14.713259873794945"><ele>849.0</ele><time>2026-04-04T08:54:14Z</time></trkpt><trkpt lat="37.018823411689" lon="14.713331284275275"><ele>849.0</ele><time>2026-04-04T08:54:15Z</time></trkpt><trkpt lat="37.01888576520552" lon="14.713411832446576"><ele>849.0</ele><time>2026-04-04T08:54:17Z</time></trkpt><trkpt lat="37.018984413998645" lon="14.713434265590562"><ele>849.0</ele><time>2026-04-04T08:54:19Z</time></trkpt><trkpt lat="37.01906508106692" lon="14.713431848946511"><ele>849.0</ele><time>2026-04-04T08:54:20Z</time></trkpt><trkpt lat="37.01915611451824" lon="14.713419929184555"><ele>849.0</ele><time>2026-04-04T08:54:21Z</time></trkpt><trkpt lat="37.01924326429228" lon="14.713415133539115"><ele>849.4000000000001</ele><time>2026-04-04T08:54:22Z</time></trkpt><trkpt lat="37.019336841759795" lon="14.71345612234698"><ele>849.8</ele><time>2026-04-04T08:54:23Z</time></trkpt><trkpt lat="37.019436943907714" lon="14.713453741062835"><ele>850.2</ele><time>2026-04-04T08:54:24Z</time></trkpt><trkpt lat="37.01954061935423" lon="14.71345011680708"><ele>850.5999999999999</ele><time>2026-04-04T08:54:25Z</time></trkpt><trkpt lat="37.01964184130133" lon="14.713446073989768"><ele>851.0</ele><time>2026-04-04T08:54:26Z</time></trkpt><trkpt lat="37.01974284255157" lon="14.713444236673801"><ele>851.0</ele><time>2026-04-04T08:54:27Z</time></trkpt><trkpt lat="37.019847093130146" lon="14.713425283357417"><ele>851.0</ele><time>2026-04-04T08:54:28Z</time></trkpt><trkpt lat="37.01995892014672" lon="14.713452880883747"><ele>851.0</ele><time>2026-04-04T08:54:29Z</time></trkpt><trkpt lat="37.02006881242008" lon="14.71346835499245"><ele>851.0</ele><time>2026-04-04T08:54:30Z</time></trkpt><trkpt lat="37.020176703843305" lon="14.713481894022095"><ele>851.0</ele><time>2026-04-04T08:54:31Z</time></trkpt><trkpt lat="37.02027834851546" lon="14.713475670741147"><ele>852.0000000000001</ele><time>2026-04-04T08:54:32Z</time></trkpt><trkpt lat="37.02036594778799" lon="14.7134800855519"><ele>853.0</ele><time>2026-04-04T08:54:33Z</time></trkpt><trkpt lat="37.02044542990773" lon="14.713505095347138"><ele>854.0</ele><time>2026-04-04T08:54:34Z</time></trkpt><trkpt lat="37.02051549135968" lon="14.713464222107012"><ele>855.0</ele><time>2026-04-04T08:54:35Z</time></trkpt><trkpt lat="37.02058156456815" lon="14.713415868816794"><ele>856.0000000000001</ele><time>2026-04-04T08:54:36Z</time></trkpt><trkpt lat="37.02064576073511" lon="14.713345792900437"><ele>857.0</ele><time>2026-04-04T08:54:37Z</time></trkpt><trkpt lat="37.02072511616212" lon="14.713306372618483"><ele>857.0</ele><time>2026-04-04T08:54:38Z</time></trkpt><trkpt lat="37.02080443044731" lon="14.713255907981278"><ele>857.0</ele><time>2026-04-04T08:54:39Z</time></trkpt><trkpt lat="37.02088092254075" lon="14.713190890266612"><ele>857.0</ele><time>2026-04-04T08:54:40Z</time></trkpt><trkpt lat="37.02098566426725" lon="14.713152271874646"><ele>857.0</ele><time>2026-04-04T08:54:41Z</time></trkpt><trkpt lat="37.021114441307425" lon="14.713095511387808"><ele>857.0</ele><time>2026-04-04T08:54:42Z</time></trkpt><trkpt lat="37.02127756893461" lon="14.713054111411388"><ele>860.6666666666667</ele><time>2026-04-04T08:54:43Z</time></trkpt><trkpt lat="37.02144409547128" lon="14.712981683399523"><ele>864.3333333333333</ele><time>2026-04-04T08:54:44Z</time></trkpt><trkpt lat="37.02162370708732" lon="14.712922050775084"><ele>868.0</ele><time>2026-04-04T08:54:45Z</time></trkpt><trkpt lat="37.02179991701317" lon="14.712873919733614"><ele>872.3333333333333</ele><time>2026-04-04T08:54:46Z</time></trkpt><trkpt lat="37.02197264085481" lon="14.71282376301197"><ele>876.6666666666667</ele><time>2026-04-04T08:54:47Z</time></trkpt><trkpt lat="37.02213628833408" lon="14.712786449362222"><ele>881.0</ele><time>2026-04-04T08:54:48Z</time></trkpt><trkpt lat="37.02228399400472" lon="14.71277139223408"><ele>879.5</ele><time>2026-04-04T08:54:49Z</time></trkpt><trkpt lat="37.02243116704932" lon="14.71272440401636"><ele>878.0</ele><time>2026-04-04T08:54:50Z</time></trkpt><trkpt lat="37.02256550212272" lon="14.712693113292465"><ele>876.5</ele><time>2026-04-04T08:54:51Z</time></trkpt><trkpt lat="37.02270453987931" lon="14.712659113630592"><ele>875.0</ele><time>2026-04-04T08:54:52Z</time></trkpt><trkpt lat="37.02284124250822" lon="14.71263198036236"><ele>875.0</ele><time>2026-04-04T08:54:53Z</time></trkpt><trkpt lat="37.023115152663735" lon="14.712585717712479"><ele>875.0</ele><time>2026-04-04T08:54:55Z</time></trkpt><trkpt lat="37.023246346524154" lon="14.712566013390871"><ele>875.0</ele><time>2026-04-04T08:54:56Z</time></trkpt><trkpt lat="37.02336554198321" lon="14.712540906722694"><ele>876.6666666666667</ele><time>2026-04-04T08:54:57Z</time></trkpt><trkpt lat="37.02346341127431" lon="14.712540412851153"><ele>878.3333333333334</ele><time>2026-04-04T08:54:58Z</time></trkpt><trkpt lat="37.02355304758711" lon="14.712528713361474"><ele>880.0</ele><time>2026-04-04T08:54:59Z</time></trkpt><trkpt lat="37.02363485953182" lon="14.712522378666304"><ele>881.6666666666667</ele><time>2026-04-04T08:55:00Z</time></trkpt><trkpt lat="37.0237133144438" lon="14.712530725079125"><ele>883.3333333333334</ele><time>2026-04-04T08:55:01Z</time></trkpt><trkpt lat="37.02378357029007" lon="14.712567843047617"><ele>885.0</ele><time>2026-04-04T08:55:02Z</time></trkpt><trkpt lat="37.02383043676731" lon="14.712634130589079"><ele>885.0</ele><time>2026-04-04T08:55:03Z</time></trkpt><trkpt lat="37.02384809110454" lon="14.712710203567362"><ele>885.0</ele><time>2026-04-04T08:55:04Z</time></trkpt><trkpt lat="37.02380500132609" lon="14.712871705778369"><ele>885.0</ele><time>2026-04-04T08:55:06Z</time></trkpt><trkpt lat="37.02375021380198" lon="14.712966290940978"><ele>885.0</ele><time>2026-04-04T08:55:07Z</time></trkpt><trkpt lat="37.02370703105181" lon="14.713073640414354"><ele>885.0</ele><time>2026-04-04T08:55:08Z</time></trkpt><trkpt lat="37.02367976903011" lon="14.71317148205037"><ele>886.8333333333334</ele><time>2026-04-04T08:55:09Z</time></trkpt><trkpt lat="37.02368019762205" lon="14.713252746888616"><ele>888.6666666666667</ele><time>2026-04-04T08:55:10Z</time></trkpt><trkpt lat="37.023695875509304" lon="14.713397545272219"><ele>890.5</ele><time>2026-04-04T08:55:12Z</time></trkpt><trkpt lat="37.02368513529677" lon="14.713475373595912"><ele>892.3333333333334</ele><time>2026-04-04T08:55:13Z</time></trkpt><trkpt lat="37.02362013188584" lon="14.713552519455467"><ele>894.1666666666667</ele><time>2026-04-04T08:55:14Z</time></trkpt><trkpt lat="37.0236056099969" lon="14.713660131766781"><ele>896.0</ele><time>2026-04-04T08:55:15Z</time></trkpt><trkpt lat="37.02362566249416" lon="14.713810614958527"><ele>896.0</ele><time>2026-04-04T08:55:16Z</time></trkpt><trkpt lat="37.02365286445894" lon="14.713987743392448"><ele>896.0</ele><time>2026-04-04T08:55:17Z</time></trkpt><trkpt lat="37.02366474378423" lon="14.714174107499677"><ele>896.0</ele><time>2026-04-04T08:55:18Z</time></trkpt><trkpt lat="37.02367376816697" lon="14.71437415664808"><ele>895.0</ele><time>2026-04-04T08:55:19Z</time></trkpt><trkpt lat="37.0236984886902" lon="14.714542607427262"><ele>894.0</ele><time>2026-04-04T08:55:20Z</time></trkpt><trkpt lat="37.02373888164403" lon="14.714686457516382"><ele>893.0</ele><time>2026-04-04T08:55:21Z</time></trkpt><trkpt lat="37.02380475830085" lon="14.714801469438681"><ele>892.0</ele><time>2026-04-04T08:55:22Z</time></trkpt><trkpt lat="37.023888374266996" lon="14.714935490665978"><ele>892.0</ele><time>2026-04-04T08:55:23Z</time></trkpt><trkpt lat="37.02398576206033" lon="14.715048538670638"><ele>892.0</ele><time>2026-04-04T08:55:24Z</time></trkpt><trkpt lat="37.02407155016881" lon="14.715142030602667"><ele>892.0</ele><time>2026-04-04T08:55:25Z</time></trkpt><trkpt lat="37.02417403127389" lon="14.715253714703529"><ele>892.0</ele><time>2026-04-04T08:55:26Z</time></trkpt><trkpt lat="37.02426618185937" lon="14.715347548905976"><ele>891.6666666666666</ele><time>2026-04-04T08:55:27Z</time></trkpt><trkpt lat="37.02434561649743" lon="14.71542691154612"><ele>891.3333333333333</ele><time>2026-04-04T08:55:28Z</time></trkpt><trkpt lat="37.02442347184998" lon="14.715475486146964"><ele>891.0</ele><time>2026-04-04T08:55:29Z</time></trkpt><trkpt lat="37.02447701642981" lon="14.715552879037777"><ele>890.6666666666667</ele><time>2026-04-04T08:55:30Z</time></trkpt><trkpt lat="37.02453223435287" lon="14.715605814172115"><ele>890.3333333333334</ele><time>2026-04-04T08:55:31Z</time></trkpt><trkpt lat="37.02460521719673" lon="14.715652438954754"><ele>890.0</ele><time>2026-04-04T08:55:32Z</time></trkpt><trkpt lat="37.0246783444488" lon="14.715664690630206"><ele>890.0000000000001</ele><time>2026-04-04T08:55:33Z</time></trkpt><trkpt lat="37.02474246901228" lon="14.715706365268534"><ele>890.0</ele><time>2026-04-04T08:55:34Z</time></trkpt><trkpt lat="37.024813781425685" lon="14.715729862904508"><ele>890.0</ele><time>2026-04-04T08:55:35Z</time></trkpt><trkpt lat="37.024882144040376" lon="14.71575431408548"><ele>890.0</ele><time>2026-04-04T08:55:36Z</time></trkpt><trkpt lat="37.02495322573339" lon="14.715766463082858"><ele>890.0000000000001</ele><time>2026-04-04T08:55:37Z</time></trkpt><trkpt lat="37.02502937931686" lon="14.715800560538721"><ele>890.0</ele><time>2026-04-04T08:55:38Z</time></trkpt><trkpt lat="37.025118957326235" lon="14.715820816244799"><ele>888.2</ele><time>2026-04-04T08:55:39Z</time></trkpt><trkpt lat="37.02521149705104" lon="14.715818455185932"><ele>886.4</ele><time>2026-04-04T08:55:40Z</time></trkpt><trkpt lat="37.025306951861126" lon="14.715850700222195"><ele>884.5999999999999</ele><time>2026-04-04T08:55:42Z</time></trkpt><trkpt lat="37.02540276020089" lon="14.715844176705879"><ele>882.8</ele><time>2026-04-04T08:55:44Z</time></trkpt><trkpt lat="37.025484007077566" lon="14.7158322815564"><ele>881.0</ele><time>2026-04-04T08:55:45Z</time></trkpt><trkpt lat="37.02558385729446" lon="14.715796397286121"><ele>881.0000000000001</ele><time>2026-04-04T08:55:46Z</time></trkpt><trkpt lat="37.02566849768959" lon="14.715774729241142"><ele>881.0</ele><time>2026-04-04T08:55:47Z</time></trkpt><trkpt lat="37.02573373229682" lon="14.715780037344674"><ele>881.0</ele><time>2026-04-04T08:55:48Z</time></trkpt><trkpt lat="37.02585396293681" lon="14.715777991703309"><ele>881.0</ele><time>2026-04-04T08:55:50Z</time></trkpt><trkpt lat="37.02592166840212" lon="14.715770794842129"><ele>881.0000000000001</ele><time>2026-04-04T08:55:51Z</time></trkpt><trkpt lat="37.025991338059924" lon="14.715754742415657"><ele>881.0</ele><time>2026-04-04T08:55:52Z</time></trkpt><trkpt lat="37.02606477775295" lon="14.715741335109165"><ele>881.3333333333334</ele><time>2026-04-04T08:55:53Z</time></trkpt><trkpt lat="37.026143934552785" lon="14.715733129644693"><ele>881.6666666666667</ele><time>2026-04-04T08:55:54Z</time></trkpt><trkpt lat="37.026217148034426" lon="14.715725888023291"><ele>882.0</ele><time>2026-04-04T08:55:55Z</time></trkpt><trkpt lat="37.026307214155246" lon="14.715736784602704"><ele>882.3333333333333</ele><time>2026-04-04T08:55:57Z</time></trkpt><trkpt lat="37.02636797549182" lon="14.715765403530503"><ele>882.6666666666666</ele><time>2026-04-04T08:55:59Z</time></trkpt><trkpt lat="37.02643983104692" lon="14.715738145695395"><ele>883.0</ele><time>2026-04-04T08:56:00Z</time></trkpt><trkpt lat="37.026539592943564" lon="14.715727026660396"><ele>884.0</ele><time>2026-04-04T08:56:01Z</time></trkpt><trkpt lat="37.026650745847306" lon="14.715682311383631"><ele>885.0</ele><time>2026-04-04T08:56:02Z</time></trkpt><trkpt lat="37.026725456596836" lon="14.715616576496108"><ele>886.0</ele><time>2026-04-04T08:56:03Z</time></trkpt><trkpt lat="37.02677886113329" lon="14.715539852185122"><ele>887.0</ele><time>2026-04-04T08:56:04Z</time></trkpt><trkpt lat="37.02684441111363" lon="14.715480320646353"><ele>888.0</ele><time>2026-04-04T08:56:05Z</time></trkpt><trkpt lat="37.02692602510865" lon="14.715445979874342"><ele>888.0</ele><time>2026-04-04T08:56:06Z</time></trkpt><trkpt lat="37.02700775044243" lon="14.71540859903772"><ele>888.0</ele><time>2026-04-04T08:56:07Z</time></trkpt><trkpt lat="37.02708254004447" lon="14.715384239671046"><ele>888.0</ele><time>2026-04-04T08:56:08Z</time></trkpt><trkpt lat="37.02714591326429" lon="14.715365188191852"><ele>888.0</ele><time>2026-04-04T08:56:09Z</time></trkpt><trkpt lat="37.02727084080323" lon="14.715381635540059"><ele>888.0</ele><time>2026-04-04T08:56:11Z</time></trkpt><trkpt lat="37.027338541259724" lon="14.715390452636123"><ele>888.0</ele><time>2026-04-04T08:56:12Z</time></trkpt><trkpt lat="37.02737824019665" lon="14.715478166397745"><ele>888.0</ele><time>2026-04-04T08:56:13Z</time></trkpt><trkpt lat="37.02743459075251" lon="14.7155329889769"><ele>888.0</ele><time>2026-04-04T08:56:14Z</time></trkpt><trkpt lat="37.02750853052305" lon="14.715569375070249"><ele>888.0</ele><time>2026-04-04T08:56:15Z</time></trkpt><trkpt lat="37.02756100151345" lon="14.715645947110477"><ele>888.0</ele><time>2026-04-04T08:56:16Z</time></trkpt><trkpt lat="37.02761376546412" lon="14.71572400806476"><ele>888.0</ele><time>2026-04-04T08:56:17Z</time></trkpt><trkpt lat="37.027666008370986" lon="14.715781532429332"><ele>888.0</ele><time>2026-04-04T08:56:18Z</time></trkpt><trkpt lat="37.027756635049656" lon="14.715907482102358"><ele>889.2</ele><time>2026-04-04T08:56:20Z</time></trkpt><trkpt lat="37.0278056816707" lon="14.71600159116644"><ele>890.4</ele><time>2026-04-04T08:56:21Z</time></trkpt><trkpt lat="37.027889464661484" lon="14.716070372225763"><ele>891.6000000000001</ele><time>2026-04-04T08:56:22Z</time></trkpt><trkpt lat="37.027954325720934" lon="14.716156809863962"><ele>892.8000000000001</ele><time>2026-04-04T08:56:23Z</time></trkpt><trkpt lat="37.028032052742326" lon="14.716239959154931"><ele>894.0</ele><time>2026-04-04T08:56:24Z</time></trkpt><trkpt lat="37.028114462871685" lon="14.716314999107569"><ele>894.4000000000001</ele><time>2026-04-04T08:56:25Z</time></trkpt><trkpt lat="37.02819683881185" lon="14.716377778503078"><ele>894.8000000000001</ele><time>2026-04-04T08:56:26Z</time></trkpt><trkpt lat="37.02826800250839" lon="14.716454227400279"><ele>895.1999999999999</ele><time>2026-04-04T08:56:27Z</time></trkpt><trkpt lat="37.028351359368685" lon="14.716496203098075"><ele>895.5999999999999</ele><time>2026-04-04T08:56:28Z</time></trkpt><trkpt lat="37.02843950956095" lon="14.716536774714283"><ele>896.0</ele><time>2026-04-04T08:56:29Z</time></trkpt><trkpt lat="37.02854611182269" lon="14.716574331635327"><ele>896.0</ele><time>2026-04-04T08:56:30Z</time></trkpt><trkpt lat="37.02866067563852" lon="14.716591161397359"><ele>895.9999999999999</ele><time>2026-04-04T08:56:31Z</time></trkpt><trkpt lat="37.02876065234898" lon="14.716636457291827"><ele>895.9999999999999</ele><time>2026-04-04T08:56:32Z</time></trkpt><trkpt lat="37.02886117256601" lon="14.716665036731822"><ele>896.0</ele><time>2026-04-04T08:56:33Z</time></trkpt><trkpt lat="37.0289574203789" lon="14.716680546944488"><ele>896.0</ele><time>2026-04-04T08:56:34Z</time></trkpt><trkpt lat="37.029052959191056" lon="14.716663887313755"><ele>896.0000000000001</ele><time>2026-04-04T08:56:35Z</time></trkpt><trkpt lat="37.02913675639444" lon="14.716671567400633"><ele>896.0</ele><time>2026-04-04T08:56:36Z</time></trkpt><trkpt lat="37.02921928277993" lon="14.716661124889884"><ele>896.0</ele><time>2026-04-04T08:56:37Z</time></trkpt><trkpt lat="37.02930058830109" lon="14.71662528606616"><ele>896.0</ele><time>2026-04-04T08:56:38Z</time></trkpt><trkpt lat="37.02937488595323" lon="14.716564049810694"><ele>896.0000000000001</ele><time>2026-04-04T08:56:39Z</time></trkpt><trkpt lat="37.02944228584352" lon="14.716506718504625"><ele>896.0</ele><time>2026-04-04T08:56:40Z</time></trkpt><trkpt lat="37.02948884332406" lon="14.716443414427099"><ele>896.6666666666667</ele><time>2026-04-04T08:56:41Z</time></trkpt><trkpt lat="37.029529472239105" lon="14.716368454749846"><ele>897.3333333333334</ele><time>2026-04-04T08:56:42Z</time></trkpt><trkpt lat="37.0295690128845" lon="14.716293535719478"><ele>898.0</ele><time>2026-04-04T08:56:43Z</time></trkpt><trkpt lat="37.02961637201951" lon="14.716209349901058"><ele>898.6666666666667</ele><time>2026-04-04T08:56:44Z</time></trkpt><trkpt lat="37.0296799755061" lon="14.716133294031488"><ele>899.3333333333334</ele><time>2026-04-04T08:56:45Z</time></trkpt><trkpt lat="37.02974662019824" lon="14.716048397830873"><ele>900.0</ele><time>2026-04-04T08:56:46Z</time></trkpt><trkpt lat="37.02980041476721" lon="14.715961724116458"><ele>899.6666666666666</ele><time>2026-04-04T08:56:47Z</time></trkpt><trkpt lat="37.02985108431521" lon="14.715874794797893"><ele>899.3333333333333</ele><time>2026-04-04T08:56:48Z</time></trkpt><trkpt lat="37.02990004622306" lon="14.7157972427466"><ele>899.0</ele><time>2026-04-04T08:56:49Z</time></trkpt><trkpt lat="37.0299528399994" lon="14.715716671952176"><ele>898.6666666666666</ele><time>2026-04-04T08:56:50Z</time></trkpt><trkpt lat="37.030012751822355" lon="14.715659302593709"><ele>898.3333333333333</ele><time>2026-04-04T08:56:51Z</time></trkpt><trkpt lat="37.030077164537175" lon="14.715636697139784"><ele>898.0</ele><time>2026-04-04T08:56:52Z</time></trkpt><trkpt lat="37.030152375306244" lon="14.715659425746603"><ele>898.0</ele><time>2026-04-04T08:56:54Z</time></trkpt><trkpt lat="37.030253094971386" lon="14.715708994289688"><ele>898.0</ele><time>2026-04-04T08:56:57Z</time></trkpt><trkpt lat="37.030364223703224" lon="14.715747547773612"><ele>898.0</ele><time>2026-04-04T08:56:59Z</time></trkpt><trkpt lat="37.03047942483901" lon="14.715786976166138"><ele>898.0</ele><time>2026-04-04T08:57:01Z</time></trkpt><trkpt lat="37.03054048401343" lon="14.715811456895253"><ele>898.0</ele><time>2026-04-04T08:57:02Z</time></trkpt><trkpt lat="37.030613587864295" lon="14.71583795127798"><ele>898.0</ele><time>2026-04-04T08:57:03Z</time></trkpt><trkpt lat="37.03070875514239" lon="14.715869295383577"><ele>898.0</ele><time>2026-04-04T08:57:04Z</time></trkpt><trkpt lat="37.03079707888418" lon="14.715922178989345"><ele>898.0</ele><time>2026-04-04T08:57:05Z</time></trkpt><trkpt lat="37.03088227510699" lon="14.715964382462342"><ele>898.0</ele><time>2026-04-04T08:57:06Z</time></trkpt><trkpt lat="37.030947440352" lon="14.71601168372953"><ele>898.0</ele><time>2026-04-04T08:57:07Z</time></trkpt><trkpt lat="37.03096779897909" lon="14.716142623492845"><ele>898.2</ele><time>2026-04-04T08:57:09Z</time></trkpt><trkpt lat="37.030945386012576" lon="14.716298958010753"><ele>898.4</ele><time>2026-04-04T08:57:11Z</time></trkpt><trkpt lat="37.030955309206725" lon="14.71640961578861"><ele>898.6000000000001</ele><time>2026-04-04T08:57:12Z</time></trkpt><trkpt lat="37.03093440032199" lon="14.716519371842804"><ele>898.8000000000001</ele><time>2026-04-04T08:57:13Z</time></trkpt><trkpt lat="37.03092064837175" lon="14.71661656841929"><ele>899.0</ele><time>2026-04-04T08:57:14Z</time></trkpt><trkpt lat="37.0309135742698" lon="14.71671822692487"><ele>899.0000000000001</ele><time>2026-04-04T08:57:15Z</time></trkpt><trkpt lat="37.03090874936153" lon="14.716817783281302"><ele>899.0</ele><time>2026-04-04T08:57:16Z</time></trkpt><trkpt lat="37.03092449831651" lon="14.716909172639024"><ele>899.0</ele><time>2026-04-04T08:57:17Z</time></trkpt><trkpt lat="37.03097525413093" lon="14.717005885272018"><ele>899.0</ele><time>2026-04-04T08:57:18Z</time></trkpt><trkpt lat="37.03102593559568" lon="14.717089370530054"><ele>899.0000000000001</ele><time>2026-04-04T08:57:19Z</time></trkpt><trkpt lat="37.03106829986872" lon="14.717194562222579"><ele>899.0</ele><time>2026-04-04T08:57:21Z</time></trkpt><trkpt lat="37.031092913819" lon="14.717283622754755"><ele>899.0</ele><time>2026-04-04T08:57:24Z</time></trkpt><trkpt lat="37.031141285568054" lon="14.717370196373825"><ele>899.0000000000001</ele><time>2026-04-04T08:57:26Z</time></trkpt><trkpt lat="37.03118894657723" lon="14.717514313179143"><ele>899.0000000000001</ele><time>2026-04-04T08:59:03Z</time></trkpt><trkpt lat="37.03122926410628" lon="14.717606629085141"><ele>899.0</ele><time>2026-04-04T08:59:04Z</time></trkpt><trkpt lat="37.031263937883345" lon="14.717709167967033"><ele>899.0</ele><time>2026-04-04T08:59:05Z</time></trkpt><trkpt lat="37.031290632032565" lon="14.71779503309056"><ele>898.6666666666667</ele><time>2026-04-04T08:59:06Z</time></trkpt><trkpt lat="37.03133042623473" lon="14.71789109550746"><ele>898.3333333333334</ele><time>2026-04-04T08:59:07Z</time></trkpt><trkpt lat="37.03138132118004" lon="14.717980343176071"><ele>898.0</ele><time>2026-04-04T08:59:08Z</time></trkpt><trkpt lat="37.031426651621295" lon="14.718063491090057"><ele>897.6666666666667</ele><time>2026-04-04T08:59:09Z</time></trkpt><trkpt lat="37.03146368305605" lon="14.718133262338025"><ele>897.3333333333334</ele><time>2026-04-04T08:59:10Z</time></trkpt><trkpt lat="37.03151836326427" lon="14.718258900304752"><ele>897.0</ele><time>2026-04-04T08:59:12Z</time></trkpt><trkpt lat="37.031583356734046" lon="14.71839165794156"><ele>897.0</ele><time>2026-04-04T08:59:14Z</time></trkpt><trkpt lat="37.03162164981413" lon="14.718480228048689"><ele>897.0</ele><time>2026-04-04T08:59:16Z</time></trkpt><trkpt lat="37.0316885827037" lon="14.718496289959264"><ele>897.0</ele><time>2026-04-04T08:59:45Z</time></trkpt><trkpt lat="37.031775783745886" lon="14.718465333242715"><ele>897.0</ele><time>2026-04-04T08:59:47Z</time></trkpt><trkpt lat="37.031871328941655" lon="14.718428772737466"><ele>897.0</ele><time>2026-04-04T08:59:49Z</time></trkpt><trkpt lat="37.03195856400912" lon="14.718407049450294"><ele>897.0</ele><time>2026-04-04T08:59:51Z</time></trkpt><trkpt lat="37.03204239303094" lon="14.718320049687676"><ele>897.0</ele><time>2026-04-04T08:59:53Z</time></trkpt><trkpt lat="37.03214465267066" lon="14.718268005381539"><ele>897.0</ele><time>2026-04-04T08:59:55Z</time></trkpt><trkpt lat="37.032259236978135" lon="14.718214258602494"><ele>897.0</ele><time>2026-04-04T08:59:57Z</time></trkpt><trkpt lat="37.03236461819276" lon="14.718140179577354"><ele>897.0</ele><time>2026-04-04T08:59:59Z</time></trkpt><trkpt lat="37.03242796992434" lon="14.71810462633449"><ele>897.0</ele><time>2026-04-04T09:00:00Z</time></trkpt><trkpt lat="37.032487673945745" lon="14.718068826554003"><ele>896.6</ele><time>2026-04-04T09:00:01Z</time></trkpt><trkpt lat="37.03260177928595" lon="14.718029101710185"><ele>896.2</ele><time>2026-04-04T09:00:03Z</time></trkpt><trkpt lat="37.032712110448486" lon="14.718021910733741"><ele>895.8</ele><time>2026-04-04T09:00:05Z</time></trkpt><trkpt lat="37.032815118389266" lon="14.717985642946346"><ele>895.4</ele><time>2026-04-04T09:00:07Z</time></trkpt><trkpt lat="37.03288777764713" lon="14.71795370151427"><ele>895.0</ele><time>2026-04-04T09:00:09Z</time></trkpt><trkpt lat="37.03295731239647" lon="14.717955626096536"><ele>895.0</ele><time>2026-04-04T09:00:11Z</time></trkpt><trkpt lat="37.033029438848466" lon="14.717966213658164"><ele>895.0</ele><time>2026-04-04T09:00:13Z</time></trkpt><trkpt lat="37.03314007231031" lon="14.717962809355859"><ele>895.0</ele><time>2026-04-04T09:00:16Z</time></trkpt><trkpt lat="37.033218554832345" lon="14.717900745483165"><ele>895.0</ele><time>2026-04-04T09:00:18Z</time></trkpt><trkpt lat="37.033291009438166" lon="14.717806149102554"><ele>895.0</ele><time>2026-04-04T09:00:21Z</time></trkpt><trkpt lat="37.0333658543227" lon="14.717816987443804"><ele>893.8333333333333</ele><time>2026-04-04T09:00:24Z</time></trkpt><trkpt lat="37.03344763253257" lon="14.717800708125969"><ele>892.6666666666666</ele><time>2026-04-04T09:00:28Z</time></trkpt><trkpt lat="37.03351745789815" lon="14.717770597883595"><ele>891.5</ele><time>2026-04-04T09:00:37Z</time></trkpt><trkpt lat="37.03354435461247" lon="14.717880900983515"><ele>890.3333333333333</ele><time>2026-04-04T09:00:42Z</time></trkpt><trkpt lat="37.03355303558448" lon="14.717980482467379"><ele>889.1666666666666</ele><time>2026-04-04T09:00:45Z</time></trkpt><trkpt lat="37.03355179274284" lon="14.718102641034568"><ele>888.0</ele><time>2026-04-04T09:00:49Z</time></trkpt><trkpt lat="37.03354578150314" lon="14.718188948279302"><ele>888.0</ele><time>2026-04-04T09:00:51Z</time></trkpt><trkpt lat="37.03353035337018" lon="14.718268075770672"><ele>888.0</ele><time>2026-04-04T09:00:53Z</time></trkpt><trkpt lat="37.03351742180378" lon="14.718345254611899"><ele>888.0</ele><time>2026-04-04T09:00:56Z</time></trkpt><trkpt lat="37.033567452401726" lon="14.718413276381192"><ele>888.0</ele><time>2026-04-04T09:01:25Z</time></trkpt><trkpt lat="37.033599725105994" lon="14.718483524553102"><ele>888.0</ele><time>2026-04-04T09:01:31Z</time></trkpt><trkpt lat="37.033656757520305" lon="14.718526793030708"><ele>888.0</ele><time>2026-04-04T09:01:52Z</time></trkpt><trkpt lat="37.03371830406649" lon="14.718548822958015"><ele>888.0</ele><time>2026-04-04T09:02:01Z</time></trkpt><trkpt lat="37.03378022831405" lon="14.71860655351599"><ele>887.7142857142857</ele><time>2026-04-04T09:02:12Z</time></trkpt><trkpt lat="37.03384219732721" lon="14.718639938343559"><ele>887.4285714285714</ele><time>2026-04-04T09:02:22Z</time></trkpt><trkpt lat="37.03392356490251" lon="14.718650585072954"><ele>887.1428571428571</ele><time>2026-04-04T09:02:30Z</time></trkpt><trkpt lat="37.03397951659551" lon="14.718594763457004"><ele>886.8571428571429</ele><time>2026-04-04T09:02:40Z</time></trkpt><trkpt lat="37.034042526857355" lon="14.718572586359075"><ele>886.5714285714287</ele><time>2026-04-04T09:02:51Z</time></trkpt><trkpt lat="37.03410978077067" lon="14.71857662926775"><ele>886.2857142857143</ele><time>2026-04-04T09:02:58Z</time></trkpt><trkpt lat="37.03412813181695" lon="14.718652165809534"><ele>886.0</ele><time>2026-04-04T09:03:00Z</time></trkpt><trkpt lat="37.03412467722034" lon="14.71873250057525"><ele>885.9999999999999</ele><time>2026-04-04T09:03:02Z</time></trkpt><trkpt lat="37.034128406430916" lon="14.718844671902698"><ele>886.0</ele><time>2026-04-04T09:03:32Z</time></trkpt><trkpt lat="37.03413405700552" lon="14.718932117719763"><ele>886.0</ele><time>2026-04-04T09:03:34Z</time></trkpt><trkpt lat="37.03415858298688" lon="14.719029907999028"><ele>886.0</ele><time>2026-04-04T09:03:36Z</time></trkpt><trkpt lat="37.034181442787826" lon="14.719133892159341"><ele>885.9999999999999</ele><time>2026-04-04T09:03:38Z</time></trkpt><trkpt lat="37.03418773065252" lon="14.719227981540447"><ele>886.0</ele><time>2026-04-04T09:03:40Z</time></trkpt><trkpt lat="37.03421018402046" lon="14.719323205149493"><ele>881.0</ele><time>2026-04-04T09:03:43Z</time></trkpt><trkpt lat="37.034243106532685" lon="14.719416930360595"><ele>876.0</ele><time>2026-04-04T09:03:46Z</time></trkpt><trkpt lat="37.0342698545902" lon="14.719492989968407"><ele>871.0</ele><time>2026-04-04T09:03:49Z</time></trkpt><trkpt lat="37.034299760230255" lon="14.71956528905395"><ele>866.0</ele><time>2026-04-04T09:03:57Z</time></trkpt><trkpt lat="37.034348964244266" lon="14.719633934742252"><ele>861.0</ele><time>2026-04-04T09:04:02Z</time></trkpt><trkpt lat="37.03440828694859" lon="14.71966864772967"><ele>856.0</ele><time>2026-04-04T09:04:07Z</time></trkpt><trkpt lat="37.034463475705195" lon="14.719708789126834"><ele>851.0</ele><time>2026-04-04T09:04:45Z</time></trkpt><trkpt lat="37.034526757558176" lon="14.719660087911407"><ele>851.0000000000001</ele><time>2026-04-04T09:05:01Z</time></trkpt><trkpt lat="37.03451059840373" lon="14.719560511271224"><ele>851.0</ele><time>2026-04-04T09:05:05Z</time></trkpt><trkpt lat="37.03457182238669" lon="14.719609373341104"><ele>851.0</ele><time>2026-04-04T09:05:15Z</time></trkpt><trkpt lat="37.03463535678243" lon="14.719687693336242"><ele>851.0</ele><time>2026-04-04T09:06:09Z</time></trkpt><trkpt lat="37.03470182472618" lon="14.719690422205996"><ele>851.0000000000001</ele><time>2026-04-04T09:06:10Z</time></trkpt><trkpt lat="37.03476857205632" lon="14.7197344897874"><ele>851.0</ele><time>2026-04-04T09:06:13Z</time></trkpt><trkpt lat="37.03483003819256" lon="14.71968334877691"><ele>851.0000000000001</ele><time>2026-04-04T09:06:15Z</time></trkpt><trkpt lat="37.03486768827963" lon="14.719606989432794"><ele>851.0</ele><time>2026-04-04T09:06:17Z</time></trkpt><trkpt lat="37.034927714920286" lon="14.719447134533082"><ele>851.0</ele><time>2026-04-04T09:06:19Z</time></trkpt><trkpt lat="37.03495041836524" lon="14.719325231840914"><ele>851.0</ele><time>2026-04-04T09:06:20Z</time></trkpt><trkpt lat="37.034969202536594" lon="14.719245516391144"><ele>851.0000000000001</ele><time>2026-04-04T09:06:21Z</time></trkpt><trkpt lat="37.03498924732899" lon="14.719170381412962"><ele>851.0</ele><time>2026-04-04T09:06:22Z</time></trkpt><trkpt lat="37.03501279210591" lon="14.719040136803544"><ele>847.5000000000001</ele><time>2026-04-04T09:06:24Z</time></trkpt><trkpt lat="37.035044376053285" lon="14.718968023554355"><ele>844.0</ele><time>2026-04-04T09:06:25Z</time></trkpt><trkpt lat="37.0350711023066" lon="14.718877489035552"><ele>840.5</ele><time>2026-04-04T09:06:27Z</time></trkpt><trkpt lat="37.035083343038984" lon="14.718775431140758"><ele>837.0</ele><time>2026-04-04T09:06:29Z</time></trkpt><trkpt lat="37.03513903189255" lon="14.718709252602313"><ele>833.5000000000001</ele><time>2026-04-04T09:06:31Z</time></trkpt><trkpt lat="37.03519694056307" lon="14.718621585461179"><ele>830.0</ele><time>2026-04-04T09:06:34Z</time></trkpt><trkpt lat="37.03540543821249" lon="14.71868769492153"><ele>830.0</ele><time>2026-04-04T09:06:41Z</time></trkpt><trkpt lat="37.03561338835051" lon="14.718726161153032"><ele>830.0</ele><time>2026-04-04T09:06:46Z</time></trkpt><trkpt lat="37.03582010430106" lon="14.718729884536229"><ele>830.0</ele><time>2026-04-04T09:06:51Z</time></trkpt><trkpt lat="37.035929002380804" lon="14.718695533292433"><ele>826.8</ele><time>2026-04-04T09:06:53Z</time></trkpt><trkpt lat="37.03601696922052" lon="14.718696038920948"><ele>823.6</ele><time>2026-04-04T09:06:57Z</time></trkpt><trkpt lat="37.036157268492424" lon="14.71867119677223"><ele>820.4000000000001</ele><time>2026-04-04T09:06:59Z</time></trkpt><trkpt lat="37.03623452060368" lon="14.718602073939516"><ele>817.2</ele><time>2026-04-04T09:07:01Z</time></trkpt><trkpt lat="37.03627430383604" lon="14.71852513657598"><ele>814.0</ele><time>2026-04-04T09:07:07Z</time></trkpt><trkpt lat="37.036254238636296" lon="14.718440940112721"><ele>814.0</ele><time>2026-04-04T09:07:09Z</time></trkpt><trkpt lat="37.03639871788039" lon="14.718309832726964"><ele>814.0</ele><time>2026-04-04T09:07:10Z</time></trkpt><trkpt lat="37.036379451005885" lon="14.718231735405602"><ele>814.0</ele><time>2026-04-04T09:07:13Z</time></trkpt><trkpt lat="37.03620759239149" lon="14.718229773614583"><ele>814.0</ele><time>2026-04-04T09:07:15Z</time></trkpt><trkpt lat="37.0362001070017" lon="14.718149257988784"><ele>813.9999999999999</ele><time>2026-04-04T09:07:16Z</time></trkpt><trkpt lat="37.03616723185034" lon="14.718012387619911"><ele>814.0</ele><time>2026-04-04T09:07:18Z</time></trkpt><trkpt lat="37.03615908077542" lon="14.717922911751465"><ele>814.0</ele><time>2026-04-04T09:07:19Z</time></trkpt><trkpt lat="37.03613333228238" lon="14.71785059048313"><ele>814.0</ele><time>2026-04-04T09:07:20Z</time></trkpt><trkpt lat="37.036103491136345" lon="14.717714198264403"><ele>813.9999999999999</ele><time>2026-04-04T09:07:22Z</time></trkpt><trkpt lat="37.036081282419524" lon="14.71763784789581"><ele>814.0</ele><time>2026-04-04T09:07:23Z</time></trkpt><trkpt lat="37.03607556194827" lon="14.71750199122668"><ele>814.0</ele><time>2026-04-04T09:07:25Z</time></trkpt><trkpt lat="37.03605423938572" lon="14.717375688950153"><ele>814.0</ele><time>2026-04-04T09:07:27Z</time></trkpt><trkpt lat="37.03605484385973" lon="14.717244874885328"><ele>814.0</ele><time>2026-04-04T09:07:29Z</time></trkpt><trkpt lat="37.03605865260015" lon="14.717100748260531"><ele>814.0</ele><time>2026-04-04T09:07:31Z</time></trkpt><trkpt lat="37.03607497194055" lon="14.7169704613576"><ele>814.0</ele><time>2026-04-04T09:07:33Z</time></trkpt><trkpt lat="37.03609243589653" lon="14.716851303381512"><ele>813.1666666666666</ele><time>2026-04-04T09:07:35Z</time></trkpt><trkpt lat="37.03610757145792" lon="14.716740253174535"><ele>812.3333333333333</ele><time>2026-04-04T09:07:37Z</time></trkpt><trkpt lat="37.0360722146018" lon="14.71664580520533"><ele>811.5</ele><time>2026-04-04T09:07:40Z</time></trkpt><trkpt lat="37.03610021301282" lon="14.716565640931769"><ele>810.6666666666667</ele><time>2026-04-04T09:07:46Z</time></trkpt><trkpt lat="37.036153169529875" lon="14.716469441737742"><ele>809.8333333333334</ele><time>2026-04-04T09:07:48Z</time></trkpt><trkpt lat="37.03615150460069" lon="14.716366072104757"><ele>809.0</ele><time>2026-04-04T09:07:50Z</time></trkpt><trkpt lat="37.03615610999408" lon="14.716278644774748"><ele>809.0</ele><time>2026-04-04T09:07:51Z</time></trkpt><trkpt lat="37.036162253210925" lon="14.716175082538447"><ele>809.0</ele><time>2026-04-04T09:07:52Z</time></trkpt><trkpt lat="37.036247867997155" lon="14.7160233311993"><ele>809.0</ele><time>2026-04-04T09:07:54Z</time></trkpt><trkpt lat="37.036252556413615" lon="14.715872742334142"><ele>809.0</ele><time>2026-04-04T09:07:56Z</time></trkpt><trkpt lat="37.03626096155421" lon="14.715736403415203"><ele>807.6666666666667</ele><time>2026-04-04T09:07:58Z</time></trkpt><trkpt lat="37.03626647652976" lon="14.715646945802376"><ele>806.3333333333334</ele><time>2026-04-04T09:08:01Z</time></trkpt><trkpt lat="37.03628731024752" lon="14.715556449217171"><ele>805.0</ele><time>2026-04-04T09:08:08Z</time></trkpt><trkpt lat="37.03629908999631" lon="14.715439521315586"><ele>803.6666666666667</ele><time>2026-04-04T09:08:10Z</time></trkpt><trkpt lat="37.03630147665789" lon="14.715346046451652"><ele>802.3333333333334</ele><time>2026-04-04T09:08:14Z</time></trkpt><trkpt lat="37.036329803426064" lon="14.715251038590326"><ele>801.0</ele><time>2026-04-04T09:08:18Z</time></trkpt><trkpt lat="37.03634507776743" lon="14.715162462625798"><ele>798.5999999999999</ele><time>2026-04-04T09:08:27Z</time></trkpt><trkpt lat="37.036364180254765" lon="14.715017005703938"><ele>796.2</ele><time>2026-04-04T09:08:29Z</time></trkpt><trkpt lat="37.03637013738734" lon="14.714926610206858"><ele>793.8</ele><time>2026-04-04T09:08:30Z</time></trkpt><trkpt lat="37.03637489219056" lon="14.714770995637585"><ele>791.4000000000001</ele><time>2026-04-04T09:08:32Z</time></trkpt><trkpt lat="37.036375475587775" lon="14.714683951448093"><ele>789.0</ele><time>2026-04-04T09:08:33Z</time></trkpt><trkpt lat="37.036382344764284" lon="14.71458835136125"><ele>789.0</ele><time>2026-04-04T09:08:34Z</time></trkpt><trkpt lat="37.036394799319936" lon="14.714489555117618"><ele>789.0</ele><time>2026-04-04T09:08:35Z</time></trkpt><trkpt lat="37.03640367204246" lon="14.714387819489897"><ele>789.0</ele><time>2026-04-04T09:08:36Z</time></trkpt><trkpt lat="37.03640994842153" lon="14.714285131744905"><ele>789.0</ele><time>2026-04-04T09:08:37Z</time></trkpt><trkpt lat="37.03641475892349" lon="14.714180213557201"><ele>789.0</ele><time>2026-04-04T09:08:38Z</time></trkpt><trkpt lat="37.0364165857137" lon="14.714069473511996"><ele>789.0</ele><time>2026-04-04T09:08:39Z</time></trkpt><trkpt lat="37.03642712127141" lon="14.713964868481415"><ele>785.1666666666666</ele><time>2026-04-04T09:08:40Z</time></trkpt><trkpt lat="37.03644159274979" lon="14.713858710100531"><ele>781.3333333333334</ele><time>2026-04-04T09:08:41Z</time></trkpt><trkpt lat="37.03646458890475" lon="14.713756933950037"><ele>777.5</ele><time>2026-04-04T09:08:42Z</time></trkpt><trkpt lat="37.03648858191483" lon="14.713650486235219"><ele>773.6666666666667</ele><time>2026-04-04T09:08:43Z</time></trkpt><trkpt lat="37.03651961786838" lon="14.713546295278514"><ele>769.8333333333334</ele><time>2026-04-04T09:08:44Z</time></trkpt><trkpt lat="37.036535331135575" lon="14.713446272581288"><ele>766.0</ele><time>2026-04-04T09:08:45Z</time></trkpt><trkpt lat="37.03655956146375" lon="14.713357492678236"><ele>762.0</ele><time>2026-04-04T09:08:46Z</time></trkpt><trkpt lat="37.03659213420507" lon="14.713264698594298"><ele>758.0</ele><time>2026-04-04T09:08:47Z</time></trkpt><trkpt lat="37.03662847483794" lon="14.713179652689101"><ele>754.0</ele><time>2026-04-04T09:08:48Z</time></trkpt><trkpt lat="37.0366685266181" lon="14.71309889644517"><ele>750.0</ele><time>2026-04-04T09:08:49Z</time></trkpt><trkpt lat="37.03671108917391" lon="14.713012644869675"><ele>746.0</ele><time>2026-04-04T09:08:50Z</time></trkpt><trkpt lat="37.036741852747745" lon="14.71292739166352"><ele>742.0</ele><time>2026-04-04T09:08:51Z</time></trkpt><trkpt lat="37.03676775647859" lon="14.712841332869491"><ele>741.6666666666667</ele><time>2026-04-04T09:08:52Z</time></trkpt><trkpt lat="37.036792636583364" lon="14.712748270486847"><ele>741.3333333333334</ele><time>2026-04-04T09:08:53Z</time></trkpt><trkpt lat="37.0368221671543" lon="14.712653440036888"><ele>741.0</ele><time>2026-04-04T09:08:54Z</time></trkpt><trkpt lat="37.03684200364103" lon="14.712555680807295"><ele>740.6666666666666</ele><time>2026-04-04T09:08:55Z</time></trkpt><trkpt lat="37.036850136245874" lon="14.712456472604467"><ele>740.3333333333333</ele><time>2026-04-04T09:08:56Z</time></trkpt><trkpt lat="37.036849751166976" lon="14.712367262567657"><ele>740.0</ele><time>2026-04-04T09:08:57Z</time></trkpt><trkpt lat="37.036834887478946" lon="14.712241835924333"><ele>737.6666666666666</ele><time>2026-04-04T09:08:59Z</time></trkpt><trkpt lat="37.036805472802904" lon="14.712103596426457"><ele>735.3333333333333</ele><time>2026-04-04T09:09:02Z</time></trkpt><trkpt lat="37.0368202498157" lon="14.711985067804324"><ele>733.0</ele><time>2026-04-04T09:09:04Z</time></trkpt><trkpt lat="37.03688084627562" lon="14.711942416886776"><ele>730.6666666666666</ele><time>2026-04-04T09:09:05Z</time></trkpt><trkpt lat="37.03694832697304" lon="14.71194405885674"><ele>728.3333333333334</ele><time>2026-04-04T09:09:06Z</time></trkpt><trkpt lat="37.037024748383836" lon="14.711959141264876"><ele>726.0</ele><time>2026-04-04T09:09:07Z</time></trkpt><trkpt lat="37.03712694048164" lon="14.711980897473534"><ele>726.0</ele><time>2026-04-04T09:09:09Z</time></trkpt><trkpt lat="37.03719580031364" lon="14.7120106078422"><ele>726.0</ele><time>2026-04-04T09:09:11Z</time></trkpt><trkpt lat="37.03720717430302" lon="14.712108063298576"><ele>726.0</ele><time>2026-04-04T09:09:14Z</time></trkpt><trkpt lat="37.03719172136605" lon="14.712242390771763"><ele>726.0</ele><time>2026-04-04T09:09:16Z</time></trkpt><trkpt lat="37.03720921745272" lon="14.712319153102708"><ele>726.0</ele><time>2026-04-04T09:09:17Z</time></trkpt><trkpt lat="37.03722362607406" lon="14.712397143074982"><ele>726.0</ele><time>2026-04-04T09:09:18Z</time></trkpt><trkpt lat="37.037237763363464" lon="14.712490515297025"><ele>726.0</ele><time>2026-04-04T09:09:19Z</time></trkpt><trkpt lat="37.037253517997456" lon="14.712592197178795"><ele>726.0</ele><time>2026-04-04T09:09:20Z</time></trkpt><trkpt lat="37.037276475766674" lon="14.712717823600745"><ele>726.0</ele><time>2026-04-04T09:09:21Z</time></trkpt><trkpt lat="37.03728885351855" lon="14.712861412096965"><ele>726.0</ele><time>2026-04-04T09:09:22Z</time></trkpt><trkpt lat="37.03729147202516" lon="14.712992558642926"><ele>726.0</ele><time>2026-04-04T09:09:23Z</time></trkpt><trkpt lat="37.037284766263596" lon="14.713140029723498"><ele>729.5</ele><time>2026-04-04T09:09:24Z</time></trkpt><trkpt lat="37.03727434457433" lon="14.713286702625254"><ele>733.0</ele><time>2026-04-04T09:09:25Z</time></trkpt><trkpt lat="37.03727658327688" lon="14.713432243522547"><ele>736.5</ele><time>2026-04-04T09:09:26Z</time></trkpt><trkpt lat="37.037276931582184" lon="14.713584649267682"><ele>740.0</ele><time>2026-04-04T09:09:27Z</time></trkpt><trkpt lat="37.0372928581831" lon="14.713715910031649"><ele>742.6</ele><time>2026-04-04T09:09:28Z</time></trkpt><trkpt lat="37.03731791547657" lon="14.713842508458667"><ele>745.2</ele><time>2026-04-04T09:09:29Z</time></trkpt><trkpt lat="37.037343198507784" lon="14.713963784825436"><ele>747.8</ele><time>2026-04-04T09:09:30Z</time></trkpt><trkpt lat="37.03737416631677" lon="14.71408256650547"><ele>750.4</ele><time>2026-04-04T09:09:31Z</time></trkpt><trkpt lat="37.03740319513437" lon="14.714202985332411"><ele>753.0</ele><time>2026-04-04T09:09:32Z</time></trkpt><trkpt lat="37.03742317953101" lon="14.714341045165394"><ele>755.25</ele><time>2026-04-04T09:09:33Z</time></trkpt><trkpt lat="37.03745238573077" lon="14.714499157847655"><ele>757.5</ele><time>2026-04-04T09:09:34Z</time></trkpt><trkpt lat="37.03748296323585" lon="14.714661234249672"><ele>759.75</ele><time>2026-04-04T09:09:35Z</time></trkpt><trkpt lat="37.037506383567376" lon="14.714823125812554"><ele>762.0</ele><time>2026-04-04T09:09:36Z</time></trkpt><trkpt lat="37.037526750135434" lon="14.714993461868845"><ele>751.5</ele><time>2026-04-04T09:09:37Z</time></trkpt><trkpt lat="37.03754230953808" lon="14.715155335778737"><ele>741.0</ele><time>2026-04-04T09:09:38Z</time></trkpt><trkpt lat="37.03754931453292" lon="14.715315073125"><ele>730.5</ele><time>2026-04-04T09:09:39Z</time></trkpt><trkpt lat="37.03756583320786" lon="14.715456094323242"><ele>720.0</ele><time>2026-04-04T09:09:40Z</time></trkpt><trkpt lat="37.03758525588857" lon="14.715597746540897"><ele>720.0</ele><time>2026-04-04T09:09:41Z</time></trkpt><trkpt lat="37.03761618206565" lon="14.715739585037939"><ele>720.0</ele><time>2026-04-04T09:09:42Z</time></trkpt><trkpt lat="37.03763249737473" lon="14.715887419437605"><ele>720.0</ele><time>2026-04-04T09:09:43Z</time></trkpt><trkpt lat="37.03766818637985" lon="14.716029728337027"><ele>720.0</ele><time>2026-04-04T09:09:44Z</time></trkpt><trkpt lat="37.03770314398416" lon="14.716169120796922"><ele>721.8</ele><time>2026-04-04T09:09:45Z</time></trkpt><trkpt lat="37.03773448882128" lon="14.716297291180295"><ele>723.6</ele><time>2026-04-04T09:09:46Z</time></trkpt><trkpt lat="37.03776035542109" lon="14.716414659813667"><ele>725.4000000000001</ele><time>2026-04-04T09:09:47Z</time></trkpt><trkpt lat="37.03778321910899" lon="14.716529494205904"><ele>727.2</ele><time>2026-04-04T09:09:48Z</time></trkpt><trkpt lat="37.0378098389072" lon="14.716616583343916"><ele>729.0</ele><time>2026-04-04T09:09:49Z</time></trkpt><trkpt lat="37.03788731735253" lon="14.716738347719936"><ele>729.0</ele><time>2026-04-04T09:09:51Z</time></trkpt><trkpt lat="37.037962632353214" lon="14.716778954716476"><ele>729.0</ele><time>2026-04-04T09:09:52Z</time></trkpt><trkpt lat="37.03803117456594" lon="14.716779626284827"><ele>729.0</ele><time>2026-04-04T09:09:53Z</time></trkpt><trkpt lat="37.03811656152418" lon="14.716714375707907"><ele>729.0</ele><time>2026-04-04T09:09:54Z</time></trkpt><trkpt lat="37.03813496453751" lon="14.716540716744898"><ele>729.0</ele><time>2026-04-04T09:09:55Z</time></trkpt><trkpt lat="37.03819131603037" lon="14.716416644292387"><ele>729.0</ele><time>2026-04-04T09:09:56Z</time></trkpt><trkpt lat="37.03828213236097" lon="14.716271085474917"><ele>729.0</ele><time>2026-04-04T09:09:57Z</time></trkpt><trkpt lat="37.038385862154975" lon="14.716125650620883"><ele>729.0</ele><time>2026-04-04T09:09:58Z</time></trkpt><trkpt lat="37.03848629499643" lon="14.716003517595922"><ele>729.0</ele><time>2026-04-04T09:09:59Z</time></trkpt><trkpt lat="37.03855729774838" lon="14.715877188714142"><ele>718.25</ele><time>2026-04-04T09:10:00Z</time></trkpt><trkpt lat="37.03860931674762" lon="14.71573063928052"><ele>707.5</ele><time>2026-04-04T09:10:01Z</time></trkpt><trkpt lat="37.03867142900984" lon="14.715584557809555"><ele>696.75</ele><time>2026-04-04T09:10:02Z</time></trkpt><trkpt lat="37.03874419356603" lon="14.715456110229272"><ele>686.0</ele><time>2026-04-04T09:10:03Z</time></trkpt><trkpt lat="37.03882976563009" lon="14.715316387760609"><ele>685.0</ele><time>2026-04-04T09:10:04Z</time></trkpt><trkpt lat="37.03892856870421" lon="14.71519397121966"><ele>684.0</ele><time>2026-04-04T09:10:05Z</time></trkpt><trkpt lat="37.03901739735507" lon="14.715057117852144"><ele>683.0</ele><time>2026-04-04T09:10:06Z</time></trkpt><trkpt lat="37.03910722736347" lon="14.714922596666884"><ele>682.0</ele><time>2026-04-04T09:10:07Z</time></trkpt><trkpt lat="37.03918900375205" lon="14.714791917472938"><ele>682.0</ele><time>2026-04-04T09:10:08Z</time></trkpt><trkpt lat="37.03925212016993" lon="14.71466081215068"><ele>682.0</ele><time>2026-04-04T09:10:09Z</time></trkpt><trkpt lat="37.03929389806262" lon="14.714532370320258"><ele>682.0</ele><time>2026-04-04T09:10:10Z</time></trkpt><trkpt lat="37.039331906131" lon="14.714395210594226"><ele>682.0</ele><time>2026-04-04T09:10:11Z</time></trkpt><trkpt lat="37.039389088938535" lon="14.714268824564664"><ele>676.8</ele><time>2026-04-04T09:10:12Z</time></trkpt><trkpt lat="37.03945511155036" lon="14.714151659090208"><ele>671.6</ele><time>2026-04-04T09:10:13Z</time></trkpt><trkpt lat="37.039540916239794" lon="14.714066386045339"><ele>666.4</ele><time>2026-04-04T09:10:14Z</time></trkpt><trkpt lat="37.03961384756645" lon="14.713978299818"><ele>661.1999999999999</ele><time>2026-04-04T09:10:15Z</time></trkpt><trkpt lat="37.03972726382071" lon="14.713998982625462"><ele>656.0</ele><time>2026-04-04T09:10:16Z</time></trkpt><trkpt lat="37.03981524594673" lon="14.713988547445233"><ele>656.0</ele><time>2026-04-04T09:10:17Z</time></trkpt><trkpt lat="37.03991170861583" lon="14.713959063083486"><ele>656.0</ele><time>2026-04-04T09:10:18Z</time></trkpt><trkpt lat="37.04000618506294" lon="14.713913459881303"><ele>656.0</ele><time>2026-04-04T09:10:19Z</time></trkpt><trkpt lat="37.04007433978196" lon="14.713785611753535"><ele>656.0</ele><time>2026-04-04T09:10:20Z</time></trkpt><trkpt lat="37.040175871148286" lon="14.713742035447732"><ele>656.0</ele><time>2026-04-04T09:10:21Z</time></trkpt><trkpt lat="37.040257392365405" lon="14.713680546648124"><ele>655.5999999999999</ele><time>2026-04-04T09:10:22Z</time></trkpt><trkpt lat="37.04031705803592" lon="14.713588192314084"><ele>655.2</ele><time>2026-04-04T09:10:23Z</time></trkpt><trkpt lat="37.0403314059785" lon="14.713450547888081"><ele>654.8</ele><time>2026-04-04T09:10:24Z</time></trkpt><trkpt lat="37.0403419017803" lon="14.713339059990703"><ele>654.4000000000001</ele><time>2026-04-04T09:10:25Z</time></trkpt><trkpt lat="37.040321660117925" lon="14.713225544916876"><ele>654.0</ele><time>2026-04-04T09:10:26Z</time></trkpt><trkpt lat="37.04026887157938" lon="14.713118537702009"><ele>654.0</ele><time>2026-04-04T09:10:27Z</time></trkpt><trkpt lat="37.040205998274345" lon="14.71301332274991"><ele>654.0</ele><time>2026-04-04T09:10:28Z</time></trkpt><trkpt lat="37.04014376554002" lon="14.712909762996102"><ele>654.0</ele><time>2026-04-04T09:10:29Z</time></trkpt><trkpt lat="37.04011806788289" lon="14.712803054244223"><ele>654.0</ele><time>2026-04-04T09:10:30Z</time></trkpt><trkpt lat="37.04010508792185" lon="14.712700816197746"><ele>654.0</ele><time>2026-04-04T09:10:31Z</time></trkpt><trkpt lat="37.040134490005364" lon="14.712602787469077"><ele>652.0</ele><time>2026-04-04T09:10:32Z</time></trkpt><trkpt lat="37.0402437599786" lon="14.712531070279354"><ele>650.0</ele><time>2026-04-04T09:10:33Z</time></trkpt><trkpt lat="37.04028915144034" lon="14.712404344135361"><ele>648.0</ele><time>2026-04-04T09:10:34Z</time></trkpt><trkpt lat="37.040320328389264" lon="14.712275316858582"><ele>646.0</ele><time>2026-04-04T09:10:35Z</time></trkpt><trkpt lat="37.04034906184314" lon="14.712152851902227"><ele>644.0</ele><time>2026-04-04T09:10:36Z</time></trkpt><trkpt lat="37.040373927080786" lon="14.712018738625748"><ele>644.0</ele><time>2026-04-04T09:10:37Z</time></trkpt><trkpt lat="37.040427143098455" lon="14.71190791717687"><ele>644.0</ele><time>2026-04-04T09:10:38Z</time></trkpt><trkpt lat="37.04047173598744" lon="14.711796835897571"><ele>644.0</ele><time>2026-04-04T09:10:39Z</time></trkpt><trkpt lat="37.040571798103095" lon="14.711768401573575"><ele>644.0</ele><time>2026-04-04T09:10:40Z</time></trkpt><trkpt lat="37.04067879936579" lon="14.711724905146045"><ele>644.0</ele><time>2026-04-04T09:10:41Z</time></trkpt><trkpt lat="37.040761944821035" lon="14.711634317002144"><ele>642.4000000000001</ele><time>2026-04-04T09:10:42Z</time></trkpt><trkpt lat="37.04081446396914" lon="14.71152835588775"><ele>640.8000000000001</ele><time>2026-04-04T09:10:43Z</time></trkpt><trkpt lat="37.04083792679183" lon="14.711396825223606"><ele>639.2</ele><time>2026-04-04T09:10:44Z</time></trkpt><trkpt lat="37.04085922438667" lon="14.71125801246868"><ele>637.6</ele><time>2026-04-04T09:10:45Z</time></trkpt><trkpt lat="37.040880925330214" lon="14.711107429080183"><ele>636.0</ele><time>2026-04-04T09:10:46Z</time></trkpt><trkpt lat="37.04089898787315" lon="14.710955904908579"><ele>636.0</ele><time>2026-04-04T09:10:47Z</time></trkpt><trkpt lat="37.04092832627173" lon="14.710828946639326"><ele>636.0</ele><time>2026-04-04T09:10:48Z</time></trkpt><trkpt lat="37.040976014323896" lon="14.710727812772346"><ele>636.0</ele><time>2026-04-04T09:10:49Z</time></trkpt><trkpt lat="37.04106182885495" lon="14.710633406378317"><ele>636.0</ele><time>2026-04-04T09:10:50Z</time></trkpt><trkpt lat="37.04114793022165" lon="14.710518587930682"><ele>636.0</ele><time>2026-04-04T09:10:51Z</time></trkpt><trkpt lat="37.0412260283606" lon="14.71041457097262"><ele>636.0</ele><time>2026-04-04T09:10:52Z</time></trkpt><trkpt lat="37.041298014835206" lon="14.71032567806856"><ele>636.0</ele><time>2026-04-04T09:10:53Z</time></trkpt><trkpt lat="37.04136901638952" lon="14.710248894149492"><ele>636.0</ele><time>2026-04-04T09:10:54Z</time></trkpt><trkpt lat="37.04144048250025" lon="14.710206334063988"><ele>636.0</ele><time>2026-04-04T09:10:55Z</time></trkpt><trkpt lat="37.04149498340733" lon="14.710128597185122"><ele>636.0</ele><time>2026-04-04T09:10:56Z</time></trkpt><trkpt lat="37.04156546561177" lon="14.710123966234915"><ele>636.0</ele><time>2026-04-04T09:10:57Z</time></trkpt><trkpt lat="37.04162755433126" lon="14.71023134811063"><ele>639.8333333333334</ele><time>2026-04-04T09:10:58Z</time></trkpt><trkpt lat="37.041674741627524" lon="14.710283977793479"><ele>643.6666666666666</ele><time>2026-04-04T09:10:59Z</time></trkpt><trkpt lat="37.04171194482634" lon="14.710357472779123"><ele>647.5</ele><time>2026-04-04T09:11:00Z</time></trkpt><trkpt lat="37.041783607047044" lon="14.710445395338754"><ele>651.3333333333333</ele><time>2026-04-04T09:11:01Z</time></trkpt><trkpt lat="37.04186092260799" lon="14.710523416962468"><ele>655.1666666666666</ele><time>2026-04-04T09:11:02Z</time></trkpt><trkpt lat="37.04196052957846" lon="14.71056266844919"><ele>659.0</ele><time>2026-04-04T09:11:03Z</time></trkpt><trkpt lat="37.04203620826532" lon="14.710619123051115"><ele>659.0</ele><time>2026-04-04T09:11:04Z</time></trkpt><trkpt lat="37.0421168652932" lon="14.710645539730061"><ele>659.0</ele><time>2026-04-04T09:11:05Z</time></trkpt><trkpt lat="37.04220843861528" lon="14.710677102819126"><ele>659.0</ele><time>2026-04-04T09:11:06Z</time></trkpt><trkpt lat="37.04229989539849" lon="14.710688442745191"><ele>659.0</ele><time>2026-04-04T09:11:07Z</time></trkpt><trkpt lat="37.04238329872385" lon="14.710733932718126"><ele>659.0</ele><time>2026-04-04T09:11:08Z</time></trkpt><trkpt lat="37.04246340998662" lon="14.710785371657815"><ele>657.8000000000001</ele><time>2026-04-04T09:11:09Z</time></trkpt><trkpt lat="37.042524233642816" lon="14.7108411380486"><ele>656.6</ele><time>2026-04-04T09:11:10Z</time></trkpt><trkpt lat="37.04260298084452" lon="14.710940851779698"><ele>655.4</ele><time>2026-04-04T09:11:11Z</time></trkpt><trkpt lat="37.04265674993951" lon="14.711035318895618"><ele>654.2</ele><time>2026-04-04T09:11:12Z</time></trkpt><trkpt lat="37.04270892761149" lon="14.711146699423846"><ele>653.0</ele><time>2026-04-04T09:11:13Z</time></trkpt><trkpt lat="37.042749750111284" lon="14.711263540258154"><ele>653.0</ele><time>2026-04-04T09:11:14Z</time></trkpt><trkpt lat="37.042783511984204" lon="14.71138479377848"><ele>653.0</ele><time>2026-04-04T09:11:15Z</time></trkpt><trkpt lat="37.0428035292941" lon="14.711504760376826"><ele>653.0</ele><time>2026-04-04T09:11:16Z</time></trkpt><trkpt lat="37.04281082828912" lon="14.711632655028927"><ele>653.0</ele><time>2026-04-04T09:11:17Z</time></trkpt><trkpt lat="37.04280305220224" lon="14.711772353873865"><ele>653.0</ele><time>2026-04-04T09:11:18Z</time></trkpt><trkpt lat="37.04278589416252" lon="14.711905323200021"><ele>651.8</ele><time>2026-04-04T09:11:19Z</time></trkpt><trkpt lat="37.042766156060765" lon="14.712039333883887"><ele>650.5999999999999</ele><time>2026-04-04T09:11:20Z</time></trkpt><trkpt lat="37.04274124735032" lon="14.71216965893739"><ele>649.4000000000001</ele><time>2026-04-04T09:11:21Z</time></trkpt><trkpt lat="37.04271047430595" lon="14.712293055018408"><ele>648.2</ele><time>2026-04-04T09:11:22Z</time></trkpt><trkpt lat="37.042684831571044" lon="14.712415096460838"><ele>647.0</ele><time>2026-04-04T09:11:23Z</time></trkpt><trkpt lat="37.0426538625549" lon="14.71252450417991"><ele>647.0</ele><time>2026-04-04T09:11:24Z</time></trkpt><trkpt lat="37.04262074862853" lon="14.712636929671866"><ele>647.0</ele><time>2026-04-04T09:11:25Z</time></trkpt><trkpt lat="37.042562963809054" lon="14.712723118794337"><ele>647.0</ele><time>2026-04-04T09:11:26Z</time></trkpt><trkpt lat="37.042518408097294" lon="14.712825979189267"><ele>647.0</ele><time>2026-04-04T09:11:27Z</time></trkpt><trkpt lat="37.042469982129624" lon="14.712920526031043"><ele>647.0</ele><time>2026-04-04T09:11:28Z</time></trkpt><trkpt lat="37.04241790745914" lon="14.713002274579402"><ele>652.4000000000001</ele><time>2026-04-04T09:11:29Z</time></trkpt><trkpt lat="37.04235565280901" lon="14.713071902967902"><ele>657.8000000000001</ele><time>2026-04-04T09:11:30Z</time></trkpt><trkpt lat="37.04229442122019" lon="14.713120211364284"><ele>663.2</ele><time>2026-04-04T09:11:31Z</time></trkpt><trkpt lat="37.04220960967948" lon="14.713191706114166"><ele>668.6</ele><time>2026-04-04T09:11:32Z</time></trkpt><trkpt lat="37.042166220405775" lon="14.713309909770134"><ele>674.0</ele><time>2026-04-04T09:11:33Z</time></trkpt><trkpt lat="37.04229499387884" lon="14.713469282129875"><ele>674.0</ele><time>2026-04-04T09:11:34Z</time></trkpt><trkpt lat="37.04237246919909" lon="14.71351230770404"><ele>674.0</ele><time>2026-04-04T09:11:35Z</time></trkpt><trkpt lat="37.04242727122549" lon="14.71359553798528"><ele>674.0</ele><time>2026-04-04T09:11:36Z</time></trkpt><trkpt lat="37.042476796808565" lon="14.713665785125938"><ele>674.0</ele><time>2026-04-04T09:11:37Z</time></trkpt><trkpt lat="37.04250680050783" lon="14.713738715809816"><ele>674.0</ele><time>2026-04-04T09:11:38Z</time></trkpt><trkpt lat="37.04252934259941" lon="14.713829383117512"><ele>674.0</ele><time>2026-04-04T09:11:39Z</time></trkpt><trkpt lat="37.04254390401627" lon="14.71392020241192"><ele>670.0</ele><time>2026-04-04T09:11:40Z</time></trkpt><trkpt lat="37.04256010494213" lon="14.714028192157981"><ele>666.0</ele><time>2026-04-04T09:11:41Z</time></trkpt><trkpt lat="37.04254486747704" lon="14.714123943744198"><ele>662.0</ele><time>2026-04-04T09:11:42Z</time></trkpt><trkpt lat="37.042539704432805" lon="14.714215687128792"><ele>658.0</ele><time>2026-04-04T09:11:43Z</time></trkpt><trkpt lat="37.042544406343715" lon="14.714351146021665"><ele>654.0</ele><time>2026-04-04T09:11:45Z</time></trkpt><trkpt lat="37.042550340685516" lon="14.714442010715882"><ele>650.0</ele><time>2026-04-04T09:11:46Z</time></trkpt><trkpt lat="37.042556960113565" lon="14.714527373423167"><ele>650.0</ele><time>2026-04-04T09:11:47Z</time></trkpt><trkpt lat="37.04259503155293" lon="14.7146879802639"><ele>650.0</ele><time>2026-04-04T09:11:49Z</time></trkpt><trkpt lat="37.04266541729168" lon="14.714732321950596"><ele>650.0</ele><time>2026-04-04T09:11:50Z</time></trkpt><trkpt lat="37.04275917542376" lon="14.714698759332403"><ele>650.0</ele><time>2026-04-04T09:11:51Z</time></trkpt><trkpt lat="37.042842673029014" lon="14.714627508680294"><ele>650.0</ele><time>2026-04-04T09:11:52Z</time></trkpt><trkpt lat="37.04292038574159" lon="14.714525522950224"><ele>650.0</ele><time>2026-04-04T09:11:53Z</time></trkpt><trkpt lat="37.04298489460899" lon="14.714432449674046"><ele>650.0</ele><time>2026-04-04T09:11:54Z</time></trkpt><trkpt lat="37.04304180363951" lon="14.714330596726215"><ele>650.0</ele><time>2026-04-04T09:11:55Z</time></trkpt><trkpt lat="37.04309046414712" lon="14.714215184237405"><ele>650.0</ele><time>2026-04-04T09:11:56Z</time></trkpt><trkpt lat="37.043121014077194" lon="14.714086831032965"><ele>650.0</ele><time>2026-04-04T09:11:57Z</time></trkpt><trkpt lat="37.04314816799322" lon="14.713966958518377"><ele>648.0</ele><time>2026-04-04T09:11:58Z</time></trkpt><trkpt lat="37.04317374404844" lon="14.713842350614474"><ele>646.0</ele><time>2026-04-04T09:11:59Z</time></trkpt><trkpt lat="37.04321194613434" lon="14.713718544565872"><ele>644.0</ele><time>2026-04-04T09:12:00Z</time></trkpt><trkpt lat="37.043244625459444" lon="14.713626133225533"><ele>642.0</ele><time>2026-04-04T09:12:01Z</time></trkpt><trkpt lat="37.04327954479653" lon="14.71353698669657"><ele>640.0</ele><time>2026-04-04T09:12:02Z</time></trkpt><trkpt lat="37.04332041495331" lon="14.71344441920842"><ele>636.5</ele><time>2026-04-04T09:12:03Z</time></trkpt><trkpt lat="37.0433778007658" lon="14.713337039096807"><ele>633.0</ele><time>2026-04-04T09:12:04Z</time></trkpt><trkpt lat="37.04344539873976" lon="14.71321653802022"><ele>629.5</ele><time>2026-04-04T09:12:05Z</time></trkpt><trkpt lat="37.043548889683834" lon="14.713122007760457"><ele>626.0</ele><time>2026-04-04T09:12:06Z</time></trkpt><trkpt lat="37.04364753064569" lon="14.713015187281764"><ele>626.0</ele><time>2026-04-04T09:12:07Z</time></trkpt><trkpt lat="37.043747464658054" lon="14.71289694679255"><ele>626.0</ele><time>2026-04-04T09:12:08Z</time></trkpt><trkpt lat="37.04384262414417" lon="14.71277683526078"><ele>626.0</ele><time>2026-04-04T09:12:09Z</time></trkpt><trkpt lat="37.04393341482299" lon="14.712658544939032"><ele>626.0</ele><time>2026-04-04T09:12:10Z</time></trkpt><trkpt lat="37.04401668902644" lon="14.71254798990612"><ele>626.2</ele><time>2026-04-04T09:12:11Z</time></trkpt><trkpt lat="37.044082903624705" lon="14.712422776934169"><ele>626.4000000000001</ele><time>2026-04-04T09:12:12Z</time></trkpt><trkpt lat="37.044160935074146" lon="14.7123196169654"><ele>626.6</ele><time>2026-04-04T09:12:13Z</time></trkpt><trkpt lat="37.04423431641221" lon="14.712223925536142"><ele>626.8000000000001</ele><time>2026-04-04T09:12:14Z</time></trkpt><trkpt lat="37.04429498037412" lon="14.712134476287146"><ele>627.0</ele><time>2026-04-04T09:12:15Z</time></trkpt><trkpt lat="37.04434282463842" lon="14.7120386336498"><ele>627.0</ele><time>2026-04-04T09:12:16Z</time></trkpt><trkpt lat="37.04439604080199" lon="14.711967801128907"><ele>627.0</ele><time>2026-04-04T09:12:17Z</time></trkpt><trkpt lat="37.044473725135305" lon="14.71186924953732"><ele>627.0</ele><time>2026-04-04T09:12:19Z</time></trkpt><trkpt lat="37.04454391548106" lon="14.711982364188597"><ele>627.0</ele><time>2026-04-04T09:12:21Z</time></trkpt><trkpt lat="37.044632045820876" lon="14.712017451301024"><ele>627.0</ele><time>2026-04-04T09:12:23Z</time></trkpt><trkpt lat="37.04468973405928" lon="14.712059128651342"><ele>627.0</ele><time>2026-04-04T09:12:24Z</time></trkpt><trkpt lat="37.044753510495354" lon="14.712126740105418"><ele>627.0</ele><time>2026-04-04T09:12:25Z</time></trkpt><trkpt lat="37.04481398767216" lon="14.712177109041399"><ele>627.0</ele><time>2026-04-04T09:12:26Z</time></trkpt><trkpt lat="37.04491877645527" lon="14.712227062412579"><ele>627.0</ele><time>2026-04-04T09:12:28Z</time></trkpt><trkpt lat="37.04498872633718" lon="14.71214852817437"><ele>627.0</ele><time>2026-04-04T09:12:29Z</time></trkpt><trkpt lat="37.045063246163416" lon="14.712096354397358"><ele>627.0</ele><time>2026-04-04T09:12:30Z</time></trkpt><trkpt lat="37.045165537256175" lon="14.712010113998128"><ele>629.2</ele><time>2026-04-04T09:12:31Z</time></trkpt><trkpt lat="37.045231868463155" lon="14.711919055963163"><ele>631.4000000000001</ele><time>2026-04-04T09:12:32Z</time></trkpt><trkpt lat="37.045334095990874" lon="14.711838605000933"><ele>633.5999999999999</ele><time>2026-04-04T09:12:33Z</time></trkpt><trkpt lat="37.04542742405257" lon="14.71179293086576"><ele>635.8</ele><time>2026-04-04T09:12:34Z</time></trkpt><trkpt lat="37.045507466120036" lon="14.711767734327172"><ele>638.0</ele><time>2026-04-04T09:12:35Z</time></trkpt><trkpt lat="37.045583370605435" lon="14.711801140567317"><ele>638.0</ele><time>2026-04-04T09:12:36Z</time></trkpt><trkpt lat="37.045693967865695" lon="14.711897695054809"><ele>638.0</ele><time>2026-04-04T09:12:38Z</time></trkpt><trkpt lat="37.04575078763462" lon="14.711984626746561"><ele>638.0</ele><time>2026-04-04T09:12:39Z</time></trkpt><trkpt lat="37.045790898898645" lon="14.7120918556448"><ele>638.0</ele><time>2026-04-04T09:12:40Z</time></trkpt><trkpt lat="37.04582965953145" lon="14.712195819860922"><ele>638.0</ele><time>2026-04-04T09:12:41Z</time></trkpt><trkpt lat="37.04586822224021" lon="14.71230630159124"><ele>635.3333333333333</ele><time>2026-04-04T09:12:42Z</time></trkpt><trkpt lat="37.04590001862031" lon="14.712398974790274"><ele>632.6666666666666</ele><time>2026-04-04T09:12:43Z</time></trkpt><trkpt lat="37.04591966133546" lon="14.712481481614393"><ele>630.0</ele><time>2026-04-04T09:12:44Z</time></trkpt><trkpt lat="37.045943177586885" lon="14.712562828049766"><ele>627.3333333333334</ele><time>2026-04-04T09:12:45Z</time></trkpt><trkpt lat="37.0459909761773" lon="14.712624434959062"><ele>624.6666666666667</ele><time>2026-04-04T09:12:46Z</time></trkpt><trkpt lat="37.04606775232302" lon="14.712654188026345"><ele>622.0</ele><time>2026-04-04T09:12:47Z</time></trkpt><trkpt lat="37.04616435426661" lon="14.712619270910714"><ele>622.0</ele><time>2026-04-04T09:12:48Z</time></trkpt><trkpt lat="37.04625198279521" lon="14.712652211726972"><ele>622.0</ele><time>2026-04-04T09:12:49Z</time></trkpt><trkpt lat="37.046332079636066" lon="14.712672150224671"><ele>622.0</ele><time>2026-04-04T09:12:50Z</time></trkpt><trkpt lat="37.04640902796856" lon="14.712694552725795"><ele>622.0</ele><time>2026-04-04T09:12:51Z</time></trkpt><trkpt lat="37.04648074627014" lon="14.712729521983674"><ele>622.0</ele><time>2026-04-04T09:12:52Z</time></trkpt><trkpt lat="37.046531628780755" lon="14.712796308997326"><ele>622.0</ele><time>2026-04-04T09:12:53Z</time></trkpt><trkpt lat="37.046576658523215" lon="14.712889188931904"><ele>622.0</ele><time>2026-04-04T09:12:54Z</time></trkpt><trkpt lat="37.04661722815928" lon="14.713000001817917"><ele>622.0</ele><time>2026-04-04T09:12:55Z</time></trkpt><trkpt lat="37.04665423443386" lon="14.713107724115122"><ele>622.0</ele><time>2026-04-04T09:12:56Z</time></trkpt><trkpt lat="37.046691914458435" lon="14.713215954859079"><ele>622.0</ele><time>2026-04-04T09:12:57Z</time></trkpt><trkpt lat="37.046730329251645" lon="14.713324642137014"><ele>622.0</ele><time>2026-04-04T09:12:58Z</time></trkpt><trkpt lat="37.046761491549255" lon="14.713429412611584"><ele>622.0</ele><time>2026-04-04T09:12:59Z</time></trkpt><trkpt lat="37.046783141476446" lon="14.713539479768325"><ele>622.0</ele><time>2026-04-04T09:13:00Z</time></trkpt><trkpt lat="37.046791465050255" lon="14.71365890264105"><ele>622.0</ele><time>2026-04-04T09:13:01Z</time></trkpt><trkpt lat="37.046787588672366" lon="14.71378496578418"><ele>622.0</ele><time>2026-04-04T09:13:02Z</time></trkpt><trkpt lat="37.04678214651572" lon="14.71392543548173"><ele>622.0</ele><time>2026-04-04T09:13:03Z</time></trkpt><trkpt lat="37.04677567187884" lon="14.714062613150679"><ele>625.5</ele><time>2026-04-04T09:13:04Z</time></trkpt><trkpt lat="37.04677065558005" lon="14.714196179819576"><ele>629.0</ele><time>2026-04-04T09:13:05Z</time></trkpt><trkpt lat="37.04676905937987" lon="14.714322507786418"><ele>632.5</ele><time>2026-04-04T09:13:06Z</time></trkpt><trkpt lat="37.046774978841086" lon="14.71445438647282"><ele>636.0</ele><time>2026-04-04T09:13:07Z</time></trkpt><trkpt lat="37.04681252502537" lon="14.714643128785108"><ele>635.6666666666666</ele><time>2026-04-04T09:13:08Z</time></trkpt><trkpt lat="37.04682315032353" lon="14.714854214217711"><ele>635.3333333333333</ele><time>2026-04-04T09:13:09Z</time></trkpt><trkpt lat="37.04684837515957" lon="14.715067749432409"><ele>635.0</ele><time>2026-04-04T09:13:10Z</time></trkpt><trkpt lat="37.046867773407506" lon="14.715248678911"><ele>635.0</ele><time>2026-04-04T09:13:11Z</time></trkpt><trkpt lat="37.04688487881756" lon="14.715408222877096"><ele>635.0</ele><time>2026-04-04T09:13:12Z</time></trkpt><trkpt lat="37.046898553755994" lon="14.715553048478307"><ele>635.0</ele><time>2026-04-04T09:13:13Z</time></trkpt><trkpt lat="37.04690596463476" lon="14.715674377524834"><ele>635.0</ele><time>2026-04-04T09:13:14Z</time></trkpt><trkpt lat="37.04690713171933" lon="14.715787045107376"><ele>635.0</ele><time>2026-04-04T09:13:15Z</time></trkpt><trkpt lat="37.04690927517219" lon="14.715878850921852"><ele>635.0</ele><time>2026-04-04T09:13:16Z</time></trkpt><trkpt lat="37.04685831109962" lon="14.715956273693068"><ele>635.0</ele><time>2026-04-04T09:13:17Z</time></trkpt><trkpt lat="37.04680328451696" lon="14.716015582170316"><ele>635.0</ele><time>2026-04-04T09:13:18Z</time></trkpt><trkpt lat="37.04675004523498" lon="14.716085974729646"><ele>635.0</ele><time>2026-04-04T09:13:19Z</time></trkpt><trkpt lat="37.04668916246055" lon="14.716217895255914"><ele>635.0</ele><time>2026-04-04T09:13:21Z</time></trkpt><trkpt lat="37.046746998000806" lon="14.716376807263504"><ele>635.3333333333333</ele><time>2026-04-04T09:13:23Z</time></trkpt><trkpt lat="37.04683704683018" lon="14.716398234996882"><ele>635.6666666666666</ele><time>2026-04-04T09:13:24Z</time></trkpt><trkpt lat="37.046896734618585" lon="14.716441812954104"><ele>636.0</ele><time>2026-04-04T09:13:25Z</time></trkpt><trkpt lat="37.04693057783826" lon="14.716509316465011"><ele>636.3333333333334</ele><time>2026-04-04T09:13:26Z</time></trkpt><trkpt lat="37.04695329061962" lon="14.716648850929861"><ele>636.6666666666667</ele><time>2026-04-04T09:13:28Z</time></trkpt><trkpt lat="37.046950311278245" lon="14.716733164699761"><ele>637.0</ele><time>2026-04-04T09:13:29Z</time></trkpt><trkpt lat="37.04694472949619" lon="14.716836965614421"><ele>639.0</ele><time>2026-04-04T09:13:30Z</time></trkpt><trkpt lat="37.04692531877643" lon="14.716990462032474"><ele>641.0</ele><time>2026-04-04T09:13:31Z</time></trkpt><trkpt lat="37.04689951536803" lon="14.717156328334124"><ele>643.0</ele><time>2026-04-04T09:13:32Z</time></trkpt><trkpt lat="37.046893329576584" lon="14.71731702563156"><ele>645.0</ele><time>2026-04-04T09:13:33Z</time></trkpt><trkpt lat="37.04688082693536" lon="14.717452581968269"><ele>645.0</ele><time>2026-04-04T09:13:34Z</time></trkpt><trkpt lat="37.04685135932153" lon="14.717578489859605"><ele>645.0</ele><time>2026-04-04T09:13:35Z</time></trkpt><trkpt lat="37.04683728954098" lon="14.717702666077702"><ele>645.0</ele><time>2026-04-04T09:13:36Z</time></trkpt><trkpt lat="37.04682425679881" lon="14.717814205114571"><ele>645.0</ele><time>2026-04-04T09:13:37Z</time></trkpt><trkpt lat="37.04681151072956" lon="14.717923290651289"><ele>645.0</ele><time>2026-04-04T09:13:38Z</time></trkpt><trkpt lat="37.046812710489625" lon="14.718020804335662"><ele>644.4</ele><time>2026-04-04T09:13:39Z</time></trkpt><trkpt lat="37.04679964315645" lon="14.718101981898187"><ele>643.8</ele><time>2026-04-04T09:13:40Z</time></trkpt><trkpt lat="37.04679084288006" lon="14.718236240564098"><ele>643.2</ele><time>2026-04-04T09:13:42Z</time></trkpt><trkpt lat="37.04690342584524" lon="14.718296465754664"><ele>642.6</ele><time>2026-04-04T09:13:46Z</time></trkpt><trkpt lat="37.04699158202911" lon="14.718162142987874"><ele>642.0</ele><time>2026-04-04T09:13:48Z</time></trkpt><trkpt lat="37.047066673176566" lon="14.718041497487057"><ele>642.0</ele><time>2026-04-04T09:13:49Z</time></trkpt><trkpt lat="37.04714522736139" lon="14.717929086418167"><ele>642.0</ele><time>2026-04-04T09:13:50Z</time></trkpt><trkpt lat="37.04720943318301" lon="14.71782567203741"><ele>642.0</ele><time>2026-04-04T09:13:51Z</time></trkpt><trkpt lat="37.04727481158044" lon="14.717734047475965"><ele>642.0</ele><time>2026-04-04T09:13:52Z</time></trkpt><trkpt lat="37.047331661347435" lon="14.717661549636254"><ele>642.0</ele><time>2026-04-04T09:13:53Z</time></trkpt><trkpt lat="37.0473662245984" lon="14.717581931052512"><ele>642.5</ele><time>2026-04-04T09:13:54Z</time></trkpt><trkpt lat="37.047371385085086" lon="14.717493146782816"><ele>643.0</ele><time>2026-04-04T09:13:55Z</time></trkpt><trkpt lat="37.04735539894211" lon="14.71740007918708"><ele>643.5</ele><time>2026-04-04T09:13:56Z</time></trkpt><trkpt lat="37.047357482136206" lon="14.717306223745295"><ele>644.0</ele><time>2026-04-04T09:13:57Z</time></trkpt><trkpt lat="37.04740429276005" lon="14.71721605170712"><ele>644.5</ele><time>2026-04-04T09:13:58Z</time></trkpt><trkpt lat="37.04746726817776" lon="14.717113212967394"><ele>645.0</ele><time>2026-04-04T09:13:59Z</time></trkpt><trkpt lat="37.04748778299838" lon="14.716983893325244"><ele>640.0</ele><time>2026-04-04T09:14:00Z</time></trkpt><trkpt lat="37.047483684625504" lon="14.716830137229609"><ele>635.0</ele><time>2026-04-04T09:14:01Z</time></trkpt><trkpt lat="37.04749024623731" lon="14.7166754814423"><ele>630.0</ele><time>2026-04-04T09:14:02Z</time></trkpt><trkpt lat="37.04752702268532" lon="14.716517562507137"><ele>625.0</ele><time>2026-04-04T09:14:03Z</time></trkpt><trkpt lat="37.047585127507084" lon="14.716369877061169"><ele>625.0</ele><time>2026-04-04T09:14:04Z</time></trkpt><trkpt lat="37.0476360348602" lon="14.716209653558534"><ele>625.0</ele><time>2026-04-04T09:14:05Z</time></trkpt><trkpt lat="37.04764915157176" lon="14.716041613980419"><ele>625.0</ele><time>2026-04-04T09:14:06Z</time></trkpt><trkpt lat="37.04765230895923" lon="14.715871563368937"><ele>625.0</ele><time>2026-04-04T09:14:07Z</time></trkpt><trkpt lat="37.04767958022245" lon="14.715707676194624"><ele>623.5</ele><time>2026-04-04T09:14:08Z</time></trkpt><trkpt lat="37.047711165452135" lon="14.715553373303047"><ele>622.0</ele><time>2026-04-04T09:14:09Z</time></trkpt><trkpt lat="37.04773461265023" lon="14.715409610442462"><ele>620.5</ele><time>2026-04-04T09:14:10Z</time></trkpt><trkpt lat="37.0477510844038" lon="14.71527442236538"><ele>619.0</ele><time>2026-04-04T09:14:11Z</time></trkpt><trkpt lat="37.04777030921659" lon="14.715136942461122"><ele>617.4</ele><time>2026-04-04T09:14:12Z</time></trkpt><trkpt lat="37.04778326252273" lon="14.715009820704523"><ele>615.8</ele><time>2026-04-04T09:14:13Z</time></trkpt><trkpt lat="37.04779665975285" lon="14.714884517513163"><ele>614.2</ele><time>2026-04-04T09:14:14Z</time></trkpt><trkpt lat="37.04780940006608" lon="14.714760916118456"><ele>612.6</ele><time>2026-04-04T09:14:15Z</time></trkpt><trkpt lat="37.04782419034111" lon="14.714630749016415"><ele>611.0</ele><time>2026-04-04T09:14:16Z</time></trkpt><trkpt lat="37.047842170720166" lon="14.714507573625601"><ele>609.2</ele><time>2026-04-04T09:14:17Z</time></trkpt><trkpt lat="37.047873047699824" lon="14.714374738760107"><ele>607.4000000000001</ele><time>2026-04-04T09:14:18Z</time></trkpt><trkpt lat="37.04791174538211" lon="14.714253536666003"><ele>605.6</ele><time>2026-04-04T09:14:19Z</time></trkpt><trkpt lat="37.04794968673821" lon="14.714133392557933"><ele>603.8000000000001</ele><time>2026-04-04T09:14:20Z</time></trkpt><trkpt lat="37.04799232746259" lon="14.714011367645732"><ele>602.0</ele><time>2026-04-04T09:14:21Z</time></trkpt><trkpt lat="37.048040364383475" lon="14.713883213545659"><ele>602.0</ele><time>2026-04-04T09:14:22Z</time></trkpt><trkpt lat="37.04809859289886" lon="14.713754346194456"><ele>602.0</ele><time>2026-04-04T09:14:23Z</time></trkpt><trkpt lat="37.048144109923385" lon="14.713651905299711"><ele>602.0</ele><time>2026-04-04T09:14:24Z</time></trkpt><trkpt lat="37.048173590254606" lon="14.71355559485376"><ele>602.0</ele><time>2026-04-04T09:14:25Z</time></trkpt><trkpt lat="37.04817677072989" lon="14.713449348949954"><ele>602.0</ele><time>2026-04-04T09:14:26Z</time></trkpt><trkpt lat="37.0481485631368" lon="14.71333834110903"><ele>601.5</ele><time>2026-04-04T09:14:27Z</time></trkpt><trkpt lat="37.04809530488767" lon="14.713220517721473"><ele>601.0</ele><time>2026-04-04T09:14:28Z</time></trkpt><trkpt lat="37.048055399174956" lon="14.713068537126256"><ele>600.5</ele><time>2026-04-04T09:14:29Z</time></trkpt><trkpt lat="37.048033452674744" lon="14.712894887597205"><ele>600.0</ele><time>2026-04-04T09:14:30Z</time></trkpt><trkpt lat="37.0480129423867" lon="14.712724242586537"><ele>598.75</ele><time>2026-04-04T09:14:31Z</time></trkpt><trkpt lat="37.04799249823094" lon="14.712565208828678"><ele>597.5</ele><time>2026-04-04T09:14:32Z</time></trkpt><trkpt lat="37.04797193179388" lon="14.712418937666442"><ele>596.25</ele><time>2026-04-04T09:14:33Z</time></trkpt><trkpt lat="37.04795551531503" lon="14.712277356733692"><ele>595.0</ele><time>2026-04-04T09:14:34Z</time></trkpt><trkpt lat="37.04793794175087" lon="14.712128274691151"><ele>595.0</ele><time>2026-04-04T09:14:35Z</time></trkpt><trkpt lat="37.047931628036196" lon="14.711984262872798"><ele>595.0</ele><time>2026-04-04T09:14:36Z</time></trkpt><trkpt lat="37.04792164819173" lon="14.711838925877704"><ele>595.0</ele><time>2026-04-04T09:14:37Z</time></trkpt><trkpt lat="37.04791557398151" lon="14.711686764104543"><ele>595.0</ele><time>2026-04-04T09:14:38Z</time></trkpt><trkpt lat="37.04792364668642" lon="14.711542511358056"><ele>595.0</ele><time>2026-04-04T09:14:39Z</time></trkpt><trkpt lat="37.04793294851955" lon="14.711396209471127"><ele>595.0</ele><time>2026-04-04T09:14:40Z</time></trkpt><trkpt lat="37.04794695148174" lon="14.71126874636735"><ele>595.0</ele><time>2026-04-04T09:14:41Z</time></trkpt><trkpt lat="37.0479620136379" lon="14.711160873797558"><ele>595.0</ele><time>2026-04-04T09:14:42Z</time></trkpt><trkpt lat="37.047975825368304" lon="14.711051417726217"><ele>595.0</ele><time>2026-04-04T09:14:43Z</time></trkpt><trkpt lat="37.04799610446474" lon="14.710957263284097"><ele>595.5</ele><time>2026-04-04T09:14:44Z</time></trkpt><trkpt lat="37.04809407038829" lon="14.710869181580675"><ele>596.0</ele><time>2026-04-04T09:14:46Z</time></trkpt><trkpt lat="37.04816733485943" lon="14.71087622572224"><ele>596.5</ele><time>2026-04-04T09:14:49Z</time></trkpt><trkpt lat="37.04823695614728" lon="14.710869543852596"><ele>597.0</ele><time>2026-04-04T09:15:04Z</time></trkpt><trkpt lat="37.048299919097346" lon="14.710808579088402"><ele>597.5</ele><time>2026-04-04T09:15:07Z</time></trkpt><trkpt lat="37.04837660743117" lon="14.710743974331786"><ele>598.0</ele><time>2026-04-04T09:15:10Z</time></trkpt><trkpt lat="37.04845216440191" lon="14.71070391364068"><ele>603.0</ele><time>2026-04-04T09:15:12Z</time></trkpt><trkpt lat="37.048541179103154" lon="14.710687092432261"><ele>608.0</ele><time>2026-04-04T09:15:14Z</time></trkpt><trkpt lat="37.048664439891496" lon="14.71070966128471"><ele>613.0</ele><time>2026-04-04T09:15:18Z</time></trkpt><trkpt lat="37.048737556529524" lon="14.710706930360246"><ele>618.0</ele><time>2026-04-04T09:15:19Z</time></trkpt><trkpt lat="37.04882677449474" lon="14.710729382722631"><ele>623.0</ele><time>2026-04-04T09:15:21Z</time></trkpt><trkpt lat="37.04890691297416" lon="14.710764913996274"><ele>623.0</ele><time>2026-04-04T09:15:24Z</time></trkpt><trkpt lat="37.04901510834223" lon="14.710636694503117"><ele>623.0</ele><time>2026-04-04T09:15:29Z</time></trkpt><trkpt lat="37.049021223812495" lon="14.710524387603037"><ele>623.0</ele><time>2026-04-04T09:15:31Z</time></trkpt><trkpt lat="37.049015259576265" lon="14.710442614307054"><ele>623.0</ele><time>2026-04-04T09:15:32Z</time></trkpt><trkpt lat="37.04903472310717" lon="14.710355735632621"><ele>623.0</ele><time>2026-04-04T09:15:33Z</time></trkpt><trkpt lat="37.049029646125184" lon="14.710243312962882"><ele>620.5</ele><time>2026-04-04T09:15:35Z</time></trkpt><trkpt lat="37.049029581276535" lon="14.710162989837066"><ele>618.0</ele><time>2026-04-04T09:15:37Z</time></trkpt><trkpt lat="37.04906534009787" lon="14.710077150051182"><ele>615.5</ele><time>2026-04-04T09:15:42Z</time></trkpt><trkpt lat="37.04906207800988" lon="14.709974118953586"><ele>613.0</ele><time>2026-04-04T09:15:46Z</time></trkpt><trkpt lat="37.04910398604968" lon="14.709893567198282"><ele>610.5</ele><time>2026-04-04T09:15:50Z</time></trkpt><trkpt lat="37.049171926123186" lon="14.709846657154706"><ele>608.0</ele><time>2026-04-04T09:15:54Z</time></trkpt><trkpt lat="37.04923557708098" lon="14.709704095928123"><ele>607.2857142857142</ele><time>2026-04-04T09:15:57Z</time></trkpt><trkpt lat="37.04927691201406" lon="14.709643936836038"><ele>606.5714285714287</ele><time>2026-04-04T09:15:59Z</time></trkpt><trkpt lat="37.04931492745843" lon="14.70954726286649"><ele>605.8571428571429</ele><time>2026-04-04T09:16:04Z</time></trkpt><trkpt lat="37.04928090351665" lon="14.709466476733807"><ele>605.1428571428571</ele><time>2026-04-04T09:16:06Z</time></trkpt><trkpt lat="37.04927752108701" lon="14.70935780076845"><ele>604.4285714285713</ele><time>2026-04-04T09:16:11Z</time></trkpt><trkpt lat="37.049285823478186" lon="14.70926911047161"><ele>603.7142857142858</ele><time>2026-04-04T09:16:13Z</time></trkpt><trkpt lat="37.049281118851525" lon="14.709182878279611"><ele>603.0</ele><time>2026-04-04T09:16:16Z</time></trkpt><trkpt lat="37.04930143419761" lon="14.709107447127975"><ele>599.6666666666666</ele><time>2026-04-04T09:16:18Z</time></trkpt><trkpt lat="37.049288167975135" lon="14.709021459230737"><ele>596.3333333333334</ele><time>2026-04-04T09:16:20Z</time></trkpt><trkpt lat="37.0492722963439" lon="14.708909268464842"><ele>593.0</ele><time>2026-04-04T09:16:23Z</time></trkpt><trkpt lat="37.04924921946137" lon="14.70882948238599"><ele>589.6666666666667</ele><time>2026-04-04T09:16:25Z</time></trkpt><trkpt lat="37.049242683418846" lon="14.708750533117566"><ele>586.3333333333334</ele><time>2026-04-04T09:16:33Z</time></trkpt><trkpt lat="37.04930161269724" lon="14.708672214459822"><ele>583.0</ele><time>2026-04-04T09:16:36Z</time></trkpt><trkpt lat="37.0493663433506" lon="14.708633463347324"><ele>579.4</ele><time>2026-04-04T09:16:38Z</time></trkpt><trkpt lat="37.04943463176999" lon="14.70857026021862"><ele>575.8</ele><time>2026-04-04T09:16:40Z</time></trkpt><trkpt lat="37.049522768465145" lon="14.708518433212777"><ele>572.2</ele><time>2026-04-04T09:16:42Z</time></trkpt><trkpt lat="37.049542331768755" lon="14.708425783203875"><ele>568.6</ele><time>2026-04-04T09:17:10Z</time></trkpt><trkpt lat="37.049483831477644" lon="14.708329153217134"><ele>565.0</ele><time>2026-04-04T09:17:12Z</time></trkpt><trkpt lat="37.049442918167564" lon="14.708206973969054"><ele>565.0</ele><time>2026-04-04T09:17:14Z</time></trkpt><trkpt lat="37.049419350947666" lon="14.708101129357553"><ele>565.0</ele><time>2026-04-04T09:17:16Z</time></trkpt><trkpt lat="37.04951389954927" lon="14.7080456505203"><ele>565.0</ele><time>2026-04-04T09:17:18Z</time></trkpt><trkpt lat="37.04960542577743" lon="14.708013756681366"><ele>565.0</ele><time>2026-04-04T09:17:20Z</time></trkpt><trkpt lat="37.049614768927015" lon="14.707918089671061"><ele>565.0</ele><time>2026-04-04T09:17:22Z</time></trkpt><trkpt lat="37.04959247310991" lon="14.707808368425242"><ele>562.5</ele><time>2026-04-04T09:17:24Z</time></trkpt><trkpt lat="37.04961920710688" lon="14.707683529678693"><ele>560.0</ele><time>2026-04-04T09:17:26Z</time></trkpt><trkpt lat="37.04965930264104" lon="14.707608694889108"><ele>557.5</ele><time>2026-04-04T09:17:28Z</time></trkpt><trkpt lat="37.049687855561814" lon="14.707529596774656"><ele>555.0</ele><time>2026-04-04T09:17:30Z</time></trkpt><trkpt lat="37.049734513592966" lon="14.70746830902347"><ele>552.5</ele><time>2026-04-04T09:17:32Z</time></trkpt><trkpt lat="37.04974139431002" lon="14.707372214294411"><ele>550.0</ele><time>2026-04-04T09:17:34Z</time></trkpt><trkpt lat="37.04975203984568" lon="14.70727711264056"><ele>550.0</ele><time>2026-04-04T09:17:35Z</time></trkpt><trkpt lat="37.049798947484994" lon="14.707187894007816"><ele>550.0</ele><time>2026-04-04T09:17:37Z</time></trkpt><trkpt lat="37.04985923147679" lon="14.7071534931127"><ele>550.0</ele><time>2026-04-04T09:17:38Z</time></trkpt><trkpt lat="37.049955636079275" lon="14.70708946389238"><ele>550.0</ele><time>2026-04-04T09:17:42Z</time></trkpt><trkpt lat="37.05003760659559" lon="14.707089149882899"><ele>550.0</ele><time>2026-04-04T09:17:45Z</time></trkpt><trkpt lat="37.05011881668858" lon="14.707134307636016"><ele>550.0</ele><time>2026-04-04T09:17:48Z</time></trkpt><trkpt lat="37.0502009717914" lon="14.707149731410643"><ele>548.8333333333334</ele><time>2026-04-04T09:17:49Z</time></trkpt><trkpt lat="37.050278189606395" lon="14.707136285261456"><ele>547.6666666666667</ele><time>2026-04-04T09:17:51Z</time></trkpt><trkpt lat="37.05027380091269" lon="14.707044010058778"><ele>546.5</ele><time>2026-04-04T09:17:54Z</time></trkpt><trkpt lat="37.050335349101324" lon="14.70699595652681"><ele>545.3333333333334</ele><time>2026-04-04T09:17:56Z</time></trkpt><trkpt lat="37.050439698693516" lon="14.707023016245781"><ele>544.1666666666666</ele><time>2026-04-04T09:17:58Z</time></trkpt><trkpt lat="37.050526989089974" lon="14.707031051453564"><ele>543.0</ele><time>2026-04-04T09:18:00Z</time></trkpt><trkpt lat="37.05059458257903" lon="14.707055122258165"><ele>543.0</ele><time>2026-04-04T09:18:02Z</time></trkpt><trkpt lat="37.05069105927294" lon="14.707057031971749"><ele>543.0</ele><time>2026-04-04T09:18:05Z</time></trkpt><trkpt lat="37.05077602156949" lon="14.707040260101833"><ele>543.0</ele><time>2026-04-04T09:18:07Z</time></trkpt><trkpt lat="37.05072532584841" lon="14.706962488727198"><ele>543.0</ele><time>2026-04-04T09:18:13Z</time></trkpt><trkpt lat="37.05065150287601" lon="14.706801766230196"><ele>543.0</ele><time>2026-04-04T09:19:04Z</time></trkpt><trkpt lat="37.05058549980934" lon="14.70670598980185"><ele>540.4</ele><time>2026-04-04T09:19:05Z</time></trkpt><trkpt lat="37.05052647991107" lon="14.706643834245009"><ele>537.8</ele><time>2026-04-04T09:19:06Z</time></trkpt><trkpt lat="37.05052789749566" lon="14.706519823731282"><ele>535.2</ele><time>2026-04-04T09:19:07Z</time></trkpt><trkpt lat="37.050437129732295" lon="14.706445413607584"><ele>532.6</ele><time>2026-04-04T09:19:09Z</time></trkpt><trkpt lat="37.050351396671815" lon="14.706360875445755"><ele>530.0</ele><time>2026-04-04T09:19:11Z</time></trkpt><trkpt lat="37.050277611755874" lon="14.706263408717838"><ele>530.0</ele><time>2026-04-04T09:19:13Z</time></trkpt><trkpt lat="37.050223820879964" lon="14.70616584824526"><ele>530.0</ele><time>2026-04-04T09:19:15Z</time></trkpt><trkpt lat="37.05017001871364" lon="14.706102546492744"><ele>530.0</ele><time>2026-04-04T09:19:17Z</time></trkpt><trkpt lat="37.04987966843951" lon="14.706313235259124"><ele>531.4</ele><time>2026-04-04T09:19:18Z</time></trkpt><trkpt lat="37.049814342967466" lon="14.706311287277414"><ele>532.8</ele><time>2026-04-04T09:19:19Z</time></trkpt><trkpt lat="37.04971256551598" lon="14.706322614087695"><ele>534.2</ele><time>2026-04-04T09:19:21Z</time></trkpt><trkpt lat="37.04964426456392" lon="14.706404974911935"><ele>535.6</ele><time>2026-04-04T09:19:23Z</time></trkpt><trkpt lat="37.04958096621728" lon="14.706493503782408"><ele>537.0</ele><time>2026-04-04T09:19:25Z</time></trkpt><trkpt lat="37.04951461017707" lon="14.706581128344661"><ele>537.0</ele><time>2026-04-04T09:19:27Z</time></trkpt><trkpt lat="37.04945502072661" lon="14.706685447987747"><ele>537.0</ele><time>2026-04-04T09:19:29Z</time></trkpt><trkpt lat="37.04938668034262" lon="14.706774064803954"><ele>537.0</ele><time>2026-04-04T09:19:31Z</time></trkpt><trkpt lat="37.04933127911818" lon="14.706820605989378"><ele>537.0</ele><time>2026-04-04T09:19:33Z</time></trkpt><trkpt lat="37.049184085117616" lon="14.707043107491128"><ele>539.1666666666666</ele><time>2026-04-04T09:19:35Z</time></trkpt><trkpt lat="37.049147115072046" lon="14.707115591196043"><ele>541.3333333333334</ele><time>2026-04-04T09:19:36Z</time></trkpt><trkpt lat="37.04909138019509" lon="14.707218079578785"><ele>543.5</ele><time>2026-04-04T09:19:38Z</time></trkpt><trkpt lat="37.049066569932464" lon="14.707317266892048"><ele>545.6666666666667</ele><time>2026-04-04T09:19:40Z</time></trkpt><trkpt lat="37.04904336145647" lon="14.707426444588535"><ele>547.8333333333334</ele><time>2026-04-04T09:19:42Z</time></trkpt><trkpt lat="37.048990972932316" lon="14.707489494379955"><ele>550.0</ele><time>2026-04-04T09:19:44Z</time></trkpt><trkpt lat="37.04895257275627" lon="14.70755228724025"><ele>550.6666666666667</ele><time>2026-04-04T09:19:46Z</time></trkpt><trkpt lat="37.04897428004959" lon="14.707432068741038"><ele>551.3333333333334</ele><time>2026-04-04T09:19:56Z</time></trkpt><trkpt lat="37.048940640130375" lon="14.70749969805355"><ele>552.0</ele><time>2026-04-04T09:19:59Z</time></trkpt><trkpt lat="37.04890549788089" lon="14.707573723466206"><ele>552.6666666666666</ele><time>2026-04-04T09:20:02Z</time></trkpt><trkpt lat="37.048835403583276" lon="14.707635810991652"><ele>553.3333333333333</ele><time>2026-04-04T09:20:06Z</time></trkpt><trkpt lat="37.0488029417176" lon="14.707722273774253"><ele>554.0</ele><time>2026-04-04T09:20:08Z</time></trkpt><trkpt lat="37.04876971139532" lon="14.70779710951247"><ele>557.0</ele><time>2026-04-04T09:20:10Z</time></trkpt><trkpt lat="37.048723286126155" lon="14.707907427773161"><ele>560.0</ele><time>2026-04-04T09:20:14Z</time></trkpt><trkpt lat="37.04868315116662" lon="14.708001926059248"><ele>563.0</ele><time>2026-04-04T09:22:41Z</time></trkpt><trkpt lat="37.048648900428816" lon="14.708095906525115"><ele>566.0</ele><time>2026-04-04T09:22:43Z</time></trkpt><trkpt lat="37.04860709545542" lon="14.708188070898176"><ele>569.0</ele><time>2026-04-04T09:22:46Z</time></trkpt><trkpt lat="37.04855582359942" lon="14.708275032927185"><ele>572.0</ele><time>2026-04-04T09:22:48Z</time></trkpt><trkpt lat="37.04849901714642" lon="14.708326066969875"><ele>572.0</ele><time>2026-04-04T09:22:50Z</time></trkpt><trkpt lat="37.04848647982263" lon="14.708430527393864"><ele>572.0</ele><time>2026-04-04T09:22:53Z</time></trkpt><trkpt lat="37.04845470839421" lon="14.708513211883444"><ele>572.0</ele><time>2026-04-04T09:22:56Z</time></trkpt><trkpt lat="37.0484354398414" lon="14.708603930065676"><ele>572.0</ele><time>2026-04-04T09:24:02Z</time></trkpt><trkpt lat="37.04836420483454" lon="14.708678959711726"><ele>572.0</ele><time>2026-04-04T09:24:05Z</time></trkpt><trkpt lat="37.048312017501736" lon="14.70875297960026"><ele>572.0</ele><time>2026-04-04T09:24:08Z</time></trkpt><trkpt lat="37.04829685345105" lon="14.708838335995278"><ele>575.8333333333333</ele><time>2026-04-04T09:24:23Z</time></trkpt><trkpt lat="37.04827231243544" lon="14.708921801082255"><ele>579.6666666666666</ele><time>2026-04-04T09:24:25Z</time></trkpt><trkpt lat="37.048230213583246" lon="14.708993499181682"><ele>583.5</ele><time>2026-04-04T09:24:28Z</time></trkpt><trkpt lat="37.04816962034854" lon="14.70902974767068"><ele>587.3333333333334</ele><time>2026-04-04T09:25:05Z</time></trkpt><trkpt lat="37.048104778819535" lon="14.709169663011556"><ele>591.1666666666667</ele><time>2026-04-04T09:26:43Z</time></trkpt><trkpt lat="37.04805275491231" lon="14.70925930596126"><ele>595.0</ele><time>2026-04-04T09:26:46Z</time></trkpt><trkpt lat="37.04802753281794" lon="14.709358060694404"><ele>596.2857142857143</ele><time>2026-04-04T09:26:50Z</time></trkpt><trkpt lat="37.048018277850346" lon="14.70943989169816"><ele>597.5714285714286</ele><time>2026-04-04T09:26:53Z</time></trkpt><trkpt lat="37.047971806746666" lon="14.709519376559934"><ele>598.8571428571429</ele><time>2026-04-04T09:26:57Z</time></trkpt><trkpt lat="37.04793300597687" lon="14.709588629137269"><ele>600.1428571428571</ele><time>2026-04-04T09:27:00Z</time></trkpt><trkpt lat="37.047874428820606" lon="14.709666577342718"><ele>601.4285714285714</ele><time>2026-04-04T09:27:04Z</time></trkpt><trkpt lat="37.04784528356779" lon="14.709738409474681"><ele>602.7142857142858</ele><time>2026-04-04T09:27:10Z</time></trkpt><trkpt lat="37.04779867649367" lon="14.709811933328744"><ele>604.0</ele><time>2026-04-04T09:30:17Z</time></trkpt><trkpt lat="37.04776289182029" lon="14.709887045387294"><ele>604.0</ele><time>2026-04-04T09:30:19Z</time></trkpt><trkpt lat="37.04772409929728" lon="14.709976557478985"><ele>604.0</ele><time>2026-04-04T09:30:21Z</time></trkpt><trkpt lat="37.04768239338412" lon="14.710087203156265"><ele>604.0</ele><time>2026-04-04T09:30:24Z</time></trkpt><trkpt lat="37.04768146544443" lon="14.710179634222355"><ele>604.0</ele><time>2026-04-04T09:30:26Z</time></trkpt><trkpt lat="37.047716194908986" lon="14.710314797900015"><ele>604.0</ele><time>2026-04-04T09:31:06Z</time></trkpt><trkpt lat="37.04768610368781" lon="14.7102389679956"><ele>604.0</ele><time>2026-04-04T09:34:13Z</time></trkpt><trkpt lat="37.0476999442165" lon="14.710333941368617"><ele>602.8</ele><time>2026-04-04T09:38:31Z</time></trkpt><trkpt lat="37.047779483937816" lon="14.710481447421751"><ele>601.5999999999999</ele><time>2026-04-04T09:38:34Z</time></trkpt><trkpt lat="37.04784762624814" lon="14.710576360072304"><ele>600.4</ele><time>2026-04-04T09:38:36Z</time></trkpt><trkpt lat="37.04790729142216" lon="14.710667136837744"><ele>599.1999999999999</ele><time>2026-04-04T09:38:38Z</time></trkpt><trkpt lat="37.0479517061176" lon="14.71076390120713"><ele>598.0</ele><time>2026-04-04T09:38:40Z</time></trkpt><trkpt lat="37.048006132256276" lon="14.710843506935278"><ele>598.0</ele><time>2026-04-04T09:38:42Z</time></trkpt><trkpt lat="37.04807654473053" lon="14.710890027165203"><ele>598.0</ele><time>2026-04-04T09:38:44Z</time></trkpt><trkpt lat="37.04816728738426" lon="14.71088659750276"><ele>598.0</ele><time>2026-04-04T09:38:46Z</time></trkpt><trkpt lat="37.04825632583419" lon="14.71087672381354"><ele>598.0</ele><time>2026-04-04T09:38:48Z</time></trkpt><trkpt lat="37.048318638025634" lon="14.710889629336583"><ele>598.0</ele><time>2026-04-04T09:38:49Z</time></trkpt><trkpt lat="37.04840060810674" lon="14.710913053709863"><ele>598.0</ele><time>2026-04-04T09:38:50Z</time></trkpt><trkpt lat="37.0484846450126" lon="14.710949192080205"><ele>602.1666666666667</ele><time>2026-04-04T09:38:51Z</time></trkpt><trkpt lat="37.048558189013036" lon="14.710988940282935"><ele>606.3333333333334</ele><time>2026-04-04T09:38:52Z</time></trkpt><trkpt lat="37.048622010084024" lon="14.711028983897881"><ele>610.5</ele><time>2026-04-04T09:38:53Z</time></trkpt><trkpt lat="37.04871259336519" lon="14.711126424874646"><ele>614.6666666666666</ele><time>2026-04-04T09:38:55Z</time></trkpt><trkpt lat="37.048769624091626" lon="14.711177926978735"><ele>618.8333333333333</ele><time>2026-04-04T09:38:56Z</time></trkpt><trkpt lat="37.04881418496365" lon="14.711268443907729"><ele>623.0</ele><time>2026-04-04T09:38:57Z</time></trkpt><trkpt lat="37.0488847222192" lon="14.711397457380448"><ele>624.1666666666666</ele><time>2026-04-04T09:38:59Z</time></trkpt><trkpt lat="37.04892210388965" lon="14.711465131004466"><ele>625.3333333333333</ele><time>2026-04-04T09:39:00Z</time></trkpt><trkpt lat="37.04897109439061" lon="14.711538838072789"><ele>626.5</ele><time>2026-04-04T09:39:01Z</time></trkpt><trkpt lat="37.04901440623056" lon="14.711597881907897"><ele>627.6666666666666</ele><time>2026-04-04T09:39:02Z</time></trkpt><trkpt lat="37.04905861560462" lon="14.711656229179466"><ele>628.8333333333334</ele><time>2026-04-04T09:39:03Z</time></trkpt><trkpt lat="37.04915487648301" lon="14.711765849155771"><ele>630.0</ele><time>2026-04-04T09:39:05Z</time></trkpt><trkpt lat="37.04921072510003" lon="14.71183736414715"><ele>632.8</ele><time>2026-04-04T09:39:06Z</time></trkpt><trkpt lat="37.04928536612917" lon="14.711918034836259"><ele>635.6</ele><time>2026-04-04T09:39:07Z</time></trkpt><trkpt lat="37.04936107674478" lon="14.712010242955314"><ele>638.4000000000001</ele><time>2026-04-04T09:39:08Z</time></trkpt><trkpt lat="37.049400170837025" lon="14.712103872928333"><ele>641.2</ele><time>2026-04-04T09:39:09Z</time></trkpt><trkpt lat="37.04943279118368" lon="14.712191627742907"><ele>644.0</ele><time>2026-04-04T09:39:10Z</time></trkpt><trkpt lat="37.04944297460589" lon="14.71229751527051"><ele>644.0</ele><time>2026-04-04T09:39:11Z</time></trkpt><trkpt lat="37.04944434651625" lon="14.712401588933764"><ele>644.0</ele><time>2026-04-04T09:39:12Z</time></trkpt><trkpt lat="37.04943296846433" lon="14.712509743218728"><ele>644.0</ele><time>2026-04-04T09:39:13Z</time></trkpt><trkpt lat="37.04941207962588" lon="14.712621784284838"><ele>644.0</ele><time>2026-04-04T09:39:14Z</time></trkpt><trkpt lat="37.04939929351075" lon="14.712725792046339"><ele>644.0</ele><time>2026-04-04T09:39:15Z</time></trkpt><trkpt lat="37.0493912805657" lon="14.712831407747863"><ele>644.0</ele><time>2026-04-04T09:39:16Z</time></trkpt><trkpt lat="37.04938846713886" lon="14.712937649140237"><ele>643.8000000000001</ele><time>2026-04-04T09:39:17Z</time></trkpt><trkpt lat="37.04937372330967" lon="14.713068657379319"><ele>643.6</ele><time>2026-04-04T09:39:18Z</time></trkpt><trkpt lat="37.04934662559166" lon="14.71317511969946"><ele>643.4</ele><time>2026-04-04T09:39:19Z</time></trkpt><trkpt lat="37.04931353731107" lon="14.71329139224048"><ele>643.2</ele><time>2026-04-04T09:39:20Z</time></trkpt><trkpt lat="37.049277691837915" lon="14.713409086452872"><ele>643.0</ele><time>2026-04-04T09:39:21Z</time></trkpt><trkpt lat="37.04924437430373" lon="14.71353035047794"><ele>643.5999999999999</ele><time>2026-04-04T09:39:22Z</time></trkpt><trkpt lat="37.04921429735387" lon="14.713654119326396"><ele>644.1999999999999</ele><time>2026-04-04T09:39:23Z</time></trkpt><trkpt lat="37.04918285887616" lon="14.713776409473155"><ele>644.8</ele><time>2026-04-04T09:39:24Z</time></trkpt><trkpt lat="37.04915881159113" lon="14.71390581167592"><ele>645.4</ele><time>2026-04-04T09:39:25Z</time></trkpt><trkpt lat="37.049146834444585" lon="14.714043568516043"><ele>646.0</ele><time>2026-04-04T09:39:26Z</time></trkpt><trkpt lat="37.04914844847297" lon="14.714172665396584"><ele>646.0</ele><time>2026-04-04T09:39:27Z</time></trkpt><trkpt lat="37.049148864255216" lon="14.714294864268366"><ele>646.0</ele><time>2026-04-04T09:39:28Z</time></trkpt><trkpt lat="37.049144778992336" lon="14.714412974745704"><ele>646.0</ele><time>2026-04-04T09:39:29Z</time></trkpt><trkpt lat="37.04915957340897" lon="14.714518165458593"><ele>646.0</ele><time>2026-04-04T09:39:30Z</time></trkpt><trkpt lat="37.0491881188887" lon="14.714615753875963"><ele>646.0</ele><time>2026-04-04T09:39:31Z</time></trkpt><trkpt lat="37.049232541276176" lon="14.71469444134453"><ele>646.0</ele><time>2026-04-04T09:39:32Z</time></trkpt><trkpt lat="37.04928174424296" lon="14.714749926544949"><ele>647.8333333333334</ele><time>2026-04-04T09:39:33Z</time></trkpt><trkpt lat="37.04935844730589" lon="14.714779256819478"><ele>649.6666666666667</ele><time>2026-04-04T09:39:34Z</time></trkpt><trkpt lat="37.049440466617035" lon="14.714772278667064"><ele>651.5</ele><time>2026-04-04T09:39:35Z</time></trkpt><trkpt lat="37.04952594233099" lon="14.71474674636783"><ele>653.3333333333334</ele><time>2026-04-04T09:39:36Z</time></trkpt><trkpt lat="37.049600594688165" lon="14.714690879453766"><ele>655.1666666666666</ele><time>2026-04-04T09:39:37Z</time></trkpt><trkpt lat="37.04967274478575" lon="14.714606885673648"><ele>657.0</ele><time>2026-04-04T09:39:38Z</time></trkpt><trkpt lat="37.04974628978679" lon="14.714494100802373"><ele>657.0</ele><time>2026-04-04T09:39:39Z</time></trkpt><trkpt lat="37.04983808133484" lon="14.7144070807554"><ele>657.0</ele><time>2026-04-04T09:39:40Z</time></trkpt><trkpt lat="37.04993222362725" lon="14.71432895130614"><ele>657.0</ele><time>2026-04-04T09:39:41Z</time></trkpt><trkpt lat="37.050014324353995" lon="14.714261923280683"><ele>657.0</ele><time>2026-04-04T09:39:42Z</time></trkpt><trkpt lat="37.05009621427282" lon="14.714201421892655"><ele>657.0</ele><time>2026-04-04T09:39:43Z</time></trkpt><trkpt lat="37.05018805834085" lon="14.714121478554777"><ele>654.4000000000001</ele><time>2026-04-04T09:39:44Z</time></trkpt><trkpt lat="37.05028211571334" lon="14.714050604826598"><ele>651.8000000000001</ele><time>2026-04-04T09:39:45Z</time></trkpt><trkpt lat="37.050382967726506" lon="14.713983476913373"><ele>649.2</ele><time>2026-04-04T09:39:46Z</time></trkpt><trkpt lat="37.050483205371" lon="14.713918854132487"><ele>646.6</ele><time>2026-04-04T09:39:47Z</time></trkpt><trkpt lat="37.050584763928924" lon="14.71386278978063"><ele>644.0</ele><time>2026-04-04T09:39:48Z</time></trkpt><trkpt lat="37.050671690195784" lon="14.713815851111637"><ele>644.0</ele><time>2026-04-04T09:39:49Z</time></trkpt><trkpt lat="37.05074216607354" lon="14.7137897962913"><ele>644.0</ele><time>2026-04-04T09:39:50Z</time></trkpt><trkpt lat="37.050864588063824" lon="14.713773599349343"><ele>644.0</ele><time>2026-04-04T09:39:52Z</time></trkpt><trkpt lat="37.05094016532694" lon="14.713799494984825"><ele>644.0</ele><time>2026-04-04T09:39:53Z</time></trkpt><trkpt lat="37.05101399824975" lon="14.713855908017738"><ele>644.0</ele><time>2026-04-04T09:39:54Z</time></trkpt><trkpt lat="37.051083255945294" lon="14.713926931799904"><ele>645.8000000000001</ele><time>2026-04-04T09:39:55Z</time></trkpt><trkpt lat="37.05116474837808" lon="14.713999648594559"><ele>647.6</ele><time>2026-04-04T09:39:56Z</time></trkpt><trkpt lat="37.051236184645475" lon="14.714080444079292"><ele>649.4</ele><time>2026-04-04T09:39:57Z</time></trkpt><trkpt lat="37.051289524665556" lon="14.714167322424434"><ele>651.2</ele><time>2026-04-04T09:39:58Z</time></trkpt><trkpt lat="37.05133783846442" lon="14.71426224455643"><ele>653.0</ele><time>2026-04-04T09:39:59Z</time></trkpt><trkpt lat="37.051359430675404" lon="14.714359407729503"><ele>655.4</ele><time>2026-04-04T09:40:00Z</time></trkpt><trkpt lat="37.05138169976398" lon="14.71446319019584"><ele>657.8</ele><time>2026-04-04T09:40:01Z</time></trkpt><trkpt lat="37.05138994104999" lon="14.714569064639731"><ele>660.2</ele><time>2026-04-04T09:40:02Z</time></trkpt><trkpt lat="37.051387777345624" lon="14.71468531139877"><ele>662.6</ele><time>2026-04-04T09:40:03Z</time></trkpt><trkpt lat="37.05136633573735" lon="14.714814904440376"><ele>665.0</ele><time>2026-04-04T09:40:04Z</time></trkpt><trkpt lat="37.05133823205807" lon="14.714926461450322"><ele>665.0</ele><time>2026-04-04T09:40:05Z</time></trkpt><trkpt lat="37.05130553809308" lon="14.715054799298162"><ele>665.0</ele><time>2026-04-04T09:40:06Z</time></trkpt><trkpt lat="37.0512732096849" lon="14.71518101556694"><ele>665.0</ele><time>2026-04-04T09:40:07Z</time></trkpt><trkpt lat="37.05122873189671" lon="14.715311738018901"><ele>665.0</ele><time>2026-04-04T09:40:08Z</time></trkpt><trkpt lat="37.05117845065999" lon="14.715433215436692"><ele>665.0</ele><time>2026-04-04T09:40:09Z</time></trkpt><trkpt lat="37.051115870184724" lon="14.715563847715524"><ele>666.4</ele><time>2026-04-04T09:40:10Z</time></trkpt><trkpt lat="37.05104909285879" lon="14.715666989337526"><ele>667.8</ele><time>2026-04-04T09:40:11Z</time></trkpt><trkpt lat="37.05098466599049" lon="14.715778572661604"><ele>669.2</ele><time>2026-04-04T09:40:12Z</time></trkpt><trkpt lat="37.05092198689358" lon="14.715880130666754"><ele>670.6</ele><time>2026-04-04T09:40:13Z</time></trkpt><trkpt lat="37.05085501833482" lon="14.715969484431657"><ele>672.0</ele><time>2026-04-04T09:40:14Z</time></trkpt><trkpt lat="37.05078938888281" lon="14.716059330843654"><ele>671.4000000000001</ele><time>2026-04-04T09:40:15Z</time></trkpt><trkpt lat="37.050728984615716" lon="14.716142908090065"><ele>670.8000000000001</ele><time>2026-04-04T09:40:16Z</time></trkpt><trkpt lat="37.0506682723132" lon="14.71624178336052"><ele>670.2</ele><time>2026-04-04T09:40:17Z</time></trkpt><trkpt lat="37.05061061622192" lon="14.716344467900104"><ele>669.6</ele><time>2026-04-04T09:40:18Z</time></trkpt><trkpt lat="37.050552555242746" lon="14.71647105898561"><ele>669.0</ele><time>2026-04-04T09:40:19Z</time></trkpt><trkpt lat="37.05050241456559" lon="14.716603749308144"><ele>669.0</ele><time>2026-04-04T09:40:20Z</time></trkpt><trkpt lat="37.05046288654332" lon="14.7167323801252"><ele>669.0</ele><time>2026-04-04T09:40:21Z</time></trkpt><trkpt lat="37.050441790540724" lon="14.716840380411755"><ele>669.0</ele><time>2026-04-04T09:40:22Z</time></trkpt><trkpt lat="37.05043022552665" lon="14.716940664501799"><ele>669.0</ele><time>2026-04-04T09:40:23Z</time></trkpt><trkpt lat="37.05042921410812" lon="14.717032849444573"><ele>669.0</ele><time>2026-04-04T09:40:24Z</time></trkpt><trkpt lat="37.050424314670714" lon="14.717117104100229"><ele>669.0</ele><time>2026-04-04T09:40:25Z</time></trkpt><trkpt lat="37.050415118131085" lon="14.71720546245764"><ele>668.0</ele><time>2026-04-04T09:40:26Z</time></trkpt><trkpt lat="37.05039404193518" lon="14.717292317135609"><ele>667.0</ele><time>2026-04-04T09:40:27Z</time></trkpt><trkpt lat="37.050377491650266" lon="14.717382203099977"><ele>666.0</ele><time>2026-04-04T09:40:28Z</time></trkpt><trkpt lat="37.050370391042506" lon="14.717503663395293"><ele>665.0</ele><time>2026-04-04T09:40:30Z</time></trkpt><trkpt lat="37.05040285447981" lon="14.717605476172348"><ele>664.0</ele><time>2026-04-04T09:40:32Z</time></trkpt><trkpt lat="37.05049603780972" lon="14.717618348837213"><ele>663.0</ele><time>2026-04-04T09:40:34Z</time></trkpt><trkpt lat="37.050594795413915" lon="14.717513279436478"><ele>663.0</ele><time>2026-04-04T09:40:36Z</time></trkpt><trkpt lat="37.05065399521761" lon="14.717402615526186"><ele>663.0</ele><time>2026-04-04T09:40:37Z</time></trkpt><trkpt lat="37.05072650890327" lon="14.717278665158446"><ele>663.0</ele><time>2026-04-04T09:40:38Z</time></trkpt><trkpt lat="37.050812010359344" lon="14.717162896597051"><ele>663.0</ele><time>2026-04-04T09:40:39Z</time></trkpt><trkpt lat="37.05088796524525" lon="14.717077853345138"><ele>660.2</ele><time>2026-04-04T09:40:40Z</time></trkpt><trkpt lat="37.05097250611406" lon="14.717025357011169"><ele>657.4</ele><time>2026-04-04T09:40:41Z</time></trkpt><trkpt lat="37.051062541561826" lon="14.716983501633326"><ele>654.6</ele><time>2026-04-04T09:40:42Z</time></trkpt><trkpt lat="37.051150894175095" lon="14.716955327805197"><ele>651.8000000000001</ele><time>2026-04-04T09:40:43Z</time></trkpt><trkpt lat="37.05124194360709" lon="14.716933845238426"><ele>649.0</ele><time>2026-04-04T09:40:44Z</time></trkpt><trkpt lat="37.05133237048588" lon="14.716924299124933"><ele>649.0</ele><time>2026-04-04T09:40:45Z</time></trkpt><trkpt lat="37.05141397094747" lon="14.716910045170373"><ele>649.0</ele><time>2026-04-04T09:40:46Z</time></trkpt><trkpt lat="37.05147850092879" lon="14.71688468510048"><ele>649.0</ele><time>2026-04-04T09:40:47Z</time></trkpt><trkpt lat="37.051545162128406" lon="14.716852030334005"><ele>649.0</ele><time>2026-04-04T09:40:48Z</time></trkpt><trkpt lat="37.051632712215124" lon="14.71681046647245"><ele>649.0</ele><time>2026-04-04T09:40:49Z</time></trkpt><trkpt lat="37.0517307731013" lon="14.716748347931366"><ele>649.0</ele><time>2026-04-04T09:40:50Z</time></trkpt><trkpt lat="37.05181223162989" lon="14.716688741706076"><ele>647.6666666666667</ele><time>2026-04-04T09:40:51Z</time></trkpt><trkpt lat="37.05188979979284" lon="14.71662545083074"><ele>646.3333333333334</ele><time>2026-04-04T09:40:52Z</time></trkpt><trkpt lat="37.05196756126973" lon="14.716575175373464"><ele>645.0</ele><time>2026-04-04T09:40:53Z</time></trkpt><trkpt lat="37.0520379606448" lon="14.716530898537165"><ele>643.6666666666666</ele><time>2026-04-04T09:40:54Z</time></trkpt><trkpt lat="37.052097125981135" lon="14.716484026788184"><ele>642.3333333333333</ele><time>2026-04-04T09:40:55Z</time></trkpt><trkpt lat="37.052156862401176" lon="14.71643410499644"><ele>641.0</ele><time>2026-04-04T09:40:56Z</time></trkpt><trkpt lat="37.05221370974854" lon="14.716391038857347"><ele>641.0</ele><time>2026-04-04T09:40:57Z</time></trkpt><trkpt lat="37.05228487885388" lon="14.716342545043519"><ele>641.0</ele><time>2026-04-04T09:40:59Z</time></trkpt><trkpt lat="37.05233839636786" lon="14.71629097355469"><ele>641.0</ele><time>2026-04-04T09:41:05Z</time></trkpt><trkpt lat="37.0524083614752" lon="14.716248693147648"><ele>641.0</ele><time>2026-04-04T09:41:36Z</time></trkpt><trkpt lat="37.05253464461236" lon="14.716130985704616"><ele>641.0</ele><time>2026-04-04T09:41:38Z</time></trkpt><trkpt lat="37.05264422265665" lon="14.716035059926229"><ele>638.75</ele><time>2026-04-04T09:41:39Z</time></trkpt><trkpt lat="37.05276029893907" lon="14.715919996203464"><ele>636.5</ele><time>2026-04-04T09:41:40Z</time></trkpt><trkpt lat="37.052872840703834" lon="14.715806319094982"><ele>634.25</ele><time>2026-04-04T09:41:41Z</time></trkpt><trkpt lat="37.05295104810745" lon="14.715714156987739"><ele>632.0</ele><time>2026-04-04T09:41:42Z</time></trkpt><trkpt lat="37.05301297209779" lon="14.715645814925134"><ele>632.0</ele><time>2026-04-04T09:41:43Z</time></trkpt><trkpt lat="37.05311887599916" lon="14.715590556273842"><ele>632.0</ele><time>2026-04-04T09:41:45Z</time></trkpt><trkpt lat="37.05324507414994" lon="14.71563411031916"><ele>632.0</ele><time>2026-04-04T09:41:47Z</time></trkpt><trkpt lat="37.053317429940996" lon="14.715647394251379"><ele>632.0</ele><time>2026-04-04T09:41:48Z</time></trkpt><trkpt lat="37.05342735307381" lon="14.715712397554547"><ele>632.0</ele><time>2026-04-04T09:41:50Z</time></trkpt><trkpt lat="37.053478975544046" lon="14.715847415591425"><ele>633.0</ele><time>2026-04-04T09:41:52Z</time></trkpt><trkpt lat="37.05345957683995" lon="14.715938979213076"><ele>634.0</ele><time>2026-04-04T09:41:53Z</time></trkpt><trkpt lat="37.05343857598028" lon="14.716024198087243"><ele>635.0</ele><time>2026-04-04T09:41:54Z</time></trkpt><trkpt lat="37.053401601825456" lon="14.716131602988613"><ele>636.0</ele><time>2026-04-04T09:41:55Z</time></trkpt><trkpt lat="37.053369827431126" lon="14.716234956441555"><ele>637.0</ele><time>2026-04-04T09:41:56Z</time></trkpt><trkpt lat="37.05335015753734" lon="14.716338514773177"><ele>638.0</ele><time>2026-04-04T09:41:57Z</time></trkpt><trkpt lat="37.053338333700204" lon="14.716432135188086"><ele>638.8</ele><time>2026-04-04T09:41:58Z</time></trkpt><trkpt lat="37.053324849515654" lon="14.716532973449427"><ele>639.5999999999999</ele><time>2026-04-04T09:41:59Z</time></trkpt><trkpt lat="37.05331523874544" lon="14.716641324694406"><ele>640.4000000000001</ele><time>2026-04-04T09:42:00Z</time></trkpt><trkpt lat="37.05330725511929" lon="14.716762477997957"><ele>641.2</ele><time>2026-04-04T09:42:01Z</time></trkpt><trkpt lat="37.05329787747911" lon="14.7168844150198"><ele>642.0</ele><time>2026-04-04T09:42:02Z</time></trkpt><trkpt lat="37.05329044668934" lon="14.717006452791983"><ele>649.5</ele><time>2026-04-04T09:42:03Z</time></trkpt><trkpt lat="37.05327563204873" lon="14.717137477908283"><ele>657.0</ele><time>2026-04-04T09:42:04Z</time></trkpt><trkpt lat="37.053246477395824" lon="14.717254110651995"><ele>664.5</ele><time>2026-04-04T09:42:05Z</time></trkpt><trkpt lat="37.053204905949684" lon="14.717398223700403"><ele>672.0</ele><time>2026-04-04T09:42:06Z</time></trkpt><trkpt lat="37.05314748647392" lon="14.717540480129925"><ele>672.0</ele><time>2026-04-04T09:42:07Z</time></trkpt><trkpt lat="37.05309554445602" lon="14.717680397398794"><ele>672.0</ele><time>2026-04-04T09:42:08Z</time></trkpt><trkpt lat="37.05305031424476" lon="14.717809171161637"><ele>672.0</ele><time>2026-04-04T09:42:09Z</time></trkpt><trkpt lat="37.0530119932987" lon="14.717941526969033"><ele>672.0</ele><time>2026-04-04T09:42:10Z</time></trkpt><trkpt lat="37.052978420713515" lon="14.718082230489994"><ele>671.25</ele><time>2026-04-04T09:42:11Z</time></trkpt><trkpt lat="37.052939090180544" lon="14.718213562664527"><ele>670.5</ele><time>2026-04-04T09:42:12Z</time></trkpt><trkpt lat="37.05290018260813" lon="14.718344235497804"><ele>669.75</ele><time>2026-04-04T09:42:13Z</time></trkpt><trkpt lat="37.052865789175726" lon="14.71847964256628"><ele>669.0</ele><time>2026-04-04T09:42:14Z</time></trkpt><trkpt lat="37.05284162648479" lon="14.71862220245866"><ele>666.2</ele><time>2026-04-04T09:42:15Z</time></trkpt><trkpt lat="37.05281948461033" lon="14.718768429240802"><ele>663.4000000000001</ele><time>2026-04-04T09:42:16Z</time></trkpt><trkpt lat="37.05279866305989" lon="14.718901156581165"><ele>660.6</ele><time>2026-04-04T09:42:17Z</time></trkpt><trkpt lat="37.052788550413396" lon="14.71903404707021"><ele>657.8</ele><time>2026-04-04T09:42:18Z</time></trkpt><trkpt lat="37.05278280388724" lon="14.71914494507925"><ele>655.0</ele><time>2026-04-04T09:42:19Z</time></trkpt><trkpt lat="37.052764393472586" lon="14.719259027007737"><ele>655.0</ele><time>2026-04-04T09:42:20Z</time></trkpt><trkpt lat="37.05273416650534" lon="14.719378003162753"><ele>655.0</ele><time>2026-04-04T09:42:21Z</time></trkpt><trkpt lat="37.052684099196924" lon="14.7194930073953"><ele>655.0</ele><time>2026-04-04T09:42:22Z</time></trkpt><trkpt lat="37.05265379397362" lon="14.719609701615585"><ele>655.0</ele><time>2026-04-04T09:42:23Z</time></trkpt><trkpt lat="37.052631936621694" lon="14.719707285765447"><ele>655.0</ele><time>2026-04-04T09:42:24Z</time></trkpt><trkpt lat="37.05259583551778" lon="14.719778339687142"><ele>652.8333333333334</ele><time>2026-04-04T09:42:25Z</time></trkpt><trkpt lat="37.052543674157654" lon="14.719841123804517"><ele>650.6666666666667</ele><time>2026-04-04T09:42:26Z</time></trkpt><trkpt lat="37.052485488728465" lon="14.719880584768495"><ele>648.5</ele><time>2026-04-04T09:42:27Z</time></trkpt><trkpt lat="37.05243650268242" lon="14.719932673598015"><ele>646.3333333333334</ele><time>2026-04-04T09:42:28Z</time></trkpt><trkpt lat="37.05237125174434" lon="14.720083248182712"><ele>644.1666666666666</ele><time>2026-04-04T09:42:30Z</time></trkpt><trkpt lat="37.052338124868" lon="14.72015119286229"><ele>642.0</ele><time>2026-04-04T09:42:31Z</time></trkpt><trkpt lat="37.05233912100295" lon="14.720254893399366"><ele>642.0</ele><time>2026-04-04T09:42:33Z</time></trkpt><trkpt lat="37.052422879525324" lon="14.720317560498605"><ele>642.0</ele><time>2026-04-04T09:42:35Z</time></trkpt><trkpt lat="37.052546872469996" lon="14.720298622135711"><ele>642.0</ele><time>2026-04-04T09:42:37Z</time></trkpt><trkpt lat="37.05262397563401" lon="14.72028477531372"><ele>642.0</ele><time>2026-04-04T09:42:38Z</time></trkpt><trkpt lat="37.052735057684345" lon="14.720259134506444"><ele>642.0</ele><time>2026-04-04T09:42:39Z</time></trkpt><trkpt lat="37.0528588199382" lon="14.720210882545594"><ele>642.0</ele><time>2026-04-04T09:42:40Z</time></trkpt><trkpt lat="37.05308721270974" lon="14.720025278251429"><ele>642.0</ele><time>2026-04-04T09:42:42Z</time></trkpt><trkpt lat="37.05319918271285" lon="14.719895847262878"><ele>642.0</ele><time>2026-04-04T09:42:43Z</time></trkpt><trkpt lat="37.05327016313527" lon="14.719768131520226"><ele>642.6</ele><time>2026-04-04T09:42:44Z</time></trkpt><trkpt lat="37.053319888146596" lon="14.719627718884555"><ele>643.2</ele><time>2026-04-04T09:42:45Z</time></trkpt><trkpt lat="37.05336015555193" lon="14.719513570787278"><ele>643.8</ele><time>2026-04-04T09:42:46Z</time></trkpt><trkpt lat="37.05341820400126" lon="14.719399377940707"><ele>644.4</ele><time>2026-04-04T09:42:47Z</time></trkpt><trkpt lat="37.05349328297712" lon="14.719288232104763"><ele>645.0</ele><time>2026-04-04T09:42:48Z</time></trkpt><trkpt lat="37.05355712066652" lon="14.719169446869106"><ele>642.1666666666666</ele><time>2026-04-04T09:42:49Z</time></trkpt><trkpt lat="37.05361266352132" lon="14.719047294658317"><ele>639.3333333333334</ele><time>2026-04-04T09:42:50Z</time></trkpt><trkpt lat="37.05367025284212" lon="14.718956964626782"><ele>636.5</ele><time>2026-04-04T09:42:51Z</time></trkpt><trkpt lat="37.05371424265402" lon="14.718879937732845"><ele>633.6666666666667</ele><time>2026-04-04T09:42:52Z</time></trkpt><trkpt lat="37.053738082050735" lon="14.718801344904419"><ele>630.8333333333334</ele><time>2026-04-04T09:42:53Z</time></trkpt><trkpt lat="37.0537660769901" lon="14.718712557579488"><ele>628.0</ele><time>2026-04-04T09:42:54Z</time></trkpt><trkpt lat="37.05380803657424" lon="14.718633443007377"><ele>629.0</ele><time>2026-04-04T09:42:55Z</time></trkpt><trkpt lat="37.053872053292686" lon="14.718567035580746"><ele>630.0</ele><time>2026-04-04T09:42:56Z</time></trkpt><trkpt lat="37.05395350385191" lon="14.718497378622166"><ele>631.0</ele><time>2026-04-04T09:42:57Z</time></trkpt><trkpt lat="37.05404942439622" lon="14.718403513273076"><ele>632.0</ele><time>2026-04-04T09:42:58Z</time></trkpt><trkpt lat="37.05415056299511" lon="14.718308543450494"><ele>633.0</ele><time>2026-04-04T09:42:59Z</time></trkpt><trkpt lat="37.054270620362175" lon="14.71819760388802"><ele>633.0</ele><time>2026-04-04T09:43:00Z</time></trkpt><trkpt lat="37.05437460811284" lon="14.718098562908205"><ele>633.0</ele><time>2026-04-04T09:43:01Z</time></trkpt><trkpt lat="37.05446770972534" lon="14.717989213706497"><ele>633.0</ele><time>2026-04-04T09:43:02Z</time></trkpt><trkpt lat="37.05454361799177" lon="14.717883322988916"><ele>633.0</ele><time>2026-04-04T09:43:03Z</time></trkpt><trkpt lat="37.054619989572736" lon="14.717779209976865"><ele>630.8</ele><time>2026-04-04T09:43:04Z</time></trkpt><trkpt lat="37.05470238343469" lon="14.71766863164166"><ele>628.5999999999999</ele><time>2026-04-04T09:43:05Z</time></trkpt><trkpt lat="37.05478209444122" lon="14.71756002171802"><ele>626.4000000000001</ele><time>2026-04-04T09:43:06Z</time></trkpt><trkpt lat="37.05484972224135" lon="14.717472132795017"><ele>624.2</ele><time>2026-04-04T09:43:07Z</time></trkpt><trkpt lat="37.05490039125151" lon="14.71740475643542"><ele>622.0</ele><time>2026-04-04T09:43:08Z</time></trkpt><trkpt lat="37.054988634484424" lon="14.717369520240767"><ele>622.0</ele><time>2026-04-04T09:43:10Z</time></trkpt><trkpt lat="37.0550445650954" lon="14.717455652730228"><ele>622.0</ele><time>2026-04-04T09:43:12Z</time></trkpt><trkpt lat="37.05503889564303" lon="14.717536771933823"><ele>622.0</ele><time>2026-04-04T09:43:13Z</time></trkpt><trkpt lat="37.055023545475706" lon="14.71763472999445"><ele>622.0</ele><time>2026-04-04T09:43:14Z</time></trkpt><trkpt lat="37.05499936868991" lon="14.71774197038495"><ele>622.0</ele><time>2026-04-04T09:43:15Z</time></trkpt><trkpt lat="37.054981047187155" lon="14.71788532109671"><ele>622.0</ele><time>2026-04-04T09:43:16Z</time></trkpt><trkpt lat="37.05497808467325" lon="14.718021875172436"><ele>625.5</ele><time>2026-04-04T09:43:17Z</time></trkpt><trkpt lat="37.054984924575606" lon="14.718167868402233"><ele>629.0</ele><time>2026-04-04T09:43:18Z</time></trkpt><trkpt lat="37.054985483323684" lon="14.718324857343172"><ele>632.5</ele><time>2026-04-04T09:43:19Z</time></trkpt><trkpt lat="37.05499857015651" lon="14.718468472229572"><ele>636.0</ele><time>2026-04-04T09:43:20Z</time></trkpt><trkpt lat="37.05503067729001" lon="14.718610974870025"><ele>639.75</ele><time>2026-04-04T09:43:21Z</time></trkpt><trkpt lat="37.05508470603346" lon="14.718756210654659"><ele>643.5</ele><time>2026-04-04T09:43:22Z</time></trkpt><trkpt lat="37.05514660562656" lon="14.718908946128225"><ele>647.25</ele><time>2026-04-04T09:43:23Z</time></trkpt><trkpt lat="37.05521588340941" lon="14.719061624169635"><ele>651.0</ele><time>2026-04-04T09:43:24Z</time></trkpt><trkpt lat="37.05527606448845" lon="14.719221238993388"><ele>651.0</ele><time>2026-04-04T09:43:25Z</time></trkpt><trkpt lat="37.05533035245588" lon="14.719377803724274"><ele>651.0</ele><time>2026-04-04T09:43:26Z</time></trkpt><trkpt lat="37.05539018998053" lon="14.719530804293168"><ele>651.0</ele><time>2026-04-04T09:43:27Z</time></trkpt><trkpt lat="37.055470209383095" lon="14.719657050897617"><ele>651.0</ele><time>2026-04-04T09:43:28Z</time></trkpt><trkpt lat="37.055569064005" lon="14.719773538488479"><ele>649.25</ele><time>2026-04-04T09:43:29Z</time></trkpt><trkpt lat="37.05565931549163" lon="14.719889995415553"><ele>647.5</ele><time>2026-04-04T09:43:30Z</time></trkpt><trkpt lat="37.05573312616991" lon="14.720019569366661"><ele>645.75</ele><time>2026-04-04T09:43:31Z</time></trkpt><trkpt lat="37.0557862183058" lon="14.720158614962104"><ele>644.0</ele><time>2026-04-04T09:43:32Z</time></trkpt><trkpt lat="37.05582840110896" lon="14.72032402899553"><ele>644.0</ele><time>2026-04-04T09:43:33Z</time></trkpt><trkpt lat="37.055871400171085" lon="14.720509247650913"><ele>644.0</ele><time>2026-04-04T09:43:34Z</time></trkpt><trkpt lat="37.05591945372396" lon="14.720674624695855"><ele>644.0</ele><time>2026-04-04T09:43:35Z</time></trkpt><trkpt lat="37.055962841796536" lon="14.720820535127382"><ele>644.0</ele><time>2026-04-04T09:43:36Z</time></trkpt><trkpt lat="37.05598685080314" lon="14.720941804290035"><ele>644.0</ele><time>2026-04-04T09:43:37Z</time></trkpt><trkpt lat="37.05597970571947" lon="14.721057595970908"><ele>644.0</ele><time>2026-04-04T09:43:38Z</time></trkpt><trkpt lat="37.05595589420031" lon="14.72115423886506"><ele>644.0</ele><time>2026-04-04T09:43:39Z</time></trkpt><trkpt lat="37.05591736775276" lon="14.721256044829328"><ele>644.0</ele><time>2026-04-04T09:43:40Z</time></trkpt><trkpt lat="37.05587011400775" lon="14.721397474536372"><ele>644.0</ele><time>2026-04-04T09:43:41Z</time></trkpt><trkpt lat="37.05583801695083" lon="14.721585154666203"><ele>643.0</ele><time>2026-04-04T09:43:42Z</time></trkpt><trkpt lat="37.055815935793134" lon="14.721767918170839"><ele>642.0</ele><time>2026-04-04T09:43:43Z</time></trkpt><trkpt lat="37.05577799315866" lon="14.7219263426858"><ele>641.0</ele><time>2026-04-04T09:43:44Z</time></trkpt><trkpt lat="37.05572140855141" lon="14.722070161313876"><ele>640.0</ele><time>2026-04-04T09:43:45Z</time></trkpt><trkpt lat="37.05564592742225" lon="14.72220566854811"><ele>646.2</ele><time>2026-04-04T09:43:46Z</time></trkpt><trkpt lat="37.055585339719606" lon="14.72232797426516"><ele>652.4</ele><time>2026-04-04T09:43:47Z</time></trkpt><trkpt lat="37.05555762565151" lon="14.722432321014152"><ele>658.5999999999999</ele><time>2026-04-04T09:43:48Z</time></trkpt><trkpt lat="37.05555797257134" lon="14.722519466130358"><ele>664.8</ele><time>2026-04-04T09:43:49Z</time></trkpt><trkpt lat="37.055611568194585" lon="14.722625368586762"><ele>671.0</ele><time>2026-04-04T09:43:51Z</time></trkpt><trkpt lat="37.05572177883863" lon="14.722640925792765"><ele>666.1999999999999</ele><time>2026-04-04T09:43:53Z</time></trkpt><trkpt lat="37.05578867305922" lon="14.722607912361864"><ele>661.4</ele><time>2026-04-04T09:43:54Z</time></trkpt><trkpt lat="37.0558562152851" lon="14.722545117983678"><ele>656.6</ele><time>2026-04-04T09:43:55Z</time></trkpt><trkpt lat="37.05592928341926" lon="14.722461764691486"><ele>651.8</ele><time>2026-04-04T09:43:56Z</time></trkpt><trkpt lat="37.05601438364474" lon="14.722357818001548"><ele>647.0</ele><time>2026-04-04T09:43:57Z</time></trkpt><trkpt lat="37.05611782090567" lon="14.722230461416261"><ele>647.0</ele><time>2026-04-04T09:43:58Z</time></trkpt><trkpt lat="37.05621500058875" lon="14.722096352505897"><ele>647.0</ele><time>2026-04-04T09:43:59Z</time></trkpt><trkpt lat="37.056287747937354" lon="14.721975585087156"><ele>647.0</ele><time>2026-04-04T09:44:00Z</time></trkpt><trkpt lat="37.05635151515373" lon="14.721863506862748"><ele>647.0</ele><time>2026-04-04T09:44:01Z</time></trkpt><trkpt lat="37.05641594211017" lon="14.72175719043196"><ele>647.3333333333333</ele><time>2026-04-04T09:44:02Z</time></trkpt><trkpt lat="37.056478575072816" lon="14.721659249372346"><ele>647.6666666666666</ele><time>2026-04-04T09:44:03Z</time></trkpt><trkpt lat="37.05653608254191" lon="14.721581620531488"><ele>648.0</ele><time>2026-04-04T09:44:04Z</time></trkpt><trkpt lat="37.056602139892235" lon="14.721510229258724"><ele>648.3333333333334</ele><time>2026-04-04T09:44:05Z</time></trkpt><trkpt lat="37.056667799331166" lon="14.72144318547334"><ele>648.6666666666667</ele><time>2026-04-04T09:44:06Z</time></trkpt><trkpt lat="37.05672317606658" lon="14.721365044040997"><ele>649.0</ele><time>2026-04-04T09:44:07Z</time></trkpt><trkpt lat="37.05676480509513" lon="14.721256441649999"><ele>649.0</ele><time>2026-04-04T09:44:08Z</time></trkpt><trkpt lat="37.05679953822604" lon="14.721135850881975"><ele>649.0</ele><time>2026-04-04T09:44:09Z</time></trkpt><trkpt lat="37.05683410112715" lon="14.721002244458946"><ele>649.0</ele><time>2026-04-04T09:44:10Z</time></trkpt><trkpt lat="37.05685844353015" lon="14.720864046952574"><ele>649.0</ele><time>2026-04-04T09:44:11Z</time></trkpt><trkpt lat="37.05686430902134" lon="14.720724587598703"><ele>649.0</ele><time>2026-04-04T09:44:12Z</time></trkpt><trkpt lat="37.05686326861612" lon="14.720581317144132"><ele>645.5</ele><time>2026-04-04T09:44:13Z</time></trkpt><trkpt lat="37.05685601185708" lon="14.720439085341562"><ele>642.0</ele><time>2026-04-04T09:44:14Z</time></trkpt><trkpt lat="37.056841491814424" lon="14.720290498058421"><ele>638.5</ele><time>2026-04-04T09:44:15Z</time></trkpt><trkpt lat="37.056837459713435" lon="14.720135218762396"><ele>635.0</ele><time>2026-04-04T09:44:16Z</time></trkpt><trkpt lat="37.05684767152083" lon="14.71997985253995"><ele>633.75</ele><time>2026-04-04T09:44:17Z</time></trkpt><trkpt lat="37.05686226439427" lon="14.719822840377002"><ele>632.5</ele><time>2026-04-04T09:44:18Z</time></trkpt><trkpt lat="37.05687740188347" lon="14.719664807910561"><ele>631.25</ele><time>2026-04-04T09:44:19Z</time></trkpt><trkpt lat="37.056891362918314" lon="14.719510947225773"><ele>630.0</ele><time>2026-04-04T09:44:20Z</time></trkpt><trkpt lat="37.05690283890297" lon="14.719346898128698"><ele>629.6</ele><time>2026-04-04T09:44:21Z</time></trkpt><trkpt lat="37.056906960559076" lon="14.719179870110214"><ele>629.2</ele><time>2026-04-04T09:44:22Z</time></trkpt><trkpt lat="37.056902821407725" lon="14.719034666248868"><ele>628.8</ele><time>2026-04-04T09:44:23Z</time></trkpt><trkpt lat="37.05688731692245" lon="14.718912086116017"><ele>628.4</ele><time>2026-04-04T09:44:24Z</time></trkpt><trkpt lat="37.05687126950826" lon="14.71881125365245"><ele>628.0</ele><time>2026-04-04T09:44:25Z</time></trkpt><trkpt lat="37.0568733799153" lon="14.718720167202097"><ele>628.0</ele><time>2026-04-04T09:44:26Z</time></trkpt><trkpt lat="37.05691829630018" lon="14.718635491218961"><ele>628.0</ele><time>2026-04-04T09:44:27Z</time></trkpt><trkpt lat="37.05697456070127" lon="14.718535569062805"><ele>628.0</ele><time>2026-04-04T09:44:28Z</time></trkpt><trkpt lat="37.05705235518401" lon="14.71843431947406"><ele>628.0</ele><time>2026-04-04T09:44:29Z</time></trkpt><trkpt lat="37.057132485090364" lon="14.718320032157896"><ele>628.0</ele><time>2026-04-04T09:44:30Z</time></trkpt><trkpt lat="37.05722353551771" lon="14.718171178809227"><ele>627.3333333333334</ele><time>2026-04-04T09:44:31Z</time></trkpt><trkpt lat="37.05730174338991" lon="14.718031020613752"><ele>626.6666666666667</ele><time>2026-04-04T09:44:32Z</time></trkpt><trkpt lat="37.05736872186775" lon="14.717945407497648"><ele>626.0</ele><time>2026-04-04T09:44:33Z</time></trkpt><trkpt lat="37.057431034304386" lon="14.717906489195416"><ele>625.3333333333334</ele><time>2026-04-04T09:44:34Z</time></trkpt><trkpt lat="37.05749613803327" lon="14.717895518620239"><ele>624.6666666666666</ele><time>2026-04-04T09:44:35Z</time></trkpt><trkpt lat="37.05757671269116" lon="14.717909244355667"><ele>624.0</ele><time>2026-04-04T09:44:36Z</time></trkpt><trkpt lat="37.05765411086709" lon="14.717957069544951"><ele>630.0</ele><time>2026-04-04T09:44:37Z</time></trkpt><trkpt lat="37.05773478478189" lon="14.718035284408218"><ele>636.0</ele><time>2026-04-04T09:44:38Z</time></trkpt><trkpt lat="37.05780615700127" lon="14.718135491053149"><ele>642.0</ele><time>2026-04-04T09:44:39Z</time></trkpt><trkpt lat="37.05785997339789" lon="14.718250665775825"><ele>648.0</ele><time>2026-04-04T09:44:40Z</time></trkpt><trkpt lat="37.05790474719844" lon="14.718381627440392"><ele>654.0</ele><time>2026-04-04T09:44:41Z</time></trkpt><trkpt lat="37.05794061569894" lon="14.718499844445763"><ele>655.5</ele><time>2026-04-04T09:44:42Z</time></trkpt><trkpt lat="37.05798826805929" lon="14.718595180053603"><ele>657.0</ele><time>2026-04-04T09:44:43Z</time></trkpt><trkpt lat="37.05805057766628" lon="14.718666477591528"><ele>658.5</ele><time>2026-04-04T09:44:44Z</time></trkpt><trkpt lat="37.058110274197226" lon="14.718740687588381"><ele>660.0</ele><time>2026-04-04T09:44:45Z</time></trkpt><trkpt lat="37.058140357021145" lon="14.718813753886439"><ele>661.5</ele><time>2026-04-04T09:44:46Z</time></trkpt><trkpt lat="37.05818481763966" lon="14.71894086817865"><ele>663.0</ele><time>2026-04-04T09:44:48Z</time></trkpt><trkpt lat="37.05821065772419" lon="14.71902700292745"><ele>663.0</ele><time>2026-04-04T09:44:50Z</time></trkpt><trkpt lat="37.05822654656182" lon="14.71911051266286"><ele>663.0</ele><time>2026-04-04T09:45:05Z</time></trkpt><trkpt lat="37.05823663914498" lon="14.71922819239522"><ele>663.0</ele><time>2026-04-04T09:45:07Z</time></trkpt><trkpt lat="37.058234276903626" lon="14.71931825163248"><ele>663.0</ele><time>2026-04-04T09:45:08Z</time></trkpt><trkpt lat="37.05822989180757" lon="14.719420441165358"><ele>663.0</ele><time>2026-04-04T09:45:09Z</time></trkpt><trkpt lat="37.05822031064763" lon="14.719504312673275"><ele>663.0</ele><time>2026-04-04T09:45:10Z</time></trkpt><trkpt lat="37.0582206292053" lon="14.719604775150108"><ele>662.6666666666666</ele><time>2026-04-04T09:45:11Z</time></trkpt><trkpt lat="37.05824128822568" lon="14.719700985102506"><ele>662.3333333333334</ele><time>2026-04-04T09:45:12Z</time></trkpt><trkpt lat="37.058281357030495" lon="14.719772132282442"><ele>662.0</ele><time>2026-04-04T09:45:13Z</time></trkpt><trkpt lat="37.0583419161152" lon="14.7198272021414"><ele>661.6666666666667</ele><time>2026-04-04T09:45:14Z</time></trkpt><trkpt lat="37.05841278779649" lon="14.71987523110222"><ele>661.3333333333334</ele><time>2026-04-04T09:45:15Z</time></trkpt><trkpt lat="37.058521596900604" lon="14.719919473246811"><ele>661.0</ele><time>2026-04-04T09:45:16Z</time></trkpt><trkpt lat="37.05861486880163" lon="14.71996128785457"><ele>661.0</ele><time>2026-04-04T09:45:17Z</time></trkpt><trkpt lat="37.05868322695896" lon="14.720029411762377"><ele>661.0</ele><time>2026-04-04T09:45:18Z</time></trkpt><trkpt lat="37.0587476515119" lon="14.720123396308042"><ele>661.0</ele><time>2026-04-04T09:45:19Z</time></trkpt><trkpt lat="37.05880322744808" lon="14.720227303148972"><ele>661.0</ele><time>2026-04-04T09:45:20Z</time></trkpt><trkpt lat="37.058853373762155" lon="14.720325593796128"><ele>661.0</ele><time>2026-04-04T09:45:21Z</time></trkpt><trkpt lat="37.058894096971876" lon="14.72041302346898"><ele>662.1428571428571</ele><time>2026-04-04T09:45:22Z</time></trkpt><trkpt lat="37.05891693467708" lon="14.720501048754793"><ele>663.2857142857143</ele><time>2026-04-04T09:45:23Z</time></trkpt><trkpt lat="37.058921600652965" lon="14.720593774969915"><ele>664.4285714285714</ele><time>2026-04-04T09:45:24Z</time></trkpt><trkpt lat="37.058910966117324" lon="14.720676606958282"><ele>665.5714285714286</ele><time>2026-04-04T09:45:25Z</time></trkpt><trkpt lat="37.05887654977779" lon="14.720752789887142"><ele>666.7142857142857</ele><time>2026-04-04T09:45:26Z</time></trkpt><trkpt lat="37.058825110882864" lon="14.7208159717418"><ele>667.8571428571429</ele><time>2026-04-04T09:45:27Z</time></trkpt><trkpt lat="37.0587705770518" lon="14.720885747710316"><ele>669.0</ele><time>2026-04-04T09:45:28Z</time></trkpt><trkpt lat="37.058723837989525" lon="14.720982219718152"><ele>668.5</ele><time>2026-04-04T09:45:29Z</time></trkpt><trkpt lat="37.058687376290635" lon="14.72108767232759"><ele>668.0</ele><time>2026-04-04T09:45:30Z</time></trkpt><trkpt lat="37.05866628232414" lon="14.721188718503686"><ele>667.5</ele><time>2026-04-04T09:45:31Z</time></trkpt><trkpt lat="37.0586691746944" lon="14.721294605983644"><ele>667.0</ele><time>2026-04-04T09:45:32Z</time></trkpt><trkpt lat="37.05867970059023" lon="14.721405210512431"><ele>666.5</ele><time>2026-04-04T09:45:33Z</time></trkpt><trkpt lat="37.05870248919899" lon="14.72151790314205"><ele>666.0</ele><time>2026-04-04T09:45:34Z</time></trkpt><trkpt lat="37.058725069710256" lon="14.721640625853796"><ele>666.0</ele><time>2026-04-04T09:45:35Z</time></trkpt><trkpt lat="37.05874582261517" lon="14.72176047782095"><ele>666.0</ele><time>2026-04-04T09:45:36Z</time></trkpt><trkpt lat="37.05875032149026" lon="14.721877825236087"><ele>666.0</ele><time>2026-04-04T09:45:37Z</time></trkpt><trkpt lat="37.05873048061697" lon="14.721978733934138"><ele>666.0</ele><time>2026-04-04T09:45:38Z</time></trkpt><trkpt lat="37.05869438319922" lon="14.722079923240099"><ele>666.0</ele><time>2026-04-04T09:45:39Z</time></trkpt><trkpt lat="37.058634453352326" lon="14.722185692012214"><ele>663.1999999999999</ele><time>2026-04-04T09:45:40Z</time></trkpt><trkpt lat="37.05855568106593" lon="14.722291389912517"><ele>660.4</ele><time>2026-04-04T09:45:41Z</time></trkpt><trkpt lat="37.05849045145228" lon="14.722392294820047"><ele>657.6</ele><time>2026-04-04T09:45:42Z</time></trkpt><trkpt lat="37.05844605372796" lon="14.722507078629326"><ele>654.8</ele><time>2026-04-04T09:45:43Z</time></trkpt><trkpt lat="37.058422522316285" lon="14.72262358230631"><ele>652.0</ele><time>2026-04-04T09:45:44Z</time></trkpt><trkpt lat="37.05840420762373" lon="14.722748248788777"><ele>650.0</ele><time>2026-04-04T09:45:45Z</time></trkpt><trkpt lat="37.05838767232108" lon="14.722917225245974"><ele>648.0</ele><time>2026-04-04T09:45:46Z</time></trkpt><trkpt lat="37.05836247777201" lon="14.723065328005603"><ele>646.0</ele><time>2026-04-04T09:45:47Z</time></trkpt><trkpt lat="37.058338560226176" lon="14.723190597339402"><ele>644.0</ele><time>2026-04-04T09:45:48Z</time></trkpt><trkpt lat="37.05832139444867" lon="14.723306119678755"><ele>644.0</ele><time>2026-04-04T09:45:49Z</time></trkpt><trkpt lat="37.058326675613976" lon="14.723421976288654"><ele>644.0</ele><time>2026-04-04T09:45:50Z</time></trkpt><trkpt lat="37.058338906399" lon="14.723553268532298"><ele>644.0</ele><time>2026-04-04T09:45:51Z</time></trkpt><trkpt lat="37.058366571819064" lon="14.723695324447723"><ele>644.0</ele><time>2026-04-04T09:45:52Z</time></trkpt><trkpt lat="37.0584044161168" lon="14.723838938924212"><ele>644.0</ele><time>2026-04-04T09:45:53Z</time></trkpt><trkpt lat="37.058439765769975" lon="14.72396801342144"><ele>644.8333333333333</ele><time>2026-04-04T09:45:54Z</time></trkpt><trkpt lat="37.05845541159114" lon="14.724080393940717"><ele>645.6666666666666</ele><time>2026-04-04T09:45:55Z</time></trkpt><trkpt lat="37.05846214898817" lon="14.72420190917644"><ele>646.5</ele><time>2026-04-04T09:45:56Z</time></trkpt><trkpt lat="37.058443410526486" lon="14.724326279638086"><ele>647.3333333333334</ele><time>2026-04-04T09:45:57Z</time></trkpt><trkpt lat="37.05844123360499" lon="14.724436102327525"><ele>648.1666666666667</ele><time>2026-04-04T09:45:58Z</time></trkpt><trkpt lat="37.0584632115938" lon="14.724511337275821"><ele>649.0</ele><time>2026-04-04T09:45:59Z</time></trkpt><trkpt lat="37.058534938486524" lon="14.724583668044623"><ele>649.0</ele><time>2026-04-04T09:46:01Z</time></trkpt><trkpt lat="37.05862439174644" lon="14.724624767379389"><ele>649.0</ele><time>2026-04-04T09:46:03Z</time></trkpt><trkpt lat="37.058704624562175" lon="14.724569940845651"><ele>649.0</ele><time>2026-04-04T09:46:05Z</time></trkpt><trkpt lat="37.058747885499486" lon="14.724490202671044"><ele>649.0</ele><time>2026-04-04T09:46:06Z</time></trkpt><trkpt lat="37.05878210431922" lon="14.724387989155193"><ele>649.0</ele><time>2026-04-04T09:46:07Z</time></trkpt><trkpt lat="37.058835505307236" lon="14.724272243158358"><ele>649.0</ele><time>2026-04-04T09:46:08Z</time></trkpt><trkpt lat="37.05890099704294" lon="14.724152509989663"><ele>649.0</ele><time>2026-04-04T09:46:09Z</time></trkpt><trkpt lat="37.058942313295574" lon="14.724063035924035"><ele>649.0</ele><time>2026-04-04T09:46:10Z</time></trkpt><trkpt lat="37.0589590529491" lon="14.723971672861692"><ele>649.0</ele><time>2026-04-04T09:46:11Z</time></trkpt><trkpt lat="37.0589766725307" lon="14.7238760773809"><ele>649.0</ele><time>2026-04-04T09:46:12Z</time></trkpt><trkpt lat="37.05899257410993" lon="14.723750394159469"><ele>649.0</ele><time>2026-04-04T09:46:13Z</time></trkpt><trkpt lat="37.05901750521802" lon="14.723616927864306"><ele>649.0</ele><time>2026-04-04T09:46:14Z</time></trkpt><trkpt lat="37.059049671920945" lon="14.723504893477417"><ele>649.0</ele><time>2026-04-04T09:46:15Z</time></trkpt><trkpt lat="37.05908755818553" lon="14.723365845407224"><ele>649.0</ele><time>2026-04-04T09:46:16Z</time></trkpt><trkpt lat="37.059153153273684" lon="14.723248071905854"><ele>649.0</ele><time>2026-04-04T09:46:17Z</time></trkpt><trkpt lat="37.059243636508384" lon="14.723156092142862"><ele>642.75</ele><time>2026-04-04T09:46:18Z</time></trkpt><trkpt lat="37.05934620464783" lon="14.723077842304647"><ele>636.5</ele><time>2026-04-04T09:46:19Z</time></trkpt><trkpt lat="37.05946028462733" lon="14.722993651668924"><ele>630.25</ele><time>2026-04-04T09:46:20Z</time></trkpt><trkpt lat="37.05959934752993" lon="14.722904396889945"><ele>624.0</ele><time>2026-04-04T09:46:21Z</time></trkpt><trkpt lat="37.059741749319066" lon="14.722824494004694"><ele>624.0</ele><time>2026-04-04T09:46:22Z</time></trkpt><trkpt lat="37.05984959333869" lon="14.722738749429377"><ele>624.0</ele><time>2026-04-04T09:46:23Z</time></trkpt><trkpt lat="37.059929507837865" lon="14.722674993354198"><ele>624.0</ele><time>2026-04-04T09:46:24Z</time></trkpt><trkpt lat="37.05999798585014" lon="14.722648008356831"><ele>624.0</ele><time>2026-04-04T09:46:25Z</time></trkpt><trkpt lat="37.06009725590145" lon="14.722696486445779"><ele>624.0</ele><time>2026-04-04T09:46:27Z</time></trkpt><trkpt lat="37.06016501244862" lon="14.722827604786145"><ele>625.8</ele><time>2026-04-04T09:46:29Z</time></trkpt><trkpt lat="37.060204308155264" lon="14.722926913654415"><ele>627.5999999999999</ele><time>2026-04-04T09:46:30Z</time></trkpt><trkpt lat="37.06022761091771" lon="14.723066918861264"><ele>629.4</ele><time>2026-04-04T09:46:31Z</time></trkpt><trkpt lat="37.06026081459842" lon="14.723202482228922"><ele>631.1999999999999</ele><time>2026-04-04T09:46:32Z</time></trkpt><trkpt lat="37.06025627018537" lon="14.723341541378044"><ele>633.0</ele><time>2026-04-04T09:46:33Z</time></trkpt><trkpt lat="37.06024193748383" lon="14.7234906106276"><ele>634.4</ele><time>2026-04-04T09:46:34Z</time></trkpt><trkpt lat="37.06022259764099" lon="14.723619755582815"><ele>635.8</ele><time>2026-04-04T09:46:35Z</time></trkpt><trkpt lat="37.060190471840244" lon="14.723723473692726"><ele>637.2</ele><time>2026-04-04T09:46:36Z</time></trkpt><trkpt lat="37.06013545263017" lon="14.723820532819332"><ele>638.6</ele><time>2026-04-04T09:46:37Z</time></trkpt><trkpt lat="37.06010495334413" lon="14.723913761793645"><ele>640.0</ele><time>2026-04-04T09:46:38Z</time></trkpt><trkpt lat="37.060045409368755" lon="14.724041603148027"><ele>640.0</ele><time>2026-04-04T09:46:39Z</time></trkpt><trkpt lat="37.06000266771214" lon="14.724172034563145"><ele>640.0</ele><time>2026-04-04T09:46:40Z</time></trkpt><trkpt lat="37.05996807694974" lon="14.724311786320303"><ele>640.0</ele><time>2026-04-04T09:46:41Z</time></trkpt><trkpt lat="37.05994599242819" lon="14.724455881249797"><ele>640.0</ele><time>2026-04-04T09:46:42Z</time></trkpt><trkpt lat="37.05992500471486" lon="14.724596639290803"><ele>641.8</ele><time>2026-04-04T09:46:43Z</time></trkpt><trkpt lat="37.0599178406002" lon="14.72472516737938"><ele>643.6</ele><time>2026-04-04T09:46:44Z</time></trkpt><trkpt lat="37.059911366659634" lon="14.724829457765463"><ele>645.4000000000001</ele><time>2026-04-04T09:46:45Z</time></trkpt><trkpt lat="37.059917119929885" lon="14.724948838615292"><ele>647.2</ele><time>2026-04-04T09:46:46Z</time></trkpt><trkpt lat="37.05994646131752" lon="14.725087932077749"><ele>649.0</ele><time>2026-04-04T09:46:47Z</time></trkpt><trkpt lat="37.05998582447088" lon="14.72524187963734"><ele>649.0</ele><time>2026-04-04T09:46:48Z</time></trkpt><trkpt lat="37.06004531903847" lon="14.725422252738031"><ele>649.0</ele><time>2026-04-04T09:46:49Z</time></trkpt><trkpt lat="37.06009858204857" lon="14.725586814322769"><ele>649.0</ele><time>2026-04-04T09:46:50Z</time></trkpt><trkpt lat="37.060141494596884" lon="14.725728009217155"><ele>649.0</ele><time>2026-04-04T09:46:51Z</time></trkpt><trkpt lat="37.06016511521913" lon="14.725862978349731"><ele>649.0</ele><time>2026-04-04T09:46:52Z</time></trkpt><trkpt lat="37.06018100672545" lon="14.725973838916886"><ele>649.0</ele><time>2026-04-04T09:46:53Z</time></trkpt><trkpt lat="37.06020640728097" lon="14.726099868697032"><ele>649.0</ele><time>2026-04-04T09:46:54Z</time></trkpt><trkpt lat="37.06018510288997" lon="14.726263601294919"><ele>649.0</ele><time>2026-04-04T09:46:55Z</time></trkpt><trkpt lat="37.06017896812115" lon="14.726365417823722"><ele>649.0</ele><time>2026-04-04T09:46:56Z</time></trkpt><trkpt lat="37.06016760197373" lon="14.726486712472484"><ele>650.2</ele><time>2026-04-04T09:46:57Z</time></trkpt><trkpt lat="37.060129600251955" lon="14.726587993045193"><ele>651.4000000000001</ele><time>2026-04-04T09:46:58Z</time></trkpt><trkpt lat="37.060093513998524" lon="14.726726560900966"><ele>652.6</ele><time>2026-04-04T09:46:59Z</time></trkpt><trkpt lat="37.060031059225764" lon="14.726824208283281"><ele>653.8</ele><time>2026-04-04T09:47:00Z</time></trkpt><trkpt lat="37.059964157444945" lon="14.726913947061448"><ele>655.0</ele><time>2026-04-04T09:47:01Z</time></trkpt><trkpt lat="37.059925966323156" lon="14.7269940219466"><ele>657.6</ele><time>2026-04-04T09:47:03Z</time></trkpt><trkpt lat="37.0599729117965" lon="14.727078444341005"><ele>660.2</ele><time>2026-04-04T09:47:05Z</time></trkpt><trkpt lat="37.06009995344976" lon="14.727099813344468"><ele>662.8</ele><time>2026-04-04T09:47:07Z</time></trkpt><trkpt lat="37.06018453467891" lon="14.727067897508629"><ele>665.4</ele><time>2026-04-04T09:47:08Z</time></trkpt><trkpt lat="37.06027313545227" lon="14.726990443078575"><ele>668.0</ele><time>2026-04-04T09:47:09Z</time></trkpt><trkpt lat="37.06036258164716" lon="14.726910890662538"><ele>664.75</ele><time>2026-04-04T09:47:10Z</time></trkpt><trkpt lat="37.06046236873857" lon="14.726814284090688"><ele>661.5</ele><time>2026-04-04T09:47:11Z</time></trkpt><trkpt lat="37.06055148191118" lon="14.726690735535591"><ele>658.25</ele><time>2026-04-04T09:47:12Z</time></trkpt><trkpt lat="37.06062474253691" lon="14.72655143710754"><ele>655.0</ele><time>2026-04-04T09:47:13Z</time></trkpt><trkpt lat="37.06068975074451" lon="14.72639729803031"><ele>655.0</ele><time>2026-04-04T09:47:14Z</time></trkpt><trkpt lat="37.060725635911474" lon="14.72622253294394"><ele>655.0</ele><time>2026-04-04T09:47:15Z</time></trkpt><trkpt lat="37.06075757453812" lon="14.726068001720632"><ele>655.0</ele><time>2026-04-04T09:47:16Z</time></trkpt><trkpt lat="37.06081939125004" lon="14.725954374008442"><ele>655.0</ele><time>2026-04-04T09:47:17Z</time></trkpt><trkpt lat="37.060891329999976" lon="14.725866482012464"><ele>654.4</ele><time>2026-04-04T09:47:18Z</time></trkpt><trkpt lat="37.06094274849374" lon="14.725785164241877"><ele>653.8</ele><time>2026-04-04T09:47:19Z</time></trkpt><trkpt lat="37.060962309488126" lon="14.725645627150438"><ele>653.2</ele><time>2026-04-04T09:47:21Z</time></trkpt><trkpt lat="37.06092917593482" lon="14.725533829493923"><ele>652.6</ele><time>2026-04-04T09:47:22Z</time></trkpt><trkpt lat="37.06089141770491" lon="14.725426048011625"><ele>652.0</ele><time>2026-04-04T09:47:23Z</time></trkpt><trkpt lat="37.06089522507165" lon="14.725328694930829"><ele>652.0</ele><time>2026-04-04T09:47:24Z</time></trkpt><trkpt lat="37.06091688661102" lon="14.725248737274201"><ele>652.0</ele><time>2026-04-04T09:47:25Z</time></trkpt><trkpt lat="37.06095727128463" lon="14.725161976654727"><ele>652.0</ele><time>2026-04-04T09:47:26Z</time></trkpt><trkpt lat="37.06101977106628" lon="14.725071615426591"><ele>652.0</ele><time>2026-04-04T09:47:27Z</time></trkpt><trkpt lat="37.06110638722878" lon="14.724964924820966"><ele>652.0</ele><time>2026-04-04T09:47:28Z</time></trkpt><trkpt lat="37.061220401838526" lon="14.724828545601069"><ele>650.0</ele><time>2026-04-04T09:47:29Z</time></trkpt><trkpt lat="37.06131658838442" lon="14.724681887904778"><ele>648.0</ele><time>2026-04-04T09:47:30Z</time></trkpt><trkpt lat="37.06138307224733" lon="14.724555005196322"><ele>646.0</ele><time>2026-04-04T09:47:31Z</time></trkpt><trkpt lat="37.061438373919486" lon="14.724430142640553"><ele>644.0</ele><time>2026-04-04T09:47:32Z</time></trkpt><trkpt lat="37.061487388755225" lon="14.724324365719845"><ele>641.1666666666666</ele><time>2026-04-04T09:47:33Z</time></trkpt><trkpt lat="37.06154407424182" lon="14.72426625585668"><ele>638.3333333333333</ele><time>2026-04-04T09:47:34Z</time></trkpt><trkpt lat="37.061624649760105" lon="14.724212653539375"><ele>635.5</ele><time>2026-04-04T09:47:35Z</time></trkpt><trkpt lat="37.06168805596359" lon="14.72416300465657"><ele>632.6666666666666</ele><time>2026-04-04T09:47:36Z</time></trkpt><trkpt lat="37.06173603090538" lon="14.724052440480792"><ele>629.8333333333334</ele><time>2026-04-04T09:47:38Z</time></trkpt><trkpt lat="37.06172602532952" lon="14.723953120859715"><ele>627.0</ele><time>2026-04-04T09:47:39Z</time></trkpt><trkpt lat="37.06170406846061" lon="14.723830743833533"><ele>631.0</ele><time>2026-04-04T09:47:40Z</time></trkpt><trkpt lat="37.061691426122515" lon="14.723719889264055"><ele>635.0</ele><time>2026-04-04T09:47:41Z</time></trkpt><trkpt lat="37.06170143487876" lon="14.723601842825115"><ele>639.0</ele><time>2026-04-04T09:47:42Z</time></trkpt><trkpt lat="37.061731245853835" lon="14.723486650866835"><ele>643.0</ele><time>2026-04-04T09:47:43Z</time></trkpt><trkpt lat="37.06179356160268" lon="14.723373358008729"><ele>647.0</ele><time>2026-04-04T09:47:44Z</time></trkpt><trkpt lat="37.061858926614654" lon="14.72327302559662"><ele>647.0</ele><time>2026-04-04T09:47:45Z</time></trkpt><trkpt lat="37.061873642545805" lon="14.723173566056026"><ele>647.0</ele><time>2026-04-04T09:47:46Z</time></trkpt><trkpt lat="37.061849523686334" lon="14.723058664839039"><ele>647.0</ele><time>2026-04-04T09:47:47Z</time></trkpt><trkpt lat="37.06178956910853" lon="14.72294330120549"><ele>647.0</ele><time>2026-04-04T09:47:48Z</time></trkpt><trkpt lat="37.06172309525853" lon="14.722835822924713"><ele>647.0</ele><time>2026-04-04T09:47:49Z</time></trkpt><trkpt lat="37.06167996751774" lon="14.722718693597459"><ele>646.25</ele><time>2026-04-04T09:47:50Z</time></trkpt><trkpt lat="37.06166677536752" lon="14.72256163820871"><ele>645.5</ele><time>2026-04-04T09:47:51Z</time></trkpt><trkpt lat="37.06167563232654" lon="14.72237167285466"><ele>644.75</ele><time>2026-04-04T09:47:52Z</time></trkpt><trkpt lat="37.061693040502114" lon="14.72216523506965"><ele>644.0</ele><time>2026-04-04T09:47:53Z</time></trkpt><trkpt lat="37.0617289314029" lon="14.721965720736387"><ele>643.4000000000001</ele><time>2026-04-04T09:47:54Z</time></trkpt><trkpt lat="37.06176758230036" lon="14.721818889583858"><ele>642.8</ele><time>2026-04-04T09:47:55Z</time></trkpt><trkpt lat="37.06177930863994" lon="14.72171982952922"><ele>642.2</ele><time>2026-04-04T09:47:56Z</time></trkpt><trkpt lat="37.06181340768542" lon="14.721621313005489"><ele>641.5999999999999</ele><time>2026-04-04T09:47:58Z</time></trkpt><trkpt lat="37.06188914988365" lon="14.721690947647158"><ele>641.0</ele><time>2026-04-04T09:48:24Z</time></trkpt><trkpt lat="37.06194699784614" lon="14.721769714400844"><ele>641.5999999999999</ele><time>2026-04-04T09:48:26Z</time></trkpt><trkpt lat="37.061992901149544" lon="14.721926631442237"><ele>642.2</ele><time>2026-04-04T09:48:28Z</time></trkpt><trkpt lat="37.06200871964957" lon="14.722020660656128"><ele>642.8</ele><time>2026-04-04T09:48:30Z</time></trkpt><trkpt lat="37.061979745757895" lon="14.722147425556862"><ele>643.4000000000001</ele><time>2026-04-04T09:48:33Z</time></trkpt><trkpt lat="37.061933215703874" lon="14.72224379523884"><ele>644.0</ele><time>2026-04-04T09:48:35Z</time></trkpt><trkpt lat="37.06191446611316" lon="14.722333212957752"><ele>644.0</ele><time>2026-04-04T09:48:36Z</time></trkpt><trkpt lat="37.06189523702521" lon="14.722472749855445"><ele>644.0</ele><time>2026-04-04T09:48:38Z</time></trkpt><trkpt lat="37.061917423446765" lon="14.722594692922774"><ele>644.0</ele><time>2026-04-04T09:48:40Z</time></trkpt><trkpt lat="37.06194907195563" lon="14.722665056950255"><ele>644.0</ele><time>2026-04-04T09:48:41Z</time></trkpt><trkpt lat="37.061984168289825" lon="14.722806562687438"><ele>644.0</ele><time>2026-04-04T09:48:43Z</time></trkpt><trkpt lat="37.06202998878321" lon="14.72286886862287"><ele>644.6</ele><time>2026-04-04T09:48:44Z</time></trkpt><trkpt lat="37.06208669196183" lon="14.722972549995916"><ele>645.2</ele><time>2026-04-04T09:48:46Z</time></trkpt><trkpt lat="37.062085296282284" lon="14.723135205068106"><ele>645.8000000000001</ele><time>2026-04-04T09:48:48Z</time></trkpt><trkpt lat="37.06208614400161" lon="14.72323227057902"><ele>646.4000000000001</ele><time>2026-04-04T09:48:49Z</time></trkpt><trkpt lat="37.06208430627336" lon="14.723313785540846"><ele>647.0</ele><time>2026-04-04T09:48:50Z</time></trkpt><trkpt lat="37.06204498325555" lon="14.72342294999955"><ele>647.0</ele><time>2026-04-04T09:48:52Z</time></trkpt><trkpt lat="37.062101305243395" lon="14.723500996211216"><ele>647.0</ele><time>2026-04-04T09:48:55Z</time></trkpt><trkpt lat="37.06207464484311" lon="14.723577710908941"><ele>647.0</ele><time>2026-04-04T09:49:01Z</time></trkpt><trkpt lat="37.06204830186115" lon="14.72367412110111"><ele>647.0</ele><time>2026-04-04T09:49:05Z</time></trkpt><trkpt lat="37.06207983570926" lon="14.723755041155094"><ele>647.0</ele><time>2026-04-04T09:49:07Z</time></trkpt><trkpt lat="37.06206288251669" lon="14.72385625071692"><ele>647.0</ele><time>2026-04-04T09:49:09Z</time></trkpt><trkpt lat="37.06204815591229" lon="14.72394606053597"><ele>649.3333333333333</ele><time>2026-04-04T09:49:11Z</time></trkpt><trkpt lat="37.06209296390255" lon="14.7240018479121"><ele>651.6666666666666</ele><time>2026-04-04T09:49:13Z</time></trkpt><trkpt lat="37.062102747370645" lon="14.724110133357076"><ele>654.0</ele><time>2026-04-04T09:49:17Z</time></trkpt><trkpt lat="37.06208485657325" lon="14.724191387933852"><ele>656.3333333333334</ele><time>2026-04-04T09:49:18Z</time></trkpt><trkpt lat="37.06205825976467" lon="14.72426623216084"><ele>658.6666666666667</ele><time>2026-04-04T09:49:20Z</time></trkpt><trkpt lat="37.06200902504201" lon="14.724353093890628"><ele>661.0</ele><time>2026-04-04T09:49:23Z</time></trkpt><trkpt lat="37.061960104845205" lon="14.724446853138167"><ele>663.1666666666667</ele><time>2026-04-04T09:49:26Z</time></trkpt><trkpt lat="37.06191579874497" lon="14.724534150566226"><ele>665.3333333333334</ele><time>2026-04-04T09:49:28Z</time></trkpt><trkpt lat="37.06189350569885" lon="14.724632598989626"><ele>667.5</ele><time>2026-04-04T09:49:31Z</time></trkpt><trkpt lat="37.06186197262443" lon="14.724749916394293"><ele>669.6666666666666</ele><time>2026-04-04T09:49:33Z</time></trkpt><trkpt lat="37.061830716231356" lon="14.72482762855988"><ele>671.8333333333333</ele><time>2026-04-04T09:49:37Z</time></trkpt><trkpt lat="37.06179424936492" lon="14.724926883453122"><ele>674.0</ele><time>2026-04-04T09:49:46Z</time></trkpt><trkpt lat="37.061769473190274" lon="14.725001725914925"><ele>674.0</ele><time>2026-04-04T09:49:57Z</time></trkpt><trkpt lat="37.06171736933916" lon="14.725054507438951"><ele>674.0</ele><time>2026-04-04T09:50:05Z</time></trkpt><trkpt lat="37.061678017672925" lon="14.725156310602554"><ele>674.0</ele><time>2026-04-04T09:50:07Z</time></trkpt><trkpt lat="37.061634003332316" lon="14.72523373750569"><ele>674.0</ele><time>2026-04-04T09:50:09Z</time></trkpt><trkpt lat="37.06159524086271" lon="14.725356244234506"><ele>674.0</ele><time>2026-04-04T09:50:11Z</time></trkpt><trkpt lat="37.06153159986202" lon="14.725442913720418"><ele>674.0</ele><time>2026-04-04T09:50:13Z</time></trkpt><trkpt lat="37.0614686875929" lon="14.725523423345846"><ele>672.4000000000001</ele><time>2026-04-04T09:50:15Z</time></trkpt><trkpt lat="37.06149854380809" lon="14.725659939635898"><ele>670.8</ele><time>2026-04-04T09:50:18Z</time></trkpt><trkpt lat="37.0614662259844" lon="14.725768850289986"><ele>669.2</ele><time>2026-04-04T09:50:19Z</time></trkpt><trkpt lat="37.06145474475487" lon="14.725900698916442"><ele>667.5999999999999</ele><time>2026-04-04T09:50:20Z</time></trkpt><trkpt lat="37.06144000065308" lon="14.725981812934938"><ele>666.0</ele><time>2026-04-04T09:50:21Z</time></trkpt><trkpt lat="37.06141845366525" lon="14.726123679319487"><ele>666.0</ele><time>2026-04-04T09:50:23Z</time></trkpt><trkpt lat="37.06139873496842" lon="14.726264028381372"><ele>666.0</ele><time>2026-04-04T09:50:25Z</time></trkpt><trkpt lat="37.061368840716625" lon="14.726369337171556"><ele>666.0</ele><time>2026-04-04T09:50:27Z</time></trkpt><trkpt lat="37.061339012463755" lon="14.726463107014945"><ele>666.0</ele><time>2026-04-04T09:50:29Z</time></trkpt><trkpt lat="37.06133046554061" lon="14.726571733703834"><ele>666.0</ele><time>2026-04-04T09:50:32Z</time></trkpt><trkpt lat="37.06131862124374" lon="14.726714814997996"><ele>666.0</ele><time>2026-04-04T09:50:35Z</time></trkpt><trkpt lat="37.06131869313253" lon="14.726796491116804"><ele>666.0</ele><time>2026-04-04T09:50:38Z</time></trkpt><trkpt lat="37.06133287686263" lon="14.726889223768273"><ele>666.0</ele><time>2026-04-04T09:50:39Z</time></trkpt><trkpt lat="37.06131134079214" lon="14.726969543462886"><ele>666.0</ele><time>2026-04-04T09:50:43Z</time></trkpt><trkpt lat="37.06128863577467" lon="14.727064403262572"><ele>666.0</ele><time>2026-04-04T09:50:45Z</time></trkpt><trkpt lat="37.061305166982116" lon="14.727180500572464"><ele>666.0</ele><time>2026-04-04T09:50:48Z</time></trkpt><trkpt lat="37.06132670076051" lon="14.727255399887147"><ele>666.0</ele><time>2026-04-04T09:50:52Z</time></trkpt><trkpt lat="37.06133295505057" lon="14.727338532353475"><ele>669.8333333333334</ele><time>2026-04-04T09:50:55Z</time></trkpt><trkpt lat="37.06134697747961" lon="14.727439360471594"><ele>673.6666666666666</ele><time>2026-04-04T09:50:57Z</time></trkpt><trkpt lat="37.06133208065008" lon="14.72753834615253"><ele>677.5</ele><time>2026-04-04T09:51:00Z</time></trkpt><trkpt lat="37.06129609881484" lon="14.727673820151752"><ele>681.3333333333333</ele><time>2026-04-04T09:51:03Z</time></trkpt><trkpt lat="37.061252298140914" lon="14.727766107300791"><ele>685.1666666666666</ele><time>2026-04-04T09:51:06Z</time></trkpt><trkpt lat="37.06123582077233" lon="14.727857431257798"><ele>689.0</ele><time>2026-04-04T09:51:08Z</time></trkpt><trkpt lat="37.06116214382802" lon="14.727925966049153"><ele>693.1666666666666</ele><time>2026-04-04T09:51:11Z</time></trkpt><trkpt lat="37.06113427582208" lon="14.728006160475084"><ele>697.3333333333333</ele><time>2026-04-04T09:51:13Z</time></trkpt><trkpt lat="37.061140442085225" lon="14.728096981058265"><ele>701.5</ele><time>2026-04-04T09:51:15Z</time></trkpt><trkpt lat="37.06119180966122" lon="14.728225084383068"><ele>705.6666666666666</ele><time>2026-04-04T09:51:18Z</time></trkpt><trkpt lat="37.06121684774631" lon="14.72833366847014"><ele>709.8333333333334</ele><time>2026-04-04T09:51:25Z</time></trkpt><trkpt lat="37.06119608149527" lon="14.728436223804437"><ele>714.0</ele><time>2026-04-04T09:51:29Z</time></trkpt><trkpt lat="37.06111303003314" lon="14.728468230153357"><ele>714.0</ele><time>2026-04-04T09:52:13Z</time></trkpt><trkpt lat="37.061115119445226" lon="14.728549091489011"><ele>714.0</ele><time>2026-04-04T09:52:19Z</time></trkpt><trkpt lat="37.06116274367897" lon="14.728677777192532"><ele>714.0</ele><time>2026-04-04T09:52:22Z</time></trkpt><trkpt lat="37.06117342446375" lon="14.728762079209169"><ele>714.0</ele><time>2026-04-04T09:52:25Z</time></trkpt><trkpt lat="37.061223538133795" lon="14.728879270848646"><ele>714.0</ele><time>2026-04-04T09:52:28Z</time></trkpt><trkpt lat="37.06123287941046" lon="14.72900809613256"><ele>718.0</ele><time>2026-04-04T09:52:30Z</time></trkpt><trkpt lat="37.061219930624354" lon="14.729121713016825"><ele>722.0</ele><time>2026-04-04T09:52:32Z</time></trkpt><trkpt lat="37.0612049246484" lon="14.729249078668003"><ele>726.0</ele><time>2026-04-04T09:52:34Z</time></trkpt><trkpt lat="37.061193192730435" lon="14.729361596486914"><ele>730.0</ele><time>2026-04-04T09:52:36Z</time></trkpt><trkpt lat="37.061193592068705" lon="14.729448795423492"><ele>734.0</ele><time>2026-04-04T09:52:38Z</time></trkpt><trkpt lat="37.06119190776314" lon="14.72955699174243"><ele>738.0</ele><time>2026-04-04T09:52:41Z</time></trkpt><trkpt lat="37.06115790629892" lon="14.729668318185492"><ele>741.0</ele><time>2026-04-04T09:52:43Z</time></trkpt><trkpt lat="37.06115291497712" lon="14.729771864316435"><ele>744.0</ele><time>2026-04-04T09:52:44Z</time></trkpt><trkpt lat="37.06112204125179" lon="14.729953744698662"><ele>747.0</ele><time>2026-04-04T09:52:48Z</time></trkpt><trkpt lat="37.06108078420416" lon="14.730045555235566"><ele>750.0</ele><time>2026-04-04T09:52:52Z</time></trkpt><trkpt lat="37.06109624948316" lon="14.73015329000957"><ele>753.0</ele><time>2026-04-04T09:52:53Z</time></trkpt><trkpt lat="37.06109624631933" lon="14.730261804947085"><ele>755.0</ele><time>2026-04-04T09:52:54Z</time></trkpt><trkpt lat="37.061101282966604" lon="14.730375237174743"><ele>757.0</ele><time>2026-04-04T09:52:56Z</time></trkpt><trkpt lat="37.061084158727326" lon="14.730479141588983"><ele>759.0</ele><time>2026-04-04T09:52:59Z</time></trkpt><trkpt lat="37.061002252918584" lon="14.73066720365827"><ele>761.0</ele><time>2026-04-04T09:53:08Z</time></trkpt><trkpt lat="37.06097887264228" lon="14.730791008719113"><ele>763.0</ele><time>2026-04-04T09:53:10Z</time></trkpt><trkpt lat="37.06101932396588" lon="14.73092866999728"><ele>763.0</ele><time>2026-04-04T09:53:12Z</time></trkpt><trkpt lat="37.061009381002044" lon="14.731046446822258"><ele>763.0</ele><time>2026-04-04T09:53:14Z</time></trkpt><trkpt lat="37.061038861899775" lon="14.731121636133997"><ele>763.0</ele><time>2026-04-04T09:53:16Z</time></trkpt><trkpt lat="37.061002086429326" lon="14.73119000277394"><ele>763.0</ele><time>2026-04-04T09:53:20Z</time></trkpt><trkpt lat="37.061001654857535" lon="14.731272799643907"><ele>763.0</ele><time>2026-04-04T09:53:26Z</time></trkpt><trkpt lat="37.0610851455222" lon="14.731345714963496"><ele>763.0</ele><time>2026-04-04T09:53:33Z</time></trkpt><trkpt lat="37.06112503861847" lon="14.731434652038724"><ele>764.4285714285714</ele><time>2026-04-04T09:53:35Z</time></trkpt><trkpt lat="37.06110074804" lon="14.731345580004117"><ele>765.8571428571429</ele><time>2026-04-04T09:53:40Z</time></trkpt><trkpt lat="37.06103012652821" lon="14.7313375788644"><ele>767.2857142857142</ele><time>2026-04-04T09:55:29Z</time></trkpt><trkpt lat="37.0609859931486" lon="14.73141258445172"><ele>768.7142857142858</ele><time>2026-04-04T09:55:33Z</time></trkpt><trkpt lat="37.06100612426944" lon="14.731504423963345"><ele>770.1428571428571</ele><time>2026-04-04T09:55:36Z</time></trkpt><trkpt lat="37.061042978462595" lon="14.731576476391842"><ele>771.5714285714286</ele><time>2026-04-04T09:55:38Z</time></trkpt><trkpt lat="37.06103231577887" lon="14.731666525531724"><ele>773.0</ele><time>2026-04-04T09:55:40Z</time></trkpt><trkpt lat="37.06098209443497" lon="14.731749467186235"><ele>773.0000000000001</ele><time>2026-04-04T09:55:43Z</time></trkpt><trkpt lat="37.061048999573174" lon="14.731841194529212"><ele>773.0</ele><time>2026-04-04T09:55:46Z</time></trkpt><trkpt lat="37.06111260201388" lon="14.731950302633017"><ele>773.0</ele><time>2026-04-04T09:55:48Z</time></trkpt><trkpt lat="37.06107294126151" lon="14.732028353728191"><ele>773.0</ele><time>2026-04-04T09:55:53Z</time></trkpt><trkpt lat="37.06102208404477" lon="14.73207889556592"><ele>773.0000000000001</ele><time>2026-04-04T09:55:55Z</time></trkpt><trkpt lat="37.060948941675534" lon="14.732112928551926"><ele>773.0</ele><time>2026-04-04T09:55:58Z</time></trkpt><trkpt lat="37.06088249004068" lon="14.732129461051699"><ele>774.3333333333334</ele><time>2026-04-04T09:56:01Z</time></trkpt><trkpt lat="37.06083143634726" lon="14.732203452796895"><ele>775.6666666666667</ele><time>2026-04-04T09:56:05Z</time></trkpt><trkpt lat="37.06077815736878" lon="14.732251553417871"><ele>777.0</ele><time>2026-04-04T09:56:08Z</time></trkpt><trkpt lat="37.060706076229266" lon="14.732358681134285"><ele>778.3333333333333</ele><time>2026-04-04T09:57:16Z</time></trkpt><trkpt lat="37.06066260161455" lon="14.732448278013752"><ele>779.6666666666666</ele><time>2026-04-04T09:57:18Z</time></trkpt><trkpt lat="37.06057450012385" lon="14.732515736182066"><ele>781.0</ele><time>2026-04-04T09:57:20Z</time></trkpt><trkpt lat="37.06056439097777" lon="14.73261287298802"><ele>783.4</ele><time>2026-04-04T09:57:23Z</time></trkpt><trkpt lat="37.0605157060447" lon="14.732729265413562"><ele>785.8</ele><time>2026-04-04T09:57:25Z</time></trkpt><trkpt lat="37.060477460749915" lon="14.732803426475284"><ele>788.1999999999999</ele><time>2026-04-04T09:57:26Z</time></trkpt><trkpt lat="37.0604615384197" lon="14.732885738247019"><ele>790.5999999999999</ele><time>2026-04-04T09:57:27Z</time></trkpt><trkpt lat="37.060497141228346" lon="14.733001767936686"><ele>793.0</ele><time>2026-04-04T09:57:29Z</time></trkpt><trkpt lat="37.06054762231792" lon="14.733124209634973"><ele>792.9999999999999</ele><time>2026-04-04T09:57:31Z</time></trkpt><trkpt lat="37.06053446363587" lon="14.733235277484015"><ele>793.0</ele><time>2026-04-04T09:57:33Z</time></trkpt><trkpt lat="37.06049009270386" lon="14.733313878964553"><ele>793.0</ele><time>2026-04-04T09:57:35Z</time></trkpt><trkpt lat="37.0604248233471" lon="14.733321306447651"><ele>793.0</ele><time>2026-04-04T09:57:37Z</time></trkpt><trkpt lat="37.0603568306782" lon="14.733371739783342"><ele>792.9999999999999</ele><time>2026-04-04T09:57:39Z</time></trkpt><trkpt lat="37.0603350432685" lon="14.733455360078004"><ele>793.0</ele><time>2026-04-04T09:57:40Z</time></trkpt><trkpt lat="37.06028137244497" lon="14.73354755247452"><ele>793.1666666666666</ele><time>2026-04-04T09:57:42Z</time></trkpt><trkpt lat="37.060320711944314" lon="14.733650465318933"><ele>793.3333333333333</ele><time>2026-04-04T09:57:45Z</time></trkpt><trkpt lat="37.060377515318294" lon="14.733685473800724"><ele>793.5</ele><time>2026-04-04T09:57:49Z</time></trkpt><trkpt lat="37.06033776317784" lon="14.733822233583732"><ele>793.6666666666667</ele><time>2026-04-04T09:58:34Z</time></trkpt><trkpt lat="37.06033276057465" lon="14.733919146491019"><ele>793.8333333333334</ele><time>2026-04-04T09:58:35Z</time></trkpt><trkpt lat="37.06033375105317" lon="14.734028523332505"><ele>794.0</ele><time>2026-04-04T09:58:36Z</time></trkpt><trkpt lat="37.06032916343936" lon="14.734129648748144"><ele>794.0</ele><time>2026-04-04T09:58:37Z</time></trkpt><trkpt lat="37.06032100624083" lon="14.734214030251227"><ele>794.0</ele><time>2026-04-04T09:58:38Z</time></trkpt><trkpt lat="37.06031534681716" lon="14.734293418846518"><ele>794.0</ele><time>2026-04-04T09:58:39Z</time></trkpt><trkpt lat="37.06031742164082" lon="14.734429699326725"><ele>794.0</ele><time>2026-04-04T09:58:41Z</time></trkpt><trkpt lat="37.06041204885719" lon="14.73455080075504"><ele>794.0</ele><time>2026-04-04T09:58:43Z</time></trkpt><trkpt lat="37.06050638022234" lon="14.734598288804198"><ele>792.8333333333334</ele><time>2026-04-04T09:58:44Z</time></trkpt><trkpt lat="37.06061481691387" lon="14.734635105540297"><ele>791.6666666666667</ele><time>2026-04-04T09:58:45Z</time></trkpt><trkpt lat="37.060708229862215" lon="14.734614881057503"><ele>790.5</ele><time>2026-04-04T09:58:46Z</time></trkpt><trkpt lat="37.060782651944706" lon="14.734630785507148"><ele>789.3333333333333</ele><time>2026-04-04T09:58:47Z</time></trkpt><trkpt lat="37.06085734766613" lon="14.734639279600984"><ele>788.1666666666666</ele><time>2026-04-04T09:58:48Z</time></trkpt><trkpt lat="37.060935368112986" lon="14.734660948596575"><ele>787.0</ele><time>2026-04-04T09:58:49Z</time></trkpt><trkpt lat="37.06100307222013" lon="14.734715613195045"><ele>786.2</ele><time>2026-04-04T09:58:50Z</time></trkpt><trkpt lat="37.06106833004723" lon="14.734794427884731"><ele>785.4000000000001</ele><time>2026-04-04T09:58:51Z</time></trkpt><trkpt lat="37.061121183325405" lon="14.73488058062381"><ele>784.5999999999999</ele><time>2026-04-04T09:58:52Z</time></trkpt><trkpt lat="37.06117427944162" lon="14.734976886738712"><ele>783.8</ele><time>2026-04-04T09:58:53Z</time></trkpt><trkpt lat="37.06122896856468" lon="14.73508122651592"><ele>783.0</ele><time>2026-04-04T09:58:54Z</time></trkpt><trkpt lat="37.061287247473906" lon="14.735177710404807"><ele>781.5</ele><time>2026-04-04T09:58:55Z</time></trkpt><trkpt lat="37.0613462981618" lon="14.735267549074903"><ele>780.0</ele><time>2026-04-04T09:58:56Z</time></trkpt><trkpt lat="37.061402650959245" lon="14.73535678854291"><ele>778.5</ele><time>2026-04-04T09:58:57Z</time></trkpt><trkpt lat="37.06146081709876" lon="14.73542640060895"><ele>777.0</ele><time>2026-04-04T09:58:58Z</time></trkpt><trkpt lat="37.06152833175199" lon="14.735461418615317"><ele>775.5</ele><time>2026-04-04T09:58:59Z</time></trkpt><trkpt lat="37.061598992971135" lon="14.735469971235576"><ele>774.0</ele><time>2026-04-04T09:59:00Z</time></trkpt><trkpt lat="37.061677002746045" lon="14.735484878302804"><ele>774.0</ele><time>2026-04-04T09:59:01Z</time></trkpt><trkpt lat="37.06176731747766" lon="14.735515932728369"><ele>774.0</ele><time>2026-04-04T09:59:02Z</time></trkpt><trkpt lat="37.06187128779122" lon="14.735545453999965"><ele>774.0</ele><time>2026-04-04T09:59:03Z</time></trkpt><trkpt lat="37.061972069262616" lon="14.735576894513155"><ele>774.0</ele><time>2026-04-04T09:59:04Z</time></trkpt><trkpt lat="37.06208033817234" lon="14.735586413938204"><ele>774.0</ele><time>2026-04-04T09:59:05Z</time></trkpt><trkpt lat="37.06215014211619" lon="14.735604049203886"><ele>774.0</ele><time>2026-04-04T09:59:06Z</time></trkpt><trkpt lat="37.06219642981054" lon="14.735536395540583"><ele>774.0</ele><time>2026-04-04T09:59:22Z</time></trkpt><trkpt lat="37.06223940038353" lon="14.735419605515565"><ele>774.0</ele><time>2026-04-04T09:59:24Z</time></trkpt><trkpt lat="37.062269499671366" lon="14.735347003169478"><ele>774.0</ele><time>2026-04-04T09:59:25Z</time></trkpt><trkpt lat="37.062255380709324" lon="14.735230605360709"><ele>774.0</ele><time>2026-04-04T09:59:28Z</time></trkpt><trkpt lat="37.06231762104966" lon="14.73519925375833"><ele>774.0</ele><time>2026-04-04T09:59:31Z</time></trkpt><trkpt lat="37.06238807640769" lon="14.735237664817966"><ele>776.8333333333334</ele><time>2026-04-04T09:59:33Z</time></trkpt><trkpt lat="37.06246137258408" lon="14.735123345963629"><ele>779.6666666666667</ele><time>2026-04-04T09:59:36Z</time></trkpt><trkpt lat="37.06253526391273" lon="14.735093269702864"><ele>782.5</ele><time>2026-04-04T09:59:39Z</time></trkpt><trkpt lat="37.06258210752324" lon="14.73502052430649"><ele>785.3333333333334</ele><time>2026-04-04T09:59:41Z</time></trkpt><trkpt lat="37.06254351732426" lon="14.73495469096535"><ele>788.1666666666667</ele><time>2026-04-04T09:59:44Z</time></trkpt><trkpt lat="37.06252096023359" lon="14.7348795236689"><ele>791.0</ele><time>2026-04-04T09:59:49Z</time></trkpt><trkpt lat="37.062449700638844" lon="14.734822392333202"><ele>789.0000000000001</ele><time>2026-04-04T09:59:53Z</time></trkpt><trkpt lat="37.06237179383563" lon="14.734789965954429"><ele>787.0</ele><time>2026-04-04T09:59:57Z</time></trkpt><trkpt lat="37.0623399310687" lon="14.734698743712753"><ele>785.0</ele><time>2026-04-04T10:00:00Z</time></trkpt><trkpt lat="37.06240524420545" lon="14.734646615633668"><ele>783.0</ele><time>2026-04-04T10:00:03Z</time></trkpt><trkpt lat="37.062383443299225" lon="14.734551997520343"><ele>781.0000000000001</ele><time>2026-04-04T10:00:06Z</time></trkpt><trkpt lat="37.06236732874185" lon="14.734448369982395"><ele>779.0</ele><time>2026-04-04T10:00:09Z</time></trkpt><trkpt lat="37.062372279655996" lon="14.734337965035936"><ele>777.8000000000001</ele><time>2026-04-04T10:00:11Z</time></trkpt><trkpt lat="37.062395631045646" lon="14.734215550929493"><ele>776.6</ele><time>2026-04-04T10:00:13Z</time></trkpt><trkpt lat="37.06245459482383" lon="14.73417238385703"><ele>775.4</ele><time>2026-04-04T10:00:15Z</time></trkpt><trkpt lat="37.062542297589566" lon="14.734150510247492"><ele>774.2</ele><time>2026-04-04T10:00:17Z</time></trkpt><trkpt lat="37.062698820524496" lon="14.734089363776887"><ele>773.0</ele><time>2026-04-04T10:00:19Z</time></trkpt><trkpt lat="37.06278705076656" lon="14.734042936974165"><ele>775.3333333333334</ele><time>2026-04-04T10:00:21Z</time></trkpt><trkpt lat="37.0628088960826" lon="14.733940334811896"><ele>777.6666666666667</ele><time>2026-04-04T10:00:24Z</time></trkpt><trkpt lat="37.06288446730423" lon="14.733942100739583"><ele>780.0</ele><time>2026-04-04T10:00:26Z</time></trkpt><trkpt lat="37.0629477091489" lon="14.733959214521192"><ele>782.3333333333333</ele><time>2026-04-04T10:00:28Z</time></trkpt><trkpt lat="37.06301882423509" lon="14.733946636906742"><ele>784.6666666666666</ele><time>2026-04-04T10:00:30Z</time></trkpt><trkpt lat="37.06310202546684" lon="14.733931508940756"><ele>787.0</ele><time>2026-04-04T10:00:32Z</time></trkpt><trkpt lat="37.06313820905197" lon="14.73383994593186"><ele>786.9999999999999</ele><time>2026-04-04T10:00:34Z</time></trkpt><trkpt lat="37.06315061940557" lon="14.733748369545685"><ele>787.0</ele><time>2026-04-04T10:00:35Z</time></trkpt><trkpt lat="37.06315889430409" lon="14.733653268279832"><ele>787.0</ele><time>2026-04-04T10:00:36Z</time></trkpt><trkpt lat="37.063147289636156" lon="14.733497830209663"><ele>787.0</ele><time>2026-04-04T10:00:37Z</time></trkpt><trkpt lat="37.06317470156189" lon="14.733401232839569"><ele>786.9999999999999</ele><time>2026-04-04T10:00:38Z</time></trkpt><trkpt lat="37.06319944984934" lon="14.733313581938335"><ele>787.0</ele><time>2026-04-04T10:00:39Z</time></trkpt><trkpt lat="37.06323045832607" lon="14.73322450524821"><ele>787.2</ele><time>2026-04-04T10:00:40Z</time></trkpt><trkpt lat="37.063251355788765" lon="14.733145220949075"><ele>787.4000000000001</ele><time>2026-04-04T10:00:41Z</time></trkpt><trkpt lat="37.0633267484661" lon="14.73302817082913"><ele>787.5999999999999</ele><time>2026-04-04T10:00:43Z</time></trkpt><trkpt lat="37.06340261805223" lon="14.732960817414137"><ele>787.8</ele><time>2026-04-04T10:00:45Z</time></trkpt><trkpt lat="37.06345868070723" lon="14.732869698058607"><ele>788.0</ele><time>2026-04-04T10:00:47Z</time></trkpt><trkpt lat="37.063386710478454" lon="14.732757028418954"><ele>786.5000000000001</ele><time>2026-04-04T10:00:52Z</time></trkpt><trkpt lat="37.06335709766135" lon="14.732682778995168"><ele>785.0</ele><time>2026-04-04T10:00:54Z</time></trkpt><trkpt lat="37.06336110809445" lon="14.732597583981704"><ele>783.5</ele><time>2026-04-04T10:00:57Z</time></trkpt><trkpt lat="37.06333300021301" lon="14.73244637762719"><ele>782.0</ele><time>2026-04-04T10:01:00Z</time></trkpt><trkpt lat="37.063363931716864" lon="14.732371350862078"><ele>780.5000000000001</ele><time>2026-04-04T10:01:03Z</time></trkpt><trkpt lat="37.06331150232115" lon="14.732242584003092"><ele>779.0</ele><time>2026-04-04T10:01:06Z</time></trkpt><trkpt lat="37.063381941262485" lon="14.732159300001323"><ele>779.0000000000001</ele><time>2026-04-04T10:01:09Z</time></trkpt><trkpt lat="37.063399774695355" lon="14.732053545940516"><ele>779.0</ele><time>2026-04-04T10:01:11Z</time></trkpt><trkpt lat="37.06334169297431" lon="14.731980932647915"><ele>779.0</ele><time>2026-04-04T10:01:14Z</time></trkpt><trkpt lat="37.06339721717521" lon="14.73188525464996"><ele>779.0</ele><time>2026-04-04T10:01:17Z</time></trkpt><trkpt lat="37.06344698673584" lon="14.731804584274261"><ele>779.0000000000001</ele><time>2026-04-04T10:01:20Z</time></trkpt><trkpt lat="37.063507512851864" lon="14.731745195484"><ele>779.0</ele><time>2026-04-04T10:01:21Z</time></trkpt><trkpt lat="37.06353636969303" lon="14.731670699505152"><ele>776.5000000000001</ele><time>2026-04-04T10:01:23Z</time></trkpt><trkpt lat="37.063554198039554" lon="14.73158336401718"><ele>774.0</ele><time>2026-04-04T10:01:24Z</time></trkpt><trkpt lat="37.063614684077955" lon="14.731527761836372"><ele>771.5</ele><time>2026-04-04T10:01:26Z</time></trkpt><trkpt lat="37.063678818831406" lon="14.731466248751254"><ele>769.0</ele><time>2026-04-04T10:01:28Z</time></trkpt><trkpt lat="37.063765081160284" lon="14.73136270428305"><ele>766.5</ele><time>2026-04-04T10:01:30Z</time></trkpt><trkpt lat="37.063848153731065" lon="14.731309415433662"><ele>764.0</ele><time>2026-04-04T10:01:32Z</time></trkpt><trkpt lat="37.06390362084617" lon="14.731265861136407"><ele>764.0</ele><time>2026-04-04T10:01:34Z</time></trkpt><trkpt lat="37.06397321036757" lon="14.731238224088212"><ele>764.0</ele><time>2026-04-04T10:01:36Z</time></trkpt><trkpt lat="37.06406555333375" lon="14.731202785620308"><ele>764.0</ele><time>2026-04-04T10:01:38Z</time></trkpt><trkpt lat="37.06415253351878" lon="14.731159457828582"><ele>764.0</ele><time>2026-04-04T10:01:40Z</time></trkpt><trkpt lat="37.064294804687094" lon="14.731110402111605"><ele>764.0</ele><time>2026-04-04T10:01:42Z</time></trkpt><trkpt lat="37.06436834500278" lon="14.731102053240072"><ele>767.0</ele><time>2026-04-04T10:01:43Z</time></trkpt><trkpt lat="37.064439668128635" lon="14.731130938660248"><ele>770.0</ele><time>2026-04-04T10:01:45Z</time></trkpt><trkpt lat="37.06457499903179" lon="14.731149322914272"><ele>773.0</ele><time>2026-04-04T10:01:49Z</time></trkpt><trkpt lat="37.06464645195417" lon="14.731175248610691"><ele>776.0</ele><time>2026-04-04T10:01:52Z</time></trkpt><trkpt lat="37.06470362016855" lon="14.731217701531564"><ele>779.0</ele><time>2026-04-04T10:01:54Z</time></trkpt><trkpt lat="37.0648035503996" lon="14.731223083518648"><ele>779.0</ele><time>2026-04-04T10:01:57Z</time></trkpt><trkpt lat="37.06488385929501" lon="14.731237484517102"><ele>779.0</ele><time>2026-04-04T10:01:59Z</time></trkpt><trkpt lat="37.065065268669656" lon="14.731239079768732"><ele>779.0</ele><time>2026-04-04T10:02:05Z</time></trkpt><trkpt lat="37.065122182296754" lon="14.731204576021158"><ele>779.0</ele><time>2026-04-04T10:02:06Z</time></trkpt><trkpt lat="37.06517124442239" lon="14.731152506395798"><ele>779.0</ele><time>2026-04-04T10:02:08Z</time></trkpt><trkpt lat="37.06522573446061" lon="14.731069759155627"><ele>774.5</ele><time>2026-04-04T10:02:11Z</time></trkpt><trkpt lat="37.065301628909396" lon="14.731008373832509"><ele>770.0</ele><time>2026-04-04T10:02:14Z</time></trkpt><trkpt lat="37.06538250344809" lon="14.730953486663003"><ele>765.5</ele><time>2026-04-04T10:02:16Z</time></trkpt><trkpt lat="37.065469865400026" lon="14.73088402335124"><ele>761.0</ele><time>2026-04-04T10:02:18Z</time></trkpt><trkpt lat="37.06564850992024" lon="14.730772209240765"><ele>761.0</ele><time>2026-04-04T10:02:21Z</time></trkpt><trkpt lat="37.06572506386533" lon="14.730709880256462"><ele>761.0</ele><time>2026-04-04T10:02:23Z</time></trkpt><trkpt lat="37.06582011298663" lon="14.73065373376361"><ele>761.0</ele><time>2026-04-04T10:02:25Z</time></trkpt><trkpt lat="37.06586229272902" lon="14.730581115874191"><ele>761.0</ele><time>2026-04-04T10:02:26Z</time></trkpt><trkpt lat="37.06594834154575" lon="14.73046593373842"><ele>761.0</ele><time>2026-04-04T10:02:27Z</time></trkpt><trkpt lat="37.06601095050734" lon="14.730377684700635"><ele>763.4</ele><time>2026-04-04T10:02:28Z</time></trkpt><trkpt lat="37.066088262912935" lon="14.730286835362088"><ele>765.8</ele><time>2026-04-04T10:02:29Z</time></trkpt><trkpt lat="37.06612922189868" lon="14.730215894670275"><ele>768.1999999999999</ele><time>2026-04-04T10:02:30Z</time></trkpt><trkpt lat="37.06621214408958" lon="14.730169346174396"><ele>770.5999999999999</ele><time>2026-04-04T10:02:32Z</time></trkpt><trkpt lat="37.06628899149753" lon="14.730114778608812"><ele>773.0</ele><time>2026-04-04T10:02:33Z</time></trkpt><trkpt lat="37.06634499556674" lon="14.730003768030222"><ele>772.8</ele><time>2026-04-04T10:02:35Z</time></trkpt><trkpt lat="37.06640927711448" lon="14.729912884917375"><ele>772.5999999999999</ele><time>2026-04-04T10:02:37Z</time></trkpt><trkpt lat="37.066515853324326" lon="14.729804243747019"><ele>772.4000000000001</ele><time>2026-04-04T10:02:39Z</time></trkpt><trkpt lat="37.06659816377041" lon="14.729729181614314"><ele>772.2</ele><time>2026-04-04T10:02:41Z</time></trkpt><trkpt lat="37.06665776634917" lon="14.729651980880002"><ele>772.0</ele><time>2026-04-04T10:02:43Z</time></trkpt><trkpt lat="37.066721536109114" lon="14.7296110621345"><ele>771.9999999999999</ele><time>2026-04-04T10:02:45Z</time></trkpt><trkpt lat="37.06676078848886" lon="14.729487836583843"><ele>772.0</ele><time>2026-04-04T10:02:47Z</time></trkpt><trkpt lat="37.06681949168143" lon="14.729377218319865"><ele>772.0</ele><time>2026-04-04T10:02:51Z</time></trkpt><trkpt lat="37.06684501353059" lon="14.729274950706774"><ele>772.0</ele><time>2026-04-04T10:02:53Z</time></trkpt><trkpt lat="37.066824385573746" lon="14.729189091959256"><ele>771.9999999999999</ele><time>2026-04-04T10:02:55Z</time></trkpt><trkpt lat="37.066809812193384" lon="14.72910446263469"><ele>772.0</ele><time>2026-04-04T10:02:56Z</time></trkpt><trkpt lat="37.066793369057606" lon="14.729013348796215"><ele>766.0</ele><time>2026-04-04T10:02:59Z</time></trkpt><trkpt lat="37.066729167174095" lon="14.728620387843117"><ele>760.0</ele><time>2026-04-04T10:03:02Z</time></trkpt><trkpt lat="37.06681046996771" lon="14.728407038413927"><ele>758.8</ele><time>2026-04-04T10:03:04Z</time></trkpt><trkpt lat="37.06682297536654" lon="14.7283124904974"><ele>757.6</ele><time>2026-04-04T10:03:05Z</time></trkpt><trkpt lat="37.06678935892659" lon="14.728214675844479"><ele>756.4000000000001</ele><time>2026-04-04T10:03:07Z</time></trkpt><trkpt lat="37.06675460936236" lon="14.72811338654469"><ele>755.2</ele><time>2026-04-04T10:03:09Z</time></trkpt><trkpt lat="37.066701390668086" lon="14.7280001886777"><ele>754.0</ele><time>2026-04-04T10:03:11Z</time></trkpt><trkpt lat="37.06660199632603" lon="14.727931410699778"><ele>748.4000000000001</ele><time>2026-04-04T10:03:13Z</time></trkpt><trkpt lat="37.06656623683372" lon="14.72785874708449"><ele>742.8</ele><time>2026-04-04T10:03:15Z</time></trkpt><trkpt lat="37.06650952741211" lon="14.727743617967349"><ele>737.2</ele><time>2026-04-04T10:03:17Z</time></trkpt><trkpt lat="37.06646870621923" lon="14.727615873166085"><ele>731.5999999999999</ele><time>2026-04-04T10:03:19Z</time></trkpt><trkpt lat="37.066376453163265" lon="14.727489388344589"><ele>726.0</ele><time>2026-04-04T10:03:21Z</time></trkpt><trkpt lat="37.06635118362149" lon="14.727383056457471"><ele>726.0</ele><time>2026-04-04T10:03:23Z</time></trkpt><trkpt lat="37.06636715800913" lon="14.72728050336468"><ele>726.0</ele><time>2026-04-04T10:03:25Z</time></trkpt><trkpt lat="37.06630953613108" lon="14.727217474388471"><ele>726.0</ele><time>2026-04-04T10:03:27Z</time></trkpt><trkpt lat="37.0663105405187" lon="14.72709588293418"><ele>726.0</ele><time>2026-04-04T10:03:29Z</time></trkpt><trkpt lat="37.06630357875806" lon="14.726994038936452"><ele>726.0</ele><time>2026-04-04T10:03:31Z</time></trkpt><trkpt lat="37.06630156944513" lon="14.726889807687067"><ele>726.0</ele><time>2026-04-04T10:03:33Z</time></trkpt><trkpt lat="37.06636107698999" lon="14.726775416916597"><ele>727.5999999999999</ele><time>2026-04-04T10:03:35Z</time></trkpt><trkpt lat="37.066396817718406" lon="14.726698598402658"><ele>729.2</ele><time>2026-04-04T10:03:36Z</time></trkpt><trkpt lat="37.066427820669986" lon="14.726549436328677"><ele>730.8</ele><time>2026-04-04T10:03:38Z</time></trkpt><trkpt lat="37.06651616389926" lon="14.72654097837791"><ele>732.4000000000001</ele><time>2026-04-04T10:03:43Z</time></trkpt><trkpt lat="37.0665819468487" lon="14.726455705715981"><ele>734.0</ele><time>2026-04-04T10:03:46Z</time></trkpt><trkpt lat="37.06659768147492" lon="14.726340940939815"><ele>734.0</ele><time>2026-04-04T10:03:49Z</time></trkpt><trkpt lat="37.0665678977238" lon="14.726226915181888"><ele>734.0</ele><time>2026-04-04T10:03:52Z</time></trkpt><trkpt lat="37.06651994889912" lon="14.726154832609579"><ele>734.0</ele><time>2026-04-04T10:03:54Z</time></trkpt><trkpt lat="37.06645698301833" lon="14.72607383898199"><ele>734.0</ele><time>2026-04-04T10:03:57Z</time></trkpt><trkpt lat="37.06638847796049" lon="14.726069108290266"><ele>734.0</ele><time>2026-04-04T10:03:59Z</time></trkpt><trkpt lat="37.06636127204764" lon="14.725912779811997"><ele>735.1666666666666</ele><time>2026-04-04T10:04:02Z</time></trkpt><trkpt lat="37.06636803526603" lon="14.72578512564731"><ele>736.3333333333333</ele><time>2026-04-04T10:04:03Z</time></trkpt><trkpt lat="37.06642652672632" lon="14.725697160300664"><ele>737.5</ele><time>2026-04-04T10:04:05Z</time></trkpt><trkpt lat="37.066442910455336" lon="14.725602286395283"><ele>738.6666666666666</ele><time>2026-04-04T10:04:07Z</time></trkpt><trkpt lat="37.06636347282577" lon="14.725557766448393"><ele>739.8333333333334</ele><time>2026-04-04T10:04:09Z</time></trkpt><trkpt lat="37.06631304287438" lon="14.725482331556977"><ele>741.0</ele><time>2026-04-04T10:04:10Z</time></trkpt><trkpt lat="37.06629196224308" lon="14.725380941595317"><ele>741.0</ele><time>2026-04-04T10:04:13Z</time></trkpt><trkpt lat="37.06624915512724" lon="14.725276761488946"><ele>741.0</ele><time>2026-04-04T10:04:15Z</time></trkpt><trkpt lat="37.06619734139172" lon="14.725207410600655"><ele>741.0</ele><time>2026-04-04T10:04:18Z</time></trkpt><trkpt lat="37.06610972348457" lon="14.725162639492606"><ele>741.0</ele><time>2026-04-04T10:04:21Z</time></trkpt><trkpt lat="37.06607620567022" lon="14.725087927189517"><ele>741.0</ele><time>2026-04-04T10:04:23Z</time></trkpt><trkpt lat="37.06612288040761" lon="14.724997483581086"><ele>741.0</ele><time>2026-04-04T10:04:31Z</time></trkpt><trkpt lat="37.06609035094062" lon="14.72487129741056"><ele>740.8333333333334</ele><time>2026-04-04T10:04:33Z</time></trkpt><trkpt lat="37.066010869229764" lon="14.724779762299505"><ele>740.6666666666666</ele><time>2026-04-04T10:04:35Z</time></trkpt><trkpt lat="37.06596477516563" lon="14.724705548671329"><ele>740.5</ele><time>2026-04-04T10:04:38Z</time></trkpt><trkpt lat="37.06605801893507" lon="14.724667783305483"><ele>740.3333333333333</ele><time>2026-04-04T10:04:43Z</time></trkpt><trkpt lat="37.066131327706344" lon="14.724683831857137"><ele>740.1666666666666</ele><time>2026-04-04T10:04:46Z</time></trkpt><trkpt lat="37.066188250487826" lon="14.724721431462658"><ele>740.0</ele><time>2026-04-04T10:04:48Z</time></trkpt><trkpt lat="37.06625784490127" lon="14.724732627758446"><ele>740.0</ele><time>2026-04-04T10:04:51Z</time></trkpt><trkpt lat="37.06628288984206" lon="14.724622961360273"><ele>740.0</ele><time>2026-04-04T10:04:55Z</time></trkpt><trkpt lat="37.06622451164117" lon="14.724587805854789"><ele>740.0</ele><time>2026-04-04T10:04:58Z</time></trkpt><trkpt lat="37.06621246704707" lon="14.724499722669094"><ele>740.0</ele><time>2026-04-04T10:05:05Z</time></trkpt><trkpt lat="37.06622697456771" lon="14.72439130265312"><ele>740.0</ele><time>2026-04-04T10:05:08Z</time></trkpt><trkpt lat="37.06618080693405" lon="14.72433156478238"><ele>740.0</ele><time>2026-04-04T10:05:11Z</time></trkpt><trkpt lat="37.06614017985078" lon="14.72424001874459"><ele>737.0</ele><time>2026-04-04T10:05:13Z</time></trkpt><trkpt lat="37.06609937149791" lon="14.724144744594879"><ele>734.0</ele><time>2026-04-04T10:05:16Z</time></trkpt><trkpt lat="37.066081855143125" lon="14.724058895364726"><ele>731.0</ele><time>2026-04-04T10:05:17Z</time></trkpt><trkpt lat="37.066049485913354" lon="14.723945456290977"><ele>728.0</ele><time>2026-04-04T10:05:18Z</time></trkpt><trkpt lat="37.06599153824405" lon="14.723841081880407"><ele>725.0</ele><time>2026-04-04T10:05:20Z</time></trkpt><trkpt lat="37.065967011986665" lon="14.723738989236768"><ele>722.0</ele><time>2026-04-04T10:05:22Z</time></trkpt><trkpt lat="37.065920588503204" lon="14.723662057192572"><ele>722.0</ele><time>2026-04-04T10:05:26Z</time></trkpt><trkpt lat="37.06599236298116" lon="14.723652046265844"><ele>722.0</ele><time>2026-04-04T10:05:29Z</time></trkpt><trkpt lat="37.066066349804316" lon="14.723649747963186"><ele>722.0</ele><time>2026-04-04T10:05:30Z</time></trkpt><trkpt lat="37.06613165132583" lon="14.723713158827216"><ele>722.0</ele><time>2026-04-04T10:05:34Z</time></trkpt><trkpt lat="37.06613430418716" lon="14.723803786266712"><ele>722.0</ele><time>2026-04-04T10:05:36Z</time></trkpt><trkpt lat="37.06620297224108" lon="14.723898275991814"><ele>722.0</ele><time>2026-04-04T10:05:40Z</time></trkpt><trkpt lat="37.06625677132076" lon="14.723983281132831"><ele>722.0</ele><time>2026-04-04T10:05:43Z</time></trkpt><trkpt lat="37.06629565025602" lon="14.72407940441576"><ele>722.0</ele><time>2026-04-04T10:05:44Z</time></trkpt><trkpt lat="37.06642263315424" lon="14.724158820494976"><ele>722.0</ele><time>2026-04-04T10:05:47Z</time></trkpt><trkpt lat="37.066501337929395" lon="14.724220313819893"><ele>722.0</ele><time>2026-04-04T10:05:48Z</time></trkpt><trkpt lat="37.06657557184746" lon="14.72427838944016"><ele>722.0</ele><time>2026-04-04T10:05:49Z</time></trkpt><trkpt lat="37.06663078482467" lon="14.724329067450407"><ele>724.8</ele><time>2026-04-04T10:05:50Z</time></trkpt><trkpt lat="37.06671694731587" lon="14.724448353561794"><ele>727.6</ele><time>2026-04-04T10:05:52Z</time></trkpt><trkpt lat="37.06679957780499" lon="14.724531003066586"><ele>730.4</ele><time>2026-04-04T10:05:54Z</time></trkpt><trkpt lat="37.066873542078525" lon="14.724542175890617"><ele>733.1999999999999</ele><time>2026-04-04T10:05:56Z</time></trkpt><trkpt lat="37.06694222022402" lon="14.72451146129853"><ele>736.0</ele><time>2026-04-04T10:06:00Z</time></trkpt><trkpt lat="37.06688059853158" lon="14.724402467762426"><ele>733.1999999999999</ele><time>2026-04-04T10:06:03Z</time></trkpt><trkpt lat="37.0667984177054" lon="14.724368052712508"><ele>730.4</ele><time>2026-04-04T10:06:05Z</time></trkpt><trkpt lat="37.066757590582" lon="14.724276046873138"><ele>727.6</ele><time>2026-04-04T10:06:07Z</time></trkpt><trkpt lat="37.066683664773464" lon="14.724167256705435"><ele>724.8</ele><time>2026-04-04T10:06:09Z</time></trkpt><trkpt lat="37.06660432395384" lon="14.724052388516423"><ele>722.0</ele><time>2026-04-04T10:06:11Z</time></trkpt><trkpt lat="37.06653396172853" lon="14.723973266353282"><ele>722.0</ele><time>2026-04-04T10:06:14Z</time></trkpt><trkpt lat="37.06652054116773" lon="14.723862917332612"><ele>722.0</ele><time>2026-04-04T10:06:28Z</time></trkpt><trkpt lat="37.066689994754306" lon="14.723952828323153"><ele>722.0</ele><time>2026-04-04T10:06:31Z</time></trkpt><trkpt lat="37.06676697139534" lon="14.723983017135717"><ele>722.0</ele><time>2026-04-04T10:06:34Z</time></trkpt><trkpt lat="37.06683332910559" lon="14.724022397718109"><ele>722.0</ele><time>2026-04-04T10:06:37Z</time></trkpt><trkpt lat="37.06691678874308" lon="14.723990718231937"><ele>720.8</ele><time>2026-04-04T10:06:40Z</time></trkpt><trkpt lat="37.066872152096224" lon="14.723907630917386"><ele>719.6</ele><time>2026-04-04T10:06:43Z</time></trkpt><trkpt lat="37.066903890366866" lon="14.723818730508828"><ele>718.4</ele><time>2026-04-04T10:06:46Z</time></trkpt><trkpt lat="37.06690253961179" lon="14.7237335791945"><ele>717.1999999999999</ele><time>2026-04-04T10:06:48Z</time></trkpt><trkpt lat="37.0669069492704" lon="14.723550906474793"><ele>716.0</ele><time>2026-04-04T10:06:51Z</time></trkpt><trkpt lat="37.06671204318446" lon="14.723027101476927"><ele>714.5</ele><time>2026-04-04T10:06:55Z</time></trkpt><trkpt lat="37.06658188781355" lon="14.72274381282176"><ele>713.0</ele><time>2026-04-04T10:06:56Z</time></trkpt><trkpt lat="37.06662929509345" lon="14.722657920767379"><ele>711.5</ele><time>2026-04-04T10:06:58Z</time></trkpt><trkpt lat="37.066604118779054" lon="14.722554264955141"><ele>710.0</ele><time>2026-04-04T10:06:59Z</time></trkpt><trkpt lat="37.06657909997737" lon="14.722459532168015"><ele>707.0</ele><time>2026-04-04T10:07:00Z</time></trkpt><trkpt lat="37.06656205653861" lon="14.722383078764365"><ele>704.0</ele><time>2026-04-04T10:07:01Z</time></trkpt><trkpt lat="37.066500430470434" lon="14.722327645747903"><ele>701.0</ele><time>2026-04-04T10:07:02Z</time></trkpt><trkpt lat="37.06641924391768" lon="14.722199016763335"><ele>698.0</ele><time>2026-04-04T10:07:04Z</time></trkpt><trkpt lat="37.066400267416604" lon="14.722114719685942"><ele>695.0</ele><time>2026-04-04T10:07:05Z</time></trkpt><trkpt lat="37.06629751459573" lon="14.722081728947785"><ele>692.0</ele><time>2026-04-04T10:07:07Z</time></trkpt><trkpt lat="37.0661777399304" lon="14.722058172287328"><ele>692.0</ele><time>2026-04-04T10:07:09Z</time></trkpt><trkpt lat="37.06611237276109" lon="14.722056609508682"><ele>692.0</ele><time>2026-04-04T10:07:10Z</time></trkpt><trkpt lat="37.065976435205435" lon="14.721991249383665"><ele>692.0</ele><time>2026-04-04T10:07:12Z</time></trkpt><trkpt lat="37.065869381033636" lon="14.721974688442048"><ele>692.0</ele><time>2026-04-04T10:07:14Z</time></trkpt><trkpt lat="37.065808686648836" lon="14.721941780404165"><ele>692.0</ele><time>2026-04-04T10:07:15Z</time></trkpt><trkpt lat="37.06571221141894" lon="14.721972510808191"><ele>690.6666666666666</ele><time>2026-04-04T10:07:17Z</time></trkpt><trkpt lat="37.06565287867097" lon="14.722011399167727"><ele>689.3333333333333</ele><time>2026-04-04T10:07:19Z</time></trkpt><trkpt lat="37.06557815902412" lon="14.722028611566849"><ele>688.0</ele><time>2026-04-04T10:07:21Z</time></trkpt><trkpt lat="37.06550599589814" lon="14.72206030083551"><ele>686.6666666666666</ele><time>2026-04-04T10:07:23Z</time></trkpt><trkpt lat="37.06542016363951" lon="14.72209209207403"><ele>685.3333333333334</ele><time>2026-04-04T10:07:25Z</time></trkpt><trkpt lat="37.06535072807711" lon="14.722072253161413"><ele>684.0</ele><time>2026-04-04T10:07:27Z</time></trkpt><trkpt lat="37.06528708576686" lon="14.721988337412164"><ele>681.5</ele><time>2026-04-04T10:07:30Z</time></trkpt><trkpt lat="37.06523855375361" lon="14.721898192489945"><ele>679.0</ele><time>2026-04-04T10:07:32Z</time></trkpt><trkpt lat="37.065215366785665" lon="14.721822718561247"><ele>676.5</ele><time>2026-04-04T10:07:34Z</time></trkpt><trkpt lat="37.06517639618394" lon="14.72173818720944"><ele>674.0</ele><time>2026-04-04T10:07:36Z</time></trkpt><trkpt lat="37.06511425370897" lon="14.721655821651282"><ele>671.5</ele><time>2026-04-04T10:07:38Z</time></trkpt><trkpt lat="37.06500729566306" lon="14.721678989645639"><ele>669.0</ele><time>2026-04-04T10:07:40Z</time></trkpt><trkpt lat="37.064939740730125" lon="14.721724826462971"><ele>669.0</ele><time>2026-04-04T10:07:42Z</time></trkpt><trkpt lat="37.06498715964676" lon="14.721652018639446"><ele>669.0</ele><time>2026-04-04T10:07:46Z</time></trkpt><trkpt lat="37.06492053178925" lon="14.721653913953055"><ele>669.0</ele><time>2026-04-04T10:09:05Z</time></trkpt><trkpt lat="37.0648612970796" lon="14.721591081191795"><ele>669.0</ele><time>2026-04-04T10:09:41Z</time></trkpt><trkpt lat="37.06493580948385" lon="14.721577918214596"><ele>669.0</ele><time>2026-04-04T10:12:50Z</time></trkpt><trkpt lat="37.064903675894186" lon="14.721500871381899"><ele>669.0</ele><time>2026-04-04T10:12:52Z</time></trkpt><trkpt lat="37.064892468517215" lon="14.72138071920439"><ele>665.0</ele><time>2026-04-04T10:12:55Z</time></trkpt><trkpt lat="37.06484195277659" lon="14.721316213931058"><ele>661.0</ele><time>2026-04-04T10:12:58Z</time></trkpt><trkpt lat="37.064835952036674" lon="14.721214460135128"><ele>657.0</ele><time>2026-04-04T10:13:00Z</time></trkpt><trkpt lat="37.06483284846043" lon="14.721127065687638"><ele>653.0</ele><time>2026-04-04T10:13:02Z</time></trkpt><trkpt lat="37.06486532555765" lon="14.721033052199717"><ele>649.0</ele><time>2026-04-04T10:13:05Z</time></trkpt><trkpt lat="37.064877345784865" lon="14.720936256255845"><ele>645.0</ele><time>2026-04-04T10:13:07Z</time></trkpt><trkpt lat="37.06485703510452" lon="14.720819519457743"><ele>643.8</ele><time>2026-04-04T10:13:09Z</time></trkpt><trkpt lat="37.06486071641061" lon="14.720671848001173"><ele>642.6</ele><time>2026-04-04T10:13:11Z</time></trkpt><trkpt lat="37.0648307478155" lon="14.720547613283422"><ele>641.4</ele><time>2026-04-04T10:13:13Z</time></trkpt><trkpt lat="37.0648345457409" lon="14.720436154976971"><ele>640.2</ele><time>2026-04-04T10:13:15Z</time></trkpt><trkpt lat="37.06482901340048" lon="14.720322341763012"><ele>639.0</ele><time>2026-04-04T10:13:17Z</time></trkpt><trkpt lat="37.06479303335939" lon="14.720241683583414"><ele>637.5</ele><time>2026-04-04T10:13:19Z</time></trkpt><trkpt lat="37.06478581433855" lon="14.720151779128715"><ele>636.0</ele><time>2026-04-04T10:13:21Z</time></trkpt><trkpt lat="37.06480158313298" lon="14.720069691335782"><ele>634.5</ele><time>2026-04-04T10:13:23Z</time></trkpt><trkpt lat="37.064800649519924" lon="14.71991825294392"><ele>633.0</ele><time>2026-04-04T10:13:25Z</time></trkpt><trkpt lat="37.064785701575715" lon="14.719802600427151"><ele>631.5</ele><time>2026-04-04T10:13:27Z</time></trkpt><trkpt lat="37.06482039713651" lon="14.719706867124838"><ele>630.0</ele><time>2026-04-04T10:13:29Z</time></trkpt><trkpt lat="37.064792790961015" lon="14.71961627700957"><ele>630.0</ele><time>2026-04-04T10:13:31Z</time></trkpt><trkpt lat="37.06477480198719" lon="14.719514909131"><ele>630.0</ele><time>2026-04-04T10:13:33Z</time></trkpt><trkpt lat="37.064727257283366" lon="14.71945088753027"><ele>630.0</ele><time>2026-04-04T10:13:35Z</time></trkpt><trkpt lat="37.064691539800265" lon="14.719383572706054"><ele>630.0</ele><time>2026-04-04T10:13:37Z</time></trkpt><trkpt lat="37.06467957264758" lon="14.719299763789204"><ele>630.0</ele><time>2026-04-04T10:13:39Z</time></trkpt><trkpt lat="37.0646818177835" lon="14.719191891684256"><ele>630.0</ele><time>2026-04-04T10:13:43Z</time></trkpt><trkpt lat="37.06468930914313" lon="14.719102230481496"><ele>630.0</ele><time>2026-04-04T10:13:45Z</time></trkpt><trkpt lat="37.06465452954054" lon="14.718999384452085"><ele>628.0</ele><time>2026-04-04T10:13:49Z</time></trkpt><trkpt lat="37.06463231072002" lon="14.718880493080936"><ele>626.0</ele><time>2026-04-04T10:13:52Z</time></trkpt><trkpt lat="37.06459152487559" lon="14.718739828689701"><ele>624.0</ele><time>2026-04-04T10:13:54Z</time></trkpt><trkpt lat="37.06457142183912" lon="14.718640916946622"><ele>622.0</ele><time>2026-04-04T10:13:55Z</time></trkpt><trkpt lat="37.06454577457755" lon="14.71856438218247"><ele>620.0</ele><time>2026-04-04T10:13:56Z</time></trkpt><trkpt lat="37.0644693496237" lon="14.7184887559283"><ele>618.6666666666666</ele><time>2026-04-04T10:13:58Z</time></trkpt><trkpt lat="37.06444833129395" lon="14.718376184639062"><ele>617.3333333333333</ele><time>2026-04-04T10:14:00Z</time></trkpt><trkpt lat="37.064435193325" lon="14.718263477853068"><ele>616.0</ele><time>2026-04-04T10:14:02Z</time></trkpt><trkpt lat="37.0644430594447" lon="14.718174396686134"><ele>614.6666666666666</ele><time>2026-04-04T10:14:04Z</time></trkpt><trkpt lat="37.064465865086895" lon="14.7180801962174"><ele>613.3333333333334</ele><time>2026-04-04T10:14:06Z</time></trkpt><trkpt lat="37.06442789322498" lon="14.717960488405968"><ele>612.0</ele><time>2026-04-04T10:14:08Z</time></trkpt><trkpt lat="37.064390655552245" lon="14.717881824193219"><ele>612.0</ele><time>2026-04-04T10:14:10Z</time></trkpt><trkpt lat="37.06437073348334" lon="14.71780610113049"><ele>612.0</ele><time>2026-04-04T10:14:12Z</time></trkpt><trkpt lat="37.06439981409923" lon="14.717711738175408"><ele>612.0</ele><time>2026-04-04T10:14:14Z</time></trkpt><trkpt lat="37.06441015610162" lon="14.717588435809553"><ele>612.0</ele><time>2026-04-04T10:14:16Z</time></trkpt><trkpt lat="37.06438104376121" lon="14.717513210868471"><ele>612.0</ele><time>2026-04-04T10:14:17Z</time></trkpt><trkpt lat="37.06434253688226" lon="14.71740608096278"><ele>612.0</ele><time>2026-04-04T10:14:19Z</time></trkpt><trkpt lat="37.064279167130245" lon="14.717326467997024"><ele>610.6666666666666</ele><time>2026-04-04T10:14:21Z</time></trkpt><trkpt lat="37.06421716972889" lon="14.717229993303874"><ele>609.3333333333334</ele><time>2026-04-04T10:14:23Z</time></trkpt><trkpt lat="37.06418241021395" lon="14.717114104009884"><ele>608.0</ele><time>2026-04-04T10:14:25Z</time></trkpt><trkpt lat="37.06416281262715" lon="14.717034265969772"><ele>606.6666666666667</ele><time>2026-04-04T10:14:27Z</time></trkpt><trkpt lat="37.06411687292146" lon="14.716970161283664"><ele>605.3333333333334</ele><time>2026-04-04T10:14:28Z</time></trkpt><trkpt lat="37.06411036059198" lon="14.71685705436597"><ele>604.0</ele><time>2026-04-04T10:14:30Z</time></trkpt><trkpt lat="37.064141709579474" lon="14.716759120743422"><ele>602.5</ele><time>2026-04-04T10:14:32Z</time></trkpt><trkpt lat="37.06413746756005" lon="14.716676976078146"><ele>601.0</ele><time>2026-04-04T10:15:26Z</time></trkpt><trkpt lat="37.06408834122563" lon="14.716626250973667"><ele>599.5</ele><time>2026-04-04T10:15:28Z</time></trkpt><trkpt lat="37.06405866081237" lon="14.71653426593989"><ele>598.0</ele><time>2026-04-04T10:15:30Z</time></trkpt><trkpt lat="37.06402629457041" lon="14.71639088844441"><ele>596.5</ele><time>2026-04-04T10:15:32Z</time></trkpt><trkpt lat="37.06397465573459" lon="14.716282854455319"><ele>595.0</ele><time>2026-04-04T10:15:34Z</time></trkpt><trkpt lat="37.06392052312808" lon="14.716191391950385"><ele>592.3333333333334</ele><time>2026-04-04T10:15:36Z</time></trkpt><trkpt lat="37.0638811281805" lon="14.716103199040958"><ele>589.6666666666667</ele><time>2026-04-04T10:15:39Z</time></trkpt><trkpt lat="37.06384188504521" lon="14.715992538411378"><ele>587.0</ele><time>2026-04-04T10:15:42Z</time></trkpt><trkpt lat="37.063818354918446" lon="14.71590686462258"><ele>584.3333333333334</ele><time>2026-04-04T10:15:46Z</time></trkpt><trkpt lat="37.06380928775065" lon="14.715820624637937"><ele>581.6666666666666</ele><time>2026-04-04T10:15:48Z</time></trkpt><trkpt lat="37.06375514912644" lon="14.715701818257008"><ele>579.0</ele><time>2026-04-04T10:15:52Z</time></trkpt><trkpt lat="37.063738265225815" lon="14.715625437535603"><ele>579.0</ele><time>2026-04-04T10:15:55Z</time></trkpt><trkpt lat="37.063724588805094" lon="14.715543400789088"><ele>579.0</ele><time>2026-04-04T10:15:57Z</time></trkpt><trkpt lat="37.063718010765285" lon="14.715450434343225"><ele>579.0</ele><time>2026-04-04T10:15:59Z</time></trkpt><trkpt lat="37.06372557314403" lon="14.71532835206215"><ele>579.0</ele><time>2026-04-04T10:16:00Z</time></trkpt><trkpt lat="37.06370912586602" lon="14.715235542635721"><ele>579.0</ele><time>2026-04-04T10:16:01Z</time></trkpt><trkpt lat="37.06369507883455" lon="14.715143576381397"><ele>579.0</ele><time>2026-04-04T10:16:02Z</time></trkpt><trkpt lat="37.0636605037463" lon="14.715038605617128"><ele>578.5714285714286</ele><time>2026-04-04T10:16:04Z</time></trkpt><trkpt lat="37.0636488513471" lon="14.7149179385971"><ele>578.1428571428571</ele><time>2026-04-04T10:16:06Z</time></trkpt><trkpt lat="37.06365070691241" lon="14.714832470914327"><ele>577.7142857142858</ele><time>2026-04-04T10:16:09Z</time></trkpt><trkpt lat="37.06369035714773" lon="14.714770880212017"><ele>577.2857142857142</ele><time>2026-04-04T10:16:11Z</time></trkpt><trkpt lat="37.06368301868336" lon="14.714673930260865"><ele>576.8571428571429</ele><time>2026-04-04T10:16:14Z</time></trkpt><trkpt lat="37.063685784605795" lon="14.714591864111304"><ele>576.4285714285714</ele><time>2026-04-04T10:16:17Z</time></trkpt><trkpt lat="37.06368028172064" lon="14.71450164228882"><ele>576.0</ele><time>2026-04-04T10:16:19Z</time></trkpt><trkpt lat="37.063658009476214" lon="14.714425597067688"><ele>574.5</ele><time>2026-04-04T10:16:21Z</time></trkpt><trkpt lat="37.06368018784174" lon="14.714341925383215"><ele>573.0</ele><time>2026-04-04T10:16:23Z</time></trkpt><trkpt lat="37.063634955146206" lon="14.714258633609091"><ele>571.5</ele><time>2026-04-04T10:16:25Z</time></trkpt><trkpt lat="37.06361899709378" lon="14.714146018412945"><ele>570.0</ele><time>2026-04-04T10:16:27Z</time></trkpt><trkpt lat="37.06358331823037" lon="14.7140289385553"><ele>568.5</ele><time>2026-04-04T10:16:29Z</time></trkpt><trkpt lat="37.06352403000608" lon="14.71392293323485"><ele>567.0</ele><time>2026-04-04T10:16:30Z</time></trkpt><trkpt lat="37.063496977172164" lon="14.713837340302858"><ele>567.0</ele><time>2026-04-04T10:16:32Z</time></trkpt><trkpt lat="37.063481298063174" lon="14.713749315504717"><ele>567.0</ele><time>2026-04-04T10:16:36Z</time></trkpt><trkpt lat="37.063485008994846" lon="14.713639470975714"><ele>567.0</ele><time>2026-04-04T10:16:43Z</time></trkpt><trkpt lat="37.06344069172293" lon="14.713533913804161"><ele>567.0</ele><time>2026-04-04T10:16:51Z</time></trkpt><trkpt lat="37.06341042917" lon="14.713448412717302"><ele>567.0</ele><time>2026-04-04T10:16:52Z</time></trkpt><trkpt lat="37.06337520748094" lon="14.71337221548207"><ele>567.0</ele><time>2026-04-04T10:16:53Z</time></trkpt><trkpt lat="37.0633171278286" lon="14.713229869241562"><ele>565.8571428571429</ele><time>2026-04-04T10:16:55Z</time></trkpt><trkpt lat="37.063285043949" lon="14.713154529122246"><ele>564.7142857142858</ele><time>2026-04-04T10:16:56Z</time></trkpt><trkpt lat="37.063254755805346" lon="14.713072838050852"><ele>563.5714285714286</ele><time>2026-04-04T10:16:57Z</time></trkpt><trkpt lat="37.063212941541096" lon="14.712982136786925"><ele>562.4285714285714</ele><time>2026-04-04T10:16:58Z</time></trkpt><trkpt lat="37.063182971963954" lon="14.712903410608924"><ele>561.2857142857143</ele><time>2026-04-04T10:16:59Z</time></trkpt><trkpt lat="37.06315964260714" lon="14.712818896795431"><ele>560.1428571428571</ele><time>2026-04-04T10:17:00Z</time></trkpt><trkpt lat="37.06313087730272" lon="14.712722290392591"><ele>559.0</ele><time>2026-04-04T10:17:01Z</time></trkpt><trkpt lat="37.06308262769732" lon="14.712619934844975"><ele>553.8</ele><time>2026-04-04T10:17:02Z</time></trkpt><trkpt lat="37.0630317079686" lon="14.712521419122897"><ele>548.5999999999999</ele><time>2026-04-04T10:17:03Z</time></trkpt><trkpt lat="37.06299021331507" lon="14.712397308893545"><ele>543.4</ele><time>2026-04-04T10:17:04Z</time></trkpt><trkpt lat="37.06295177892843" lon="14.71226281948069"><ele>538.1999999999999</ele><time>2026-04-04T10:17:05Z</time></trkpt><trkpt lat="37.06291615355929" lon="14.712140222642446"><ele>533.0</ele><time>2026-04-04T10:17:06Z</time></trkpt><trkpt lat="37.06288849212151" lon="14.712022558002257"><ele>533.1999999999999</ele><time>2026-04-04T10:17:07Z</time></trkpt><trkpt lat="37.06286207877384" lon="14.711903544271593"><ele>533.4</ele><time>2026-04-04T10:17:08Z</time></trkpt><trkpt lat="37.062832990266294" lon="14.71179696175934"><ele>533.5999999999999</ele><time>2026-04-04T10:17:09Z</time></trkpt><trkpt lat="37.06281185155146" lon="14.711689569408309"><ele>533.8</ele><time>2026-04-04T10:17:10Z</time></trkpt><trkpt lat="37.06279750056534" lon="14.711564280127499"><ele>534.0</ele><time>2026-04-04T10:17:11Z</time></trkpt><trkpt lat="37.06278663953543" lon="14.711438104469634"><ele>534.0</ele><time>2026-04-04T10:17:12Z</time></trkpt><trkpt lat="37.06277342831914" lon="14.711304195139123"><ele>534.0</ele><time>2026-04-04T10:17:13Z</time></trkpt><trkpt lat="37.06276922672078" lon="14.711166319186498"><ele>534.0</ele><time>2026-04-04T10:17:14Z</time></trkpt><trkpt lat="37.062767240646075" lon="14.711031805749728"><ele>534.0</ele><time>2026-04-04T10:17:15Z</time></trkpt><trkpt lat="37.062767941737555" lon="14.710900199935377"><ele>534.0</ele><time>2026-04-04T10:17:16Z</time></trkpt><trkpt lat="37.06276892952761" lon="14.710764725227836"><ele>533.2</ele><time>2026-04-04T10:17:17Z</time></trkpt><trkpt lat="37.06276212344373" lon="14.710634377659739"><ele>532.4</ele><time>2026-04-04T10:17:18Z</time></trkpt><trkpt lat="37.06275285226161" lon="14.710499188942332"><ele>531.6</ele><time>2026-04-04T10:17:19Z</time></trkpt><trkpt lat="37.0627417770833" lon="14.710361919674215"><ele>530.8</ele><time>2026-04-04T10:17:20Z</time></trkpt><trkpt lat="37.06273651271427" lon="14.710216941394044"><ele>530.0</ele><time>2026-04-04T10:17:21Z</time></trkpt><trkpt lat="37.06272785071013" lon="14.710079024757649"><ele>529.0</ele><time>2026-04-04T10:17:22Z</time></trkpt><trkpt lat="37.06270625463109" lon="14.709946649036377"><ele>528.0</ele><time>2026-04-04T10:17:23Z</time></trkpt><trkpt lat="37.06267591138643" lon="14.7098220391231"><ele>527.0</ele><time>2026-04-04T10:17:24Z</time></trkpt><trkpt lat="37.0626308595613" lon="14.709695391395714"><ele>526.0</ele><time>2026-04-04T10:17:25Z</time></trkpt><trkpt lat="37.062582786364295" lon="14.709582246037233"><ele>525.0</ele><time>2026-04-04T10:17:26Z</time></trkpt><trkpt lat="37.062532985560736" lon="14.709491817779947"><ele>525.0</ele><time>2026-04-04T10:17:27Z</time></trkpt><trkpt lat="37.062500223978816" lon="14.709420257416378"><ele>525.0</ele><time>2026-04-04T10:17:28Z</time></trkpt><trkpt lat="37.06245484200225" lon="14.709299352309863"><ele>525.0</ele><time>2026-04-04T10:17:30Z</time></trkpt><trkpt lat="37.06238754753799" lon="14.709488110451819"><ele>525.0</ele><time>2026-04-04T10:17:34Z</time></trkpt><trkpt lat="37.062388247334084" lon="14.709574961319618"><ele>525.0</ele><time>2026-04-04T10:17:35Z</time></trkpt><trkpt lat="37.06237619207167" lon="14.709665285728475"><ele>523.0</ele><time>2026-04-04T10:17:36Z</time></trkpt><trkpt lat="37.06235576877997" lon="14.709763974167961"><ele>521.0</ele><time>2026-04-04T10:17:37Z</time></trkpt><trkpt lat="37.06234049148864" lon="14.709882642579137"><ele>519.0</ele><time>2026-04-04T10:17:39Z</time></trkpt><trkpt lat="37.06233948300678" lon="14.709975987999893"><ele>517.0</ele><time>2026-04-04T10:17:44Z</time></trkpt><trkpt lat="37.06232770174272" lon="14.710129620742737"><ele>515.0</ele><time>2026-04-04T10:17:46Z</time></trkpt><trkpt lat="37.06231324041651" lon="14.710212582476208"><ele>513.0</ele><time>2026-04-04T10:17:47Z</time></trkpt><trkpt lat="37.062295442967944" lon="14.710371387587038"><ele>513.0</ele><time>2026-04-04T10:17:49Z</time></trkpt><trkpt lat="37.062288091378505" lon="14.710463646368467"><ele>513.0</ele><time>2026-04-04T10:17:50Z</time></trkpt><trkpt lat="37.06226038454683" lon="14.71054758194293"><ele>513.0</ele><time>2026-04-04T10:17:51Z</time></trkpt><trkpt lat="37.06221870732386" lon="14.710626990296177"><ele>513.0</ele><time>2026-04-04T10:17:52Z</time></trkpt><trkpt lat="37.06217983180386" lon="14.710710483381716"><ele>513.0</ele><time>2026-04-04T10:17:53Z</time></trkpt><trkpt lat="37.062137267951535" lon="14.710863791021815"><ele>513.0</ele><time>2026-04-04T10:17:55Z</time></trkpt><trkpt lat="37.062108729132255" lon="14.710949284198872"><ele>513.0</ele><time>2026-04-04T10:17:56Z</time></trkpt><trkpt lat="37.06207864908029" lon="14.711018905920303"><ele>513.0</ele><time>2026-04-04T10:17:57Z</time></trkpt><trkpt lat="37.06202189494785" lon="14.711133920104096"><ele>513.0</ele><time>2026-04-04T10:17:59Z</time></trkpt><trkpt lat="37.06190231194531" lon="14.711093937902689"><ele>513.0</ele><time>2026-04-04T10:18:01Z</time></trkpt><trkpt lat="37.0618129183753" lon="14.711061368243897"><ele>513.0</ele><time>2026-04-04T10:18:03Z</time></trkpt><trkpt lat="37.06176155145276" lon="14.711210349534209"><ele>513.1666666666666</ele><time>2026-04-04T10:18:06Z</time></trkpt><trkpt lat="37.06176395537947" lon="14.711305513782554"><ele>513.3333333333334</ele><time>2026-04-04T10:18:07Z</time></trkpt><trkpt lat="37.06173487109037" lon="14.711381826748763"><ele>513.5</ele><time>2026-04-04T10:18:08Z</time></trkpt><trkpt lat="37.061680713585325" lon="14.711426949906109"><ele>513.6666666666667</ele><time>2026-04-04T10:18:09Z</time></trkpt><trkpt lat="37.061642454856944" lon="14.711524713929252"><ele>513.8333333333334</ele><time>2026-04-04T10:18:11Z</time></trkpt><trkpt lat="37.061703455966814" lon="14.711669619682587"><ele>514.0</ele><time>2026-04-04T10:18:13Z</time></trkpt><trkpt lat="37.061733089484264" lon="14.711741565705134"><ele>514.0</ele><time>2026-04-04T10:18:14Z</time></trkpt><trkpt lat="37.06177069683589" lon="14.711805355508147"><ele>514.0</ele><time>2026-04-04T10:18:16Z</time></trkpt><trkpt lat="37.06169863026487" lon="14.711853052874549"><ele>514.0</ele><time>2026-04-04T10:18:19Z</time></trkpt><trkpt lat="37.06162357974284" lon="14.711798229180493"><ele>514.0</ele><time>2026-04-04T10:18:21Z</time></trkpt><trkpt lat="37.06154776884586" lon="14.71185136946963"><ele>514.0</ele><time>2026-04-04T10:18:24Z</time></trkpt><trkpt lat="37.061509860667556" lon="14.711938531051288"><ele>514.0</ele><time>2026-04-04T10:18:26Z</time></trkpt><trkpt lat="37.06140800046245" lon="14.712006700742407"><ele>515.3333333333334</ele><time>2026-04-04T10:18:28Z</time></trkpt><trkpt lat="37.061370941738446" lon="14.712088031416183"><ele>516.6666666666667</ele><time>2026-04-04T10:18:29Z</time></trkpt><trkpt lat="37.06131599421362" lon="14.712213983142128"><ele>518.0</ele><time>2026-04-04T10:18:31Z</time></trkpt><trkpt lat="37.06124777058232" lon="14.712268384139637"><ele>519.3333333333334</ele><time>2026-04-04T10:18:33Z</time></trkpt><trkpt lat="37.06126467783264" lon="14.712354062055372"><ele>520.6666666666666</ele><time>2026-04-04T10:18:36Z</time></trkpt><trkpt lat="37.06121179290339" lon="14.712410252137182"><ele>522.0</ele><time>2026-04-04T10:18:39Z</time></trkpt><trkpt lat="37.06118085526979" lon="14.712483530148166"><ele>522.0</ele><time>2026-04-04T10:18:41Z</time></trkpt><trkpt lat="37.06113110699222" lon="14.712534233969562"><ele>522.0</ele><time>2026-04-04T10:18:44Z</time></trkpt><trkpt lat="37.06107640011891" lon="14.71261778340094"><ele>522.0</ele><time>2026-04-04T10:18:47Z</time></trkpt><trkpt lat="37.06103241336491" lon="14.712706868095555"><ele>522.0</ele><time>2026-04-04T10:18:49Z</time></trkpt><trkpt lat="37.060959418238085" lon="14.71279085778214"><ele>522.0</ele><time>2026-04-04T10:18:51Z</time></trkpt><trkpt lat="37.06091326157907" lon="14.712863367987843"><ele>522.0</ele><time>2026-04-04T10:18:52Z</time></trkpt><trkpt lat="37.06082207966289" lon="14.712958087317732"><ele>524.3333333333334</ele><time>2026-04-04T10:18:54Z</time></trkpt><trkpt lat="37.06077448420419" lon="14.713018277764702"><ele>526.6666666666666</ele><time>2026-04-04T10:18:55Z</time></trkpt><trkpt lat="37.06072829450573" lon="14.713092339632723"><ele>529.0</ele><time>2026-04-04T10:18:56Z</time></trkpt><trkpt lat="37.06067595317337" lon="14.713165845837956"><ele>531.3333333333333</ele><time>2026-04-04T10:18:57Z</time></trkpt><trkpt lat="37.06061507151763" lon="14.713249315746253"><ele>533.6666666666666</ele><time>2026-04-04T10:18:58Z</time></trkpt><trkpt lat="37.060553711369536" lon="14.713335930719309"><ele>536.0</ele><time>2026-04-04T10:18:59Z</time></trkpt><trkpt lat="37.06049871235853" lon="14.71343233167314"><ele>536.0</ele><time>2026-04-04T10:19:00Z</time></trkpt><trkpt lat="37.06044691291668" lon="14.713531410221314"><ele>536.0</ele><time>2026-04-04T10:19:01Z</time></trkpt><trkpt lat="37.06038708890173" lon="14.713605773696763"><ele>536.0</ele><time>2026-04-04T10:19:02Z</time></trkpt><trkpt lat="37.060329876068835" lon="14.71370500759085"><ele>536.0</ele><time>2026-04-04T10:19:03Z</time></trkpt><trkpt lat="37.06027830070399" lon="14.713789466074157"><ele>536.0</ele><time>2026-04-04T10:19:04Z</time></trkpt><trkpt lat="37.060240475280764" lon="14.713883000329874"><ele>536.0</ele><time>2026-04-04T10:19:05Z</time></trkpt><trkpt lat="37.06021373747888" lon="14.713975733163844"><ele>536.3333333333333</ele><time>2026-04-04T10:19:06Z</time></trkpt><trkpt lat="37.06024533904655" lon="14.714106447872949"><ele>536.6666666666666</ele><time>2026-04-04T10:19:08Z</time></trkpt><trkpt lat="37.06023034382467" lon="14.714224351613977"><ele>537.0</ele><time>2026-04-04T10:19:10Z</time></trkpt><trkpt lat="37.06020403427821" lon="14.714309393868398"><ele>537.3333333333334</ele><time>2026-04-04T10:19:12Z</time></trkpt><trkpt lat="37.060185107688156" lon="14.714406129000972"><ele>537.6666666666667</ele><time>2026-04-04T10:19:15Z</time></trkpt><trkpt lat="37.06016804190239" lon="14.714490105683891"><ele>538.0</ele><time>2026-04-04T10:19:17Z</time></trkpt><trkpt lat="37.06013550928783" lon="14.714584260766678"><ele>538.0</ele><time>2026-04-04T10:19:19Z</time></trkpt><trkpt lat="37.060119701342" lon="14.714685482211067"><ele>538.0</ele><time>2026-04-04T10:19:21Z</time></trkpt><trkpt lat="37.06011188543361" lon="14.714786024420615"><ele>538.0</ele><time>2026-04-04T10:19:23Z</time></trkpt><trkpt lat="37.06009738194455" lon="14.714879832362298"><ele>538.0</ele><time>2026-04-04T10:19:25Z</time></trkpt><trkpt lat="37.060055313427625" lon="14.715038658764579"><ele>538.0</ele><time>2026-04-04T10:19:27Z</time></trkpt><trkpt lat="37.060027180705326" lon="14.715133252811807"><ele>538.0</ele><time>2026-04-04T10:19:29Z</time></trkpt><trkpt lat="37.05996187763068" lon="14.715149247834182"><ele>538.0</ele><time>2026-04-04T10:19:31Z</time></trkpt><trkpt lat="37.05988096920098" lon="14.71507590467848"><ele>538.0</ele><time>2026-04-04T10:19:33Z</time></trkpt><trkpt lat="37.05984537578606" lon="14.71492010801805"><ele>538.0</ele><time>2026-04-04T10:19:35Z</time></trkpt><trkpt lat="37.05981802596292" lon="14.714836144509057"><ele>538.0</ele><time>2026-04-04T10:19:36Z</time></trkpt><trkpt lat="37.05976722772606" lon="14.714745956735275"><ele>542.1666666666667</ele><time>2026-04-04T10:19:37Z</time></trkpt><trkpt lat="37.05971298283809" lon="14.714651784556098"><ele>546.3333333333334</ele><time>2026-04-04T10:19:38Z</time></trkpt><trkpt lat="37.05967250372338" lon="14.714561671102796"><ele>550.5</ele><time>2026-04-04T10:19:39Z</time></trkpt><trkpt lat="37.05964130022287" lon="14.714471624464341"><ele>554.6666666666666</ele><time>2026-04-04T10:19:40Z</time></trkpt><trkpt lat="37.059609238052545" lon="14.714385333343987"><ele>558.8333333333333</ele><time>2026-04-04T10:19:41Z</time></trkpt><trkpt lat="37.05958273953045" lon="14.714296620561797"><ele>563.0</ele><time>2026-04-04T10:19:42Z</time></trkpt><trkpt lat="37.05957265089838" lon="14.71420801585932"><ele>563.0</ele><time>2026-04-04T10:19:43Z</time></trkpt><trkpt lat="37.05954981286858" lon="14.71411671201446"><ele>563.0</ele><time>2026-04-04T10:19:44Z</time></trkpt><trkpt lat="37.059524448124264" lon="14.714027447619731"><ele>563.0</ele><time>2026-04-04T10:19:45Z</time></trkpt><trkpt lat="37.05948270916503" lon="14.713948369514465"><ele>563.0</ele><time>2026-04-04T10:19:46Z</time></trkpt><trkpt lat="37.05946939211759" lon="14.713851856211699"><ele>563.0</ele><time>2026-04-04T10:19:47Z</time></trkpt><trkpt lat="37.059459393526" lon="14.713749013673985"><ele>563.0</ele><time>2026-04-04T10:19:48Z</time></trkpt><trkpt lat="37.05946084499948" lon="14.713655938209975"><ele>562.5</ele><time>2026-04-04T10:19:49Z</time></trkpt><trkpt lat="37.05943767691435" lon="14.713570610495253"><ele>562.0</ele><time>2026-04-04T10:19:50Z</time></trkpt><trkpt lat="37.05942275597764" lon="14.713428413034194"><ele>561.5</ele><time>2026-04-04T10:19:52Z</time></trkpt><trkpt lat="37.05942074229872" lon="14.713348813442067"><ele>561.0</ele><time>2026-04-04T10:19:53Z</time></trkpt><trkpt lat="37.059447468404876" lon="14.71327266556871"><ele>560.5</ele><time>2026-04-04T10:19:54Z</time></trkpt><trkpt lat="37.05944073578988" lon="14.713120630429612"><ele>560.0</ele><time>2026-04-04T10:19:56Z</time></trkpt><trkpt lat="37.05943828573486" lon="14.713041459209185"><ele>560.0</ele><time>2026-04-04T10:19:57Z</time></trkpt><trkpt lat="37.05944462744052" lon="14.712929652534779"><ele>560.0</ele><time>2026-04-04T10:19:59Z</time></trkpt><trkpt lat="37.059327195397" lon="14.712953636844686"><ele>560.0</ele><time>2026-04-04T10:20:04Z</time></trkpt><trkpt lat="37.05918131520253" lon="14.712983600732759"><ele>560.0</ele><time>2026-04-04T10:20:06Z</time></trkpt><trkpt lat="37.059067141422865" lon="14.713012318243948"><ele>562.3333333333333</ele><time>2026-04-04T10:20:07Z</time></trkpt><trkpt lat="37.058919654988216" lon="14.713049875363703"><ele>564.6666666666666</ele><time>2026-04-04T10:20:08Z</time></trkpt><trkpt lat="37.05870840278087" lon="14.713128080973433"><ele>567.0</ele><time>2026-04-04T10:20:09Z</time></trkpt><trkpt lat="37.05857929165716" lon="14.713170128174797"><ele>567.0</ele><time>2026-04-04T10:20:10Z</time></trkpt><trkpt lat="37.05848224233589" lon="14.713191266922086"><ele>567.0</ele><time>2026-04-04T10:20:11Z</time></trkpt><trkpt lat="37.0583909693841" lon="14.713177731549685"><ele>567.0</ele><time>2026-04-04T10:20:12Z</time></trkpt><trkpt lat="37.058261941105" lon="14.713152901515997"><ele>567.0</ele><time>2026-04-04T10:20:13Z</time></trkpt><trkpt lat="37.05806095503089" lon="14.71309643425689"><ele>567.5</ele><time>2026-04-04T10:20:14Z</time></trkpt><trkpt lat="37.057909693896136" lon="14.713062114249983"><ele>568.0</ele><time>2026-04-04T10:20:15Z</time></trkpt><trkpt lat="37.057785938546075" lon="14.71301388628846"><ele>568.5</ele><time>2026-04-04T10:20:16Z</time></trkpt><trkpt lat="37.05769209270794" lon="14.713006801591492"><ele>569.0</ele><time>2026-04-04T10:20:17Z</time></trkpt><trkpt lat="37.05760528573473" lon="14.712990168911357"><ele>569.0</ele><time>2026-04-04T10:20:18Z</time></trkpt><trkpt lat="37.05750549390361" lon="14.712982938238223"><ele>569.0</ele><time>2026-04-04T10:20:20Z</time></trkpt><trkpt lat="37.05744188469228" lon="14.712977909807657"><ele>569.0</ele><time>2026-04-04T10:20:23Z</time></trkpt><trkpt lat="37.05748896391268" lon="14.713066736900776"><ele>569.0</ele><time>2026-04-04T10:20:26Z</time></trkpt><trkpt lat="37.05753576146574" lon="14.713124561051675"><ele>569.0</ele><time>2026-04-04T10:20:29Z</time></trkpt><trkpt lat="37.057485686721954" lon="14.713196984295823"><ele>569.0</ele><time>2026-04-04T10:20:51Z</time></trkpt><trkpt lat="37.05741646294097" lon="14.713296647760016"><ele>566.8</ele><time>2026-04-04T10:20:53Z</time></trkpt><trkpt lat="37.05735286372801" lon="14.713378143184588"><ele>564.5999999999999</ele><time>2026-04-04T10:20:55Z</time></trkpt><trkpt lat="37.05728753953692" lon="14.713467585889562"><ele>562.4</ele><time>2026-04-04T10:20:57Z</time></trkpt><trkpt lat="37.05720246195168" lon="14.713574085815976"><ele>560.1999999999999</ele><time>2026-04-04T10:20:59Z</time></trkpt><trkpt lat="37.05711836534504" lon="14.71368476180842"><ele>558.0</ele><time>2026-04-04T10:21:01Z</time></trkpt><trkpt lat="37.05703630357712" lon="14.713803783433864"><ele>558.0</ele><time>2026-04-04T10:21:03Z</time></trkpt><trkpt lat="37.05698812009413" lon="14.713861413230791"><ele>558.0</ele><time>2026-04-04T10:21:04Z</time></trkpt><trkpt lat="37.0569395140668" lon="14.713933619440049"><ele>558.0</ele><time>2026-04-04T10:21:05Z</time></trkpt><trkpt lat="37.05685386141207" lon="14.714040003484207"><ele>558.0</ele><time>2026-04-04T10:21:07Z</time></trkpt><trkpt lat="37.05677024568309" lon="14.714143847774624"><ele>558.0</ele><time>2026-04-04T10:21:09Z</time></trkpt><trkpt lat="37.05669018861477" lon="14.714235785570724"><ele>559.6666666666666</ele><time>2026-04-04T10:21:11Z</time></trkpt><trkpt lat="37.056613495257885" lon="14.714323852751317"><ele>561.3333333333334</ele><time>2026-04-04T10:21:13Z</time></trkpt><trkpt lat="37.05652521715469" lon="14.714376155259545"><ele>563.0</ele><time>2026-04-04T10:21:15Z</time></trkpt><trkpt lat="37.05644827523499" lon="14.714425277432175"><ele>564.6666666666667</ele><time>2026-04-04T10:21:18Z</time></trkpt><trkpt lat="37.05637346242661" lon="14.71439550119166"><ele>566.3333333333334</ele><time>2026-04-04T10:21:20Z</time></trkpt><trkpt lat="37.05636144377452" lon="14.714304487643979"><ele>568.0</ele><time>2026-04-04T10:21:23Z</time></trkpt><trkpt lat="37.05632734611936" lon="14.714225670050043"><ele>568.0</ele><time>2026-04-04T10:21:27Z</time></trkpt><trkpt lat="37.05623429702357" lon="14.714155669930072"><ele>568.0</ele><time>2026-04-04T10:21:31Z</time></trkpt><trkpt lat="37.05618877121793" lon="14.714091843007367"><ele>568.0</ele><time>2026-04-04T10:21:35Z</time></trkpt><trkpt lat="37.0562500641806" lon="14.71407082092185"><ele>568.0</ele><time>2026-04-04T10:21:38Z</time></trkpt><trkpt lat="37.05628525223554" lon="14.713931308019006"><ele>568.0</ele><time>2026-04-04T10:21:40Z</time></trkpt><trkpt lat="37.056290440984554" lon="14.713833557970647"><ele>568.0</ele><time>2026-04-04T10:21:41Z</time></trkpt><trkpt lat="37.05629547230168" lon="14.713730427315035"><ele>568.0</ele><time>2026-04-04T10:21:42Z</time></trkpt><trkpt lat="37.05629951428862" lon="14.713594827278332"><ele>568.0</ele><time>2026-04-04T10:21:44Z</time></trkpt><trkpt lat="37.05630039201378" lon="14.713421076315482"><ele>568.0</ele><time>2026-04-04T10:21:46Z</time></trkpt><trkpt lat="37.056297802992304" lon="14.713281406768905"><ele>568.0</ele><time>2026-04-04T10:21:48Z</time></trkpt><trkpt lat="37.056286819732954" lon="14.713156818595845"><ele>570.0</ele><time>2026-04-04T10:21:49Z</time></trkpt><trkpt lat="37.056280329651294" lon="14.712977022874117"><ele>572.0</ele><time>2026-04-04T10:21:50Z</time></trkpt><trkpt lat="37.05627108940935" lon="14.712774038903339"><ele>574.0</ele><time>2026-04-04T10:21:51Z</time></trkpt><trkpt lat="37.056244217466535" lon="14.71260405826717"><ele>576.0</ele><time>2026-04-04T10:21:52Z</time></trkpt><trkpt lat="37.056207918746935" lon="14.712441041797488"><ele>576.0</ele><time>2026-04-04T10:21:53Z</time></trkpt><trkpt lat="37.056167299842784" lon="14.712308971008197"><ele>576.0</ele><time>2026-04-04T10:21:54Z</time></trkpt><trkpt lat="37.056127850156734" lon="14.712203242593638"><ele>576.0</ele><time>2026-04-04T10:21:55Z</time></trkpt><trkpt lat="37.05608898457651" lon="14.712083057259584"><ele>576.0</ele><time>2026-04-04T10:21:56Z</time></trkpt><trkpt lat="37.05603325546609" lon="14.711956777176434"><ele>576.0</ele><time>2026-04-04T10:21:57Z</time></trkpt><trkpt lat="37.05597505635665" lon="14.711852734019123"><ele>573.8</ele><time>2026-04-04T10:21:58Z</time></trkpt><trkpt lat="37.0559024178382" lon="14.711763715579329"><ele>571.6</ele><time>2026-04-04T10:21:59Z</time></trkpt><trkpt lat="37.055812595197104" lon="14.71168191359422"><ele>569.4</ele><time>2026-04-04T10:22:00Z</time></trkpt><trkpt lat="37.05572967073645" lon="14.711607585095647"><ele>567.2</ele><time>2026-04-04T10:22:01Z</time></trkpt><trkpt lat="37.05565226200515" lon="14.711545094553292"><ele>565.0</ele><time>2026-04-04T10:22:02Z</time></trkpt><trkpt lat="37.05558555341485" lon="14.711489540404596"><ele>565.0</ele><time>2026-04-04T10:22:03Z</time></trkpt><trkpt lat="37.055503008443" lon="14.711444211992145"><ele>565.0</ele><time>2026-04-04T10:22:04Z</time></trkpt><trkpt lat="37.055411978540704" lon="14.71141251455811"><ele>565.0</ele><time>2026-04-04T10:22:05Z</time></trkpt><trkpt lat="37.055298554827104" lon="14.71138940515757"><ele>565.0</ele><time>2026-04-04T10:22:06Z</time></trkpt><trkpt lat="37.05517414546171" lon="14.711375414328787"><ele>565.0</ele><time>2026-04-04T10:22:07Z</time></trkpt><trkpt lat="37.05504467250158" lon="14.711368948387365"><ele>563.0</ele><time>2026-04-04T10:22:08Z</time></trkpt><trkpt lat="37.05492291511948" lon="14.711359076652174"><ele>561.0</ele><time>2026-04-04T10:22:09Z</time></trkpt><trkpt lat="37.05480432912256" lon="14.71134948491342"><ele>559.0</ele><time>2026-04-04T10:22:10Z</time></trkpt><trkpt lat="37.05469073047792" lon="14.711349186078595"><ele>557.0</ele><time>2026-04-04T10:22:11Z</time></trkpt><trkpt lat="37.054584064411" lon="14.711376625033672"><ele>557.0</ele><time>2026-04-04T10:22:12Z</time></trkpt><trkpt lat="37.054484347111874" lon="14.711426203352422"><ele>557.0</ele><time>2026-04-04T10:22:13Z</time></trkpt><trkpt lat="37.054390383166734" lon="14.711489021829767"><ele>557.0</ele><time>2026-04-04T10:22:14Z</time></trkpt><trkpt lat="37.05430600413518" lon="14.711536008985512"><ele>557.0</ele><time>2026-04-04T10:22:15Z</time></trkpt><trkpt lat="37.054235728071305" lon="14.711561674801452"><ele>557.0</ele><time>2026-04-04T10:22:16Z</time></trkpt><trkpt lat="37.054167045506226" lon="14.71155184591074"><ele>557.0</ele><time>2026-04-04T10:22:17Z</time></trkpt><trkpt lat="37.05411218454942" lon="14.711503932227657"><ele>558.2</ele><time>2026-04-04T10:22:18Z</time></trkpt><trkpt lat="37.054055486881396" lon="14.71145865366089"><ele>559.4000000000001</ele><time>2026-04-04T10:22:19Z</time></trkpt><trkpt lat="37.054051282461145" lon="14.71133927376309"><ele>560.5999999999999</ele><time>2026-04-04T10:22:20Z</time></trkpt><trkpt lat="37.05403673305953" lon="14.711226556985894"><ele>561.8</ele><time>2026-04-04T10:22:21Z</time></trkpt><trkpt lat="37.05403466987034" lon="14.711109770573355"><ele>563.0</ele><time>2026-04-04T10:22:22Z</time></trkpt><trkpt lat="37.054029691459526" lon="14.710976701761552"><ele>563.0</ele><time>2026-04-04T10:22:23Z</time></trkpt><trkpt lat="37.05401493271493" lon="14.710839367617407"><ele>563.0</ele><time>2026-04-04T10:22:24Z</time></trkpt><trkpt lat="37.053998768937646" lon="14.710696334132926"><ele>563.0</ele><time>2026-04-04T10:22:25Z</time></trkpt><trkpt lat="37.05399253888122" lon="14.710545420660209"><ele>563.0</ele><time>2026-04-04T10:22:26Z</time></trkpt><trkpt lat="37.054001716444894" lon="14.71039212420729"><ele>563.0</ele><time>2026-04-04T10:22:27Z</time></trkpt><trkpt lat="37.054035191295576" lon="14.710260335668659"><ele>563.0</ele><time>2026-04-04T10:22:28Z</time></trkpt><trkpt lat="37.05405686424352" lon="14.710141194292369"><ele>563.0</ele><time>2026-04-04T10:22:29Z</time></trkpt><trkpt lat="37.05406288931377" lon="14.710023942873361"><ele>563.0</ele><time>2026-04-04T10:22:30Z</time></trkpt><trkpt lat="37.054043756469646" lon="14.709906739420806"><ele>563.0</ele><time>2026-04-04T10:22:31Z</time></trkpt><trkpt lat="37.05398576631131" lon="14.709788123124659"><ele>561.25</ele><time>2026-04-04T10:22:32Z</time></trkpt><trkpt lat="37.05389773989551" lon="14.709684232134887"><ele>559.5</ele><time>2026-04-04T10:22:33Z</time></trkpt><trkpt lat="37.053791212086324" lon="14.709572948033177"><ele>557.75</ele><time>2026-04-04T10:22:34Z</time></trkpt><trkpt lat="37.05369183333873" lon="14.709452164508575"><ele>556.0</ele><time>2026-04-04T10:22:35Z</time></trkpt><trkpt lat="37.053602999966" lon="14.709337474248537"><ele>553.75</ele><time>2026-04-04T10:22:36Z</time></trkpt><trkpt lat="37.053516485234205" lon="14.709233240842446"><ele>551.5</ele><time>2026-04-04T10:22:37Z</time></trkpt><trkpt lat="37.05343544150188" lon="14.7091355207954"><ele>549.25</ele><time>2026-04-04T10:22:38Z</time></trkpt><trkpt lat="37.053362576118055" lon="14.709038797688716"><ele>547.0</ele><time>2026-04-04T10:22:39Z</time></trkpt><trkpt lat="37.053283233555355" lon="14.708929239207523"><ele>546.6666666666667</ele><time>2026-04-04T10:22:40Z</time></trkpt><trkpt lat="37.05318687170203" lon="14.708808460506537"><ele>546.3333333333334</ele><time>2026-04-04T10:22:41Z</time></trkpt><trkpt lat="37.053069978093745" lon="14.708666510206267"><ele>546.0</ele><time>2026-04-04T10:22:42Z</time></trkpt><trkpt lat="37.05295582427331" lon="14.708514165547054"><ele>543.5</ele><time>2026-04-04T10:22:43Z</time></trkpt><trkpt lat="37.05284650919439" lon="14.708373092828612"><ele>541.0</ele><time>2026-04-04T10:22:44Z</time></trkpt><trkpt lat="37.05275239119797" lon="14.7082548466349"><ele>538.5</ele><time>2026-04-04T10:22:45Z</time></trkpt><trkpt lat="37.05265967313212" lon="14.708148031401976"><ele>536.0</ele><time>2026-04-04T10:22:46Z</time></trkpt><trkpt lat="37.05258196427448" lon="14.70805007730205"><ele>536.0</ele><time>2026-04-04T10:22:47Z</time></trkpt><trkpt lat="37.052508605166736" lon="14.707957615116507"><ele>536.0</ele><time>2026-04-04T10:22:48Z</time></trkpt><trkpt lat="37.0524386072959" lon="14.707875953882027"><ele>536.0</ele><time>2026-04-04T10:22:49Z</time></trkpt><trkpt lat="37.05236359819206" lon="14.707807235827739"><ele>536.0</ele><time>2026-04-04T10:22:50Z</time></trkpt><trkpt lat="37.05226993520966" lon="14.7077707921802"><ele>536.0</ele><time>2026-04-04T10:22:51Z</time></trkpt><trkpt lat="37.05214838637539" lon="14.707773661956628"><ele>536.25</ele><time>2026-04-04T10:22:52Z</time></trkpt><trkpt lat="37.05202422029848" lon="14.707797641976263"><ele>536.5</ele><time>2026-04-04T10:22:53Z</time></trkpt><trkpt lat="37.051911775369696" lon="14.707831827663416"><ele>536.75</ele><time>2026-04-04T10:22:54Z</time></trkpt><trkpt lat="37.05180495956057" lon="14.707850799993038"><ele>537.0</ele><time>2026-04-04T10:22:55Z</time></trkpt><trkpt lat="37.05170483564923" lon="14.707834730406612"><ele>536.8000000000001</ele><time>2026-04-04T10:22:56Z</time></trkpt><trkpt lat="37.051616010717076" lon="14.707772353046572"><ele>536.6</ele><time>2026-04-04T10:22:57Z</time></trkpt><trkpt lat="37.05154223331967" lon="14.70769031478692"><ele>536.4000000000001</ele><time>2026-04-04T10:22:58Z</time></trkpt><trkpt lat="37.051486150955235" lon="14.707579601164849"><ele>536.2</ele><time>2026-04-04T10:22:59Z</time></trkpt><trkpt lat="37.05144616410948" lon="14.707442629194496"><ele>536.0</ele><time>2026-04-04T10:23:00Z</time></trkpt><trkpt lat="37.051369341577214" lon="14.707323664370954"><ele>536.0</ele><time>2026-04-04T10:23:01Z</time></trkpt><trkpt lat="37.051278012354906" lon="14.707207444824174"><ele>536.0</ele><time>2026-04-04T10:23:02Z</time></trkpt><trkpt lat="37.05116641036036" lon="14.707101536575319"><ele>536.0</ele><time>2026-04-04T10:23:03Z</time></trkpt><trkpt lat="37.05106309907663" lon="14.70700841849304"><ele>536.0</ele><time>2026-04-04T10:23:04Z</time></trkpt><trkpt lat="37.05096083920694" lon="14.706914582693877"><ele>534.5</ele><time>2026-04-04T10:23:05Z</time></trkpt><trkpt lat="37.05086797502501" lon="14.706799175478704"><ele>533.0</ele><time>2026-04-04T10:23:06Z</time></trkpt><trkpt lat="37.050758297116836" lon="14.706695635872814"><ele>531.5</ele><time>2026-04-04T10:23:07Z</time></trkpt><trkpt lat="37.050661172835866" lon="14.706594489695469"><ele>530.0</ele><time>2026-04-04T10:23:08Z</time></trkpt><trkpt lat="37.05055608684327" lon="14.706502487871767"><ele>530.0</ele><time>2026-04-04T10:23:09Z</time></trkpt><trkpt lat="37.050446802078696" lon="14.706428042683122"><ele>530.0</ele><time>2026-04-04T10:23:10Z</time></trkpt><trkpt lat="37.05035098597031" lon="14.706332718285221"><ele>530.0</ele><time>2026-04-04T10:23:11Z</time></trkpt><trkpt lat="37.05027741712501" lon="14.706201858891905"><ele>530.0</ele><time>2026-04-04T10:23:12Z</time></trkpt><trkpt lat="37.05018950378007" lon="14.706077031544643"><ele>529.25</ele><time>2026-04-04T10:23:13Z</time></trkpt><trkpt lat="37.05013988477211" lon="14.70593552528815"><ele>528.5</ele><time>2026-04-04T10:23:14Z</time></trkpt><trkpt lat="37.050077348778025" lon="14.705787293314053"><ele>527.75</ele><time>2026-04-04T10:23:15Z</time></trkpt><trkpt lat="37.050002170980015" lon="14.705628416646029"><ele>527.0</ele><time>2026-04-04T10:23:16Z</time></trkpt><trkpt lat="37.04993013589606" lon="14.705447497797003"><ele>527.0</ele><time>2026-04-04T10:23:17Z</time></trkpt><trkpt lat="37.04984468917149" lon="14.705268978109666"><ele>527.0</ele><time>2026-04-04T10:23:18Z</time></trkpt><trkpt lat="37.04978384566813" lon="14.705139273700249"><ele>527.0</ele><time>2026-04-04T10:23:19Z</time></trkpt><trkpt lat="37.049730754313664" lon="14.705040972065424"><ele>527.0</ele><time>2026-04-04T10:23:20Z</time></trkpt><trkpt lat="37.049655102571535" lon="14.70497023955421"><ele>523.5</ele><time>2026-04-04T10:23:21Z</time></trkpt><trkpt lat="37.04954332613693" lon="14.704921107761733"><ele>520.0</ele><time>2026-04-04T10:23:22Z</time></trkpt><trkpt lat="37.049422155767715" lon="14.704910791279016"><ele>516.5</ele><time>2026-04-04T10:23:23Z</time></trkpt><trkpt lat="37.04928615182088" lon="14.704945231337696"><ele>513.0</ele><time>2026-04-04T10:23:24Z</time></trkpt><trkpt lat="37.04914304771408" lon="14.705007860978558"><ele>514.6</ele><time>2026-04-04T10:23:25Z</time></trkpt><trkpt lat="37.04901889945537" lon="14.705058116981395"><ele>516.1999999999999</ele><time>2026-04-04T10:23:26Z</time></trkpt><trkpt lat="37.048922789078304" lon="14.70509799099554"><ele>517.8</ele><time>2026-04-04T10:23:27Z</time></trkpt><trkpt lat="37.048841416359565" lon="14.705130721516246"><ele>519.4</ele><time>2026-04-04T10:23:28Z</time></trkpt><trkpt lat="37.048762560573564" lon="14.705091566970756"><ele>521.0</ele><time>2026-04-04T10:23:29Z</time></trkpt><trkpt lat="37.048693699467115" lon="14.705043237818487"><ele>521.0</ele><time>2026-04-04T10:23:30Z</time></trkpt><trkpt lat="37.048640763566546" lon="14.704975808736757"><ele>521.0</ele><time>2026-04-04T10:23:31Z</time></trkpt><trkpt lat="37.04860394519295" lon="14.704900409440896"><ele>521.0</ele><time>2026-04-04T10:23:32Z</time></trkpt><trkpt lat="37.04857143924361" lon="14.70476257499245"><ele>521.0</ele><time>2026-04-04T10:23:34Z</time></trkpt><trkpt lat="37.04857502454856" lon="14.704646692561159"><ele>521.0</ele><time>2026-04-04T10:23:36Z</time></trkpt><trkpt lat="37.04860679623231" lon="14.704523166501668"><ele>521.0</ele><time>2026-04-04T10:23:38Z</time></trkpt><trkpt lat="37.04862690283265" lon="14.704429078739718"><ele>521.0</ele><time>2026-04-04T10:23:39Z</time></trkpt><trkpt lat="37.0486599510306" lon="14.704289971611725"><ele>521.0</ele><time>2026-04-04T10:23:40Z</time></trkpt><trkpt lat="37.04868824436998" lon="14.704156718518279"><ele>521.0</ele><time>2026-04-04T10:23:41Z</time></trkpt><trkpt lat="37.04871643581465" lon="14.704081972767964"><ele>521.0</ele><time>2026-04-04T10:25:57Z</time></trkpt><trkpt lat="37.04874397174402" lon="14.703953488632893"><ele>522.4</ele><time>2026-04-04T10:25:59Z</time></trkpt><trkpt lat="37.04875283526473" lon="14.703796375684137"><ele>523.8</ele><time>2026-04-04T10:26:01Z</time></trkpt><trkpt lat="37.04874164453936" lon="14.70371379147382"><ele>525.1999999999999</ele><time>2026-04-04T10:26:02Z</time></trkpt><trkpt lat="37.04866132559602" lon="14.703628962874063"><ele>526.6</ele><time>2026-04-04T10:26:04Z</time></trkpt><trkpt lat="37.04858666596986" lon="14.703642435219034"><ele>528.0</ele><time>2026-04-04T10:26:06Z</time></trkpt><trkpt lat="37.04852701769721" lon="14.7037852738583"><ele>528.0</ele><time>2026-04-04T10:26:08Z</time></trkpt><trkpt lat="37.04848396031154" lon="14.703921661879523"><ele>528.0</ele><time>2026-04-04T10:26:09Z</time></trkpt><trkpt lat="37.048423175879165" lon="14.70408092336256"><ele>528.0</ele><time>2026-04-04T10:26:10Z</time></trkpt><trkpt lat="37.04834373716583" lon="14.704248467277296"><ele>528.0</ele><time>2026-04-04T10:26:11Z</time></trkpt><trkpt lat="37.048249153540645" lon="14.704428476912907"><ele>531.0</ele><time>2026-04-04T10:26:12Z</time></trkpt><trkpt lat="37.0481562675884" lon="14.70459855523157"><ele>534.0</ele><time>2026-04-04T10:26:13Z</time></trkpt><trkpt lat="37.048070657716714" lon="14.704749106744263"><ele>537.0</ele><time>2026-04-04T10:26:14Z</time></trkpt><trkpt lat="37.04799423426125" lon="14.704877945788745"><ele>540.0</ele><time>2026-04-04T10:26:15Z</time></trkpt><trkpt lat="37.04793736747082" lon="14.704983100116104"><ele>540.0</ele><time>2026-04-04T10:26:16Z</time></trkpt><trkpt lat="37.04787380645532" lon="14.705075554195464"><ele>540.0</ele><time>2026-04-04T10:26:17Z</time></trkpt><trkpt lat="37.047799896873585" lon="14.70521769246646"><ele>540.0</ele><time>2026-04-04T10:26:18Z</time></trkpt><trkpt lat="37.047713629983875" lon="14.705338689858253"><ele>540.0</ele><time>2026-04-04T10:26:19Z</time></trkpt><trkpt lat="37.047616915895205" lon="14.705475885993991"><ele>538.0</ele><time>2026-04-04T10:26:20Z</time></trkpt><trkpt lat="37.04751166452171" lon="14.70564221034351"><ele>536.0</ele><time>2026-04-04T10:26:21Z</time></trkpt><trkpt lat="37.04739763043866" lon="14.705827113518728"><ele>534.0</ele><time>2026-04-04T10:26:22Z</time></trkpt><trkpt lat="37.04729047113061" lon="14.705996063748325"><ele>534.6</ele><time>2026-04-04T10:26:23Z</time></trkpt><trkpt lat="37.0472098742715" lon="14.706103746184885"><ele>535.2</ele><time>2026-04-04T10:26:24Z</time></trkpt><trkpt lat="37.04714278758336" lon="14.70615815747836"><ele>535.8000000000001</ele><time>2026-04-04T10:26:25Z</time></trkpt><trkpt lat="37.047065364207825" lon="14.706183221808809"><ele>536.4</ele><time>2026-04-04T10:26:26Z</time></trkpt><trkpt lat="37.0469553177985" lon="14.706183109775203"><ele>537.0</ele><time>2026-04-04T10:26:27Z</time></trkpt><trkpt lat="37.04682415842468" lon="14.706159864315971"><ele>537.0</ele><time>2026-04-04T10:26:28Z</time></trkpt><trkpt lat="37.04669357223633" lon="14.70614143591512"><ele>537.0</ele><time>2026-04-04T10:26:29Z</time></trkpt><trkpt lat="37.046579123457825" lon="14.706137677899802"><ele>537.0</ele><time>2026-04-04T10:26:30Z</time></trkpt><trkpt lat="37.04649000968102" lon="14.706149474635408"><ele>537.0</ele><time>2026-04-04T10:26:31Z</time></trkpt><trkpt lat="37.04640625636483" lon="14.706174331947386"><ele>537.0</ele><time>2026-04-04T10:26:32Z</time></trkpt><trkpt lat="37.04632918522431" lon="14.706209842327686"><ele>539.8000000000001</ele><time>2026-04-04T10:26:33Z</time></trkpt><trkpt lat="37.04625259198709" lon="14.706255808549065"><ele>542.6</ele><time>2026-04-04T10:26:34Z</time></trkpt><trkpt lat="37.04616747636293" lon="14.706301862663416"><ele>545.4000000000001</ele><time>2026-04-04T10:26:35Z</time></trkpt><trkpt lat="37.04607199646318" lon="14.706351235928464"><ele>548.2</ele><time>2026-04-04T10:26:36Z</time></trkpt><trkpt lat="37.04597600058968" lon="14.70640358377234"><ele>551.0</ele><time>2026-04-04T10:26:37Z</time></trkpt><trkpt lat="37.04588003789639" lon="14.706453965714692"><ele>551.0</ele><time>2026-04-04T10:26:38Z</time></trkpt><trkpt lat="37.045801285923304" lon="14.706505468432779"><ele>551.0</ele><time>2026-04-04T10:26:39Z</time></trkpt><trkpt lat="37.04573828173886" lon="14.706546693927375"><ele>551.0</ele><time>2026-04-04T10:26:40Z</time></trkpt><trkpt lat="37.04564049093544" lon="14.706645447402117"><ele>551.0</ele><time>2026-04-04T10:26:42Z</time></trkpt><trkpt lat="37.04555869989869" lon="14.706757374481532"><ele>551.0</ele><time>2026-04-04T10:26:44Z</time></trkpt><trkpt lat="37.04551811961316" lon="14.706857736396373"><ele>553.3333333333333</ele><time>2026-04-04T10:26:46Z</time></trkpt><trkpt lat="37.04548158666887" lon="14.706931017891701"><ele>555.6666666666666</ele><time>2026-04-04T10:26:48Z</time></trkpt><trkpt lat="37.04543406623728" lon="14.707047683822946"><ele>558.0</ele><time>2026-04-04T10:26:50Z</time></trkpt><trkpt lat="37.04539538942918" lon="14.707150419407924"><ele>560.3333333333334</ele><time>2026-04-04T10:26:52Z</time></trkpt><trkpt lat="37.04537365506317" lon="14.707225072641723"><ele>562.6666666666667</ele><time>2026-04-04T10:26:54Z</time></trkpt><trkpt lat="37.04532141525444" lon="14.707288430071499"><ele>565.0</ele><time>2026-04-04T10:27:52Z</time></trkpt><trkpt lat="37.04525613217988" lon="14.707341150096685"><ele>565.0</ele><time>2026-04-04T10:27:54Z</time></trkpt><trkpt lat="37.0452012669464" lon="14.707436608035295"><ele>565.0</ele><time>2026-04-04T10:27:56Z</time></trkpt><trkpt lat="37.045157242457016" lon="14.707513411432446"><ele>565.0</ele><time>2026-04-04T10:27:57Z</time></trkpt><trkpt lat="37.04511274006549" lon="14.707583125451993"><ele>565.0</ele><time>2026-04-04T10:27:58Z</time></trkpt><trkpt lat="37.04504494941285" lon="14.70766523164911"><ele>565.0</ele><time>2026-04-04T10:27:59Z</time></trkpt><trkpt lat="37.04497186168285" lon="14.707756733528186"><ele>565.0</ele><time>2026-04-04T10:28:00Z</time></trkpt><trkpt lat="37.0449024796134" lon="14.707844535865211"><ele>566.3333333333334</ele><time>2026-04-04T10:28:01Z</time></trkpt><trkpt lat="37.044838447883365" lon="14.707889129250637"><ele>567.6666666666667</ele><time>2026-04-04T10:28:04Z</time></trkpt><trkpt lat="37.044763828965124" lon="14.707803209969025"><ele>569.0</ele><time>2026-04-04T10:28:24Z</time></trkpt><trkpt lat="37.04469393117146" lon="14.70783302407857"><ele>570.3333333333334</ele><time>2026-04-04T10:28:28Z</time></trkpt><trkpt lat="37.044620990449985" lon="14.707856434404166"><ele>571.6666666666666</ele><time>2026-04-04T10:28:43Z</time></trkpt><trkpt lat="37.04453058042392" lon="14.707861700024885"><ele>573.0</ele><time>2026-04-04T10:28:46Z</time></trkpt><trkpt lat="37.04444092492013" lon="14.70786571302718"><ele>573.0</ele><time>2026-04-04T10:28:49Z</time></trkpt><trkpt lat="37.04435325747673" lon="14.707860740363072"><ele>573.0</ele><time>2026-04-04T10:28:51Z</time></trkpt><trkpt lat="37.04426068280799" lon="14.707867160304561"><ele>573.0</ele><time>2026-04-04T10:28:53Z</time></trkpt><trkpt lat="37.04417493079488" lon="14.707875381187817"><ele>573.0</ele><time>2026-04-04T10:28:55Z</time></trkpt><trkpt lat="37.04408506987131" lon="14.707887152013566"><ele>573.0</ele><time>2026-04-04T10:28:57Z</time></trkpt><trkpt lat="37.044017730084114" lon="14.70788535502532"><ele>573.0</ele><time>2026-04-04T10:29:00Z</time></trkpt><trkpt lat="37.043926762080446" lon="14.707872267589114"><ele>571.6</ele><time>2026-04-04T10:29:03Z</time></trkpt><trkpt lat="37.04380654274337" lon="14.707848954082442"><ele>570.1999999999999</ele><time>2026-04-04T10:29:06Z</time></trkpt><trkpt lat="37.04374352349915" lon="14.70785648574816"><ele>568.8</ele><time>2026-04-04T10:29:07Z</time></trkpt><trkpt lat="37.043673270108975" lon="14.707856918578242"><ele>567.4</ele><time>2026-04-04T10:29:09Z</time></trkpt><trkpt lat="37.04355047979278" lon="14.707856076550245"><ele>566.0</ele><time>2026-04-04T10:29:12Z</time></trkpt><trkpt lat="37.043480824430986" lon="14.707919480057859"><ele>566.0</ele><time>2026-04-04T10:29:14Z</time></trkpt><trkpt lat="37.043432191436764" lon="14.708008164470877"><ele>566.0</ele><time>2026-04-04T10:29:17Z</time></trkpt><trkpt lat="37.04339738874102" lon="14.70808898596867"><ele>566.0</ele><time>2026-04-04T10:29:19Z</time></trkpt><trkpt lat="37.04335930041619" lon="14.708179233959301"><ele>566.0</ele><time>2026-04-04T10:29:22Z</time></trkpt><trkpt lat="37.043294933679775" lon="14.70820632812127"><ele>566.0</ele><time>2026-04-04T10:29:24Z</time></trkpt><trkpt lat="37.04323377522211" lon="14.708178043658641"><ele>566.0</ele><time>2026-04-04T10:29:28Z</time></trkpt><trkpt lat="37.043177023847505" lon="14.70803143078573"><ele>567.5</ele><time>2026-04-04T10:29:33Z</time></trkpt><trkpt lat="37.04314458822052" lon="14.707924038758158"><ele>569.0</ele><time>2026-04-04T10:29:34Z</time></trkpt><trkpt lat="37.04311035619862" lon="14.707856305646871"><ele>570.5</ele><time>2026-04-04T10:29:35Z</time></trkpt><trkpt lat="37.04303928318255" lon="14.707750699012182"><ele>572.0</ele><time>2026-04-04T10:29:37Z</time></trkpt><trkpt lat="37.04302514220849" lon="14.707662142024047"><ele>573.5</ele><time>2026-04-04T10:29:38Z</time></trkpt><trkpt lat="37.04299999677743" lon="14.707565177288062"><ele>575.0</ele><time>2026-04-04T10:29:39Z</time></trkpt><trkpt lat="37.04297464999035" lon="14.707469261481714"><ele>575.0</ele><time>2026-04-04T10:29:40Z</time></trkpt><trkpt lat="37.042954314189885" lon="14.707387047193926"><ele>575.0</ele><time>2026-04-04T10:29:41Z</time></trkpt><trkpt lat="37.04294362272388" lon="14.707308466732064"><ele>575.0</ele><time>2026-04-04T10:29:42Z</time></trkpt><trkpt lat="37.0429086501443" lon="14.7071870042605"><ele>575.0</ele><time>2026-04-04T10:29:44Z</time></trkpt><trkpt lat="37.04291633201017" lon="14.707053686972506"><ele>575.0</ele><time>2026-04-04T10:29:46Z</time></trkpt><trkpt lat="37.04294355681103" lon="14.706950642417485"><ele>575.0</ele><time>2026-04-04T10:29:48Z</time></trkpt><trkpt lat="37.042917592950104" lon="14.706871692149308"><ele>572.1666666666666</ele><time>2026-04-04T10:29:50Z</time></trkpt><trkpt lat="37.04287179453723" lon="14.706770652407926"><ele>569.3333333333333</ele><time>2026-04-04T10:29:53Z</time></trkpt><trkpt lat="37.042830029393464" lon="14.70670058104888"><ele>566.5</ele><time>2026-04-04T10:29:54Z</time></trkpt><trkpt lat="37.042790848981696" lon="14.706614976487314"><ele>563.6666666666666</ele><time>2026-04-04T10:29:55Z</time></trkpt><trkpt lat="37.04274230117018" lon="14.706507187263608"><ele>560.8333333333334</ele><time>2026-04-04T10:29:56Z</time></trkpt><trkpt lat="37.04271303839796" lon="14.70641331337421"><ele>558.0</ele><time>2026-04-04T10:29:57Z</time></trkpt><trkpt lat="37.0426742429126" lon="14.706337266909241"><ele>558.0</ele><time>2026-04-04T10:29:58Z</time></trkpt><trkpt lat="37.04264858016789" lon="14.706225143437063"><ele>558.0</ele><time>2026-04-04T10:30:00Z</time></trkpt><trkpt lat="37.04264186025837" lon="14.706106430549596"><ele>558.0</ele><time>2026-04-04T10:30:02Z</time></trkpt><trkpt lat="37.042631264998576" lon="14.70600931032859"><ele>558.0</ele><time>2026-04-04T10:30:04Z</time></trkpt><trkpt lat="37.04257545493018" lon="14.705954591057761"><ele>558.0</ele><time>2026-04-04T10:30:41Z</time></trkpt><trkpt lat="37.04251289257371" lon="14.705944138392779"><ele>558.0</ele><time>2026-04-04T10:30:47Z</time></trkpt><trkpt lat="37.04242537167073" lon="14.705926830517807"><ele>554.9999999999999</ele><time>2026-04-04T10:30:50Z</time></trkpt><trkpt lat="37.04234645573102" lon="14.705932636302702"><ele>552.0</ele><time>2026-04-04T10:30:53Z</time></trkpt><trkpt lat="37.04228397987743" lon="14.705909201960317"><ele>549.0</ele><time>2026-04-04T10:30:56Z</time></trkpt><trkpt lat="37.04221464675374" lon="14.705869957123948"><ele>546.0</ele><time>2026-04-04T10:30:59Z</time></trkpt><trkpt lat="37.04214194697564" lon="14.705861819540544"><ele>543.0</ele><time>2026-04-04T10:31:10Z</time></trkpt><trkpt lat="37.042078643303846" lon="14.705863854222128"><ele>539.9999999999999</ele><time>2026-04-04T10:31:12Z</time></trkpt><trkpt lat="37.04201764314506" lon="14.705842908960234"><ele>537.0</ele><time>2026-04-04T10:31:17Z</time></trkpt><trkpt lat="37.04194952792397" lon="14.705848141256705"><ele>536.9999999999999</ele><time>2026-04-04T10:31:27Z</time></trkpt><trkpt lat="37.041876605515654" lon="14.705800927424225"><ele>537.0</ele><time>2026-04-04T10:31:30Z</time></trkpt><trkpt lat="37.04180982460036" lon="14.705801360413465"><ele>537.0</ele><time>2026-04-04T10:31:34Z</time></trkpt><trkpt lat="37.04174863060134" lon="14.705777357947687"><ele>537.0</ele><time>2026-04-04T10:31:39Z</time></trkpt><trkpt lat="37.04168115190564" lon="14.705769038862785"><ele>537.0</ele><time>2026-04-04T10:31:47Z</time></trkpt><trkpt lat="37.04161473454711" lon="14.705761260275857"><ele>536.9999999999999</ele><time>2026-04-04T10:31:52Z</time></trkpt><trkpt lat="37.04153661672093" lon="14.705734676225612"><ele>537.0</ele><time>2026-04-04T10:31:55Z</time></trkpt><trkpt lat="37.04144092123692" lon="14.705703454135149"><ele>538.4</ele><time>2026-04-04T10:31:58Z</time></trkpt><trkpt lat="37.04135069310527" lon="14.705695208104874"><ele>539.8000000000001</ele><time>2026-04-04T10:32:01Z</time></trkpt><trkpt lat="37.04128715879636" lon="14.705731450626677"><ele>541.2</ele><time>2026-04-04T10:32:04Z</time></trkpt><trkpt lat="37.04120191940587" lon="14.705652877939338"><ele>542.6</ele><time>2026-04-04T10:32:43Z</time></trkpt><trkpt lat="37.04117397103205" lon="14.705453076499584"><ele>544.0</ele><time>2026-04-04T10:32:45Z</time></trkpt><trkpt lat="37.04119131313059" lon="14.705330283519892"><ele>546.1666666666667</ele><time>2026-04-04T10:32:46Z</time></trkpt><trkpt lat="37.041210886950964" lon="14.705241961136919"><ele>548.3333333333334</ele><time>2026-04-04T10:32:47Z</time></trkpt><trkpt lat="37.041224399474" lon="14.705142496232968"><ele>550.5</ele><time>2026-04-04T10:32:48Z</time></trkpt><trkpt lat="37.041243946467716" lon="14.705029053913863"><ele>552.6666666666666</ele><time>2026-04-04T10:32:49Z</time></trkpt><trkpt lat="37.04125492351092" lon="14.704910073917327"><ele>554.8333333333333</ele><time>2026-04-04T10:32:50Z</time></trkpt><trkpt lat="37.0412725259672" lon="14.704813282895708"><ele>557.0</ele><time>2026-04-04T10:32:51Z</time></trkpt><trkpt lat="37.041284458222854" lon="14.704713531817799"><ele>557.0</ele><time>2026-04-04T10:32:52Z</time></trkpt><trkpt lat="37.04128898075197" lon="14.704623620250006"><ele>557.0</ele><time>2026-04-04T10:32:53Z</time></trkpt><trkpt lat="37.041285252790864" lon="14.704532027435759"><ele>557.0</ele><time>2026-04-04T10:32:54Z</time></trkpt><trkpt lat="37.04128376032462" lon="14.704445983728272"><ele>557.0</ele><time>2026-04-04T10:32:55Z</time></trkpt><trkpt lat="37.04127057990822" lon="14.704357126379989"><ele>557.0</ele><time>2026-04-04T10:32:56Z</time></trkpt><trkpt lat="37.041257000107244" lon="14.704265399836835"><ele>557.0</ele><time>2026-04-04T10:32:57Z</time></trkpt><trkpt lat="37.041246802845365" lon="14.704175594245696"><ele>557.0</ele><time>2026-04-04T10:32:58Z</time></trkpt><trkpt lat="37.04123836635523" lon="14.70407616523526"><ele>557.6666666666666</ele><time>2026-04-04T10:32:59Z</time></trkpt><trkpt lat="37.041234498788825" lon="14.703977671943612"><ele>558.3333333333333</ele><time>2026-04-04T10:33:00Z</time></trkpt><trkpt lat="37.041231336791114" lon="14.703875956316512"><ele>559.0</ele><time>2026-04-04T10:33:01Z</time></trkpt><trkpt lat="37.041222255694656" lon="14.703776457734818"><ele>559.6666666666666</ele><time>2026-04-04T10:33:02Z</time></trkpt><trkpt lat="37.04121106800839" lon="14.703676617230357"><ele>560.3333333333334</ele><time>2026-04-04T10:33:03Z</time></trkpt><trkpt lat="37.041195290540855" lon="14.703579692642045"><ele>561.0</ele><time>2026-04-04T10:33:04Z</time></trkpt><trkpt lat="37.04118308073766" lon="14.703496939221909"><ele>559.4</ele><time>2026-04-04T10:33:05Z</time></trkpt><trkpt lat="37.04117200769012" lon="14.703410665493898"><ele>557.8</ele><time>2026-04-04T10:33:06Z</time></trkpt><trkpt lat="37.0411663302289" lon="14.703328857751943"><ele>556.1999999999999</ele><time>2026-04-04T10:33:07Z</time></trkpt><trkpt lat="37.04109558712302" lon="14.703216398592366"><ele>554.6</ele><time>2026-04-04T10:33:09Z</time></trkpt><trkpt lat="37.04097983803467" lon="14.70315528444658"><ele>553.0</ele><time>2026-04-04T10:33:11Z</time></trkpt><trkpt lat="37.04086196610101" lon="14.703095295762795"><ele>555.3333333333334</ele><time>2026-04-04T10:33:13Z</time></trkpt><trkpt lat="37.04079131000858" lon="14.70306673315193"><ele>557.6666666666667</ele><time>2026-04-04T10:33:14Z</time></trkpt><trkpt lat="37.04072503546649" lon="14.703044364906635"><ele>560.0</ele><time>2026-04-04T10:33:15Z</time></trkpt><trkpt lat="37.0406639509394" lon="14.703022471493366"><ele>562.3333333333334</ele><time>2026-04-04T10:33:16Z</time></trkpt><trkpt lat="37.04056723022568" lon="14.70297606410255"><ele>564.6666666666666</ele><time>2026-04-04T10:33:18Z</time></trkpt><trkpt lat="37.04045720492961" lon="14.70288863982103"><ele>567.0</ele><time>2026-04-04T10:33:20Z</time></trkpt><trkpt lat="37.040404901716904" lon="14.702820819947421"><ele>567.0</ele><time>2026-04-04T10:33:21Z</time></trkpt><trkpt lat="37.04034263037836" lon="14.702762239323473"><ele>567.0</ele><time>2026-04-04T10:33:22Z</time></trkpt><trkpt lat="37.040301945176964" lon="14.702698093156036"><ele>567.0</ele><time>2026-04-04T10:33:23Z</time></trkpt><trkpt lat="37.04023448762618" lon="14.702580405859399"><ele>567.0</ele><time>2026-04-04T10:33:25Z</time></trkpt><trkpt lat="37.04015988739707" lon="14.702454572838771"><ele>567.0</ele><time>2026-04-04T10:33:27Z</time></trkpt><trkpt lat="37.04011767948535" lon="14.702388700443361"><ele>563.6</ele><time>2026-04-04T10:33:28Z</time></trkpt><trkpt lat="37.040027982555344" lon="14.70229418095773"><ele>560.2</ele><time>2026-04-04T10:33:30Z</time></trkpt><trkpt lat="37.0399231085042" lon="14.702220644453774"><ele>556.8</ele><time>2026-04-04T10:33:32Z</time></trkpt><trkpt lat="37.039861673343516" lon="14.702202276586325"><ele>553.4</ele><time>2026-04-04T10:33:33Z</time></trkpt><trkpt lat="37.03979829322189" lon="14.702196349713802"><ele>550.0</ele><time>2026-04-04T10:33:34Z</time></trkpt><trkpt lat="37.03967519664223" lon="14.702219140964347"><ele>550.0</ele><time>2026-04-04T10:33:36Z</time></trkpt><trkpt lat="37.03956597336684" lon="14.7022692123463"><ele>550.0</ele><time>2026-04-04T10:33:38Z</time></trkpt><trkpt lat="37.039611578947664" lon="14.702210951318103"><ele>550.0</ele><time>2026-04-04T10:33:48Z</time></trkpt><trkpt lat="37.03969863027536" lon="14.702146249175147"><ele>550.0</ele><time>2026-04-04T10:33:50Z</time></trkpt><trkpt lat="37.039757664997225" lon="14.702098060298733"><ele>550.0</ele><time>2026-04-04T10:33:51Z</time></trkpt><trkpt lat="37.039844455216205" lon="14.702037499515066"><ele>550.0</ele><time>2026-04-04T10:33:53Z</time></trkpt><trkpt lat="37.0399204536715" lon="14.701961157883076"><ele>550.0</ele><time>2026-04-04T10:33:55Z</time></trkpt><trkpt lat="37.03999436697154" lon="14.701849871057906"><ele>550.0</ele><time>2026-04-04T10:33:57Z</time></trkpt><trkpt lat="37.04004675716645" lon="14.70180189090483"><ele>550.0</ele><time>2026-04-04T10:33:58Z</time></trkpt><trkpt lat="37.040108495571985" lon="14.701760082679968"><ele>550.0</ele><time>2026-04-04T10:33:59Z</time></trkpt><trkpt lat="37.040174310386675" lon="14.701723228671327"><ele>550.0</ele><time>2026-04-04T10:34:00Z</time></trkpt><trkpt lat="37.04024425788284" lon="14.701677417795727"><ele>546.6666666666667</ele><time>2026-04-04T10:34:01Z</time></trkpt><trkpt lat="37.04030844941298" lon="14.70163213722983"><ele>543.3333333333334</ele><time>2026-04-04T10:34:02Z</time></trkpt><trkpt lat="37.04038167148066" lon="14.701588062446449"><ele>540.0</ele><time>2026-04-04T10:34:03Z</time></trkpt><trkpt lat="37.04045342093812" lon="14.701546618484434"><ele>536.6666666666666</ele><time>2026-04-04T10:34:04Z</time></trkpt><trkpt lat="37.0405235412724" lon="14.701506889460859"><ele>533.3333333333333</ele><time>2026-04-04T10:34:05Z</time></trkpt><trkpt lat="37.04058914800711" lon="14.701467111977653"><ele>530.0</ele><time>2026-04-04T10:34:06Z</time></trkpt><trkpt lat="37.04065012488178" lon="14.701431242702064"><ele>530.0</ele><time>2026-04-04T10:34:07Z</time></trkpt><trkpt lat="37.04072373940801" lon="14.70131896828864"><ele>530.0</ele><time>2026-04-04T10:34:09Z</time></trkpt><trkpt lat="37.04076398458845" lon="14.701177593892192"><ele>530.0</ele><time>2026-04-04T10:34:11Z</time></trkpt><trkpt lat="37.040754651805415" lon="14.7010508363237"><ele>530.0</ele><time>2026-04-04T10:34:13Z</time></trkpt><trkpt lat="37.0407151318355" lon="14.700963379604671"><ele>530.0</ele><time>2026-04-04T10:34:17Z</time></trkpt><trkpt lat="37.040678403995095" lon="14.700817614905795"><ele>527.0</ele><time>2026-04-04T10:34:19Z</time></trkpt><trkpt lat="37.040662839579966" lon="14.700714497551283"><ele>524.0</ele><time>2026-04-04T10:34:20Z</time></trkpt><trkpt lat="37.04064658088232" lon="14.70057680139903"><ele>521.0</ele><time>2026-04-04T10:34:21Z</time></trkpt><trkpt lat="37.04063990865814" lon="14.700424476080052"><ele>518.0</ele><time>2026-04-04T10:34:22Z</time></trkpt><trkpt lat="37.04064770768085" lon="14.700243468373188"><ele>515.3333333333333</ele><time>2026-04-04T10:34:23Z</time></trkpt><trkpt lat="37.040669680601184" lon="14.700048804692539"><ele>512.6666666666666</ele><time>2026-04-04T10:34:24Z</time></trkpt><trkpt lat="37.04068984226649" lon="14.699856821704312"><ele>510.0</ele><time>2026-04-04T10:34:25Z</time></trkpt><trkpt lat="37.04070671998457" lon="14.69967878424453"><ele>510.0</ele><time>2026-04-04T10:34:26Z</time></trkpt><trkpt lat="37.04071335590402" lon="14.699490930171146"><ele>510.0</ele><time>2026-04-04T10:34:27Z</time></trkpt><trkpt lat="37.04072189886867" lon="14.699310709300534"><ele>510.0</ele><time>2026-04-04T10:34:28Z</time></trkpt><trkpt lat="37.04072827204762" lon="14.69913144116972"><ele>510.0</ele><time>2026-04-04T10:34:29Z</time></trkpt><trkpt lat="37.040724933386535" lon="14.698949529752404"><ele>508.0</ele><time>2026-04-04T10:34:30Z</time></trkpt><trkpt lat="37.04071887824267" lon="14.698775945105051"><ele>506.0</ele><time>2026-04-04T10:34:31Z</time></trkpt><trkpt lat="37.04070734140687" lon="14.698596905606577"><ele>504.0</ele><time>2026-04-04T10:34:32Z</time></trkpt><trkpt lat="37.04070026346109" lon="14.698409656344728"><ele>502.0</ele><time>2026-04-04T10:34:33Z</time></trkpt><trkpt lat="37.04069229121965" lon="14.698211201908649"><ele>499.6666666666667</ele><time>2026-04-04T10:34:34Z</time></trkpt><trkpt lat="37.04069301243635" lon="14.698015966950122"><ele>497.33333333333337</ele><time>2026-04-04T10:34:35Z</time></trkpt><trkpt lat="37.04069970956404" lon="14.697817241417788"><ele>495.0</ele><time>2026-04-04T10:34:36Z</time></trkpt><trkpt lat="37.04071397260533" lon="14.697603804233392"><ele>493.0</ele><time>2026-04-04T10:34:37Z</time></trkpt><trkpt lat="37.04072125112177" lon="14.697369342357641"><ele>491.0</ele><time>2026-04-04T10:34:38Z</time></trkpt><trkpt lat="37.04072838450545" lon="14.697119687226776"><ele>489.0</ele><time>2026-04-04T10:34:39Z</time></trkpt><trkpt lat="37.04073428232377" lon="14.696870456665245"><ele>486.33333333333337</ele><time>2026-04-04T10:34:40Z</time></trkpt><trkpt lat="37.04074086984519" lon="14.696648334293593"><ele>483.6666666666667</ele><time>2026-04-04T10:34:41Z</time></trkpt><trkpt lat="37.040750267921595" lon="14.696440127329957"><ele>481.0</ele><time>2026-04-04T10:34:42Z</time></trkpt><trkpt lat="37.04076312473806" lon="14.696233800465922"><ele>478.6666666666667</ele><time>2026-04-04T10:34:43Z</time></trkpt><trkpt lat="37.04077188288381" lon="14.696018776594476"><ele>476.33333333333337</ele><time>2026-04-04T10:34:44Z</time></trkpt><trkpt lat="37.04077905245572" lon="14.695814334885556"><ele>474.0</ele><time>2026-04-04T10:34:45Z</time></trkpt><trkpt lat="37.040789112297254" lon="14.695623581076044"><ele>474.75</ele><time>2026-04-04T10:34:46Z</time></trkpt><trkpt lat="37.04079940799396" lon="14.695443162110202"><ele>475.5</ele><time>2026-04-04T10:34:47Z</time></trkpt><trkpt lat="37.04080590671453" lon="14.695269372311463"><ele>476.25</ele><time>2026-04-04T10:34:48Z</time></trkpt><trkpt lat="37.04081197926323" lon="14.695104790385509"><ele>477.0</ele><time>2026-04-04T10:34:49Z</time></trkpt><trkpt lat="37.04081999297734" lon="14.694950754726309"><ele>477.0</ele><time>2026-04-04T10:34:50Z</time></trkpt><trkpt lat="37.040816679820274" lon="14.69481871109214"><ele>477.0</ele><time>2026-04-04T10:34:51Z</time></trkpt><trkpt lat="37.040802265687944" lon="14.69470187551947"><ele>477.0</ele><time>2026-04-04T10:34:52Z</time></trkpt><trkpt lat="37.04078636740489" lon="14.694595598045137"><ele>477.0</ele><time>2026-04-04T10:34:53Z</time></trkpt><trkpt lat="37.04075595086941" lon="14.69451440997379"><ele>477.0</ele><time>2026-04-04T10:34:54Z</time></trkpt><trkpt lat="37.04070199433955" lon="14.694452996666042"><ele>477.0</ele><time>2026-04-04T10:34:55Z</time></trkpt><trkpt lat="37.04061610402963" lon="14.694426975773395"><ele>475.25</ele><time>2026-04-04T10:34:56Z</time></trkpt><trkpt lat="37.040500815907464" lon="14.694432319288959"><ele>473.5</ele><time>2026-04-04T10:34:57Z</time></trkpt><trkpt lat="37.040352738403584" lon="14.694410174941241"><ele>471.75</ele><time>2026-04-04T10:34:58Z</time></trkpt><trkpt lat="37.04024289212095" lon="14.69438902931297"><ele>470.0</ele><time>2026-04-04T10:34:59Z</time></trkpt><trkpt lat="37.04014790768618" lon="14.694355400145202"><ele>470.2</ele><time>2026-04-04T10:35:00Z</time></trkpt><trkpt lat="37.040055623494844" lon="14.694296950600899"><ele>470.4</ele><time>2026-04-04T10:35:01Z</time></trkpt><trkpt lat="37.03996924508234" lon="14.694218217439866"><ele>470.6</ele><time>2026-04-04T10:35:02Z</time></trkpt><trkpt lat="37.03991287794616" lon="14.694109458428949"><ele>470.8</ele><time>2026-04-04T10:35:03Z</time></trkpt><trkpt lat="37.039875568180065" lon="14.694002906525942"><ele>471.0</ele><time>2026-04-04T10:35:04Z</time></trkpt><trkpt lat="37.039867132228316" lon="14.693885574678756"><ele>471.0</ele><time>2026-04-04T10:35:05Z</time></trkpt><trkpt lat="37.03988583951151" lon="14.69376291068852"><ele>471.0</ele><time>2026-04-04T10:35:06Z</time></trkpt><trkpt lat="37.039940419726584" lon="14.693656526183613"><ele>471.0</ele><time>2026-04-04T10:35:07Z</time></trkpt><trkpt lat="37.04002874360638" lon="14.693604935833333"><ele>471.0</ele><time>2026-04-04T10:35:08Z</time></trkpt><trkpt lat="37.04007309269832" lon="14.693546903381183"><ele>471.0</ele><time>2026-04-04T10:35:09Z</time></trkpt><trkpt lat="37.0400404963239" lon="14.69345298991596"><ele>471.0</ele><time>2026-04-04T10:35:11Z</time></trkpt><trkpt lat="37.039937455738055" lon="14.693447497563792"><ele>471.0</ele><time>2026-04-04T10:35:13Z</time></trkpt><trkpt lat="37.03985724456718" lon="14.693446149654799"><ele>471.0</ele><time>2026-04-04T10:35:14Z</time></trkpt><trkpt lat="37.0397786346521" lon="14.693469428730179"><ele>471.0</ele><time>2026-04-04T10:35:15Z</time></trkpt><trkpt lat="37.03970205687366" lon="14.693492106031046"><ele>471.0</ele><time>2026-04-04T10:35:16Z</time></trkpt><trkpt lat="37.039614885971936" lon="14.693517697012997"><ele>471.0</ele><time>2026-04-04T10:35:17Z</time></trkpt><trkpt lat="37.03949473826206" lon="14.693552400151267"><ele>471.0</ele><time>2026-04-04T10:35:18Z</time></trkpt><trkpt lat="37.03938100232786" lon="14.69358525133873"><ele>471.0</ele><time>2026-04-04T10:35:19Z</time></trkpt><trkpt lat="37.03926292975197" lon="14.693618155803813"><ele>471.0</ele><time>2026-04-04T10:35:20Z</time></trkpt><trkpt lat="37.039115650956774" lon="14.693658509437258"><ele>471.0</ele><time>2026-04-04T10:35:21Z</time></trkpt><trkpt lat="37.038935193935174" lon="14.693706674876433"><ele>474.66666666666663</ele><time>2026-04-04T10:35:22Z</time></trkpt><trkpt lat="37.03874701849649" lon="14.693769108601204"><ele>478.3333333333333</ele><time>2026-04-04T10:35:23Z</time></trkpt><trkpt lat="37.03857652772296" lon="14.693808069889254"><ele>482.0</ele><time>2026-04-04T10:35:24Z</time></trkpt><trkpt lat="37.03845064823672" lon="14.693840040492175"><ele>482.0</ele><time>2026-04-04T10:35:25Z</time></trkpt><trkpt lat="37.03832814820964" lon="14.693858048972142"><ele>482.00000000000006</ele><time>2026-04-04T10:35:26Z</time></trkpt><trkpt lat="37.03823630849562" lon="14.69387883122847"><ele>482.00000000000006</ele><time>2026-04-04T10:35:27Z</time></trkpt><trkpt lat="37.03813871017989" lon="14.693886970079749"><ele>482.0</ele><time>2026-04-04T10:35:28Z</time></trkpt><trkpt lat="37.038039097762656" lon="14.69389665059162"><ele>482.0</ele><time>2026-04-04T10:35:29Z</time></trkpt><trkpt lat="37.037944714280705" lon="14.69387843759714"><ele>484.40000000000003</ele><time>2026-04-04T10:35:30Z</time></trkpt><trkpt lat="37.03786532542036" lon="14.69381332887617"><ele>486.80000000000007</ele><time>2026-04-04T10:35:31Z</time></trkpt><trkpt lat="37.03780177177002" lon="14.693715309503428"><ele>489.2</ele><time>2026-04-04T10:35:32Z</time></trkpt><trkpt lat="37.03774180858749" lon="14.69359032630514"><ele>491.6</ele><time>2026-04-04T10:35:33Z</time></trkpt><trkpt lat="37.03769562507481" lon="14.693490193538555"><ele>494.0</ele><time>2026-04-04T10:35:34Z</time></trkpt><trkpt lat="37.03764466402992" lon="14.69342474766868"><ele>493.99999999999994</ele><time>2026-04-04T10:35:35Z</time></trkpt><trkpt lat="37.03765282049595" lon="14.6933400666059"><ele>494.0</ele><time>2026-04-04T10:35:36Z</time></trkpt><trkpt lat="37.037601448964104" lon="14.693279032592413"><ele>494.0</ele><time>2026-04-04T10:35:49Z</time></trkpt><trkpt lat="37.03750079261488" lon="14.693330698676373"><ele>494.0</ele><time>2026-04-04T10:35:51Z</time></trkpt><trkpt lat="37.03745441892668" lon="14.693396751940144"><ele>493.99999999999994</ele><time>2026-04-04T10:35:52Z</time></trkpt><trkpt lat="37.03740129550551" lon="14.693457530412228"><ele>494.0</ele><time>2026-04-04T10:35:53Z</time></trkpt><trkpt lat="37.03733911453324" lon="14.69352946977827"><ele>496.2</ele><time>2026-04-04T10:35:54Z</time></trkpt><trkpt lat="37.0372432008076" lon="14.693638676960855"><ele>498.4</ele><time>2026-04-04T10:35:55Z</time></trkpt><trkpt lat="37.03717207173007" lon="14.69372151795691"><ele>500.6</ele><time>2026-04-04T10:35:56Z</time></trkpt><trkpt lat="37.03709915419696" lon="14.693808602115586"><ele>502.8</ele><time>2026-04-04T10:35:57Z</time></trkpt><trkpt lat="37.03701714982" lon="14.69390621346908"><ele>505.0</ele><time>2026-04-04T10:35:58Z</time></trkpt><trkpt lat="37.03691238988178" lon="14.694029791457975"><ele>505.0</ele><time>2026-04-04T10:35:59Z</time></trkpt><trkpt lat="37.036790045446025" lon="14.694166644336333"><ele>505.0</ele><time>2026-04-04T10:36:00Z</time></trkpt><trkpt lat="37.03666235185914" lon="14.694309778408948"><ele>505.0</ele><time>2026-04-04T10:36:01Z</time></trkpt><trkpt lat="37.03654794880629" lon="14.694447266935844"><ele>507.6666666666667</ele><time>2026-04-04T10:36:02Z</time></trkpt><trkpt lat="37.036414383815824" lon="14.694601370250213"><ele>510.33333333333337</ele><time>2026-04-04T10:36:03Z</time></trkpt><trkpt lat="37.03626634127293" lon="14.694777104881759"><ele>513.0</ele><time>2026-04-04T10:36:04Z</time></trkpt><trkpt lat="37.03613442987433" lon="14.694931065834457"><ele>513.0</ele><time>2026-04-04T10:36:05Z</time></trkpt><trkpt lat="37.036027321615705" lon="14.695049024309458"><ele>513.0</ele><time>2026-04-04T10:36:06Z</time></trkpt><trkpt lat="37.03594403783832" lon="14.695145029389765"><ele>513.0</ele><time>2026-04-04T10:36:07Z</time></trkpt><trkpt lat="37.03588507508416" lon="14.695213933087652"><ele>513.0</ele><time>2026-04-04T10:36:08Z</time></trkpt><trkpt lat="37.03584087241485" lon="14.695281051791268"><ele>513.0</ele><time>2026-04-04T10:36:10Z</time></trkpt><trkpt lat="37.03577848655795" lon="14.69534300608192"><ele>515.4</ele><time>2026-04-04T10:36:12Z</time></trkpt><trkpt lat="37.03571141401232" lon="14.695427008399383"><ele>517.8</ele><time>2026-04-04T10:36:13Z</time></trkpt><trkpt lat="37.035688335735344" lon="14.695572613632702"><ele>520.2</ele><time>2026-04-04T10:36:14Z</time></trkpt><trkpt lat="37.03562086610004" lon="14.695645074210558"><ele>522.6</ele><time>2026-04-04T10:36:15Z</time></trkpt><trkpt lat="37.035551346917245" lon="14.695683173708655"><ele>525.0</ele><time>2026-04-04T10:36:16Z</time></trkpt><trkpt lat="37.03547380493871" lon="14.695700314420517"><ele>525.0</ele><time>2026-04-04T10:36:17Z</time></trkpt><trkpt lat="37.035394961955376" lon="14.695693823475285"><ele>525.0</ele><time>2026-04-04T10:36:18Z</time></trkpt><trkpt lat="37.03528681933332" lon="14.695686216865312"><ele>525.0</ele><time>2026-04-04T10:36:20Z</time></trkpt><trkpt lat="37.03523334538926" lon="14.695808671286873"><ele>525.0</ele><time>2026-04-04T10:36:22Z</time></trkpt><trkpt lat="37.03521008876969" lon="14.69588454076114"><ele>525.0</ele><time>2026-04-04T10:36:23Z</time></trkpt><trkpt lat="37.03518447003336" lon="14.69596526478884"><ele>525.0</ele><time>2026-04-04T10:36:24Z</time></trkpt><trkpt lat="37.03516040290052" lon="14.696058041488065"><ele>522.8</ele><time>2026-04-04T10:36:25Z</time></trkpt><trkpt lat="37.035122342326424" lon="14.696122509298332"><ele>520.6</ele><time>2026-04-04T10:36:26Z</time></trkpt><trkpt lat="37.03508007114098" lon="14.69618339258435"><ele>518.4</ele><time>2026-04-04T10:36:27Z</time></trkpt><trkpt lat="37.03499111606981" lon="14.696253129384361"><ele>516.2</ele><time>2026-04-04T10:36:28Z</time></trkpt><trkpt lat="37.03489201156775" lon="14.696326159620249"><ele>514.0</ele><time>2026-04-04T10:36:29Z</time></trkpt><trkpt lat="37.03480439589127" lon="14.696395159960225"><ele>518.0</ele><time>2026-04-04T10:36:30Z</time></trkpt><trkpt lat="37.034728917373975" lon="14.696464874434124"><ele>522.0</ele><time>2026-04-04T10:36:31Z</time></trkpt><trkpt lat="37.034664892876656" lon="14.69654540338359"><ele>526.0</ele><time>2026-04-04T10:36:32Z</time></trkpt><trkpt lat="37.03461448710568" lon="14.69662712935426"><ele>530.0</ele><time>2026-04-04T10:36:33Z</time></trkpt><trkpt lat="37.03457510678705" lon="14.696709045951904"><ele>534.0</ele><time>2026-04-04T10:36:34Z</time></trkpt><trkpt lat="37.03454194384623" lon="14.696785197614595"><ele>538.0</ele><time>2026-04-04T10:36:35Z</time></trkpt><trkpt lat="37.03452129319183" lon="14.696861153328216"><ele>537.1999999999999</ele><time>2026-04-04T10:36:36Z</time></trkpt><trkpt lat="37.03449128542835" lon="14.69700227627313"><ele>536.4</ele><time>2026-04-04T10:36:38Z</time></trkpt><trkpt lat="37.0344796556505" lon="14.697127525608275"><ele>535.5999999999999</ele><time>2026-04-04T10:36:40Z</time></trkpt><trkpt lat="37.03446135483528" lon="14.69722375606721"><ele>534.8</ele><time>2026-04-04T10:36:42Z</time></trkpt><trkpt lat="37.03444151941978" lon="14.69733095596102"><ele>534.0</ele><time>2026-04-04T10:36:44Z</time></trkpt><trkpt lat="37.03448278114792" lon="14.697409909199937"><ele>534.0000000000001</ele><time>2026-04-04T10:37:11Z</time></trkpt><trkpt lat="37.034545526602145" lon="14.697385676974378"><ele>534.0</ele><time>2026-04-04T10:37:24Z</time></trkpt><trkpt lat="37.03458598442983" lon="14.697322540217426"><ele>534.0</ele><time>2026-04-04T10:37:33Z</time></trkpt><trkpt lat="37.034627148337854" lon="14.697260836251"><ele>534.0</ele><time>2026-04-04T10:37:41Z</time></trkpt><trkpt lat="37.03465648327988" lon="14.69718662142143"><ele>534.0</ele><time>2026-04-04T10:37:44Z</time></trkpt><trkpt lat="37.034704052920574" lon="14.697132773491061"><ele>534.0000000000001</ele><time>2026-04-04T10:37:48Z</time></trkpt><trkpt lat="37.03470750033234" lon="14.697233372031318"><ele>534.0</ele><time>2026-04-04T10:38:18Z</time></trkpt><trkpt lat="37.034715034329416" lon="14.69731541564823"><ele>534.0</ele><time>2026-04-04T10:38:21Z</time></trkpt><trkpt lat="37.03472651798651" lon="14.697412405436463"><ele>534.0</ele><time>2026-04-04T10:38:24Z</time></trkpt><trkpt lat="37.03475834328996" lon="14.697491013890733"><ele>534.0</ele><time>2026-04-04T10:38:31Z</time></trkpt><trkpt lat="37.03480584821103" lon="14.697581128225014"><ele>534.0</ele><time>2026-04-04T10:38:51Z</time></trkpt><trkpt lat="37.03485626332905" lon="14.69766406863091"><ele>534.0</ele><time>2026-04-04T10:38:55Z</time></trkpt><trkpt lat="37.034899863062094" lon="14.697737270019402"><ele>534.0</ele><time>2026-04-04T10:38:58Z</time></trkpt><trkpt lat="37.034937986642205" lon="14.6978249323984"><ele>533.7142857142858</ele><time>2026-04-04T10:39:36Z</time></trkpt><trkpt lat="37.03497504710461" lon="14.697910926266026"><ele>533.4285714285714</ele><time>2026-04-04T10:39:39Z</time></trkpt><trkpt lat="37.03499680851246" lon="14.69799356869202"><ele>533.1428571428571</ele><time>2026-04-04T10:39:42Z</time></trkpt><trkpt lat="37.0350329483909" lon="14.698063670493275"><ele>532.8571428571429</ele><time>2026-04-04T10:39:45Z</time></trkpt><trkpt lat="37.035064177849534" lon="14.698149481305377"><ele>532.5714285714286</ele><time>2026-04-04T10:39:48Z</time></trkpt><trkpt lat="37.03511042309518" lon="14.698211845697077"><ele>532.2857142857143</ele><time>2026-04-04T10:40:22Z</time></trkpt><trkpt lat="37.03514537077452" lon="14.698291411175187"><ele>532.0</ele><time>2026-04-04T10:40:26Z</time></trkpt><trkpt lat="37.035195387774564" lon="14.698355728368078"><ele>532.0</ele><time>2026-04-04T10:40:44Z</time></trkpt><trkpt lat="37.035220281903214" lon="14.698431598974741"><ele>532.0</ele><time>2026-04-04T10:41:06Z</time></trkpt><trkpt lat="37.0352670501685" lon="14.698488208621095"><ele>532.0</ele><time>2026-04-04T10:46:00Z</time></trkpt><trkpt lat="37.03527108100099" lon="14.69856807371067"><ele>532.0</ele><time>2026-04-04T10:50:11Z</time></trkpt><trkpt lat="37.03529540043137" lon="14.698644592964737"><ele>532.0</ele><time>2026-04-04T10:51:05Z</time></trkpt><trkpt lat="37.03532987407356" lon="14.698734031631538"><ele>532.0</ele><time>2026-04-04T10:51:16Z</time></trkpt><trkpt lat="37.035338783046" lon="14.69882323122937"><ele>532.0</ele><time>2026-04-04T10:51:19Z</time></trkpt><trkpt lat="37.0353377823771" lon="14.698936912793828"><ele>533.6666666666667</ele><time>2026-04-04T10:51:22Z</time></trkpt><trkpt lat="37.03533985486201" lon="14.699034716185785"><ele>535.3333333333334</ele><time>2026-04-04T10:51:24Z</time></trkpt><trkpt lat="37.03533674310316" lon="14.699129725979581"><ele>537.0</ele><time>2026-04-04T10:51:26Z</time></trkpt><trkpt lat="37.03535672648576" lon="14.699222790819812"><ele>538.6666666666666</ele><time>2026-04-04T10:51:28Z</time></trkpt><trkpt lat="37.03537749707343" lon="14.699298983567541"><ele>540.3333333333333</ele><time>2026-04-04T10:51:32Z</time></trkpt><trkpt lat="37.03542467703821" lon="14.699378335672886"><ele>542.0</ele><time>2026-04-04T10:53:24Z</time></trkpt><trkpt lat="37.035465898020746" lon="14.69947364434603"><ele>543.1666666666666</ele><time>2026-04-04T10:53:26Z</time></trkpt><trkpt lat="37.03551767722233" lon="14.699553517243318"><ele>544.3333333333333</ele><time>2026-04-04T10:53:28Z</time></trkpt><trkpt lat="37.03555644791446" lon="14.69962395671834"><ele>545.5</ele><time>2026-04-04T10:53:31Z</time></trkpt><trkpt lat="37.035617969343505" lon="14.69970049610102"><ele>546.6666666666666</ele><time>2026-04-04T10:53:37Z</time></trkpt><trkpt lat="37.035665310871" lon="14.699773053298816"><ele>547.8333333333334</ele><time>2026-04-04T10:53:41Z</time></trkpt><trkpt lat="37.03570895040271" lon="14.699857330913003"><ele>549.0</ele><time>2026-04-04T10:53:44Z</time></trkpt><trkpt lat="37.03575846298906" lon="14.699917677175492"><ele>551.1666666666666</ele><time>2026-04-04T10:53:46Z</time></trkpt><trkpt lat="37.035809512039194" lon="14.700018899207317"><ele>553.3333333333334</ele><time>2026-04-04T10:53:49Z</time></trkpt><trkpt lat="37.035860359156764" lon="14.700093094889999"><ele>555.5</ele><time>2026-04-04T10:53:51Z</time></trkpt><trkpt lat="37.035918168015264" lon="14.700172990180443"><ele>557.6666666666667</ele><time>2026-04-04T10:53:53Z</time></trkpt><trkpt lat="37.035959267975855" lon="14.700250469905095"><ele>559.8333333333334</ele><time>2026-04-04T10:53:55Z</time></trkpt><trkpt lat="37.03600780920582" lon="14.70032851436592"><ele>562.0</ele><time>2026-04-04T10:53:57Z</time></trkpt><trkpt lat="37.03605596517866" lon="14.700412022332696"><ele>562.5</ele><time>2026-04-04T10:53:59Z</time></trkpt><trkpt lat="37.03611752198477" lon="14.700485006562195"><ele>563.0</ele><time>2026-04-04T10:54:01Z</time></trkpt><trkpt lat="37.036178894326106" lon="14.700553461241858"><ele>563.5</ele><time>2026-04-04T10:54:03Z</time></trkpt><trkpt lat="37.03624186386401" lon="14.700638291736011"><ele>564.0</ele><time>2026-04-04T10:54:05Z</time></trkpt><trkpt lat="37.03628118593428" lon="14.700716884182102"><ele>564.5</ele><time>2026-04-04T10:54:07Z</time></trkpt><trkpt lat="37.03634887190726" lon="14.70081720770225"><ele>565.0</ele><time>2026-04-04T10:54:10Z</time></trkpt><trkpt lat="37.03642245419777" lon="14.70095557176113"><ele>564.9999999999999</ele><time>2026-04-04T10:54:12Z</time></trkpt><trkpt lat="37.03646034475428" lon="14.701034513363897"><ele>565.0</ele><time>2026-04-04T10:54:13Z</time></trkpt><trkpt lat="37.036504464054296" lon="14.701106826061045"><ele>565.0</ele><time>2026-04-04T10:54:14Z</time></trkpt><trkpt lat="37.03655027998733" lon="14.701185015548846"><ele>565.0</ele><time>2026-04-04T10:54:15Z</time></trkpt><trkpt lat="37.03660086745457" lon="14.701268676565403"><ele>565.0</ele><time>2026-04-04T10:54:16Z</time></trkpt><trkpt lat="37.03664212301498" lon="14.701342891545849"><ele>564.9999999999999</ele><time>2026-04-04T10:54:17Z</time></trkpt><trkpt lat="37.03667830214845" lon="14.701416494032248"><ele>565.0</ele><time>2026-04-04T10:54:18Z</time></trkpt><trkpt lat="37.03673312889588" lon="14.70154399342769"><ele>566.5</ele><time>2026-04-04T10:54:20Z</time></trkpt><trkpt lat="37.03675738406262" lon="14.70161958673606"><ele>568.0</ele><time>2026-04-04T10:54:21Z</time></trkpt><trkpt lat="37.03679605701296" lon="14.701715111186274"><ele>569.5</ele><time>2026-04-04T10:54:23Z</time></trkpt><trkpt lat="37.03686898405254" lon="14.701663615651439"><ele>571.0</ele><time>2026-04-04T10:57:11Z</time></trkpt><trkpt lat="37.03692069442284" lon="14.70158682782361"><ele>572.5</ele><time>2026-04-04T10:57:13Z</time></trkpt><trkpt lat="37.036984381299064" lon="14.70153765972793"><ele>574.0</ele><time>2026-04-04T10:57:15Z</time></trkpt><trkpt lat="37.03705876269257" lon="14.701478865160608"><ele>574.0</ele><time>2026-04-04T10:57:17Z</time></trkpt><trkpt lat="37.037130180640474" lon="14.701431769868003"><ele>574.0</ele><time>2026-04-04T10:57:19Z</time></trkpt><trkpt lat="37.03721371332482" lon="14.70139048752325"><ele>574.0</ele><time>2026-04-04T10:57:21Z</time></trkpt><trkpt lat="37.037325025739406" lon="14.701402970029482"><ele>574.0</ele><time>2026-04-04T10:57:23Z</time></trkpt><trkpt lat="37.037428881259515" lon="14.701398735081696"><ele>574.0</ele><time>2026-04-04T10:57:25Z</time></trkpt><trkpt lat="37.03753754393619" lon="14.701404923143766"><ele>573.2</ele><time>2026-04-04T10:57:28Z</time></trkpt><trkpt lat="37.03763564928236" lon="14.701383729925123"><ele>572.4</ele><time>2026-04-04T10:57:30Z</time></trkpt><trkpt lat="37.037703798026925" lon="14.701393163170996"><ele>571.6</ele><time>2026-04-04T10:57:31Z</time></trkpt><trkpt lat="37.037805111567806" lon="14.701422818452002"><ele>570.8</ele><time>2026-04-04T10:57:33Z</time></trkpt><trkpt lat="37.03788940215851" lon="14.701539682046983"><ele>570.0</ele><time>2026-04-04T10:57:36Z</time></trkpt><trkpt lat="37.03798559152456" lon="14.701594311188105"><ele>570.0</ele><time>2026-04-04T10:57:37Z</time></trkpt><trkpt lat="37.03808675695305" lon="14.701596748641373"><ele>570.0</ele><time>2026-04-04T10:57:38Z</time></trkpt><trkpt lat="37.0381626165397" lon="14.701608562897004"><ele>570.0</ele><time>2026-04-04T10:57:39Z</time></trkpt><trkpt lat="37.03824004138315" lon="14.701609591337306"><ele>570.0</ele><time>2026-04-04T10:57:40Z</time></trkpt><trkpt lat="37.038306624650886" lon="14.701585373998661"><ele>570.0</ele><time>2026-04-04T10:57:41Z</time></trkpt><trkpt lat="37.03841969196872" lon="14.701610127588184"><ele>570.0</ele><time>2026-04-04T10:57:43Z</time></trkpt><trkpt lat="37.03848221548557" lon="14.701624566055708"><ele>567.6666666666666</ele><time>2026-04-04T10:57:44Z</time></trkpt><trkpt lat="37.038550811412776" lon="14.701652877953432"><ele>565.3333333333334</ele><time>2026-04-04T10:57:45Z</time></trkpt><trkpt lat="37.038625389490036" lon="14.701681791469964"><ele>563.0</ele><time>2026-04-04T10:57:46Z</time></trkpt><trkpt lat="37.03870157953248" lon="14.701715182911503"><ele>560.6666666666667</ele><time>2026-04-04T10:57:47Z</time></trkpt><trkpt lat="37.03878181202569" lon="14.701754743099539"><ele>558.3333333333334</ele><time>2026-04-04T10:57:48Z</time></trkpt><trkpt lat="37.03885400646531" lon="14.701791749721929"><ele>556.0</ele><time>2026-04-04T10:57:49Z</time></trkpt><trkpt lat="37.03892935809643" lon="14.701821849131797"><ele>556.0</ele><time>2026-04-04T10:57:50Z</time></trkpt><trkpt lat="37.039051953993365" lon="14.701840164644757"><ele>556.0</ele><time>2026-04-04T10:57:52Z</time></trkpt><trkpt lat="37.03914811035544" lon="14.701840425906019"><ele>556.0</ele><time>2026-04-04T10:57:54Z</time></trkpt><trkpt lat="37.03923443300291" lon="14.701853232631757"><ele>556.0</ele><time>2026-04-04T10:57:56Z</time></trkpt><trkpt lat="37.03924275018152" lon="14.701955168791635"><ele>556.0</ele><time>2026-04-04T10:57:59Z</time></trkpt><trkpt lat="37.03926562946584" lon="14.702090119607425"><ele>554.5</ele><time>2026-04-04T10:58:01Z</time></trkpt><trkpt lat="37.039365468421316" lon="14.702344878351406"><ele>553.0</ele><time>2026-04-04T10:58:04Z</time></trkpt><trkpt lat="37.03946645824703" lon="14.70235896585436"><ele>551.5</ele><time>2026-04-04T10:58:06Z</time></trkpt><trkpt lat="37.03953782900578" lon="14.70230291552711"><ele>550.0</ele><time>2026-04-04T10:58:08Z</time></trkpt><trkpt lat="37.03958095579783" lon="14.70221772402025"><ele>550.0</ele><time>2026-04-04T10:58:10Z</time></trkpt><trkpt lat="37.03967471389541" lon="14.702171319874514"><ele>550.0</ele><time>2026-04-04T10:58:12Z</time></trkpt><trkpt lat="37.039759463959726" lon="14.702095980520436"><ele>550.0</ele><time>2026-04-04T10:58:14Z</time></trkpt><trkpt lat="37.039834133037715" lon="14.702053167923472"><ele>550.0</ele><time>2026-04-04T10:58:16Z</time></trkpt><trkpt lat="37.03989926346408" lon="14.701978049040227"><ele>550.0</ele><time>2026-04-04T10:58:19Z</time></trkpt><trkpt lat="37.03996369763844" lon="14.701888732755213"><ele>545.0</ele><time>2026-04-04T10:58:35Z</time></trkpt><trkpt lat="37.04005296688772" lon="14.701812111821846"><ele>540.0</ele><time>2026-04-04T10:58:37Z</time></trkpt><trkpt lat="37.04016770604107" lon="14.701738068591508"><ele>535.0</ele><time>2026-04-04T10:58:40Z</time></trkpt><trkpt lat="37.04026202791799" lon="14.70165222341606"><ele>530.0</ele><time>2026-04-04T10:58:42Z</time></trkpt><trkpt lat="37.04037112589147" lon="14.701587399962978"><ele>530.0</ele><time>2026-04-04T10:58:44Z</time></trkpt><trkpt lat="37.04047747763077" lon="14.701532097597317"><ele>530.0</ele><time>2026-04-04T10:58:46Z</time></trkpt><trkpt lat="37.04057544820567" lon="14.701469431949597"><ele>530.0</ele><time>2026-04-04T10:58:48Z</time></trkpt><trkpt lat="37.04065432030866" lon="14.70139667328357"><ele>530.0</ele><time>2026-04-04T10:58:50Z</time></trkpt><trkpt lat="37.04069752205547" lon="14.701309870390501"><ele>530.0</ele><time>2026-04-04T10:58:52Z</time></trkpt><trkpt lat="37.04073503841838" lon="14.701210902826068"><ele>530.0</ele><time>2026-04-04T10:58:54Z</time></trkpt><trkpt lat="37.0407846397974" lon="14.701117213411875"><ele>530.0</ele><time>2026-04-04T10:58:56Z</time></trkpt><trkpt lat="37.040722553137606" lon="14.701017960469052"><ele>530.0</ele><time>2026-04-04T10:58:57Z</time></trkpt><trkpt lat="37.04069867792205" lon="14.700939904190427"><ele>530.0</ele><time>2026-04-04T10:58:58Z</time></trkpt><trkpt lat="37.040679149374526" lon="14.700852716474516"><ele>530.0</ele><time>2026-04-04T10:58:59Z</time></trkpt><trkpt lat="37.040644740634235" lon="14.70074523396788"><ele>530.0</ele><time>2026-04-04T10:59:00Z</time></trkpt><trkpt lat="37.040632637143304" lon="14.70063022730308"><ele>528.0</ele><time>2026-04-04T10:59:01Z</time></trkpt><trkpt lat="37.04062827956168" lon="14.700524409130416"><ele>526.0</ele><time>2026-04-04T10:59:02Z</time></trkpt><trkpt lat="37.04065065411058" lon="14.700423765808637"><ele>524.0</ele><time>2026-04-04T10:59:03Z</time></trkpt><trkpt lat="37.0406621544799" lon="14.700326087491995"><ele>522.0</ele><time>2026-04-04T10:59:04Z</time></trkpt><trkpt lat="37.04066492563431" lon="14.700210755052634"><ele>520.0</ele><time>2026-04-04T10:59:05Z</time></trkpt><trkpt lat="37.04067406718351" lon="14.700082093454927"><ele>518.0</ele><time>2026-04-04T10:59:06Z</time></trkpt><trkpt lat="37.04069094859816" lon="14.699940700014835"><ele>516.4</ele><time>2026-04-04T10:59:07Z</time></trkpt><trkpt lat="37.04070103550013" lon="14.69979607394808"><ele>514.8</ele><time>2026-04-04T10:59:08Z</time></trkpt><trkpt lat="37.040720842606966" lon="14.699657730110948"><ele>513.2</ele><time>2026-04-04T10:59:09Z</time></trkpt><trkpt lat="37.04071851505658" lon="14.699527632204"><ele>511.6</ele><time>2026-04-04T10:59:10Z</time></trkpt><trkpt lat="37.04073037183215" lon="14.699392786626392"><ele>510.0</ele><time>2026-04-04T10:59:11Z</time></trkpt><trkpt lat="37.04073207160829" lon="14.699246506726666"><ele>508.0</ele><time>2026-04-04T10:59:12Z</time></trkpt><trkpt lat="37.04072473978526" lon="14.69909879567086"><ele>506.0</ele><time>2026-04-04T10:59:13Z</time></trkpt><trkpt lat="37.040715855444724" lon="14.698957308466195"><ele>504.0</ele><time>2026-04-04T10:59:14Z</time></trkpt><trkpt lat="37.04070952639399" lon="14.698815911013577"><ele>502.0</ele><time>2026-04-04T10:59:15Z</time></trkpt><trkpt lat="37.040704578874646" lon="14.698668531643946"><ele>500.6</ele><time>2026-04-04T10:59:16Z</time></trkpt><trkpt lat="37.04070465789873" lon="14.698537606640905"><ele>499.20000000000005</ele><time>2026-04-04T10:59:17Z</time></trkpt><trkpt lat="37.04070495778388" lon="14.69841690699169"><ele>497.8</ele><time>2026-04-04T10:59:18Z</time></trkpt><trkpt lat="37.04070052524591" lon="14.698287681745633"><ele>496.4</ele><time>2026-04-04T10:59:19Z</time></trkpt><trkpt lat="37.040696269754854" lon="14.69813471261208"><ele>495.0</ele><time>2026-04-04T10:59:20Z</time></trkpt><trkpt lat="37.04069400506714" lon="14.697923996263038"><ele>493.0</ele><time>2026-04-04T10:59:21Z</time></trkpt><trkpt lat="37.0406993963473" lon="14.697667784791465"><ele>491.0</ele><time>2026-04-04T10:59:22Z</time></trkpt><trkpt lat="37.040714748494615" lon="14.697371045988103"><ele>489.0</ele><time>2026-04-04T10:59:23Z</time></trkpt><trkpt lat="37.040735674460656" lon="14.697049686596005"><ele>485.0</ele><time>2026-04-04T10:59:24Z</time></trkpt><trkpt lat="37.04076243402237" lon="14.696731211290137"><ele>481.0</ele><time>2026-04-04T10:59:25Z</time></trkpt><trkpt lat="37.040775850008465" lon="14.696442437317453"><ele>481.0</ele><time>2026-04-04T10:59:26Z</time></trkpt><trkpt lat="37.04078261239742" lon="14.696194875365528"><ele>481.0</ele><time>2026-04-04T10:59:27Z</time></trkpt><trkpt lat="37.040787116669016" lon="14.695962170256198"><ele>481.0</ele><time>2026-04-04T10:59:28Z</time></trkpt><trkpt lat="37.040793069017134" lon="14.69573916667487"><ele>481.5</ele><time>2026-04-04T10:59:29Z</time></trkpt><trkpt lat="37.04080265831044" lon="14.695541314501018"><ele>482.0</ele><time>2026-04-04T10:59:30Z</time></trkpt><trkpt lat="37.040810435956224" lon="14.69537279717975"><ele>482.5</ele><time>2026-04-04T10:59:31Z</time></trkpt><trkpt lat="37.040817426216265" lon="14.695228578792621"><ele>483.0</ele><time>2026-04-04T10:59:32Z</time></trkpt><trkpt lat="37.040825914526394" lon="14.695111728153735"><ele>482.0</ele><time>2026-04-04T10:59:33Z</time></trkpt><trkpt lat="37.040827491692816" lon="14.695011074148043"><ele>481.0</ele><time>2026-04-04T10:59:34Z</time></trkpt><trkpt lat="37.04081884632783" lon="14.694923959333757"><ele>480.0</ele><time>2026-04-04T10:59:35Z</time></trkpt><trkpt lat="37.04080150117829" lon="14.69481976395295"><ele>479.0</ele><time>2026-04-04T10:59:37Z</time></trkpt><trkpt lat="37.04080699918798" lon="14.694724521634589"><ele>478.0</ele><time>2026-04-04T10:59:40Z</time></trkpt><trkpt lat="37.04076879874507" lon="14.694562968341259"><ele>477.0</ele><time>2026-04-04T10:59:42Z</time></trkpt><trkpt lat="37.04072033755136" lon="14.69449084425857"><ele>475.6</ele><time>2026-04-04T10:59:43Z</time></trkpt><trkpt lat="37.040650429132924" lon="14.694449593012667"><ele>474.20000000000005</ele><time>2026-04-04T10:59:44Z</time></trkpt><trkpt lat="37.040544595755634" lon="14.69444097817413"><ele>472.8</ele><time>2026-04-04T10:59:45Z</time></trkpt><trkpt lat="37.04042051637033" lon="14.694450878488894"><ele>471.4</ele><time>2026-04-04T10:59:46Z</time></trkpt><trkpt lat="37.04030797467763" lon="14.694447368259834"><ele>470.0</ele><time>2026-04-04T10:59:47Z</time></trkpt><trkpt lat="37.040208284647775" lon="14.694420912465038"><ele>470.2</ele><time>2026-04-04T10:59:48Z</time></trkpt><trkpt lat="37.04011957088468" lon="14.69437325052312"><ele>470.4</ele><time>2026-04-04T10:59:49Z</time></trkpt><trkpt lat="37.04003901312276" lon="14.694301483290378"><ele>470.6</ele><time>2026-04-04T10:59:50Z</time></trkpt><trkpt lat="37.03996377473057" lon="14.694201849165966"><ele>470.8</ele><time>2026-04-04T10:59:51Z</time></trkpt><trkpt lat="37.03990879596753" lon="14.694094040245064"><ele>471.0</ele><time>2026-04-04T10:59:52Z</time></trkpt><trkpt lat="37.03988062948577" lon="14.693982838196119"><ele>471.0</ele><time>2026-04-04T10:59:53Z</time></trkpt><trkpt lat="37.039879274760224" lon="14.69386516346328"><ele>471.0</ele><time>2026-04-04T10:59:54Z</time></trkpt><trkpt lat="37.039912764250566" lon="14.693748792989531"><ele>471.0</ele><time>2026-04-04T10:59:55Z</time></trkpt><trkpt lat="37.03996874096546" lon="14.693650040363138"><ele>471.0</ele><time>2026-04-04T10:59:56Z</time></trkpt><trkpt lat="37.04003147677286" lon="14.693588121427084"><ele>471.0</ele><time>2026-04-04T10:59:57Z</time></trkpt><trkpt lat="37.04006373330502" lon="14.693492514745914"><ele>471.0</ele><time>2026-04-04T10:59:59Z</time></trkpt><trkpt lat="37.04000059572251" lon="14.69343695864932"><ele>471.0</ele><time>2026-04-04T11:00:01Z</time></trkpt><trkpt lat="37.03989630927463" lon="14.693456771944822"><ele>471.0</ele><time>2026-04-04T11:00:03Z</time></trkpt><trkpt lat="37.039759456768074" lon="14.693495816420086"><ele>471.0</ele><time>2026-04-04T11:00:05Z</time></trkpt><trkpt lat="37.03962321148754" lon="14.693532703064257"><ele>471.0</ele><time>2026-04-04T11:00:06Z</time></trkpt><trkpt lat="37.03947840801075" lon="14.693574004115574"><ele>471.0</ele><time>2026-04-04T11:00:07Z</time></trkpt><trkpt lat="37.03930860486832" lon="14.693621522078608"><ele>471.0</ele><time>2026-04-04T11:00:08Z</time></trkpt><trkpt lat="37.03912256684088" lon="14.693680195404246"><ele>474.66666666666663</ele><time>2026-04-04T11:00:09Z</time></trkpt><trkpt lat="37.0389163648113" lon="14.693731835743531"><ele>478.3333333333333</ele><time>2026-04-04T11:00:10Z</time></trkpt><trkpt lat="37.038744057669476" lon="14.693768420001403"><ele>482.0</ele><time>2026-04-04T11:00:11Z</time></trkpt><trkpt lat="37.038588318887925" lon="14.693799520185756"><ele>482.0</ele><time>2026-04-04T11:00:12Z</time></trkpt><trkpt lat="37.03843716194777" lon="14.693834091474706"><ele>482.0</ele><time>2026-04-04T11:00:13Z</time></trkpt><trkpt lat="37.03829113802214" lon="14.693862057838034"><ele>482.0</ele><time>2026-04-04T11:00:14Z</time></trkpt><trkpt lat="37.03815690731154" lon="14.69388400866254"><ele>482.0</ele><time>2026-04-04T11:00:15Z</time></trkpt><trkpt lat="37.038062816522505" lon="14.693899419330318"><ele>484.40000000000003</ele><time>2026-04-04T11:00:16Z</time></trkpt><trkpt lat="37.037975679653535" lon="14.693901589122968"><ele>486.80000000000007</ele><time>2026-04-04T11:00:17Z</time></trkpt><trkpt lat="37.037901710291045" lon="14.693857241651296"><ele>489.2</ele><time>2026-04-04T11:00:18Z</time></trkpt><trkpt lat="37.0378354416984" lon="14.693777646821651"><ele>491.6</ele><time>2026-04-04T11:00:19Z</time></trkpt><trkpt lat="37.037780821818735" lon="14.693672239641998"><ele>494.0</ele><time>2026-04-04T11:00:20Z</time></trkpt><trkpt lat="37.037734458052654" lon="14.69357056810867"><ele>493.99999999999994</ele><time>2026-04-04T11:00:21Z</time></trkpt><trkpt lat="37.037699335527435" lon="14.693488985744423"><ele>494.0</ele><time>2026-04-04T11:00:22Z</time></trkpt><trkpt lat="37.03768526002383" lon="14.69335294585196"><ele>494.0</ele><time>2026-04-04T11:00:24Z</time></trkpt><trkpt lat="37.03769405587207" lon="14.693253428287697"><ele>494.0</ele><time>2026-04-04T11:00:26Z</time></trkpt><trkpt lat="37.03771024436485" lon="14.693148141131228"><ele>493.99999999999994</ele><time>2026-04-04T11:00:32Z</time></trkpt><trkpt lat="37.0377563422212" lon="14.693080242526399"><ele>494.0</ele><time>2026-04-04T11:00:33Z</time></trkpt><trkpt lat="37.037818381777065" lon="14.693008531961505"><ele>494.0</ele><time>2026-04-04T11:00:34Z</time></trkpt><trkpt lat="37.03789296750901" lon="14.692933911340528"><ele>494.0</ele><time>2026-04-04T11:00:35Z</time></trkpt><trkpt lat="37.0379666626838" lon="14.692845792992825"><ele>494.0</ele><time>2026-04-04T11:00:36Z</time></trkpt><trkpt lat="37.038043106987644" lon="14.692753758738151"><ele>494.0</ele><time>2026-04-04T11:00:37Z</time></trkpt><trkpt lat="37.03811672803947" lon="14.692662779551402"><ele>494.0</ele><time>2026-04-04T11:00:38Z</time></trkpt><trkpt lat="37.03818572082654" lon="14.692578704635656"><ele>492.5</ele><time>2026-04-04T11:00:39Z</time></trkpt><trkpt lat="37.03826001622611" lon="14.69248702616474"><ele>491.0</ele><time>2026-04-04T11:00:40Z</time></trkpt><trkpt lat="37.03833692902689" lon="14.692381403973322"><ele>489.5</ele><time>2026-04-04T11:00:41Z</time></trkpt><trkpt lat="37.03842494094448" lon="14.692275746213156"><ele>488.0</ele><time>2026-04-04T11:00:42Z</time></trkpt><trkpt lat="37.03850839801602" lon="14.692174541786672"><ele>486.5</ele><time>2026-04-04T11:00:43Z</time></trkpt><trkpt lat="37.03859453922396" lon="14.692075355205464"><ele>485.0</ele><time>2026-04-04T11:00:44Z</time></trkpt><trkpt lat="37.03867735293238" lon="14.691976513549761"><ele>483.5</ele><time>2026-04-04T11:00:45Z</time></trkpt><trkpt lat="37.03875949893289" lon="14.691872270622548"><ele>482.0</ele><time>2026-04-04T11:00:46Z</time></trkpt><trkpt lat="37.03883880388191" lon="14.691771968927526"><ele>481.25</ele><time>2026-04-04T11:00:47Z</time></trkpt><trkpt lat="37.03892578003899" lon="14.691662374733566"><ele>480.5</ele><time>2026-04-04T11:00:48Z</time></trkpt><trkpt lat="37.03901471800013" lon="14.691529890465386"><ele>479.75</ele><time>2026-04-04T11:00:49Z</time></trkpt><trkpt lat="37.03910302382141" lon="14.691394743582782"><ele>479.0</ele><time>2026-04-04T11:00:50Z</time></trkpt><trkpt lat="37.03918789181226" lon="14.691249091212203"><ele>477.5</ele><time>2026-04-04T11:00:51Z</time></trkpt><trkpt lat="37.0392652331251" lon="14.691101214977392"><ele>476.0</ele><time>2026-04-04T11:00:52Z</time></trkpt><trkpt lat="37.03934415115505" lon="14.690960344194858"><ele>474.5</ele><time>2026-04-04T11:00:53Z</time></trkpt><trkpt lat="37.03942490128876" lon="14.690831599533533"><ele>473.0</ele><time>2026-04-04T11:00:54Z</time></trkpt><trkpt lat="37.039501690498916" lon="14.690704130727877"><ele>472.25</ele><time>2026-04-04T11:00:55Z</time></trkpt><trkpt lat="37.039570941845604" lon="14.690571792469452"><ele>471.5</ele><time>2026-04-04T11:00:56Z</time></trkpt><trkpt lat="37.039648662522886" lon="14.690433259563356"><ele>470.75</ele><time>2026-04-04T11:00:57Z</time></trkpt><trkpt lat="37.03972396377907" lon="14.69027995537606"><ele>470.0</ele><time>2026-04-04T11:00:58Z</time></trkpt><trkpt lat="37.039790060246624" lon="14.690128576347837"><ele>468.25</ele><time>2026-04-04T11:00:59Z</time></trkpt><trkpt lat="37.03985663294024" lon="14.689982037314167"><ele>466.5</ele><time>2026-04-04T11:01:00Z</time></trkpt><trkpt lat="37.03992175150869" lon="14.689853231317"><ele>464.75</ele><time>2026-04-04T11:01:01Z</time></trkpt><trkpt lat="37.03996687579765" lon="14.689736355280724"><ele>463.0</ele><time>2026-04-04T11:01:02Z</time></trkpt><trkpt lat="37.040037118532936" lon="14.689654704053877"><ele>461.59999999999997</ele><time>2026-04-04T11:01:03Z</time></trkpt><trkpt lat="37.04009626222364" lon="14.68958122023493"><ele>460.19999999999993</ele><time>2026-04-04T11:01:04Z</time></trkpt><trkpt lat="37.04017448299131" lon="14.689478889037817"><ele>458.8</ele><time>2026-04-04T11:01:06Z</time></trkpt><trkpt lat="37.04021222245608" lon="14.689402469623788"><ele>457.4</ele><time>2026-04-04T11:01:08Z</time></trkpt><trkpt lat="37.040114871974616" lon="14.689256497157336"><ele>456.0</ele><time>2026-04-04T11:01:11Z</time></trkpt><trkpt lat="37.040056257140975" lon="14.689189447961914"><ele>455.6666666666667</ele><time>2026-04-04T11:01:12Z</time></trkpt><trkpt lat="37.040023281533216" lon="14.689118052634516"><ele>455.33333333333337</ele><time>2026-04-04T11:01:13Z</time></trkpt><trkpt lat="37.03997710166336" lon="14.688994797723568"><ele>455.0</ele><time>2026-04-04T11:01:15Z</time></trkpt><trkpt lat="37.03995487954674" lon="14.688916677632804"><ele>454.6666666666667</ele><time>2026-04-04T11:01:16Z</time></trkpt><trkpt lat="37.03992779368966" lon="14.68882605740975"><ele>454.33333333333337</ele><time>2026-04-04T11:01:17Z</time></trkpt><trkpt lat="37.03990716581512" lon="14.688729884762676"><ele>454.0</ele><time>2026-04-04T11:01:18Z</time></trkpt><trkpt lat="37.03989315765397" lon="14.68863452165857"><ele>452.83333333333337</ele><time>2026-04-04T11:01:19Z</time></trkpt><trkpt lat="37.03987519852661" lon="14.688537574507453"><ele>451.6666666666667</ele><time>2026-04-04T11:01:20Z</time></trkpt><trkpt lat="37.03985350515231" lon="14.688428722091045"><ele>450.5</ele><time>2026-04-04T11:01:21Z</time></trkpt><trkpt lat="37.03983603940873" lon="14.68832795338114"><ele>449.33333333333337</ele><time>2026-04-04T11:01:22Z</time></trkpt><trkpt lat="37.03981871223938" lon="14.688229790795104"><ele>448.1666666666667</ele><time>2026-04-04T11:01:23Z</time></trkpt><trkpt lat="37.039801696082506" lon="14.688136816096733"><ele>447.0</ele><time>2026-04-04T11:01:24Z</time></trkpt><trkpt lat="37.039785912421245" lon="14.688051931611884"><ele>447.0</ele><time>2026-04-04T11:01:25Z</time></trkpt><trkpt lat="37.039775346740754" lon="14.687966992399048"><ele>447.0</ele><time>2026-04-04T11:01:26Z</time></trkpt><trkpt lat="37.03976334736981" lon="14.687872182252905"><ele>447.0</ele><time>2026-04-04T11:01:27Z</time></trkpt><trkpt lat="37.039765246110385" lon="14.6877782045562"><ele>447.0</ele><time>2026-04-04T11:01:28Z</time></trkpt><trkpt lat="37.039771707898566" lon="14.687679899026232"><ele>447.0</ele><time>2026-04-04T11:01:29Z</time></trkpt><trkpt lat="37.039785192946745" lon="14.687578089263669"><ele>447.0</ele><time>2026-04-04T11:01:30Z</time></trkpt><trkpt lat="37.03979866289905" lon="14.687491068761625"><ele>446.85714285714283</ele><time>2026-04-04T11:01:31Z</time></trkpt><trkpt lat="37.03981038967125" lon="14.687400807390134"><ele>446.7142857142857</ele><time>2026-04-04T11:01:32Z</time></trkpt><trkpt lat="37.03981414649" lon="14.687313518197245"><ele>446.57142857142856</ele><time>2026-04-04T11:01:33Z</time></trkpt><trkpt lat="37.03982349658977" lon="14.687220359960454"><ele>446.42857142857144</ele><time>2026-04-04T11:01:34Z</time></trkpt><trkpt lat="37.03983321621307" lon="14.687130227251258"><ele>446.2857142857143</ele><time>2026-04-04T11:01:35Z</time></trkpt><trkpt lat="37.03984183418123" lon="14.687045065992951"><ele>446.1428571428571</ele><time>2026-04-04T11:01:36Z</time></trkpt><trkpt lat="37.03984174204193" lon="14.686962264578057"><ele>446.0</ele><time>2026-04-04T11:01:37Z</time></trkpt><trkpt lat="37.03984884284576" lon="14.686824319402081"><ele>445.16666666666663</ele><time>2026-04-04T11:01:39Z</time></trkpt><trkpt lat="37.039856943565034" lon="14.686704053880442"><ele>444.3333333333333</ele><time>2026-04-04T11:01:41Z</time></trkpt><trkpt lat="37.039871924223426" lon="14.6865957822892"><ele>443.5</ele><time>2026-04-04T11:01:43Z</time></trkpt><trkpt lat="37.03987340383887" lon="14.686483342073819"><ele>442.66666666666663</ele><time>2026-04-04T11:01:45Z</time></trkpt><trkpt lat="37.03988171981253" lon="14.686381377344766"><ele>441.8333333333333</ele><time>2026-04-04T11:01:47Z</time></trkpt><trkpt lat="37.03988040464878" lon="14.686281915586871"><ele>441.0</ele><time>2026-04-04T11:01:49Z</time></trkpt><trkpt lat="37.039886897228016" lon="14.686194633261106"><ele>441.0</ele><time>2026-04-04T11:01:52Z</time></trkpt><trkpt lat="37.03989161332351" lon="14.686111542980106"><ele>441.0</ele><time>2026-04-04T11:01:53Z</time></trkpt><trkpt lat="37.03989440991719" lon="14.686030919115815"><ele>441.0</ele><time>2026-04-04T11:01:54Z</time></trkpt><trkpt lat="37.03988494313572" lon="14.685933139339415"><ele>441.0</ele><time>2026-04-04T11:01:56Z</time></trkpt><trkpt lat="37.03987034078651" lon="14.685834665604231"><ele>441.0</ele><time>2026-04-04T11:01:58Z</time></trkpt><trkpt lat="37.03985558050681" lon="14.685728569508935"><ele>441.0</ele><time>2026-04-04T11:02:00Z</time></trkpt><trkpt lat="37.03984810637631" lon="14.685620616525423"><ele>439.8333333333333</ele><time>2026-04-04T11:02:02Z</time></trkpt><trkpt lat="37.039849295376705" lon="14.68553574799991"><ele>438.66666666666663</ele><time>2026-04-04T11:02:06Z</time></trkpt><trkpt lat="37.039813652916074" lon="14.68544720843946"><ele>437.5</ele><time>2026-04-04T11:02:08Z</time></trkpt><trkpt lat="37.039799896188775" lon="14.6853559631293"><ele>436.3333333333333</ele><time>2026-04-04T11:02:10Z</time></trkpt><trkpt lat="37.039768994692885" lon="14.685252336079051"><ele>435.16666666666663</ele><time>2026-04-04T11:02:13Z</time></trkpt><trkpt lat="37.03974261670122" lon="14.685141166874024"><ele>434.0</ele><time>2026-04-04T11:02:16Z</time></trkpt><trkpt lat="37.03972316773548" lon="14.685036906113266"><ele>433.3333333333333</ele><time>2026-04-04T11:02:19Z</time></trkpt><trkpt lat="37.0397117279218" lon="14.684953233833875"><ele>432.66666666666663</ele><time>2026-04-04T11:02:30Z</time></trkpt><trkpt lat="37.03969522242962" lon="14.684845799549578"><ele>432.0</ele><time>2026-04-04T11:02:35Z</time></trkpt><trkpt lat="37.03967247718291" lon="14.684716906202926"><ele>431.33333333333337</ele><time>2026-04-04T11:02:38Z</time></trkpt><trkpt lat="37.03964592352283" lon="14.684581982805748"><ele>430.6666666666667</ele><time>2026-04-04T11:02:39Z</time></trkpt><trkpt lat="37.03963593680485" lon="14.684497635155044"><ele>430.0</ele><time>2026-04-04T11:02:41Z</time></trkpt><trkpt lat="37.039614572224316" lon="14.684405416753465"><ele>429.00000000000006</ele><time>2026-04-04T11:02:43Z</time></trkpt><trkpt lat="37.03966657860241" lon="14.684348663253925"><ele>428.0</ele><time>2026-04-04T11:02:47Z</time></trkpt><trkpt lat="37.039726671147605" lon="14.68426067257769"><ele>427.0</ele><time>2026-04-04T11:02:50Z</time></trkpt><trkpt lat="37.039715793332306" lon="14.684164944708181"><ele>426.0</ele><time>2026-04-04T11:02:54Z</time></trkpt><trkpt lat="37.03962976276125" lon="14.684078818024249"><ele>425.00000000000006</ele><time>2026-04-04T11:02:55Z</time></trkpt><trkpt lat="37.039581192041005" lon="14.684025769365729"><ele>424.0</ele><time>2026-04-04T11:02:56Z</time></trkpt><trkpt lat="37.0394672892945" lon="14.683957779774692"><ele>424.0</ele><time>2026-04-04T11:02:57Z</time></trkpt><trkpt lat="37.03931463667974" lon="14.683842734905225"><ele>424.0</ele><time>2026-04-04T11:02:58Z</time></trkpt><trkpt lat="37.039266029335494" lon="14.683754075228892"><ele>424.0</ele><time>2026-04-04T11:02:59Z</time></trkpt><trkpt lat="37.039181739326686" lon="14.683609041645383"><ele>424.0</ele><time>2026-04-04T11:03:00Z</time></trkpt><trkpt lat="37.03915121996045" lon="14.683444522706006"><ele>423.33333333333337</ele><time>2026-04-04T11:03:01Z</time></trkpt><trkpt lat="37.03913745967851" lon="14.683249290640445"><ele>422.66666666666663</ele><time>2026-04-04T11:03:02Z</time></trkpt><trkpt lat="37.03910705004629" lon="14.683032434625934"><ele>422.0</ele><time>2026-04-04T11:03:03Z</time></trkpt><trkpt lat="37.03905272482021" lon="14.682862374237871"><ele>423.5</ele><time>2026-04-04T11:03:04Z</time></trkpt><trkpt lat="37.03898584923102" lon="14.68270112081786"><ele>425.0</ele><time>2026-04-04T11:03:05Z</time></trkpt><trkpt lat="37.03892499723231" lon="14.682568397901969"><ele>426.5</ele><time>2026-04-04T11:03:06Z</time></trkpt><trkpt lat="37.03886352259046" lon="14.682446868735846"><ele>428.0</ele><time>2026-04-04T11:03:07Z</time></trkpt><trkpt lat="37.03881195108652" lon="14.682357204276675"><ele>428.0</ele><time>2026-04-04T11:03:08Z</time></trkpt><trkpt lat="37.03876733800853" lon="14.682274241868328"><ele>427.99999999999994</ele><time>2026-04-04T11:03:09Z</time></trkpt><trkpt lat="37.03872306163098" lon="14.682191616440553"><ele>427.99999999999994</ele><time>2026-04-04T11:03:10Z</time></trkpt><trkpt lat="37.038678000836306" lon="14.682091575553262"><ele>428.0</ele><time>2026-04-04T11:03:11Z</time></trkpt><trkpt lat="37.038643122448164" lon="14.681969793925333"><ele>428.0</ele><time>2026-04-04T11:03:12Z</time></trkpt><trkpt lat="37.03861620137141" lon="14.681820095693089"><ele>426.66666666666663</ele><time>2026-04-04T11:03:13Z</time></trkpt><trkpt lat="37.03861821176539" lon="14.681656215805678"><ele>425.33333333333337</ele><time>2026-04-04T11:03:14Z</time></trkpt><trkpt lat="37.03863088819624" lon="14.681450018591502"><ele>424.0</ele><time>2026-04-04T11:03:15Z</time></trkpt><trkpt lat="37.038648146342304" lon="14.681205842253416"><ele>422.0</ele><time>2026-04-04T11:03:16Z</time></trkpt><trkpt lat="37.03866070158976" lon="14.680976937158759"><ele>420.0</ele><time>2026-04-04T11:03:17Z</time></trkpt><trkpt lat="37.038670260962" lon="14.680788177272177"><ele>418.0</ele><time>2026-04-04T11:03:18Z</time></trkpt><trkpt lat="37.03868167429756" lon="14.680616976234262"><ele>418.0</ele><time>2026-04-04T11:03:19Z</time></trkpt><trkpt lat="37.038709518644886" lon="14.680447464996803"><ele>418.0</ele><time>2026-04-04T11:03:20Z</time></trkpt><trkpt lat="37.038760914064696" lon="14.680284441294281"><ele>418.0</ele><time>2026-04-04T11:03:21Z</time></trkpt><trkpt lat="37.038819145105045" lon="14.680112056920995"><ele>418.0</ele><time>2026-04-04T11:03:22Z</time></trkpt><trkpt lat="37.03886584117773" lon="14.679917786867078"><ele>417.25</ele><time>2026-04-04T11:03:23Z</time></trkpt><trkpt lat="37.038910416805905" lon="14.679750921108301"><ele>416.5</ele><time>2026-04-04T11:03:24Z</time></trkpt><trkpt lat="37.038960363778116" lon="14.679584611504753"><ele>415.75</ele><time>2026-04-04T11:03:25Z</time></trkpt><trkpt lat="37.03901124371503" lon="14.679435420001932"><ele>415.0</ele><time>2026-04-04T11:03:26Z</time></trkpt><trkpt lat="37.03907304730507" lon="14.679275964684265"><ele>414.0</ele><time>2026-04-04T11:03:27Z</time></trkpt><trkpt lat="37.039117020302186" lon="14.679121074629611"><ele>413.0</ele><time>2026-04-04T11:03:28Z</time></trkpt><trkpt lat="37.03917157301815" lon="14.67897623986216"><ele>412.0</ele><time>2026-04-04T11:03:29Z</time></trkpt><trkpt lat="37.039223289636126" lon="14.678859171862367"><ele>411.0</ele><time>2026-04-04T11:03:30Z</time></trkpt><trkpt lat="37.03926820619403" lon="14.678751886395778"><ele>410.5</ele><time>2026-04-04T11:03:31Z</time></trkpt><trkpt lat="37.03930943528918" lon="14.678641581344703"><ele>410.0</ele><time>2026-04-04T11:03:32Z</time></trkpt><trkpt lat="37.039343308987455" lon="14.678536253002775"><ele>409.5</ele><time>2026-04-04T11:03:33Z</time></trkpt><trkpt lat="37.03937676093386" lon="14.678438060805556"><ele>409.0</ele><time>2026-04-04T11:03:34Z</time></trkpt><trkpt lat="37.03940693691208" lon="14.678349509607644"><ele>408.5</ele><time>2026-04-04T11:03:35Z</time></trkpt><trkpt lat="37.03943707280112" lon="14.678265153002203"><ele>408.0</ele><time>2026-04-04T11:03:36Z</time></trkpt><trkpt lat="37.0394809364628" lon="14.678154811748936"><ele>405.0</ele><time>2026-04-04T11:03:38Z</time></trkpt><trkpt lat="37.03958896148306" lon="14.678141151117831"><ele>405.0</ele><time>2026-04-04T11:03:41Z</time></trkpt></trkseg></trk></gpx>